<?xml version="1.0" encoding="UTF-8" standalone="no" ?>
<gpx xmlns="http://www.topografix.com/GPX/1/1" xmlns:xsi="http://www.w3.org/2001/XMLSchema-instance" xsi:schemaLocation="http://www.topografix.com/GPX/1/1 http://www.topografix.com/GPX/1/1/gpx.xsd" version="1.1" creator="VisuGPX - https://www.visugpx.com">
  <metadata>
    <name>Mercredi 23 juin</name>
  </metadata>
  <trk>
    <name><![CDATA[Mercredi 23 juin_1]]></name>
    <trkseg>
      <trkpt lat="48.0844" lon="7.27047">
        <ele>239.8</ele>
        <time>2021-06-23T05:45:13Z</time>
      </trkpt>
      <trkpt lat="48.0844" lon="7.27047">
        <ele>239.8</ele>
        <time>2021-06-23T05:45:14Z</time>
      </trkpt>
      <trkpt lat="48.08442" lon="7.27047">
        <ele>239.6</ele>
        <time>2021-06-23T05:45:25Z</time>
      </trkpt>
      <trkpt lat="48.08446" lon="7.27047">
        <ele>239.6</ele>
        <time>2021-06-23T05:45:27Z</time>
      </trkpt>
      <trkpt lat="48.08469" lon="7.27047">
        <ele>239.6</ele>
        <time>2021-06-23T05:45:35Z</time>
      </trkpt>
      <trkpt lat="48.0848" lon="7.27051">
        <ele>239.8</ele>
        <time>2021-06-23T05:45:39Z</time>
      </trkpt>
      <trkpt lat="48.08481" lon="7.27055">
        <ele>239.8</ele>
        <time>2021-06-23T05:45:40Z</time>
      </trkpt>
      <trkpt lat="48.08482" lon="7.27059">
        <ele>239.8</ele>
        <time>2021-06-23T05:45:41Z</time>
      </trkpt>
      <trkpt lat="48.08488" lon="7.27065">
        <ele>239.6</ele>
        <time>2021-06-23T05:45:43Z</time>
      </trkpt>
      <trkpt lat="48.08502" lon="7.27079">
        <ele>239.4</ele>
        <time>2021-06-23T05:45:47Z</time>
      </trkpt>
      <trkpt lat="48.08503" lon="7.27086">
        <ele>239.4</ele>
        <time>2021-06-23T05:45:48Z</time>
      </trkpt>
      <trkpt lat="48.08495" lon="7.27115">
        <ele>239</ele>
        <time>2021-06-23T05:45:52Z</time>
      </trkpt>
      <trkpt lat="48.08491" lon="7.27129">
        <ele>238.6</ele>
        <time>2021-06-23T05:45:54Z</time>
      </trkpt>
      <trkpt lat="48.08485" lon="7.27149">
        <ele>238.4</ele>
        <time>2021-06-23T05:45:57Z</time>
      </trkpt>
      <trkpt lat="48.08483" lon="7.27156">
        <ele>238.2</ele>
        <time>2021-06-23T05:45:58Z</time>
      </trkpt>
      <trkpt lat="48.08482" lon="7.27162">
        <ele>238.2</ele>
        <time>2021-06-23T05:45:59Z</time>
      </trkpt>
      <trkpt lat="48.0848" lon="7.27174">
        <ele>238.2</ele>
        <time>2021-06-23T05:46:01Z</time>
      </trkpt>
      <trkpt lat="48.08481" lon="7.27186">
        <ele>238.2</ele>
        <time>2021-06-23T05:46:03Z</time>
      </trkpt>
      <trkpt lat="48.08486" lon="7.27218">
        <ele>238</ele>
        <time>2021-06-23T05:46:08Z</time>
      </trkpt>
      <trkpt lat="48.08488" lon="7.27223">
        <ele>238</ele>
        <time>2021-06-23T05:46:09Z</time>
      </trkpt>
      <trkpt lat="48.08492" lon="7.27228">
        <ele>238</ele>
        <time>2021-06-23T05:46:10Z</time>
      </trkpt>
      <trkpt lat="48.08504" lon="7.27238">
        <ele>238</ele>
        <time>2021-06-23T05:46:13Z</time>
      </trkpt>
      <trkpt lat="48.08508" lon="7.27242">
        <ele>237.8</ele>
        <time>2021-06-23T05:46:14Z</time>
      </trkpt>
      <trkpt lat="48.08518" lon="7.27252">
        <ele>237.8</ele>
        <time>2021-06-23T05:46:18Z</time>
      </trkpt>
      <trkpt lat="48.08532" lon="7.27247">
        <ele>237.4</ele>
        <time>2021-06-23T05:46:23Z</time>
      </trkpt>
      <trkpt lat="48.08533" lon="7.27245">
        <ele>237.6</ele>
        <time>2021-06-23T05:46:24Z</time>
      </trkpt>
      <trkpt lat="48.08538" lon="7.27222">
        <ele>237.8</ele>
        <time>2021-06-23T05:46:30Z</time>
      </trkpt>
      <trkpt lat="48.08538" lon="7.27195">
        <ele>238</ele>
        <time>2021-06-23T05:46:35Z</time>
      </trkpt>
      <trkpt lat="48.08538" lon="7.27187">
        <ele>238</ele>
        <time>2021-06-23T05:46:36Z</time>
      </trkpt>
      <trkpt lat="48.0854" lon="7.27155">
        <ele>238.2</ele>
        <time>2021-06-23T05:46:41Z</time>
      </trkpt>
      <trkpt lat="48.0854" lon="7.27142">
        <ele>238.4</ele>
        <time>2021-06-23T05:46:43Z</time>
      </trkpt>
      <trkpt lat="48.08541" lon="7.27128">
        <ele>238.4</ele>
        <time>2021-06-23T05:46:45Z</time>
      </trkpt>
      <trkpt lat="48.08541" lon="7.27107">
        <ele>238.6</ele>
        <time>2021-06-23T05:46:48Z</time>
      </trkpt>
      <trkpt lat="48.08541" lon="7.2707">
        <ele>239</ele>
        <time>2021-06-23T05:46:54Z</time>
      </trkpt>
      <trkpt lat="48.08542" lon="7.27052">
        <ele>239.8</ele>
        <time>2021-06-23T05:46:58Z</time>
      </trkpt>
      <trkpt lat="48.08542" lon="7.27047">
        <ele>240</ele>
        <time>2021-06-23T05:47:00Z</time>
      </trkpt>
      <trkpt lat="48.08542" lon="7.27042">
        <ele>240.4</ele>
        <time>2021-06-23T05:47:05Z</time>
      </trkpt>
      <trkpt lat="48.08551" lon="7.27042">
        <ele>240.6</ele>
        <time>2021-06-23T05:47:09Z</time>
      </trkpt>
      <trkpt lat="48.08572" lon="7.27048">
        <ele>240.6</ele>
        <time>2021-06-23T05:47:15Z</time>
      </trkpt>
      <trkpt lat="48.08577" lon="7.27047">
        <ele>240.8</ele>
        <time>2021-06-23T05:47:19Z</time>
      </trkpt>
      <trkpt lat="48.08579" lon="7.27045">
        <ele>240.8</ele>
        <time>2021-06-23T05:47:20Z</time>
      </trkpt>
      <trkpt lat="48.08582" lon="7.27037">
        <ele>240.8</ele>
        <time>2021-06-23T05:47:22Z</time>
      </trkpt>
      <trkpt lat="48.08584" lon="7.27">
        <ele>240.6</ele>
        <time>2021-06-23T05:47:28Z</time>
      </trkpt>
      <trkpt lat="48.08585" lon="7.26947">
        <ele>240.2</ele>
        <time>2021-06-23T05:47:35Z</time>
      </trkpt>
      <trkpt lat="48.08588" lon="7.26881">
        <ele>240</ele>
        <time>2021-06-23T05:47:44Z</time>
      </trkpt>
      <trkpt lat="48.08588" lon="7.26841">
        <ele>240</ele>
        <time>2021-06-23T05:47:49Z</time>
      </trkpt>
      <trkpt lat="48.08586" lon="7.26825">
        <ele>239.8</ele>
        <time>2021-06-23T05:47:51Z</time>
      </trkpt>
      <trkpt lat="48.08584" lon="7.26793">
        <ele>239.8</ele>
        <time>2021-06-23T05:47:55Z</time>
      </trkpt>
      <trkpt lat="48.08579" lon="7.26721">
        <ele>240</ele>
        <time>2021-06-23T05:48:04Z</time>
      </trkpt>
      <trkpt lat="48.08572" lon="7.26641">
        <ele>240.2</ele>
        <time>2021-06-23T05:48:14Z</time>
      </trkpt>
      <trkpt lat="48.08569" lon="7.26625">
        <ele>240.4</ele>
        <time>2021-06-23T05:48:16Z</time>
      </trkpt>
      <trkpt lat="48.08563" lon="7.26604">
        <ele>240.6</ele>
        <time>2021-06-23T05:48:19Z</time>
      </trkpt>
      <trkpt lat="48.08553" lon="7.26558">
        <ele>240.8</ele>
        <time>2021-06-23T05:48:25Z</time>
      </trkpt>
      <trkpt lat="48.08534" lon="7.26484">
        <ele>241</ele>
        <time>2021-06-23T05:48:35Z</time>
      </trkpt>
      <trkpt lat="48.08518" lon="7.26427">
        <ele>241.2</ele>
        <time>2021-06-23T05:48:43Z</time>
      </trkpt>
      <trkpt lat="48.08512" lon="7.26406">
        <ele>241.4</ele>
        <time>2021-06-23T05:48:46Z</time>
      </trkpt>
      <trkpt lat="48.08501" lon="7.2637">
        <ele>241.6</ele>
        <time>2021-06-23T05:48:51Z</time>
      </trkpt>
      <trkpt lat="48.08483" lon="7.26312">
        <ele>242.2</ele>
        <time>2021-06-23T05:48:59Z</time>
      </trkpt>
      <trkpt lat="48.08479" lon="7.26297">
        <ele>242.4</ele>
        <time>2021-06-23T05:49:01Z</time>
      </trkpt>
      <trkpt lat="48.08459" lon="7.26232">
        <ele>242.6</ele>
        <time>2021-06-23T05:49:10Z</time>
      </trkpt>
      <trkpt lat="48.08457" lon="7.26225">
        <ele>242.6</ele>
        <time>2021-06-23T05:49:11Z</time>
      </trkpt>
      <trkpt lat="48.08443" lon="7.26185">
        <ele>243.2</ele>
        <time>2021-06-23T05:49:17Z</time>
      </trkpt>
      <trkpt lat="48.0844" lon="7.26172">
        <ele>243.6</ele>
        <time>2021-06-23T05:49:19Z</time>
      </trkpt>
      <trkpt lat="48.08438" lon="7.26165">
        <ele>243.6</ele>
        <time>2021-06-23T05:49:20Z</time>
      </trkpt>
      <trkpt lat="48.08433" lon="7.26146">
        <ele>243.8</ele>
        <time>2021-06-23T05:49:23Z</time>
      </trkpt>
      <trkpt lat="48.0843" lon="7.2614">
        <ele>244</ele>
        <time>2021-06-23T05:49:24Z</time>
      </trkpt>
      <trkpt lat="48.08422" lon="7.26114">
        <ele>244.4</ele>
        <time>2021-06-23T05:49:28Z</time>
      </trkpt>
      <trkpt lat="48.08419" lon="7.261">
        <ele>244.6</ele>
        <time>2021-06-23T05:49:30Z</time>
      </trkpt>
      <trkpt lat="48.08418" lon="7.26093">
        <ele>244.8</ele>
        <time>2021-06-23T05:49:31Z</time>
      </trkpt>
      <trkpt lat="48.08409" lon="7.26046">
        <ele>245.6</ele>
        <time>2021-06-23T05:49:38Z</time>
      </trkpt>
      <trkpt lat="48.08408" lon="7.2604">
        <ele>245.8</ele>
        <time>2021-06-23T05:49:39Z</time>
      </trkpt>
      <trkpt lat="48.084" lon="7.25996">
        <ele>246.8</ele>
        <time>2021-06-23T05:49:46Z</time>
      </trkpt>
      <trkpt lat="48.08398" lon="7.25984">
        <ele>246.8</ele>
        <time>2021-06-23T05:49:48Z</time>
      </trkpt>
      <trkpt lat="48.08394" lon="7.2596">
        <ele>247.6</ele>
        <time>2021-06-23T05:49:52Z</time>
      </trkpt>
      <trkpt lat="48.08392" lon="7.25948">
        <ele>247.8</ele>
        <time>2021-06-23T05:49:54Z</time>
      </trkpt>
      <trkpt lat="48.0839" lon="7.25936">
        <ele>248.2</ele>
        <time>2021-06-23T05:49:56Z</time>
      </trkpt>
      <trkpt lat="48.08388" lon="7.25906">
        <ele>249</ele>
        <time>2021-06-23T05:50:01Z</time>
      </trkpt>
      <trkpt lat="48.08388" lon="7.25895">
        <ele>249.4</ele>
        <time>2021-06-23T05:50:03Z</time>
      </trkpt>
      <trkpt lat="48.08388" lon="7.25872">
        <ele>250.2</ele>
        <time>2021-06-23T05:50:07Z</time>
      </trkpt>
      <trkpt lat="48.08386" lon="7.2585">
        <ele>250.6</ele>
        <time>2021-06-23T05:50:11Z</time>
      </trkpt>
      <trkpt lat="48.08385" lon="7.25836">
        <ele>251.6</ele>
        <time>2021-06-23T05:50:14Z</time>
      </trkpt>
      <trkpt lat="48.08382" lon="7.25832">
        <ele>251.8</ele>
        <time>2021-06-23T05:50:15Z</time>
      </trkpt>
      <trkpt lat="48.08361" lon="7.25815">
        <ele>252.4</ele>
        <time>2021-06-23T05:50:21Z</time>
      </trkpt>
      <trkpt lat="48.08354" lon="7.25807">
        <ele>252.6</ele>
        <time>2021-06-23T05:50:23Z</time>
      </trkpt>
      <trkpt lat="48.08338" lon="7.2579">
        <ele>252.4</ele>
        <time>2021-06-23T05:50:27Z</time>
      </trkpt>
      <trkpt lat="48.08333" lon="7.25785">
        <ele>252.4</ele>
        <time>2021-06-23T05:50:28Z</time>
      </trkpt>
      <trkpt lat="48.08296" lon="7.25747">
        <ele>251.8</ele>
        <time>2021-06-23T05:50:36Z</time>
      </trkpt>
      <trkpt lat="48.08291" lon="7.25742">
        <ele>251.4</ele>
        <time>2021-06-23T05:50:37Z</time>
      </trkpt>
      <trkpt lat="48.08256" lon="7.25702">
        <ele>250.6</ele>
        <time>2021-06-23T05:50:44Z</time>
      </trkpt>
      <trkpt lat="48.08251" lon="7.25696">
        <ele>250.4</ele>
        <time>2021-06-23T05:50:45Z</time>
      </trkpt>
      <trkpt lat="48.0823" lon="7.25652">
        <ele>249.2</ele>
        <time>2021-06-23T05:50:51Z</time>
      </trkpt>
      <trkpt lat="48.08226" lon="7.25644">
        <ele>249</ele>
        <time>2021-06-23T05:50:52Z</time>
      </trkpt>
      <trkpt lat="48.08192" lon="7.25572">
        <ele>248.6</ele>
        <time>2021-06-23T05:51:02Z</time>
      </trkpt>
      <trkpt lat="48.08174" lon="7.25532">
        <ele>248.6</ele>
        <time>2021-06-23T05:51:08Z</time>
      </trkpt>
      <trkpt lat="48.0816" lon="7.25493">
        <ele>248.6</ele>
        <time>2021-06-23T05:51:13Z</time>
      </trkpt>
      <trkpt lat="48.08146" lon="7.25446">
        <ele>248.6</ele>
        <time>2021-06-23T05:51:19Z</time>
      </trkpt>
      <trkpt lat="48.08141" lon="7.2543">
        <ele>248.8</ele>
        <time>2021-06-23T05:51:21Z</time>
      </trkpt>
      <trkpt lat="48.08134" lon="7.25399">
        <ele>249</ele>
        <time>2021-06-23T05:51:25Z</time>
      </trkpt>
      <trkpt lat="48.08126" lon="7.25351">
        <ele>249.2</ele>
        <time>2021-06-23T05:51:31Z</time>
      </trkpt>
      <trkpt lat="48.08114" lon="7.25285">
        <ele>249.6</ele>
        <time>2021-06-23T05:51:39Z</time>
      </trkpt>
      <trkpt lat="48.0811" lon="7.25261">
        <ele>249.8</ele>
        <time>2021-06-23T05:51:42Z</time>
      </trkpt>
      <trkpt lat="48.08105" lon="7.25228">
        <ele>250.4</ele>
        <time>2021-06-23T05:51:46Z</time>
      </trkpt>
      <trkpt lat="48.08097" lon="7.25183">
        <ele>251</ele>
        <time>2021-06-23T05:51:52Z</time>
      </trkpt>
      <trkpt lat="48.08095" lon="7.25175">
        <ele>251</ele>
        <time>2021-06-23T05:51:53Z</time>
      </trkpt>
      <trkpt lat="48.08085" lon="7.25132">
        <ele>251.2</ele>
        <time>2021-06-23T05:51:59Z</time>
      </trkpt>
      <trkpt lat="48.08067" lon="7.25077">
        <ele>251.6</ele>
        <time>2021-06-23T05:52:07Z</time>
      </trkpt>
      <trkpt lat="48.08058" lon="7.25056">
        <ele>252</ele>
        <time>2021-06-23T05:52:10Z</time>
      </trkpt>
      <trkpt lat="48.08042" lon="7.25025">
        <ele>252.2</ele>
        <time>2021-06-23T05:52:15Z</time>
      </trkpt>
      <trkpt lat="48.08009" lon="7.2496">
        <ele>252.8</ele>
        <time>2021-06-23T05:52:25Z</time>
      </trkpt>
      <trkpt lat="48.08002" lon="7.24948">
        <ele>253.2</ele>
        <time>2021-06-23T05:52:27Z</time>
      </trkpt>
      <trkpt lat="48.07971" lon="7.2489">
        <ele>253.4</ele>
        <time>2021-06-23T05:52:36Z</time>
      </trkpt>
      <trkpt lat="48.07948" lon="7.24847">
        <ele>253.8</ele>
        <time>2021-06-23T05:52:43Z</time>
      </trkpt>
      <trkpt lat="48.07945" lon="7.24841">
        <ele>254</ele>
        <time>2021-06-23T05:52:44Z</time>
      </trkpt>
      <trkpt lat="48.07918" lon="7.24785">
        <ele>254.6</ele>
        <time>2021-06-23T05:52:53Z</time>
      </trkpt>
      <trkpt lat="48.07909" lon="7.24767">
        <ele>255</ele>
        <time>2021-06-23T05:52:56Z</time>
      </trkpt>
      <trkpt lat="48.07903" lon="7.24757">
        <ele>255.2</ele>
        <time>2021-06-23T05:52:58Z</time>
      </trkpt>
      <trkpt lat="48.07898" lon="7.24747">
        <ele>255.4</ele>
        <time>2021-06-23T05:53:00Z</time>
      </trkpt>
      <trkpt lat="48.07895" lon="7.24742">
        <ele>255.6</ele>
        <time>2021-06-23T05:53:01Z</time>
      </trkpt>
      <trkpt lat="48.07887" lon="7.24726">
        <ele>256.2</ele>
        <time>2021-06-23T05:53:04Z</time>
      </trkpt>
      <trkpt lat="48.07881" lon="7.24715">
        <ele>256.4</ele>
        <time>2021-06-23T05:53:06Z</time>
      </trkpt>
      <trkpt lat="48.07879" lon="7.2471">
        <ele>256.6</ele>
        <time>2021-06-23T05:53:07Z</time>
      </trkpt>
      <trkpt lat="48.07869" lon="7.24688">
        <ele>257.2</ele>
        <time>2021-06-23T05:53:11Z</time>
      </trkpt>
      <trkpt lat="48.07858" lon="7.24667">
        <ele>258</ele>
        <time>2021-06-23T05:53:15Z</time>
      </trkpt>
      <trkpt lat="48.07853" lon="7.24657">
        <ele>258.2</ele>
        <time>2021-06-23T05:53:17Z</time>
      </trkpt>
      <trkpt lat="48.07842" lon="7.24631">
        <ele>259</ele>
        <time>2021-06-23T05:53:22Z</time>
      </trkpt>
      <trkpt lat="48.07835" lon="7.24617">
        <ele>259.6</ele>
        <time>2021-06-23T05:53:25Z</time>
      </trkpt>
      <trkpt lat="48.07826" lon="7.24598">
        <ele>260</ele>
        <time>2021-06-23T05:53:29Z</time>
      </trkpt>
      <trkpt lat="48.07816" lon="7.2458">
        <ele>261.2</ele>
        <time>2021-06-23T05:53:33Z</time>
      </trkpt>
      <trkpt lat="48.07814" lon="7.24576">
        <ele>261.4</ele>
        <time>2021-06-23T05:53:34Z</time>
      </trkpt>
      <trkpt lat="48.07802" lon="7.2456">
        <ele>262.4</ele>
        <time>2021-06-23T05:53:38Z</time>
      </trkpt>
      <trkpt lat="48.07787" lon="7.24541">
        <ele>263</ele>
        <time>2021-06-23T05:53:43Z</time>
      </trkpt>
      <trkpt lat="48.0778" lon="7.24534">
        <ele>263.4</ele>
        <time>2021-06-23T05:53:45Z</time>
      </trkpt>
      <trkpt lat="48.07758" lon="7.24517">
        <ele>264.4</ele>
        <time>2021-06-23T05:53:51Z</time>
      </trkpt>
      <trkpt lat="48.07753" lon="7.24514">
        <ele>264.6</ele>
        <time>2021-06-23T05:53:52Z</time>
      </trkpt>
      <trkpt lat="48.07709" lon="7.24483">
        <ele>265</ele>
        <time>2021-06-23T05:54:03Z</time>
      </trkpt>
      <trkpt lat="48.077" lon="7.24477">
        <ele>265.2</ele>
        <time>2021-06-23T05:54:05Z</time>
      </trkpt>
      <trkpt lat="48.07688" lon="7.24468">
        <ele>265.6</ele>
        <time>2021-06-23T05:54:08Z</time>
      </trkpt>
      <trkpt lat="48.0768" lon="7.24463">
        <ele>265.8</ele>
        <time>2021-06-23T05:54:10Z</time>
      </trkpt>
      <trkpt lat="48.07643" lon="7.24436">
        <ele>266</ele>
        <time>2021-06-23T05:54:19Z</time>
      </trkpt>
      <trkpt lat="48.07613" lon="7.24415">
        <ele>266.6</ele>
        <time>2021-06-23T05:54:26Z</time>
      </trkpt>
      <trkpt lat="48.07596" lon="7.24402">
        <ele>267</ele>
        <time>2021-06-23T05:54:30Z</time>
      </trkpt>
      <trkpt lat="48.07584" lon="7.24392">
        <ele>267</ele>
        <time>2021-06-23T05:54:33Z</time>
      </trkpt>
      <trkpt lat="48.07572" lon="7.2438">
        <ele>267</ele>
        <time>2021-06-23T05:54:36Z</time>
      </trkpt>
      <trkpt lat="48.07569" lon="7.24376">
        <ele>267.2</ele>
        <time>2021-06-23T05:54:37Z</time>
      </trkpt>
      <trkpt lat="48.07562" lon="7.24367">
        <ele>267.4</ele>
        <time>2021-06-23T05:54:39Z</time>
      </trkpt>
      <trkpt lat="48.07559" lon="7.24362">
        <ele>267.8</ele>
        <time>2021-06-23T05:54:40Z</time>
      </trkpt>
      <trkpt lat="48.07549" lon="7.24348">
        <ele>268.2</ele>
        <time>2021-06-23T05:54:43Z</time>
      </trkpt>
      <trkpt lat="48.07535" lon="7.24325">
        <ele>268.8</ele>
        <time>2021-06-23T05:54:48Z</time>
      </trkpt>
      <trkpt lat="48.07522" lon="7.24306">
        <ele>269.2</ele>
        <time>2021-06-23T05:54:52Z</time>
      </trkpt>
      <trkpt lat="48.07507" lon="7.24282">
        <ele>269.8</ele>
        <time>2021-06-23T05:54:57Z</time>
      </trkpt>
      <trkpt lat="48.07498" lon="7.24268">
        <ele>270.2</ele>
        <time>2021-06-23T05:55:00Z</time>
      </trkpt>
      <trkpt lat="48.07481" lon="7.2424">
        <ele>271</ele>
        <time>2021-06-23T05:55:06Z</time>
      </trkpt>
      <trkpt lat="48.07472" lon="7.24226">
        <ele>271.4</ele>
        <time>2021-06-23T05:55:09Z</time>
      </trkpt>
      <trkpt lat="48.07461" lon="7.24205">
        <ele>272.2</ele>
        <time>2021-06-23T05:55:13Z</time>
      </trkpt>
      <trkpt lat="48.07452" lon="7.24182">
        <ele>272.6</ele>
        <time>2021-06-23T05:55:17Z</time>
      </trkpt>
      <trkpt lat="48.07444" lon="7.24158">
        <ele>273</ele>
        <time>2021-06-23T05:55:21Z</time>
      </trkpt>
      <trkpt lat="48.07443" lon="7.24152">
        <ele>273.2</ele>
        <time>2021-06-23T05:55:22Z</time>
      </trkpt>
      <trkpt lat="48.07441" lon="7.24146">
        <ele>273.2</ele>
        <time>2021-06-23T05:55:23Z</time>
      </trkpt>
      <trkpt lat="48.0744" lon="7.2414">
        <ele>273.4</ele>
        <time>2021-06-23T05:55:24Z</time>
      </trkpt>
      <trkpt lat="48.07432" lon="7.24106">
        <ele>274.2</ele>
        <time>2021-06-23T05:55:30Z</time>
      </trkpt>
      <trkpt lat="48.07429" lon="7.2409">
        <ele>274.8</ele>
        <time>2021-06-23T05:55:33Z</time>
      </trkpt>
      <trkpt lat="48.07427" lon="7.2408">
        <ele>275.2</ele>
        <time>2021-06-23T05:55:35Z</time>
      </trkpt>
      <trkpt lat="48.07422" lon="7.2406">
        <ele>276.4</ele>
        <time>2021-06-23T05:55:39Z</time>
      </trkpt>
      <trkpt lat="48.07419" lon="7.2405">
        <ele>276.6</ele>
        <time>2021-06-23T05:55:41Z</time>
      </trkpt>
      <trkpt lat="48.07415" lon="7.24036">
        <ele>277.4</ele>
        <time>2021-06-23T05:55:44Z</time>
      </trkpt>
      <trkpt lat="48.07413" lon="7.24022">
        <ele>278</ele>
        <time>2021-06-23T05:55:47Z</time>
      </trkpt>
      <trkpt lat="48.07411" lon="7.24013">
        <ele>278.6</ele>
        <time>2021-06-23T05:55:49Z</time>
      </trkpt>
      <trkpt lat="48.07405" lon="7.23992">
        <ele>279.2</ele>
        <time>2021-06-23T05:55:54Z</time>
      </trkpt>
      <trkpt lat="48.07404" lon="7.23987">
        <ele>279.6</ele>
        <time>2021-06-23T05:55:55Z</time>
      </trkpt>
      <trkpt lat="48.07399" lon="7.23958">
        <ele>280.8</ele>
        <time>2021-06-23T05:56:01Z</time>
      </trkpt>
      <trkpt lat="48.07398" lon="7.23949">
        <ele>281.2</ele>
        <time>2021-06-23T05:56:03Z</time>
      </trkpt>
      <trkpt lat="48.07395" lon="7.23935">
        <ele>282</ele>
        <time>2021-06-23T05:56:06Z</time>
      </trkpt>
      <trkpt lat="48.07389" lon="7.23912">
        <ele>283.2</ele>
        <time>2021-06-23T05:56:11Z</time>
      </trkpt>
      <trkpt lat="48.07387" lon="7.23903">
        <ele>283.6</ele>
        <time>2021-06-23T05:56:13Z</time>
      </trkpt>
      <trkpt lat="48.07383" lon="7.23887">
        <ele>284.4</ele>
        <time>2021-06-23T05:56:17Z</time>
      </trkpt>
      <trkpt lat="48.07375" lon="7.2386">
        <ele>285.4</ele>
        <time>2021-06-23T05:56:23Z</time>
      </trkpt>
      <trkpt lat="48.07367" lon="7.2384">
        <ele>286.8</ele>
        <time>2021-06-23T05:56:28Z</time>
      </trkpt>
      <trkpt lat="48.07364" lon="7.23836">
        <ele>286.8</ele>
        <time>2021-06-23T05:56:29Z</time>
      </trkpt>
      <trkpt lat="48.0735" lon="7.2382">
        <ele>287.6</ele>
        <time>2021-06-23T05:56:34Z</time>
      </trkpt>
      <trkpt lat="48.07344" lon="7.23813">
        <ele>287.8</ele>
        <time>2021-06-23T05:56:36Z</time>
      </trkpt>
      <trkpt lat="48.07319" lon="7.23789">
        <ele>288.4</ele>
        <time>2021-06-23T05:56:43Z</time>
      </trkpt>
      <trkpt lat="48.07315" lon="7.23785">
        <ele>288.4</ele>
        <time>2021-06-23T05:56:44Z</time>
      </trkpt>
      <trkpt lat="48.07307" lon="7.23778">
        <ele>288.6</ele>
        <time>2021-06-23T05:56:46Z</time>
      </trkpt>
      <trkpt lat="48.07303" lon="7.23774">
        <ele>288.8</ele>
        <time>2021-06-23T05:56:47Z</time>
      </trkpt>
      <trkpt lat="48.07295" lon="7.23766">
        <ele>289</ele>
        <time>2021-06-23T05:56:49Z</time>
      </trkpt>
      <trkpt lat="48.07286" lon="7.23762">
        <ele>289</ele>
        <time>2021-06-23T05:56:51Z</time>
      </trkpt>
      <trkpt lat="48.07281" lon="7.2376">
        <ele>289</ele>
        <time>2021-06-23T05:56:52Z</time>
      </trkpt>
      <trkpt lat="48.07232" lon="7.23739">
        <ele>289</ele>
        <time>2021-06-23T05:57:02Z</time>
      </trkpt>
      <trkpt lat="48.07188" lon="7.23725">
        <ele>288.4</ele>
        <time>2021-06-23T05:57:10Z</time>
      </trkpt>
      <trkpt lat="48.0715" lon="7.23712">
        <ele>287.8</ele>
        <time>2021-06-23T05:57:17Z</time>
      </trkpt>
      <trkpt lat="48.07138" lon="7.23706">
        <ele>287.4</ele>
        <time>2021-06-23T05:57:19Z</time>
      </trkpt>
      <trkpt lat="48.07115" lon="7.23689">
        <ele>287</ele>
        <time>2021-06-23T05:57:23Z</time>
      </trkpt>
      <trkpt lat="48.0711" lon="7.23684">
        <ele>287</ele>
        <time>2021-06-23T05:57:24Z</time>
      </trkpt>
      <trkpt lat="48.07089" lon="7.2366">
        <ele>286.4</ele>
        <time>2021-06-23T05:57:28Z</time>
      </trkpt>
      <trkpt lat="48.07065" lon="7.23626">
        <ele>285.2</ele>
        <time>2021-06-23T05:57:33Z</time>
      </trkpt>
      <trkpt lat="48.07042" lon="7.2358">
        <ele>284.2</ele>
        <time>2021-06-23T05:57:39Z</time>
      </trkpt>
      <trkpt lat="48.07038" lon="7.23573">
        <ele>284</ele>
        <time>2021-06-23T05:57:40Z</time>
      </trkpt>
      <trkpt lat="48.07015" lon="7.23525">
        <ele>284</ele>
        <time>2021-06-23T05:57:47Z</time>
      </trkpt>
      <trkpt lat="48.06991" lon="7.23477">
        <ele>284</ele>
        <time>2021-06-23T05:57:54Z</time>
      </trkpt>
      <trkpt lat="48.06964" lon="7.23413">
        <ele>284.2</ele>
        <time>2021-06-23T05:58:03Z</time>
      </trkpt>
      <trkpt lat="48.06942" lon="7.23346">
        <ele>285</ele>
        <time>2021-06-23T05:58:12Z</time>
      </trkpt>
      <trkpt lat="48.06932" lon="7.23317">
        <ele>285.2</ele>
        <time>2021-06-23T05:58:16Z</time>
      </trkpt>
      <trkpt lat="48.0692" lon="7.23291">
        <ele>285.6</ele>
        <time>2021-06-23T05:58:20Z</time>
      </trkpt>
      <trkpt lat="48.06895" lon="7.23251">
        <ele>286.2</ele>
        <time>2021-06-23T05:58:27Z</time>
      </trkpt>
      <trkpt lat="48.06891" lon="7.23246">
        <ele>286.2</ele>
        <time>2021-06-23T05:58:28Z</time>
      </trkpt>
      <trkpt lat="48.06861" lon="7.23218">
        <ele>286.6</ele>
        <time>2021-06-23T05:58:35Z</time>
      </trkpt>
      <trkpt lat="48.06838" lon="7.23202">
        <ele>287.4</ele>
        <time>2021-06-23T05:58:40Z</time>
      </trkpt>
      <trkpt lat="48.06819" lon="7.23191">
        <ele>287.8</ele>
        <time>2021-06-23T05:58:44Z</time>
      </trkpt>
      <trkpt lat="48.06791" lon="7.23173">
        <ele>288.4</ele>
        <time>2021-06-23T05:58:50Z</time>
      </trkpt>
      <trkpt lat="48.06772" lon="7.23161">
        <ele>288.8</ele>
        <time>2021-06-23T05:58:54Z</time>
      </trkpt>
      <trkpt lat="48.06757" lon="7.23153">
        <ele>289</ele>
        <time>2021-06-23T05:58:57Z</time>
      </trkpt>
      <trkpt lat="48.06743" lon="7.23144">
        <ele>289.2</ele>
        <time>2021-06-23T05:59:00Z</time>
      </trkpt>
      <trkpt lat="48.06719" lon="7.23129">
        <ele>289.6</ele>
        <time>2021-06-23T05:59:05Z</time>
      </trkpt>
      <trkpt lat="48.06697" lon="7.23115">
        <ele>290.2</ele>
        <time>2021-06-23T05:59:10Z</time>
      </trkpt>
      <trkpt lat="48.06678" lon="7.23104">
        <ele>290.6</ele>
        <time>2021-06-23T05:59:14Z</time>
      </trkpt>
      <trkpt lat="48.06668" lon="7.23098">
        <ele>290.8</ele>
        <time>2021-06-23T05:59:16Z</time>
      </trkpt>
      <trkpt lat="48.06645" lon="7.23085">
        <ele>291.4</ele>
        <time>2021-06-23T05:59:21Z</time>
      </trkpt>
      <trkpt lat="48.06624" lon="7.23075">
        <ele>291.8</ele>
        <time>2021-06-23T05:59:26Z</time>
      </trkpt>
      <trkpt lat="48.0662" lon="7.23073">
        <ele>292</ele>
        <time>2021-06-23T05:59:27Z</time>
      </trkpt>
      <trkpt lat="48.06607" lon="7.23068">
        <ele>292.6</ele>
        <time>2021-06-23T05:59:30Z</time>
      </trkpt>
      <trkpt lat="48.06587" lon="7.23063">
        <ele>293.4</ele>
        <time>2021-06-23T05:59:35Z</time>
      </trkpt>
      <trkpt lat="48.06583" lon="7.23062">
        <ele>293.6</ele>
        <time>2021-06-23T05:59:36Z</time>
      </trkpt>
      <trkpt lat="48.06563" lon="7.23056">
        <ele>294.8</ele>
        <time>2021-06-23T05:59:41Z</time>
      </trkpt>
      <trkpt lat="48.06551" lon="7.23052">
        <ele>295</ele>
        <time>2021-06-23T05:59:44Z</time>
      </trkpt>
      <trkpt lat="48.0654" lon="7.23048">
        <ele>295.8</ele>
        <time>2021-06-23T05:59:47Z</time>
      </trkpt>
      <trkpt lat="48.0653" lon="7.23041">
        <ele>296.2</ele>
        <time>2021-06-23T05:59:50Z</time>
      </trkpt>
      <trkpt lat="48.06516" lon="7.23032">
        <ele>297</ele>
        <time>2021-06-23T05:59:54Z</time>
      </trkpt>
      <trkpt lat="48.06502" lon="7.23023">
        <ele>297.8</ele>
        <time>2021-06-23T05:59:58Z</time>
      </trkpt>
      <trkpt lat="48.06496" lon="7.23018">
        <ele>298.2</ele>
        <time>2021-06-23T06:00:00Z</time>
      </trkpt>
      <trkpt lat="48.06476" lon="7.22996">
        <ele>299.6</ele>
        <time>2021-06-23T06:00:07Z</time>
      </trkpt>
      <trkpt lat="48.06473" lon="7.22993">
        <ele>299.8</ele>
        <time>2021-06-23T06:00:08Z</time>
      </trkpt>
      <trkpt lat="48.06462" lon="7.2298">
        <ele>300.6</ele>
        <time>2021-06-23T06:00:12Z</time>
      </trkpt>
      <trkpt lat="48.06446" lon="7.22966">
        <ele>301.8</ele>
        <time>2021-06-23T06:00:17Z</time>
      </trkpt>
      <trkpt lat="48.06429" lon="7.2295">
        <ele>302.8</ele>
        <time>2021-06-23T06:00:23Z</time>
      </trkpt>
      <trkpt lat="48.06417" lon="7.22939">
        <ele>303.8</ele>
        <time>2021-06-23T06:00:27Z</time>
      </trkpt>
      <trkpt lat="48.06414" lon="7.22935">
        <ele>304</ele>
        <time>2021-06-23T06:00:28Z</time>
      </trkpt>
      <trkpt lat="48.06404" lon="7.22921">
        <ele>305.2</ele>
        <time>2021-06-23T06:00:32Z</time>
      </trkpt>
      <trkpt lat="48.06395" lon="7.22905">
        <ele>305.8</ele>
        <time>2021-06-23T06:00:36Z</time>
      </trkpt>
      <trkpt lat="48.06388" lon="7.22892">
        <ele>306.2</ele>
        <time>2021-06-23T06:00:39Z</time>
      </trkpt>
      <trkpt lat="48.06379" lon="7.22875">
        <ele>307.4</ele>
        <time>2021-06-23T06:00:43Z</time>
      </trkpt>
      <trkpt lat="48.06377" lon="7.2287">
        <ele>307.6</ele>
        <time>2021-06-23T06:00:44Z</time>
      </trkpt>
      <trkpt lat="48.06371" lon="7.22856">
        <ele>308.4</ele>
        <time>2021-06-23T06:00:47Z</time>
      </trkpt>
      <trkpt lat="48.06363" lon="7.22836">
        <ele>308.8</ele>
        <time>2021-06-23T06:00:51Z</time>
      </trkpt>
      <trkpt lat="48.06359" lon="7.22825">
        <ele>309.4</ele>
        <time>2021-06-23T06:00:53Z</time>
      </trkpt>
      <trkpt lat="48.0635" lon="7.22798">
        <ele>310.6</ele>
        <time>2021-06-23T06:00:58Z</time>
      </trkpt>
      <trkpt lat="48.06348" lon="7.22793">
        <ele>310.6</ele>
        <time>2021-06-23T06:00:59Z</time>
      </trkpt>
      <trkpt lat="48.06338" lon="7.2276">
        <ele>311.6</ele>
        <time>2021-06-23T06:01:05Z</time>
      </trkpt>
      <trkpt lat="48.06334" lon="7.22742">
        <ele>312</ele>
        <time>2021-06-23T06:01:08Z</time>
      </trkpt>
      <trkpt lat="48.06328" lon="7.22712">
        <ele>312.4</ele>
        <time>2021-06-23T06:01:13Z</time>
      </trkpt>
      <trkpt lat="48.0632" lon="7.22675">
        <ele>313.2</ele>
        <time>2021-06-23T06:01:19Z</time>
      </trkpt>
      <trkpt lat="48.06315" lon="7.2265">
        <ele>313.6</ele>
        <time>2021-06-23T06:01:23Z</time>
      </trkpt>
      <trkpt lat="48.06312" lon="7.2263">
        <ele>313.8</ele>
        <time>2021-06-23T06:01:26Z</time>
      </trkpt>
      <trkpt lat="48.063" lon="7.22567">
        <ele>314.4</ele>
        <time>2021-06-23T06:01:35Z</time>
      </trkpt>
      <trkpt lat="48.06291" lon="7.22512">
        <ele>314.2</ele>
        <time>2021-06-23T06:01:43Z</time>
      </trkpt>
      <trkpt lat="48.06287" lon="7.22492">
        <ele>314.6</ele>
        <time>2021-06-23T06:01:46Z</time>
      </trkpt>
      <trkpt lat="48.06279" lon="7.22466">
        <ele>315</ele>
        <time>2021-06-23T06:01:50Z</time>
      </trkpt>
      <trkpt lat="48.0626" lon="7.22416">
        <ele>315.4</ele>
        <time>2021-06-23T06:01:58Z</time>
      </trkpt>
      <trkpt lat="48.06255" lon="7.22404">
        <ele>315.6</ele>
        <time>2021-06-23T06:02:00Z</time>
      </trkpt>
      <trkpt lat="48.06235" lon="7.22363">
        <ele>316.2</ele>
        <time>2021-06-23T06:02:07Z</time>
      </trkpt>
      <trkpt lat="48.0623" lon="7.22352">
        <ele>316.4</ele>
        <time>2021-06-23T06:02:09Z</time>
      </trkpt>
      <trkpt lat="48.06226" lon="7.22348">
        <ele>316.6</ele>
        <time>2021-06-23T06:02:10Z</time>
      </trkpt>
      <trkpt lat="48.06224" lon="7.22343">
        <ele>316.8</ele>
        <time>2021-06-23T06:02:11Z</time>
      </trkpt>
      <trkpt lat="48.06221" lon="7.22339">
        <ele>316.8</ele>
        <time>2021-06-23T06:02:12Z</time>
      </trkpt>
      <trkpt lat="48.06207" lon="7.22322">
        <ele>317.2</ele>
        <time>2021-06-23T06:02:16Z</time>
      </trkpt>
      <trkpt lat="48.06203" lon="7.22318">
        <ele>317.4</ele>
        <time>2021-06-23T06:02:17Z</time>
      </trkpt>
      <trkpt lat="48.06196" lon="7.22309">
        <ele>317.6</ele>
        <time>2021-06-23T06:02:19Z</time>
      </trkpt>
      <trkpt lat="48.0618" lon="7.22288">
        <ele>318</ele>
        <time>2021-06-23T06:02:23Z</time>
      </trkpt>
      <trkpt lat="48.06155" lon="7.22254">
        <ele>318</ele>
        <time>2021-06-23T06:02:29Z</time>
      </trkpt>
      <trkpt lat="48.06131" lon="7.22214">
        <ele>317.6</ele>
        <time>2021-06-23T06:02:35Z</time>
      </trkpt>
      <trkpt lat="48.06122" lon="7.222">
        <ele>317.4</ele>
        <time>2021-06-23T06:02:37Z</time>
      </trkpt>
      <trkpt lat="48.06089" lon="7.22149">
        <ele>316.4</ele>
        <time>2021-06-23T06:02:44Z</time>
      </trkpt>
      <trkpt lat="48.06084" lon="7.22141">
        <ele>316.2</ele>
        <time>2021-06-23T06:02:45Z</time>
      </trkpt>
      <trkpt lat="48.06068" lon="7.22117">
        <ele>315.4</ele>
        <time>2021-06-23T06:02:48Z</time>
      </trkpt>
      <trkpt lat="48.06047" lon="7.22084">
        <ele>314.2</ele>
        <time>2021-06-23T06:02:52Z</time>
      </trkpt>
      <trkpt lat="48.06029" lon="7.2206">
        <ele>313</ele>
        <time>2021-06-23T06:02:55Z</time>
      </trkpt>
      <trkpt lat="48.06004" lon="7.22028">
        <ele>311.8</ele>
        <time>2021-06-23T06:02:59Z</time>
      </trkpt>
      <trkpt lat="48.05973" lon="7.21982">
        <ele>310.2</ele>
        <time>2021-06-23T06:03:04Z</time>
      </trkpt>
      <trkpt lat="48.05961" lon="7.21961">
        <ele>308.6</ele>
        <time>2021-06-23T06:03:06Z</time>
      </trkpt>
      <trkpt lat="48.05946" lon="7.21926">
        <ele>307.2</ele>
        <time>2021-06-23T06:03:09Z</time>
      </trkpt>
      <trkpt lat="48.05926" lon="7.21878">
        <ele>305.6</ele>
        <time>2021-06-23T06:03:13Z</time>
      </trkpt>
      <trkpt lat="48.05907" lon="7.21832">
        <ele>303.8</ele>
        <time>2021-06-23T06:03:17Z</time>
      </trkpt>
      <trkpt lat="48.05892" lon="7.21799">
        <ele>302.4</ele>
        <time>2021-06-23T06:03:20Z</time>
      </trkpt>
      <trkpt lat="48.05875" lon="7.21758">
        <ele>301.2</ele>
        <time>2021-06-23T06:03:24Z</time>
      </trkpt>
      <trkpt lat="48.05871" lon="7.21748">
        <ele>301.2</ele>
        <time>2021-06-23T06:03:25Z</time>
      </trkpt>
      <trkpt lat="48.0585" lon="7.21696">
        <ele>301</ele>
        <time>2021-06-23T06:03:31Z</time>
      </trkpt>
      <trkpt lat="48.05826" lon="7.2164">
        <ele>301.6</ele>
        <time>2021-06-23T06:03:38Z</time>
      </trkpt>
      <trkpt lat="48.05795" lon="7.21569">
        <ele>302</ele>
        <time>2021-06-23T06:03:47Z</time>
      </trkpt>
      <trkpt lat="48.05788" lon="7.21552">
        <ele>302.2</ele>
        <time>2021-06-23T06:03:49Z</time>
      </trkpt>
      <trkpt lat="48.05768" lon="7.21504">
        <ele>302.4</ele>
        <time>2021-06-23T06:03:55Z</time>
      </trkpt>
      <trkpt lat="48.05765" lon="7.21495">
        <ele>302.4</ele>
        <time>2021-06-23T06:03:56Z</time>
      </trkpt>
      <trkpt lat="48.05735" lon="7.21425">
        <ele>303.2</ele>
        <time>2021-06-23T06:04:05Z</time>
      </trkpt>
      <trkpt lat="48.05731" lon="7.21417">
        <ele>303.4</ele>
        <time>2021-06-23T06:04:06Z</time>
      </trkpt>
      <trkpt lat="48.05706" lon="7.21377">
        <ele>304</ele>
        <time>2021-06-23T06:04:12Z</time>
      </trkpt>
      <trkpt lat="48.05693" lon="7.21357">
        <ele>304.6</ele>
        <time>2021-06-23T06:04:15Z</time>
      </trkpt>
      <trkpt lat="48.05666" lon="7.2132">
        <ele>304.4</ele>
        <time>2021-06-23T06:04:21Z</time>
      </trkpt>
      <trkpt lat="48.05635" lon="7.21276">
        <ele>304.8</ele>
        <time>2021-06-23T06:04:28Z</time>
      </trkpt>
      <trkpt lat="48.05604" lon="7.21232">
        <ele>305</ele>
        <time>2021-06-23T06:04:35Z</time>
      </trkpt>
      <trkpt lat="48.05569" lon="7.21182">
        <ele>305.6</ele>
        <time>2021-06-23T06:04:43Z</time>
      </trkpt>
      <trkpt lat="48.05535" lon="7.21134">
        <ele>306.4</ele>
        <time>2021-06-23T06:04:51Z</time>
      </trkpt>
      <trkpt lat="48.05518" lon="7.2111">
        <ele>306.8</ele>
        <time>2021-06-23T06:04:55Z</time>
      </trkpt>
      <trkpt lat="48.05492" lon="7.21075">
        <ele>307.2</ele>
        <time>2021-06-23T06:05:01Z</time>
      </trkpt>
      <trkpt lat="48.05456" lon="7.21022">
        <ele>308</ele>
        <time>2021-06-23T06:05:10Z</time>
      </trkpt>
      <trkpt lat="48.05452" lon="7.21017">
        <ele>308</ele>
        <time>2021-06-23T06:05:11Z</time>
      </trkpt>
      <trkpt lat="48.05416" lon="7.20964">
        <ele>308.4</ele>
        <time>2021-06-23T06:05:20Z</time>
      </trkpt>
      <trkpt lat="48.05392" lon="7.20927">
        <ele>309</ele>
        <time>2021-06-23T06:05:26Z</time>
      </trkpt>
      <trkpt lat="48.05385" lon="7.20914">
        <ele>309</ele>
        <time>2021-06-23T06:05:28Z</time>
      </trkpt>
      <trkpt lat="48.0536" lon="7.20869">
        <ele>309.6</ele>
        <time>2021-06-23T06:05:35Z</time>
      </trkpt>
      <trkpt lat="48.05345" lon="7.20836">
        <ele>310</ele>
        <time>2021-06-23T06:05:40Z</time>
      </trkpt>
      <trkpt lat="48.05342" lon="7.2083">
        <ele>310.2</ele>
        <time>2021-06-23T06:05:41Z</time>
      </trkpt>
      <trkpt lat="48.05339" lon="7.20824">
        <ele>310.2</ele>
        <time>2021-06-23T06:05:42Z</time>
      </trkpt>
      <trkpt lat="48.05317" lon="7.2077">
        <ele>311.2</ele>
        <time>2021-06-23T06:05:50Z</time>
      </trkpt>
      <trkpt lat="48.05314" lon="7.20764">
        <ele>311.4</ele>
        <time>2021-06-23T06:05:51Z</time>
      </trkpt>
      <trkpt lat="48.05296" lon="7.20724">
        <ele>312.4</ele>
        <time>2021-06-23T06:05:57Z</time>
      </trkpt>
      <trkpt lat="48.05279" lon="7.20692">
        <ele>312.8</ele>
        <time>2021-06-23T06:06:02Z</time>
      </trkpt>
      <trkpt lat="48.05269" lon="7.20673">
        <ele>313.4</ele>
        <time>2021-06-23T06:06:05Z</time>
      </trkpt>
      <trkpt lat="48.05253" lon="7.20642">
        <ele>314</ele>
        <time>2021-06-23T06:06:10Z</time>
      </trkpt>
      <trkpt lat="48.0524" lon="7.20616">
        <ele>314.8</ele>
        <time>2021-06-23T06:06:14Z</time>
      </trkpt>
      <trkpt lat="48.05227" lon="7.20581">
        <ele>315.4</ele>
        <time>2021-06-23T06:06:19Z</time>
      </trkpt>
      <trkpt lat="48.05217" lon="7.20543">
        <ele>316</ele>
        <time>2021-06-23T06:06:24Z</time>
      </trkpt>
      <trkpt lat="48.05216" lon="7.20535">
        <ele>316</ele>
        <time>2021-06-23T06:06:25Z</time>
      </trkpt>
      <trkpt lat="48.05215" lon="7.20527">
        <ele>316.2</ele>
        <time>2021-06-23T06:06:26Z</time>
      </trkpt>
      <trkpt lat="48.05215" lon="7.20497">
        <ele>316.8</ele>
        <time>2021-06-23T06:06:30Z</time>
      </trkpt>
      <trkpt lat="48.05215" lon="7.20482">
        <ele>317</ele>
        <time>2021-06-23T06:06:32Z</time>
      </trkpt>
      <trkpt lat="48.05215" lon="7.20474">
        <ele>317</ele>
        <time>2021-06-23T06:06:33Z</time>
      </trkpt>
      <trkpt lat="48.05216" lon="7.20459">
        <ele>317.4</ele>
        <time>2021-06-23T06:06:35Z</time>
      </trkpt>
      <trkpt lat="48.05214" lon="7.20444">
        <ele>317.4</ele>
        <time>2021-06-23T06:06:37Z</time>
      </trkpt>
      <trkpt lat="48.05213" lon="7.20438">
        <ele>317.6</ele>
        <time>2021-06-23T06:06:38Z</time>
      </trkpt>
      <trkpt lat="48.05212" lon="7.20424">
        <ele>318</ele>
        <time>2021-06-23T06:06:40Z</time>
      </trkpt>
      <trkpt lat="48.0521" lon="7.20403">
        <ele>318.6</ele>
        <time>2021-06-23T06:06:43Z</time>
      </trkpt>
      <trkpt lat="48.05209" lon="7.20388">
        <ele>318.8</ele>
        <time>2021-06-23T06:06:45Z</time>
      </trkpt>
      <trkpt lat="48.05208" lon="7.20381">
        <ele>319</ele>
        <time>2021-06-23T06:06:46Z</time>
      </trkpt>
      <trkpt lat="48.05204" lon="7.20354">
        <ele>320.2</ele>
        <time>2021-06-23T06:06:50Z</time>
      </trkpt>
      <trkpt lat="48.05203" lon="7.20332">
        <ele>320.4</ele>
        <time>2021-06-23T06:06:53Z</time>
      </trkpt>
      <trkpt lat="48.05203" lon="7.20318">
        <ele>320.8</ele>
        <time>2021-06-23T06:06:55Z</time>
      </trkpt>
      <trkpt lat="48.05204" lon="7.20302">
        <ele>321</ele>
        <time>2021-06-23T06:06:57Z</time>
      </trkpt>
      <trkpt lat="48.05205" lon="7.20285">
        <ele>321</ele>
        <time>2021-06-23T06:06:59Z</time>
      </trkpt>
      <trkpt lat="48.05205" lon="7.20267">
        <ele>321</ele>
        <time>2021-06-23T06:07:01Z</time>
      </trkpt>
      <trkpt lat="48.05206" lon="7.20222">
        <ele>320.8</ele>
        <time>2021-06-23T06:07:06Z</time>
      </trkpt>
      <trkpt lat="48.05204" lon="7.20194">
        <ele>320.6</ele>
        <time>2021-06-23T06:07:09Z</time>
      </trkpt>
      <trkpt lat="48.05199" lon="7.20139">
        <ele>320.2</ele>
        <time>2021-06-23T06:07:15Z</time>
      </trkpt>
      <trkpt lat="48.05198" lon="7.20129">
        <ele>320</ele>
        <time>2021-06-23T06:07:16Z</time>
      </trkpt>
      <trkpt lat="48.05192" lon="7.20084">
        <ele>319.8</ele>
        <time>2021-06-23T06:07:21Z</time>
      </trkpt>
      <trkpt lat="48.0519" lon="7.20075">
        <ele>319.8</ele>
        <time>2021-06-23T06:07:22Z</time>
      </trkpt>
      <trkpt lat="48.05179" lon="7.20001">
        <ele>319.2</ele>
        <time>2021-06-23T06:07:30Z</time>
      </trkpt>
      <trkpt lat="48.05172" lon="7.19965">
        <ele>319</ele>
        <time>2021-06-23T06:07:34Z</time>
      </trkpt>
      <trkpt lat="48.05169" lon="7.19946">
        <ele>318.8</ele>
        <time>2021-06-23T06:07:36Z</time>
      </trkpt>
      <trkpt lat="48.05163" lon="7.19919">
        <ele>318.8</ele>
        <time>2021-06-23T06:07:39Z</time>
      </trkpt>
      <trkpt lat="48.05158" lon="7.19902">
        <ele>318.8</ele>
        <time>2021-06-23T06:07:41Z</time>
      </trkpt>
      <trkpt lat="48.05135" lon="7.19821">
        <ele>318.6</ele>
        <time>2021-06-23T06:07:50Z</time>
      </trkpt>
      <trkpt lat="48.05129" lon="7.19803">
        <ele>318.6</ele>
        <time>2021-06-23T06:07:52Z</time>
      </trkpt>
      <trkpt lat="48.05105" lon="7.19737">
        <ele>318.4</ele>
        <time>2021-06-23T06:08:00Z</time>
      </trkpt>
      <trkpt lat="48.0508" lon="7.19673">
        <ele>318.8</ele>
        <time>2021-06-23T06:08:08Z</time>
      </trkpt>
      <trkpt lat="48.05047" lon="7.19604">
        <ele>319.4</ele>
        <time>2021-06-23T06:08:17Z</time>
      </trkpt>
      <trkpt lat="48.05015" lon="7.19535">
        <ele>319.8</ele>
        <time>2021-06-23T06:08:26Z</time>
      </trkpt>
      <trkpt lat="48.04983" lon="7.19466">
        <ele>319.6</ele>
        <time>2021-06-23T06:08:35Z</time>
      </trkpt>
      <trkpt lat="48.04967" lon="7.19426">
        <ele>320</ele>
        <time>2021-06-23T06:08:40Z</time>
      </trkpt>
      <trkpt lat="48.04961" lon="7.1941">
        <ele>320.2</ele>
        <time>2021-06-23T06:08:42Z</time>
      </trkpt>
      <trkpt lat="48.04954" lon="7.19385">
        <ele>320.4</ele>
        <time>2021-06-23T06:08:45Z</time>
      </trkpt>
      <trkpt lat="48.04939" lon="7.19324">
        <ele>321</ele>
        <time>2021-06-23T06:08:52Z</time>
      </trkpt>
      <trkpt lat="48.04936" lon="7.19306">
        <ele>321</ele>
        <time>2021-06-23T06:08:54Z</time>
      </trkpt>
      <trkpt lat="48.04921" lon="7.19228">
        <ele>321.4</ele>
        <time>2021-06-23T06:09:03Z</time>
      </trkpt>
      <trkpt lat="48.04917" lon="7.19211">
        <ele>321.4</ele>
        <time>2021-06-23T06:09:05Z</time>
      </trkpt>
      <trkpt lat="48.04898" lon="7.19128">
        <ele>321.8</ele>
        <time>2021-06-23T06:09:15Z</time>
      </trkpt>
      <trkpt lat="48.04894" lon="7.19111">
        <ele>322.2</ele>
        <time>2021-06-23T06:09:17Z</time>
      </trkpt>
      <trkpt lat="48.04884" lon="7.19069">
        <ele>322.2</ele>
        <time>2021-06-23T06:09:22Z</time>
      </trkpt>
      <trkpt lat="48.04868" lon="7.19005">
        <ele>323</ele>
        <time>2021-06-23T06:09:30Z</time>
      </trkpt>
      <trkpt lat="48.04865" lon="7.18989">
        <ele>323.2</ele>
        <time>2021-06-23T06:09:32Z</time>
      </trkpt>
      <trkpt lat="48.04851" lon="7.18933">
        <ele>324</ele>
        <time>2021-06-23T06:09:39Z</time>
      </trkpt>
      <trkpt lat="48.04843" lon="7.18894">
        <ele>324.2</ele>
        <time>2021-06-23T06:09:44Z</time>
      </trkpt>
      <trkpt lat="48.04838" lon="7.18862">
        <ele>324.8</ele>
        <time>2021-06-23T06:09:48Z</time>
      </trkpt>
      <trkpt lat="48.04834" lon="7.1883">
        <ele>325.4</ele>
        <time>2021-06-23T06:09:52Z</time>
      </trkpt>
      <trkpt lat="48.04831" lon="7.18799">
        <ele>325.8</ele>
        <time>2021-06-23T06:09:56Z</time>
      </trkpt>
      <trkpt lat="48.0483" lon="7.18783">
        <ele>326.4</ele>
        <time>2021-06-23T06:09:58Z</time>
      </trkpt>
      <trkpt lat="48.04827" lon="7.18744">
        <ele>327.2</ele>
        <time>2021-06-23T06:10:03Z</time>
      </trkpt>
      <trkpt lat="48.04826" lon="7.18736">
        <ele>327.4</ele>
        <time>2021-06-23T06:10:04Z</time>
      </trkpt>
      <trkpt lat="48.04823" lon="7.18675">
        <ele>328.4</ele>
        <time>2021-06-23T06:10:12Z</time>
      </trkpt>
      <trkpt lat="48.04819" lon="7.18629">
        <ele>329.4</ele>
        <time>2021-06-23T06:10:18Z</time>
      </trkpt>
      <trkpt lat="48.04815" lon="7.18598">
        <ele>330.4</ele>
        <time>2021-06-23T06:10:22Z</time>
      </trkpt>
      <trkpt lat="48.04813" lon="7.18582">
        <ele>330.6</ele>
        <time>2021-06-23T06:10:24Z</time>
      </trkpt>
      <trkpt lat="48.04802" lon="7.18534">
        <ele>331.4</ele>
        <time>2021-06-23T06:10:30Z</time>
      </trkpt>
      <trkpt lat="48.04793" lon="7.18494">
        <ele>331.6</ele>
        <time>2021-06-23T06:10:35Z</time>
      </trkpt>
      <trkpt lat="48.04786" lon="7.18468">
        <ele>331.6</ele>
        <time>2021-06-23T06:10:38Z</time>
      </trkpt>
      <trkpt lat="48.04768" lon="7.18405">
        <ele>330.8</ele>
        <time>2021-06-23T06:10:45Z</time>
      </trkpt>
      <trkpt lat="48.04763" lon="7.18387">
        <ele>330.6</ele>
        <time>2021-06-23T06:10:47Z</time>
      </trkpt>
      <trkpt lat="48.0474" lon="7.18312">
        <ele>329.6</ele>
        <time>2021-06-23T06:10:56Z</time>
      </trkpt>
      <trkpt lat="48.04738" lon="7.18303">
        <ele>329.6</ele>
        <time>2021-06-23T06:10:57Z</time>
      </trkpt>
      <trkpt lat="48.04734" lon="7.18287">
        <ele>329.4</ele>
        <time>2021-06-23T06:10:59Z</time>
      </trkpt>
      <trkpt lat="48.04715" lon="7.1822">
        <ele>329.8</ele>
        <time>2021-06-23T06:11:07Z</time>
      </trkpt>
      <trkpt lat="48.04694" lon="7.18145">
        <ele>330.2</ele>
        <time>2021-06-23T06:11:16Z</time>
      </trkpt>
      <trkpt lat="48.04691" lon="7.18137">
        <ele>330.2</ele>
        <time>2021-06-23T06:11:17Z</time>
      </trkpt>
      <trkpt lat="48.04676" lon="7.18082">
        <ele>330.4</ele>
        <time>2021-06-23T06:11:24Z</time>
      </trkpt>
      <trkpt lat="48.04669" lon="7.18058">
        <ele>330.4</ele>
        <time>2021-06-23T06:11:27Z</time>
      </trkpt>
      <trkpt lat="48.04659" lon="7.1802">
        <ele>330.8</ele>
        <time>2021-06-23T06:11:32Z</time>
      </trkpt>
      <trkpt lat="48.04647" lon="7.17976">
        <ele>331.6</ele>
        <time>2021-06-23T06:11:38Z</time>
      </trkpt>
      <trkpt lat="48.04645" lon="7.17968">
        <ele>331.8</ele>
        <time>2021-06-23T06:11:39Z</time>
      </trkpt>
      <trkpt lat="48.04631" lon="7.179">
        <ele>332.8</ele>
        <time>2021-06-23T06:11:48Z</time>
      </trkpt>
      <trkpt lat="48.04626" lon="7.17862">
        <ele>333.8</ele>
        <time>2021-06-23T06:11:53Z</time>
      </trkpt>
      <trkpt lat="48.04624" lon="7.17839">
        <ele>334.2</ele>
        <time>2021-06-23T06:11:56Z</time>
      </trkpt>
      <trkpt lat="48.04624" lon="7.17824">
        <ele>334.4</ele>
        <time>2021-06-23T06:11:58Z</time>
      </trkpt>
      <trkpt lat="48.04625" lon="7.1781">
        <ele>334.8</ele>
        <time>2021-06-23T06:12:00Z</time>
      </trkpt>
      <trkpt lat="48.04626" lon="7.17789">
        <ele>335.4</ele>
        <time>2021-06-23T06:12:03Z</time>
      </trkpt>
      <trkpt lat="48.04628" lon="7.1776">
        <ele>336</ele>
        <time>2021-06-23T06:12:07Z</time>
      </trkpt>
      <trkpt lat="48.0463" lon="7.17726">
        <ele>336.8</ele>
        <time>2021-06-23T06:12:12Z</time>
      </trkpt>
      <trkpt lat="48.0463" lon="7.1772">
        <ele>337</ele>
        <time>2021-06-23T06:12:13Z</time>
      </trkpt>
      <trkpt lat="48.04631" lon="7.17713">
        <ele>337.2</ele>
        <time>2021-06-23T06:12:14Z</time>
      </trkpt>
      <trkpt lat="48.04632" lon="7.177">
        <ele>337.6</ele>
        <time>2021-06-23T06:12:16Z</time>
      </trkpt>
      <trkpt lat="48.04633" lon="7.17686">
        <ele>338.2</ele>
        <time>2021-06-23T06:12:18Z</time>
      </trkpt>
      <trkpt lat="48.04637" lon="7.17651">
        <ele>339.2</ele>
        <time>2021-06-23T06:12:23Z</time>
      </trkpt>
      <trkpt lat="48.04638" lon="7.17644">
        <ele>339.2</ele>
        <time>2021-06-23T06:12:24Z</time>
      </trkpt>
      <trkpt lat="48.0464" lon="7.17624">
        <ele>339.6</ele>
        <time>2021-06-23T06:12:27Z</time>
      </trkpt>
      <trkpt lat="48.04639" lon="7.17609">
        <ele>339.8</ele>
        <time>2021-06-23T06:12:29Z</time>
      </trkpt>
      <trkpt lat="48.04638" lon="7.17584">
        <ele>340.2</ele>
        <time>2021-06-23T06:12:32Z</time>
      </trkpt>
      <trkpt lat="48.04637" lon="7.17552">
        <ele>340.6</ele>
        <time>2021-06-23T06:12:36Z</time>
      </trkpt>
      <trkpt lat="48.04636" lon="7.17543">
        <ele>340.6</ele>
        <time>2021-06-23T06:12:37Z</time>
      </trkpt>
      <trkpt lat="48.04633" lon="7.17501">
        <ele>340.2</ele>
        <time>2021-06-23T06:12:42Z</time>
      </trkpt>
      <trkpt lat="48.04633" lon="7.17475">
        <ele>340</ele>
        <time>2021-06-23T06:12:45Z</time>
      </trkpt>
      <trkpt lat="48.04636" lon="7.17458">
        <ele>339.8</ele>
        <time>2021-06-23T06:12:47Z</time>
      </trkpt>
      <trkpt lat="48.04645" lon="7.17408">
        <ele>339.2</ele>
        <time>2021-06-23T06:12:53Z</time>
      </trkpt>
      <trkpt lat="48.04646" lon="7.17399">
        <ele>339.2</ele>
        <time>2021-06-23T06:12:54Z</time>
      </trkpt>
      <trkpt lat="48.04647" lon="7.1739">
        <ele>339</ele>
        <time>2021-06-23T06:12:55Z</time>
      </trkpt>
      <trkpt lat="48.04649" lon="7.17355">
        <ele>338.8</ele>
        <time>2021-06-23T06:12:59Z</time>
      </trkpt>
      <trkpt lat="48.04648" lon="7.17328">
        <ele>338.8</ele>
        <time>2021-06-23T06:13:02Z</time>
      </trkpt>
      <trkpt lat="48.04647" lon="7.1732">
        <ele>338.8</ele>
        <time>2021-06-23T06:13:03Z</time>
      </trkpt>
      <trkpt lat="48.04641" lon="7.17296">
        <ele>339</ele>
        <time>2021-06-23T06:13:06Z</time>
      </trkpt>
      <trkpt lat="48.04614" lon="7.17217">
        <ele>339</ele>
        <time>2021-06-23T06:13:16Z</time>
      </trkpt>
      <trkpt lat="48.04611" lon="7.1721">
        <ele>339</ele>
        <time>2021-06-23T06:13:17Z</time>
      </trkpt>
      <trkpt lat="48.04591" lon="7.17155">
        <ele>339.6</ele>
        <time>2021-06-23T06:13:24Z</time>
      </trkpt>
      <trkpt lat="48.04569" lon="7.17094">
        <ele>340</ele>
        <time>2021-06-23T06:13:32Z</time>
      </trkpt>
      <trkpt lat="48.04566" lon="7.17077">
        <ele>340.2</ele>
        <time>2021-06-23T06:13:34Z</time>
      </trkpt>
      <trkpt lat="48.04564" lon="7.17052">
        <ele>340.2</ele>
        <time>2021-06-23T06:13:37Z</time>
      </trkpt>
      <trkpt lat="48.04567" lon="7.16984">
        <ele>340.4</ele>
        <time>2021-06-23T06:13:45Z</time>
      </trkpt>
      <trkpt lat="48.04568" lon="7.16924">
        <ele>341</ele>
        <time>2021-06-23T06:13:52Z</time>
      </trkpt>
      <trkpt lat="48.04568" lon="7.16908">
        <ele>341</ele>
        <time>2021-06-23T06:13:54Z</time>
      </trkpt>
      <trkpt lat="48.04566" lon="7.16866">
        <ele>341.4</ele>
        <time>2021-06-23T06:13:59Z</time>
      </trkpt>
      <trkpt lat="48.04564" lon="7.16809">
        <ele>342</ele>
        <time>2021-06-23T06:14:06Z</time>
      </trkpt>
      <trkpt lat="48.04564" lon="7.16775">
        <ele>342</ele>
        <time>2021-06-23T06:14:10Z</time>
      </trkpt>
      <trkpt lat="48.04563" lon="7.16741">
        <ele>342</ele>
        <time>2021-06-23T06:14:14Z</time>
      </trkpt>
      <trkpt lat="48.04561" lon="7.16685">
        <ele>342.4</ele>
        <time>2021-06-23T06:14:21Z</time>
      </trkpt>
      <trkpt lat="48.0456" lon="7.16661">
        <ele>342.6</ele>
        <time>2021-06-23T06:14:24Z</time>
      </trkpt>
      <trkpt lat="48.0456" lon="7.16653">
        <ele>342.8</ele>
        <time>2021-06-23T06:14:25Z</time>
      </trkpt>
      <trkpt lat="48.04559" lon="7.16639">
        <ele>342.8</ele>
        <time>2021-06-23T06:14:27Z</time>
      </trkpt>
      <trkpt lat="48.04559" lon="7.16611">
        <ele>344</ele>
        <time>2021-06-23T06:14:31Z</time>
      </trkpt>
      <trkpt lat="48.0456" lon="7.16604">
        <ele>344.2</ele>
        <time>2021-06-23T06:14:32Z</time>
      </trkpt>
      <trkpt lat="48.0456" lon="7.16592">
        <ele>344.4</ele>
        <time>2021-06-23T06:14:34Z</time>
      </trkpt>
      <trkpt lat="48.04559" lon="7.16566">
        <ele>345.2</ele>
        <time>2021-06-23T06:14:38Z</time>
      </trkpt>
      <trkpt lat="48.04558" lon="7.16544">
        <ele>345.8</ele>
        <time>2021-06-23T06:14:41Z</time>
      </trkpt>
      <trkpt lat="48.04558" lon="7.16523">
        <ele>346</ele>
        <time>2021-06-23T06:14:44Z</time>
      </trkpt>
      <trkpt lat="48.04558" lon="7.16516">
        <ele>346.2</ele>
        <time>2021-06-23T06:14:45Z</time>
      </trkpt>
      <trkpt lat="48.04558" lon="7.1651">
        <ele>346.2</ele>
        <time>2021-06-23T06:14:46Z</time>
      </trkpt>
      <trkpt lat="48.04557" lon="7.16491">
        <ele>347.2</ele>
        <time>2021-06-23T06:14:49Z</time>
      </trkpt>
      <trkpt lat="48.04558" lon="7.16472">
        <ele>347.8</ele>
        <time>2021-06-23T06:14:52Z</time>
      </trkpt>
      <trkpt lat="48.04557" lon="7.16465">
        <ele>347.8</ele>
        <time>2021-06-23T06:14:53Z</time>
      </trkpt>
      <trkpt lat="48.04558" lon="7.16453">
        <ele>348.2</ele>
        <time>2021-06-23T06:14:55Z</time>
      </trkpt>
      <trkpt lat="48.04558" lon="7.16447">
        <ele>348.4</ele>
        <time>2021-06-23T06:14:56Z</time>
      </trkpt>
      <trkpt lat="48.04558" lon="7.16441">
        <ele>348.4</ele>
        <time>2021-06-23T06:14:57Z</time>
      </trkpt>
      <trkpt lat="48.04559" lon="7.16417">
        <ele>349.2</ele>
        <time>2021-06-23T06:15:01Z</time>
      </trkpt>
      <trkpt lat="48.0456" lon="7.16399">
        <ele>350</ele>
        <time>2021-06-23T06:15:04Z</time>
      </trkpt>
      <trkpt lat="48.04562" lon="7.16386">
        <ele>350.4</ele>
        <time>2021-06-23T06:15:06Z</time>
      </trkpt>
      <trkpt lat="48.04565" lon="7.16362">
        <ele>351.2</ele>
        <time>2021-06-23T06:15:10Z</time>
      </trkpt>
      <trkpt lat="48.04566" lon="7.16348">
        <ele>351.6</ele>
        <time>2021-06-23T06:15:12Z</time>
      </trkpt>
      <trkpt lat="48.04568" lon="7.16315">
        <ele>355.4</ele>
        <time>2021-06-23T06:15:16Z</time>
      </trkpt>
      <trkpt lat="48.04567" lon="7.16293">
        <ele>352.6</ele>
        <time>2021-06-23T06:15:19Z</time>
      </trkpt>
      <trkpt lat="48.04564" lon="7.16265">
        <ele>352.8</ele>
        <time>2021-06-23T06:15:23Z</time>
      </trkpt>
      <trkpt lat="48.04562" lon="7.16243">
        <ele>352.8</ele>
        <time>2021-06-23T06:15:26Z</time>
      </trkpt>
      <trkpt lat="48.04558" lon="7.16219">
        <ele>353.4</ele>
        <time>2021-06-23T06:15:30Z</time>
      </trkpt>
      <trkpt lat="48.04556" lon="7.16192">
        <ele>353.6</ele>
        <time>2021-06-23T06:15:34Z</time>
      </trkpt>
      <trkpt lat="48.04555" lon="7.16178">
        <ele>353.6</ele>
        <time>2021-06-23T06:15:36Z</time>
      </trkpt>
      <trkpt lat="48.04554" lon="7.16171">
        <ele>353.8</ele>
        <time>2021-06-23T06:15:37Z</time>
      </trkpt>
      <trkpt lat="48.04551" lon="7.16137">
        <ele>354.6</ele>
        <time>2021-06-23T06:15:42Z</time>
      </trkpt>
      <trkpt lat="48.0455" lon="7.1613">
        <ele>354.8</ele>
        <time>2021-06-23T06:15:43Z</time>
      </trkpt>
      <trkpt lat="48.04544" lon="7.16087">
        <ele>355.2</ele>
        <time>2021-06-23T06:15:50Z</time>
      </trkpt>
      <trkpt lat="48.04544" lon="7.16081">
        <ele>355.4</ele>
        <time>2021-06-23T06:15:51Z</time>
      </trkpt>
      <trkpt lat="48.04541" lon="7.16043">
        <ele>355.6</ele>
        <time>2021-06-23T06:15:56Z</time>
      </trkpt>
      <trkpt lat="48.04535" lon="7.1599">
        <ele>355.6</ele>
        <time>2021-06-23T06:16:03Z</time>
      </trkpt>
      <trkpt lat="48.04533" lon="7.15983">
        <ele>355.8</ele>
        <time>2021-06-23T06:16:04Z</time>
      </trkpt>
      <trkpt lat="48.04531" lon="7.15956">
        <ele>356</ele>
        <time>2021-06-23T06:16:08Z</time>
      </trkpt>
      <trkpt lat="48.04529" lon="7.15942">
        <ele>355.8</ele>
        <time>2021-06-23T06:16:10Z</time>
      </trkpt>
      <trkpt lat="48.04528" lon="7.15935">
        <ele>356</ele>
        <time>2021-06-23T06:16:11Z</time>
      </trkpt>
      <trkpt lat="48.04522" lon="7.15901">
        <ele>356.6</ele>
        <time>2021-06-23T06:16:16Z</time>
      </trkpt>
      <trkpt lat="48.04522" lon="7.15894">
        <ele>356.6</ele>
        <time>2021-06-23T06:16:17Z</time>
      </trkpt>
      <trkpt lat="48.0452" lon="7.15882">
        <ele>356.8</ele>
        <time>2021-06-23T06:16:19Z</time>
      </trkpt>
      <trkpt lat="48.04516" lon="7.15867">
        <ele>357.2</ele>
        <time>2021-06-23T06:16:22Z</time>
      </trkpt>
      <trkpt lat="48.04513" lon="7.15853">
        <ele>357.8</ele>
        <time>2021-06-23T06:16:24Z</time>
      </trkpt>
      <trkpt lat="48.04508" lon="7.15832">
        <ele>358.4</ele>
        <time>2021-06-23T06:16:27Z</time>
      </trkpt>
      <trkpt lat="48.04496" lon="7.15789">
        <ele>358.8</ele>
        <time>2021-06-23T06:16:33Z</time>
      </trkpt>
      <trkpt lat="48.04494" lon="7.15783">
        <ele>359</ele>
        <time>2021-06-23T06:16:34Z</time>
      </trkpt>
      <trkpt lat="48.04486" lon="7.15767">
        <ele>359.2</ele>
        <time>2021-06-23T06:16:37Z</time>
      </trkpt>
      <trkpt lat="48.04481" lon="7.15748">
        <ele>360</ele>
        <time>2021-06-23T06:16:40Z</time>
      </trkpt>
      <trkpt lat="48.04479" lon="7.15742">
        <ele>360</ele>
        <time>2021-06-23T06:16:41Z</time>
      </trkpt>
      <trkpt lat="48.04475" lon="7.15729">
        <ele>360.2</ele>
        <time>2021-06-23T06:16:43Z</time>
      </trkpt>
      <trkpt lat="48.0447" lon="7.15704">
        <ele>361</ele>
        <time>2021-06-23T06:16:47Z</time>
      </trkpt>
      <trkpt lat="48.04469" lon="7.15697">
        <ele>361.2</ele>
        <time>2021-06-23T06:16:48Z</time>
      </trkpt>
      <trkpt lat="48.04465" lon="7.1564">
        <ele>361.6</ele>
        <time>2021-06-23T06:16:56Z</time>
      </trkpt>
      <trkpt lat="48.04463" lon="7.15592">
        <ele>361.8</ele>
        <time>2021-06-23T06:17:02Z</time>
      </trkpt>
      <trkpt lat="48.04463" lon="7.15584">
        <ele>361.8</ele>
        <time>2021-06-23T06:17:03Z</time>
      </trkpt>
      <trkpt lat="48.04462" lon="7.15576">
        <ele>362</ele>
        <time>2021-06-23T06:17:04Z</time>
      </trkpt>
      <trkpt lat="48.04458" lon="7.15554">
        <ele>361.8</ele>
        <time>2021-06-23T06:17:07Z</time>
      </trkpt>
      <trkpt lat="48.04448" lon="7.15518">
        <ele>361.8</ele>
        <time>2021-06-23T06:17:12Z</time>
      </trkpt>
      <trkpt lat="48.04445" lon="7.15512">
        <ele>361.8</ele>
        <time>2021-06-23T06:17:13Z</time>
      </trkpt>
      <trkpt lat="48.04442" lon="7.15507">
        <ele>361.6</ele>
        <time>2021-06-23T06:17:14Z</time>
      </trkpt>
      <trkpt lat="48.04433" lon="7.15499">
        <ele>361.6</ele>
        <time>2021-06-23T06:17:16Z</time>
      </trkpt>
      <trkpt lat="48.04429" lon="7.15496">
        <ele>361.2</ele>
        <time>2021-06-23T06:17:17Z</time>
      </trkpt>
      <trkpt lat="48.04424" lon="7.15492">
        <ele>361.4</ele>
        <time>2021-06-23T06:17:18Z</time>
      </trkpt>
      <trkpt lat="48.04418" lon="7.15482">
        <ele>361.2</ele>
        <time>2021-06-23T06:17:20Z</time>
      </trkpt>
      <trkpt lat="48.04417" lon="7.15474">
        <ele>361</ele>
        <time>2021-06-23T06:17:21Z</time>
      </trkpt>
      <trkpt lat="48.04418" lon="7.15427">
        <ele>361.2</ele>
        <time>2021-06-23T06:17:27Z</time>
      </trkpt>
      <trkpt lat="48.04417" lon="7.15404">
        <ele>361.4</ele>
        <time>2021-06-23T06:17:30Z</time>
      </trkpt>
      <trkpt lat="48.04413" lon="7.15372">
        <ele>361.6</ele>
        <time>2021-06-23T06:17:34Z</time>
      </trkpt>
      <trkpt lat="48.04402" lon="7.15323">
        <ele>361.8</ele>
        <time>2021-06-23T06:17:40Z</time>
      </trkpt>
      <trkpt lat="48.04386" lon="7.15251">
        <ele>361.6</ele>
        <time>2021-06-23T06:17:49Z</time>
      </trkpt>
      <trkpt lat="48.04382" lon="7.15228">
        <ele>361.8</ele>
        <time>2021-06-23T06:17:52Z</time>
      </trkpt>
      <trkpt lat="48.04371" lon="7.15176">
        <ele>362.2</ele>
        <time>2021-06-23T06:17:59Z</time>
      </trkpt>
      <trkpt lat="48.04366" lon="7.15153">
        <ele>362.8</ele>
        <time>2021-06-23T06:18:02Z</time>
      </trkpt>
      <trkpt lat="48.04359" lon="7.15124">
        <ele>363.2</ele>
        <time>2021-06-23T06:18:06Z</time>
      </trkpt>
      <trkpt lat="48.04354" lon="7.15103">
        <ele>363.6</ele>
        <time>2021-06-23T06:18:09Z</time>
      </trkpt>
      <trkpt lat="48.04352" lon="7.15096">
        <ele>363.8</ele>
        <time>2021-06-23T06:18:10Z</time>
      </trkpt>
      <trkpt lat="48.04349" lon="7.1508">
        <ele>364.2</ele>
        <time>2021-06-23T06:18:12Z</time>
      </trkpt>
      <trkpt lat="48.04341" lon="7.15045">
        <ele>365</ele>
        <time>2021-06-23T06:18:17Z</time>
      </trkpt>
      <trkpt lat="48.04334" lon="7.15016">
        <ele>365.6</ele>
        <time>2021-06-23T06:18:21Z</time>
      </trkpt>
      <trkpt lat="48.04333" lon="7.1501">
        <ele>365.6</ele>
        <time>2021-06-23T06:18:22Z</time>
      </trkpt>
      <trkpt lat="48.04329" lon="7.1499">
        <ele>366.2</ele>
        <time>2021-06-23T06:18:25Z</time>
      </trkpt>
      <trkpt lat="48.04326" lon="7.14975">
        <ele>366.8</ele>
        <time>2021-06-23T06:18:27Z</time>
      </trkpt>
      <trkpt lat="48.04321" lon="7.14953">
        <ele>367.2</ele>
        <time>2021-06-23T06:18:30Z</time>
      </trkpt>
      <trkpt lat="48.04317" lon="7.14938">
        <ele>367.6</ele>
        <time>2021-06-23T06:18:32Z</time>
      </trkpt>
      <trkpt lat="48.04316" lon="7.14923">
        <ele>367.8</ele>
        <time>2021-06-23T06:18:34Z</time>
      </trkpt>
      <trkpt lat="48.04313" lon="7.14857">
        <ele>368.2</ele>
        <time>2021-06-23T06:18:42Z</time>
      </trkpt>
      <trkpt lat="48.04307" lon="7.14797">
        <ele>367.8</ele>
        <time>2021-06-23T06:18:49Z</time>
      </trkpt>
      <trkpt lat="48.04298" lon="7.1473">
        <ele>367.6</ele>
        <time>2021-06-23T06:18:57Z</time>
      </trkpt>
      <trkpt lat="48.04289" lon="7.14672">
        <ele>367.4</ele>
        <time>2021-06-23T06:19:04Z</time>
      </trkpt>
      <trkpt lat="48.04275" lon="7.14608">
        <ele>367.8</ele>
        <time>2021-06-23T06:19:12Z</time>
      </trkpt>
      <trkpt lat="48.0427" lon="7.14594">
        <ele>368</ele>
        <time>2021-06-23T06:19:14Z</time>
      </trkpt>
      <trkpt lat="48.04257" lon="7.14568">
        <ele>368</ele>
        <time>2021-06-23T06:19:18Z</time>
      </trkpt>
      <trkpt lat="48.04235" lon="7.14516">
        <ele>367.8</ele>
        <time>2021-06-23T06:19:25Z</time>
      </trkpt>
      <trkpt lat="48.04233" lon="7.14508">
        <ele>367.8</ele>
        <time>2021-06-23T06:19:26Z</time>
      </trkpt>
      <trkpt lat="48.04217" lon="7.14432">
        <ele>367.8</ele>
        <time>2021-06-23T06:19:36Z</time>
      </trkpt>
      <trkpt lat="48.042" lon="7.14369">
        <ele>368</ele>
        <time>2021-06-23T06:19:44Z</time>
      </trkpt>
      <trkpt lat="48.04174" lon="7.14316">
        <ele>367.4</ele>
        <time>2021-06-23T06:19:52Z</time>
      </trkpt>
      <trkpt lat="48.04171" lon="7.14309">
        <ele>367.4</ele>
        <time>2021-06-23T06:19:53Z</time>
      </trkpt>
      <trkpt lat="48.04165" lon="7.14294">
        <ele>367.4</ele>
        <time>2021-06-23T06:19:55Z</time>
      </trkpt>
      <trkpt lat="48.0416" lon="7.1428">
        <ele>367.6</ele>
        <time>2021-06-23T06:19:57Z</time>
      </trkpt>
      <trkpt lat="48.04148" lon="7.14225">
        <ele>368.2</ele>
        <time>2021-06-23T06:20:04Z</time>
      </trkpt>
      <trkpt lat="48.04143" lon="7.14169">
        <ele>369</ele>
        <time>2021-06-23T06:20:11Z</time>
      </trkpt>
      <trkpt lat="48.04144" lon="7.14144">
        <ele>369.4</ele>
        <time>2021-06-23T06:20:14Z</time>
      </trkpt>
      <trkpt lat="48.04147" lon="7.14127">
        <ele>369.6</ele>
        <time>2021-06-23T06:20:16Z</time>
      </trkpt>
      <trkpt lat="48.04153" lon="7.14103">
        <ele>370.2</ele>
        <time>2021-06-23T06:20:19Z</time>
      </trkpt>
      <trkpt lat="48.0416" lon="7.1407">
        <ele>370.6</ele>
        <time>2021-06-23T06:20:23Z</time>
      </trkpt>
      <trkpt lat="48.04162" lon="7.14063">
        <ele>370.6</ele>
        <time>2021-06-23T06:20:24Z</time>
      </trkpt>
      <trkpt lat="48.04167" lon="7.14044">
        <ele>370.8</ele>
        <time>2021-06-23T06:20:27Z</time>
      </trkpt>
      <trkpt lat="48.04169" lon="7.1404">
        <ele>371</ele>
        <time>2021-06-23T06:20:28Z</time>
      </trkpt>
      <trkpt lat="48.04171" lon="7.14034">
        <ele>371.2</ele>
        <time>2021-06-23T06:20:30Z</time>
      </trkpt>
      <trkpt lat="48.0417" lon="7.14032">
        <ele>371.2</ele>
        <time>2021-06-23T06:20:31Z</time>
      </trkpt>
      <trkpt lat="48.0416" lon="7.1402">
        <ele>371.6</ele>
        <time>2021-06-23T06:20:36Z</time>
      </trkpt>
      <trkpt lat="48.04156" lon="7.14016">
        <ele>371.8</ele>
        <time>2021-06-23T06:20:37Z</time>
      </trkpt>
      <trkpt lat="48.04144" lon="7.14002">
        <ele>371.6</ele>
        <time>2021-06-23T06:20:40Z</time>
      </trkpt>
      <trkpt lat="48.04135" lon="7.13989">
        <ele>371.6</ele>
        <time>2021-06-23T06:20:42Z</time>
      </trkpt>
      <trkpt lat="48.04128" lon="7.13975">
        <ele>371.4</ele>
        <time>2021-06-23T06:20:44Z</time>
      </trkpt>
      <trkpt lat="48.04126" lon="7.13968">
        <ele>371.2</ele>
        <time>2021-06-23T06:20:45Z</time>
      </trkpt>
      <trkpt lat="48.04121" lon="7.13949">
        <ele>371.2</ele>
        <time>2021-06-23T06:20:48Z</time>
      </trkpt>
      <trkpt lat="48.04115" lon="7.1393">
        <ele>370.4</ele>
        <time>2021-06-23T06:20:53Z</time>
      </trkpt>
      <trkpt lat="48.04113" lon="7.13921">
        <ele>371</ele>
        <time>2021-06-23T06:20:57Z</time>
      </trkpt>
      <trkpt lat="48.04113" lon="7.13918">
        <ele>371</ele>
        <time>2021-06-23T06:20:59Z</time>
      </trkpt>
      <trkpt lat="48.04112" lon="7.13918">
        <ele>371</ele>
        <time>2021-06-23T06:21:03Z</time>
      </trkpt>
      <trkpt lat="48.04111" lon="7.13914">
        <ele>370.8</ele>
        <time>2021-06-23T06:21:24Z</time>
      </trkpt>
      <trkpt lat="48.0411" lon="7.13905">
        <ele>370.8</ele>
        <time>2021-06-23T06:21:26Z</time>
      </trkpt>
      <trkpt lat="48.04108" lon="7.13899">
        <ele>370.8</ele>
        <time>2021-06-23T06:21:27Z</time>
      </trkpt>
      <trkpt lat="48.04106" lon="7.13883">
        <ele>370.8</ele>
        <time>2021-06-23T06:21:30Z</time>
      </trkpt>
      <trkpt lat="48.04105" lon="7.13877">
        <ele>371</ele>
        <time>2021-06-23T06:21:31Z</time>
      </trkpt>
      <trkpt lat="48.04097" lon="7.13834">
        <ele>371.6</ele>
        <time>2021-06-23T06:21:38Z</time>
      </trkpt>
      <trkpt lat="48.04094" lon="7.13792">
        <ele>372.2</ele>
        <time>2021-06-23T06:21:44Z</time>
      </trkpt>
      <trkpt lat="48.04093" lon="7.13786">
        <ele>372.2</ele>
        <time>2021-06-23T06:21:45Z</time>
      </trkpt>
      <trkpt lat="48.04093" lon="7.13781">
        <ele>372.4</ele>
        <time>2021-06-23T06:21:46Z</time>
      </trkpt>
      <trkpt lat="48.04093" lon="7.13761">
        <ele>372.8</ele>
        <time>2021-06-23T06:21:49Z</time>
      </trkpt>
      <trkpt lat="48.04091" lon="7.13748">
        <ele>373</ele>
        <time>2021-06-23T06:21:51Z</time>
      </trkpt>
      <trkpt lat="48.04094" lon="7.13735">
        <ele>373.4</ele>
        <time>2021-06-23T06:21:53Z</time>
      </trkpt>
      <trkpt lat="48.04095" lon="7.1373">
        <ele>373.4</ele>
        <time>2021-06-23T06:21:54Z</time>
      </trkpt>
      <trkpt lat="48.04097" lon="7.13724">
        <ele>373.6</ele>
        <time>2021-06-23T06:21:55Z</time>
      </trkpt>
      <trkpt lat="48.04104" lon="7.13717">
        <ele>373.8</ele>
        <time>2021-06-23T06:21:57Z</time>
      </trkpt>
      <trkpt lat="48.04107" lon="7.13715">
        <ele>373.8</ele>
        <time>2021-06-23T06:21:58Z</time>
      </trkpt>
      <trkpt lat="48.04115" lon="7.1371">
        <ele>374.2</ele>
        <time>2021-06-23T06:22:00Z</time>
      </trkpt>
      <trkpt lat="48.04117" lon="7.13706">
        <ele>374.2</ele>
        <time>2021-06-23T06:22:01Z</time>
      </trkpt>
      <trkpt lat="48.04119" lon="7.13697">
        <ele>374.4</ele>
        <time>2021-06-23T06:22:03Z</time>
      </trkpt>
      <trkpt lat="48.04119" lon="7.1369">
        <ele>374.6</ele>
        <time>2021-06-23T06:22:04Z</time>
      </trkpt>
      <trkpt lat="48.04119" lon="7.13684">
        <ele>374.6</ele>
        <time>2021-06-23T06:22:05Z</time>
      </trkpt>
      <trkpt lat="48.0412" lon="7.1367">
        <ele>374.8</ele>
        <time>2021-06-23T06:22:07Z</time>
      </trkpt>
      <trkpt lat="48.04121" lon="7.13658">
        <ele>375</ele>
        <time>2021-06-23T06:22:09Z</time>
      </trkpt>
      <trkpt lat="48.04121" lon="7.13644">
        <ele>375.6</ele>
        <time>2021-06-23T06:22:11Z</time>
      </trkpt>
      <trkpt lat="48.04123" lon="7.13631">
        <ele>376</ele>
        <time>2021-06-23T06:22:13Z</time>
      </trkpt>
      <trkpt lat="48.04124" lon="7.13624">
        <ele>376.2</ele>
        <time>2021-06-23T06:22:14Z</time>
      </trkpt>
      <trkpt lat="48.04127" lon="7.13604">
        <ele>376.8</ele>
        <time>2021-06-23T06:22:17Z</time>
      </trkpt>
      <trkpt lat="48.04131" lon="7.13584">
        <ele>377</ele>
        <time>2021-06-23T06:22:20Z</time>
      </trkpt>
      <trkpt lat="48.04135" lon="7.1357">
        <ele>377.2</ele>
        <time>2021-06-23T06:22:22Z</time>
      </trkpt>
      <trkpt lat="48.04139" lon="7.13551">
        <ele>377.4</ele>
        <time>2021-06-23T06:22:25Z</time>
      </trkpt>
      <trkpt lat="48.0414" lon="7.13545">
        <ele>377.4</ele>
        <time>2021-06-23T06:22:26Z</time>
      </trkpt>
      <trkpt lat="48.0414" lon="7.13529">
        <ele>377.8</ele>
        <time>2021-06-23T06:22:28Z</time>
      </trkpt>
      <trkpt lat="48.04141" lon="7.13516">
        <ele>378</ele>
        <time>2021-06-23T06:22:30Z</time>
      </trkpt>
      <trkpt lat="48.04142" lon="7.13509">
        <ele>378.2</ele>
        <time>2021-06-23T06:22:31Z</time>
      </trkpt>
      <trkpt lat="48.04142" lon="7.13502">
        <ele>378.2</ele>
        <time>2021-06-23T06:22:32Z</time>
      </trkpt>
      <trkpt lat="48.04144" lon="7.13481">
        <ele>378.8</ele>
        <time>2021-06-23T06:22:35Z</time>
      </trkpt>
      <trkpt lat="48.04146" lon="7.13469">
        <ele>379</ele>
        <time>2021-06-23T06:22:37Z</time>
      </trkpt>
      <trkpt lat="48.04152" lon="7.13443">
        <ele>379.4</ele>
        <time>2021-06-23T06:22:41Z</time>
      </trkpt>
      <trkpt lat="48.04153" lon="7.13435">
        <ele>379.4</ele>
        <time>2021-06-23T06:22:42Z</time>
      </trkpt>
      <trkpt lat="48.04154" lon="7.13428">
        <ele>379.6</ele>
        <time>2021-06-23T06:22:43Z</time>
      </trkpt>
      <trkpt lat="48.04158" lon="7.13409">
        <ele>379.8</ele>
        <time>2021-06-23T06:22:46Z</time>
      </trkpt>
      <trkpt lat="48.0416" lon="7.13393">
        <ele>380</ele>
        <time>2021-06-23T06:22:48Z</time>
      </trkpt>
      <trkpt lat="48.04166" lon="7.13362">
        <ele>380.4</ele>
        <time>2021-06-23T06:22:52Z</time>
      </trkpt>
      <trkpt lat="48.04171" lon="7.13347">
        <ele>380.6</ele>
        <time>2021-06-23T06:22:54Z</time>
      </trkpt>
      <trkpt lat="48.04174" lon="7.13333">
        <ele>380.6</ele>
        <time>2021-06-23T06:22:56Z</time>
      </trkpt>
      <trkpt lat="48.04174" lon="7.13315">
        <ele>380.8</ele>
        <time>2021-06-23T06:22:58Z</time>
      </trkpt>
      <trkpt lat="48.04175" lon="7.13294">
        <ele>380.8</ele>
        <time>2021-06-23T06:23:00Z</time>
      </trkpt>
      <trkpt lat="48.04173" lon="7.13251">
        <ele>381.2</ele>
        <time>2021-06-23T06:23:05Z</time>
      </trkpt>
      <trkpt lat="48.04172" lon="7.13217">
        <ele>381.6</ele>
        <time>2021-06-23T06:23:09Z</time>
      </trkpt>
      <trkpt lat="48.04174" lon="7.13203">
        <ele>381.8</ele>
        <time>2021-06-23T06:23:11Z</time>
      </trkpt>
      <trkpt lat="48.04179" lon="7.13191">
        <ele>381.6</ele>
        <time>2021-06-23T06:23:13Z</time>
      </trkpt>
      <trkpt lat="48.04181" lon="7.13185">
        <ele>381.8</ele>
        <time>2021-06-23T06:23:14Z</time>
      </trkpt>
      <trkpt lat="48.04186" lon="7.13175">
        <ele>382</ele>
        <time>2021-06-23T06:23:16Z</time>
      </trkpt>
      <trkpt lat="48.04192" lon="7.13165">
        <ele>382.4</ele>
        <time>2021-06-23T06:23:18Z</time>
      </trkpt>
      <trkpt lat="48.04199" lon="7.13152">
        <ele>382.8</ele>
        <time>2021-06-23T06:23:20Z</time>
      </trkpt>
      <trkpt lat="48.04202" lon="7.13144">
        <ele>383</ele>
        <time>2021-06-23T06:23:21Z</time>
      </trkpt>
      <trkpt lat="48.04204" lon="7.13138">
        <ele>383.2</ele>
        <time>2021-06-23T06:23:22Z</time>
      </trkpt>
      <trkpt lat="48.04214" lon="7.13107">
        <ele>384</ele>
        <time>2021-06-23T06:23:27Z</time>
      </trkpt>
      <trkpt lat="48.04219" lon="7.13093">
        <ele>384.4</ele>
        <time>2021-06-23T06:23:29Z</time>
      </trkpt>
      <trkpt lat="48.04228" lon="7.13067">
        <ele>385</ele>
        <time>2021-06-23T06:23:33Z</time>
      </trkpt>
      <trkpt lat="48.04237" lon="7.13041">
        <ele>385.6</ele>
        <time>2021-06-23T06:23:37Z</time>
      </trkpt>
      <trkpt lat="48.04242" lon="7.13028">
        <ele>386</ele>
        <time>2021-06-23T06:23:39Z</time>
      </trkpt>
      <trkpt lat="48.04259" lon="7.12975">
        <ele>386.8</ele>
        <time>2021-06-23T06:23:47Z</time>
      </trkpt>
      <trkpt lat="48.04261" lon="7.12968">
        <ele>387</ele>
        <time>2021-06-23T06:23:48Z</time>
      </trkpt>
      <trkpt lat="48.04278" lon="7.12918">
        <ele>388</ele>
        <time>2021-06-23T06:23:56Z</time>
      </trkpt>
      <trkpt lat="48.0428" lon="7.12911">
        <ele>388.2</ele>
        <time>2021-06-23T06:23:57Z</time>
      </trkpt>
      <trkpt lat="48.04282" lon="7.12905">
        <ele>388.4</ele>
        <time>2021-06-23T06:23:58Z</time>
      </trkpt>
      <trkpt lat="48.04288" lon="7.12887">
        <ele>388.6</ele>
        <time>2021-06-23T06:24:01Z</time>
      </trkpt>
      <trkpt lat="48.04302" lon="7.12859">
        <ele>389.2</ele>
        <time>2021-06-23T06:24:06Z</time>
      </trkpt>
      <trkpt lat="48.04309" lon="7.12848">
        <ele>389.4</ele>
        <time>2021-06-23T06:24:08Z</time>
      </trkpt>
      <trkpt lat="48.04322" lon="7.12827">
        <ele>390</ele>
        <time>2021-06-23T06:24:12Z</time>
      </trkpt>
      <trkpt lat="48.0433" lon="7.12816">
        <ele>390.2</ele>
        <time>2021-06-23T06:24:14Z</time>
      </trkpt>
      <trkpt lat="48.04333" lon="7.12811">
        <ele>390.4</ele>
        <time>2021-06-23T06:24:15Z</time>
      </trkpt>
      <trkpt lat="48.04358" lon="7.12775">
        <ele>391.4</ele>
        <time>2021-06-23T06:24:22Z</time>
      </trkpt>
      <trkpt lat="48.04383" lon="7.1274">
        <ele>391.8</ele>
        <time>2021-06-23T06:24:29Z</time>
      </trkpt>
      <trkpt lat="48.04386" lon="7.12735">
        <ele>391.8</ele>
        <time>2021-06-23T06:24:30Z</time>
      </trkpt>
      <trkpt lat="48.04394" lon="7.12725">
        <ele>392</ele>
        <time>2021-06-23T06:24:32Z</time>
      </trkpt>
      <trkpt lat="48.04401" lon="7.12715">
        <ele>392.4</ele>
        <time>2021-06-23T06:24:34Z</time>
      </trkpt>
      <trkpt lat="48.04431" lon="7.12667">
        <ele>393.4</ele>
        <time>2021-06-23T06:24:43Z</time>
      </trkpt>
      <trkpt lat="48.04434" lon="7.12662">
        <ele>393.6</ele>
        <time>2021-06-23T06:24:44Z</time>
      </trkpt>
      <trkpt lat="48.04457" lon="7.12616">
        <ele>394.2</ele>
        <time>2021-06-23T06:24:52Z</time>
      </trkpt>
      <trkpt lat="48.04466" lon="7.12591">
        <ele>394.6</ele>
        <time>2021-06-23T06:24:56Z</time>
      </trkpt>
      <trkpt lat="48.04476" lon="7.12566">
        <ele>395</ele>
        <time>2021-06-23T06:25:00Z</time>
      </trkpt>
      <trkpt lat="48.04493" lon="7.12524">
        <ele>395.6</ele>
        <time>2021-06-23T06:25:07Z</time>
      </trkpt>
      <trkpt lat="48.04508" lon="7.12481">
        <ele>396.8</ele>
        <time>2021-06-23T06:25:14Z</time>
      </trkpt>
      <trkpt lat="48.04512" lon="7.12468">
        <ele>397</ele>
        <time>2021-06-23T06:25:16Z</time>
      </trkpt>
      <trkpt lat="48.04529" lon="7.12426">
        <ele>397.8</ele>
        <time>2021-06-23T06:25:23Z</time>
      </trkpt>
      <trkpt lat="48.04537" lon="7.12408">
        <ele>398</ele>
        <time>2021-06-23T06:25:26Z</time>
      </trkpt>
      <trkpt lat="48.04562" lon="7.12365">
        <ele>398.8</ele>
        <time>2021-06-23T06:25:34Z</time>
      </trkpt>
      <trkpt lat="48.04594" lon="7.12311">
        <ele>399.8</ele>
        <time>2021-06-23T06:25:44Z</time>
      </trkpt>
      <trkpt lat="48.04601" lon="7.123">
        <ele>400</ele>
        <time>2021-06-23T06:25:46Z</time>
      </trkpt>
      <trkpt lat="48.04631" lon="7.12253">
        <ele>400.8</ele>
        <time>2021-06-23T06:25:55Z</time>
      </trkpt>
      <trkpt lat="48.04634" lon="7.12247">
        <ele>401</ele>
        <time>2021-06-23T06:25:56Z</time>
      </trkpt>
      <trkpt lat="48.04654" lon="7.12215">
        <ele>401.6</ele>
        <time>2021-06-23T06:26:02Z</time>
      </trkpt>
      <trkpt lat="48.04667" lon="7.12194">
        <ele>402</ele>
        <time>2021-06-23T06:26:06Z</time>
      </trkpt>
      <trkpt lat="48.0468" lon="7.12172">
        <ele>402.4</ele>
        <time>2021-06-23T06:26:10Z</time>
      </trkpt>
      <trkpt lat="48.04697" lon="7.12145">
        <ele>403.2</ele>
        <time>2021-06-23T06:26:15Z</time>
      </trkpt>
      <trkpt lat="48.04713" lon="7.12118">
        <ele>404</ele>
        <time>2021-06-23T06:26:20Z</time>
      </trkpt>
      <trkpt lat="48.04725" lon="7.12097">
        <ele>404.2</ele>
        <time>2021-06-23T06:26:24Z</time>
      </trkpt>
      <trkpt lat="48.0473" lon="7.12085">
        <ele>404.2</ele>
        <time>2021-06-23T06:26:26Z</time>
      </trkpt>
      <trkpt lat="48.04735" lon="7.12074">
        <ele>404.6</ele>
        <time>2021-06-23T06:26:28Z</time>
      </trkpt>
      <trkpt lat="48.04737" lon="7.12068">
        <ele>404.8</ele>
        <time>2021-06-23T06:26:29Z</time>
      </trkpt>
      <trkpt lat="48.04743" lon="7.12049">
        <ele>405.4</ele>
        <time>2021-06-23T06:26:32Z</time>
      </trkpt>
      <trkpt lat="48.04749" lon="7.1203">
        <ele>405.6</ele>
        <time>2021-06-23T06:26:35Z</time>
      </trkpt>
      <trkpt lat="48.04758" lon="7.12006">
        <ele>406.4</ele>
        <time>2021-06-23T06:26:39Z</time>
      </trkpt>
      <trkpt lat="48.04766" lon="7.11982">
        <ele>406.6</ele>
        <time>2021-06-23T06:26:43Z</time>
      </trkpt>
      <trkpt lat="48.04772" lon="7.11963">
        <ele>407.4</ele>
        <time>2021-06-23T06:26:46Z</time>
      </trkpt>
      <trkpt lat="48.04781" lon="7.11935">
        <ele>407.8</ele>
        <time>2021-06-23T06:26:51Z</time>
      </trkpt>
      <trkpt lat="48.04783" lon="7.1193">
        <ele>408</ele>
        <time>2021-06-23T06:26:52Z</time>
      </trkpt>
      <trkpt lat="48.04788" lon="7.11924">
        <ele>408.4</ele>
        <time>2021-06-23T06:26:54Z</time>
      </trkpt>
      <trkpt lat="48.04795" lon="7.11922">
        <ele>408.6</ele>
        <time>2021-06-23T06:26:56Z</time>
      </trkpt>
      <trkpt lat="48.04816" lon="7.11928">
        <ele>408.8</ele>
        <time>2021-06-23T06:27:01Z</time>
      </trkpt>
      <trkpt lat="48.0482" lon="7.11929">
        <ele>408.6</ele>
        <time>2021-06-23T06:27:02Z</time>
      </trkpt>
      <trkpt lat="48.04837" lon="7.11938">
        <ele>409</ele>
        <time>2021-06-23T06:27:06Z</time>
      </trkpt>
      <trkpt lat="48.04863" lon="7.11954">
        <ele>409.4</ele>
        <time>2021-06-23T06:27:12Z</time>
      </trkpt>
      <trkpt lat="48.04871" lon="7.11959">
        <ele>409.6</ele>
        <time>2021-06-23T06:27:14Z</time>
      </trkpt>
      <trkpt lat="48.049" lon="7.11975">
        <ele>410.2</ele>
        <time>2021-06-23T06:27:22Z</time>
      </trkpt>
      <trkpt lat="48.04905" lon="7.11982">
        <ele>410.6</ele>
        <time>2021-06-23T06:27:26Z</time>
      </trkpt>
      <trkpt lat="48.04905" lon="7.11982">
        <ele>410.8</ele>
        <time>2021-06-23T06:27:28Z</time>
      </trkpt>
      <trkpt lat="48.04911" lon="7.11986">
        <ele>411.4</ele>
        <time>2021-06-23T06:27:39Z</time>
      </trkpt>
      <trkpt lat="48.04912" lon="7.11986">
        <ele>411.4</ele>
        <time>2021-06-23T06:27:40Z</time>
      </trkpt>
      <trkpt lat="48.04915" lon="7.11987">
        <ele>411.4</ele>
        <time>2021-06-23T06:27:42Z</time>
      </trkpt>
      <trkpt lat="48.04918" lon="7.11986">
        <ele>411.6</ele>
        <time>2021-06-23T06:27:45Z</time>
      </trkpt>
      <trkpt lat="48.0493" lon="7.11994">
        <ele>412.4</ele>
        <time>2021-06-23T06:27:54Z</time>
      </trkpt>
      <trkpt lat="48.04932" lon="7.11999">
        <ele>413</ele>
        <time>2021-06-23T06:28:01Z</time>
      </trkpt>
      <trkpt lat="48.0494" lon="7.11997">
        <ele>414</ele>
        <time>2021-06-23T06:33:46Z</time>
      </trkpt>
      <trkpt lat="48.04946" lon="7.11999">
        <ele>414</ele>
        <time>2021-06-23T06:33:49Z</time>
      </trkpt>
      <trkpt lat="48.0496" lon="7.12003">
        <ele>414.4</ele>
        <time>2021-06-23T06:33:54Z</time>
      </trkpt>
      <trkpt lat="48.04967" lon="7.12005">
        <ele>415</ele>
        <time>2021-06-23T06:33:57Z</time>
      </trkpt>
      <trkpt lat="48.04972" lon="7.12007">
        <ele>415.4</ele>
        <time>2021-06-23T06:33:59Z</time>
      </trkpt>
      <trkpt lat="48.0498" lon="7.12011">
        <ele>416.2</ele>
        <time>2021-06-23T06:34:02Z</time>
      </trkpt>
      <trkpt lat="48.04989" lon="7.12019">
        <ele>417</ele>
        <time>2021-06-23T06:34:06Z</time>
      </trkpt>
      <trkpt lat="48.04991" lon="7.12022">
        <ele>417.2</ele>
        <time>2021-06-23T06:34:07Z</time>
      </trkpt>
      <trkpt lat="48.05" lon="7.12029">
        <ele>418.2</ele>
        <time>2021-06-23T06:34:11Z</time>
      </trkpt>
      <trkpt lat="48.05004" lon="7.12033">
        <ele>418.6</ele>
        <time>2021-06-23T06:34:13Z</time>
      </trkpt>
      <trkpt lat="48.05011" lon="7.12041">
        <ele>419.2</ele>
        <time>2021-06-23T06:34:17Z</time>
      </trkpt>
      <trkpt lat="48.05015" lon="7.12044">
        <ele>419.6</ele>
        <time>2021-06-23T06:34:19Z</time>
      </trkpt>
      <trkpt lat="48.05023" lon="7.12052">
        <ele>420.4</ele>
        <time>2021-06-23T06:34:23Z</time>
      </trkpt>
      <trkpt lat="48.05028" lon="7.12061">
        <ele>421</ele>
        <time>2021-06-23T06:34:26Z</time>
      </trkpt>
      <trkpt lat="48.0503" lon="7.12066">
        <ele>421.4</ele>
        <time>2021-06-23T06:34:28Z</time>
      </trkpt>
      <trkpt lat="48.05035" lon="7.12076">
        <ele>422.6</ele>
        <time>2021-06-23T06:34:31Z</time>
      </trkpt>
      <trkpt lat="48.05042" lon="7.12089">
        <ele>423.4</ele>
        <time>2021-06-23T06:34:35Z</time>
      </trkpt>
      <trkpt lat="48.05046" lon="7.12098">
        <ele>423.8</ele>
        <time>2021-06-23T06:34:38Z</time>
      </trkpt>
      <trkpt lat="48.05054" lon="7.12114">
        <ele>424.8</ele>
        <time>2021-06-23T06:34:43Z</time>
      </trkpt>
      <trkpt lat="48.05062" lon="7.12132">
        <ele>426.2</ele>
        <time>2021-06-23T06:34:49Z</time>
      </trkpt>
      <trkpt lat="48.05065" lon="7.12137">
        <ele>426.6</ele>
        <time>2021-06-23T06:34:51Z</time>
      </trkpt>
      <trkpt lat="48.0507" lon="7.12148">
        <ele>427.4</ele>
        <time>2021-06-23T06:34:55Z</time>
      </trkpt>
      <trkpt lat="48.05075" lon="7.12156">
        <ele>428.2</ele>
        <time>2021-06-23T06:34:58Z</time>
      </trkpt>
      <trkpt lat="48.05078" lon="7.1216">
        <ele>428.6</ele>
        <time>2021-06-23T06:35:00Z</time>
      </trkpt>
      <trkpt lat="48.05084" lon="7.12169">
        <ele>429.4</ele>
        <time>2021-06-23T06:35:04Z</time>
      </trkpt>
      <trkpt lat="48.05087" lon="7.12174">
        <ele>429.6</ele>
        <time>2021-06-23T06:35:06Z</time>
      </trkpt>
      <trkpt lat="48.05092" lon="7.12186">
        <ele>430.6</ele>
        <time>2021-06-23T06:35:10Z</time>
      </trkpt>
      <trkpt lat="48.05094" lon="7.12188">
        <ele>430.8</ele>
        <time>2021-06-23T06:35:11Z</time>
      </trkpt>
      <trkpt lat="48.05102" lon="7.122">
        <ele>431.8</ele>
        <time>2021-06-23T06:35:17Z</time>
      </trkpt>
      <trkpt lat="48.05109" lon="7.12212">
        <ele>433.2</ele>
        <time>2021-06-23T06:35:22Z</time>
      </trkpt>
      <trkpt lat="48.05114" lon="7.1222">
        <ele>433.6</ele>
        <time>2021-06-23T06:35:25Z</time>
      </trkpt>
      <trkpt lat="48.0512" lon="7.1223">
        <ele>434.4</ele>
        <time>2021-06-23T06:35:29Z</time>
      </trkpt>
      <trkpt lat="48.05124" lon="7.12236">
        <ele>434.8</ele>
        <time>2021-06-23T06:35:32Z</time>
      </trkpt>
      <trkpt lat="48.05129" lon="7.12242">
        <ele>435.2</ele>
        <time>2021-06-23T06:35:35Z</time>
      </trkpt>
      <trkpt lat="48.05133" lon="7.12248">
        <ele>435.8</ele>
        <time>2021-06-23T06:35:37Z</time>
      </trkpt>
      <trkpt lat="48.0514" lon="7.12258">
        <ele>436.4</ele>
        <time>2021-06-23T06:35:40Z</time>
      </trkpt>
      <trkpt lat="48.05147" lon="7.12268">
        <ele>437.2</ele>
        <time>2021-06-23T06:35:44Z</time>
      </trkpt>
      <trkpt lat="48.0515" lon="7.12273">
        <ele>437.6</ele>
        <time>2021-06-23T06:35:46Z</time>
      </trkpt>
      <trkpt lat="48.05155" lon="7.12284">
        <ele>438</ele>
        <time>2021-06-23T06:35:49Z</time>
      </trkpt>
      <trkpt lat="48.05159" lon="7.12291">
        <ele>438.4</ele>
        <time>2021-06-23T06:35:51Z</time>
      </trkpt>
      <trkpt lat="48.05163" lon="7.12296">
        <ele>438.6</ele>
        <time>2021-06-23T06:35:53Z</time>
      </trkpt>
      <trkpt lat="48.05173" lon="7.12308">
        <ele>440</ele>
        <time>2021-06-23T06:35:58Z</time>
      </trkpt>
      <trkpt lat="48.05184" lon="7.12317">
        <ele>441.2</ele>
        <time>2021-06-23T06:36:03Z</time>
      </trkpt>
      <trkpt lat="48.05192" lon="7.12324">
        <ele>441.6</ele>
        <time>2021-06-23T06:36:07Z</time>
      </trkpt>
      <trkpt lat="48.052" lon="7.12331">
        <ele>442.4</ele>
        <time>2021-06-23T06:36:11Z</time>
      </trkpt>
      <trkpt lat="48.05206" lon="7.12337">
        <ele>443.4</ele>
        <time>2021-06-23T06:36:14Z</time>
      </trkpt>
      <trkpt lat="48.05208" lon="7.12339">
        <ele>443.6</ele>
        <time>2021-06-23T06:36:15Z</time>
      </trkpt>
      <trkpt lat="48.05215" lon="7.12348">
        <ele>444.6</ele>
        <time>2021-06-23T06:36:19Z</time>
      </trkpt>
      <trkpt lat="48.05224" lon="7.12359">
        <ele>445.8</ele>
        <time>2021-06-23T06:36:24Z</time>
      </trkpt>
      <trkpt lat="48.05225" lon="7.12361">
        <ele>446</ele>
        <time>2021-06-23T06:36:25Z</time>
      </trkpt>
      <trkpt lat="48.0523" lon="7.12366">
        <ele>446.6</ele>
        <time>2021-06-23T06:36:28Z</time>
      </trkpt>
      <trkpt lat="48.05231" lon="7.12368">
        <ele>447</ele>
        <time>2021-06-23T06:36:29Z</time>
      </trkpt>
      <trkpt lat="48.05235" lon="7.12384">
        <ele>448.2</ele>
        <time>2021-06-23T06:36:35Z</time>
      </trkpt>
      <trkpt lat="48.05242" lon="7.124">
        <ele>449.4</ele>
        <time>2021-06-23T06:36:40Z</time>
      </trkpt>
      <trkpt lat="48.05243" lon="7.12403">
        <ele>449.4</ele>
        <time>2021-06-23T06:36:41Z</time>
      </trkpt>
      <trkpt lat="48.0525" lon="7.12415">
        <ele>450.4</ele>
        <time>2021-06-23T06:36:45Z</time>
      </trkpt>
      <trkpt lat="48.05257" lon="7.12421">
        <ele>450.8</ele>
        <time>2021-06-23T06:36:48Z</time>
      </trkpt>
      <trkpt lat="48.05264" lon="7.12424">
        <ele>451.4</ele>
        <time>2021-06-23T06:36:51Z</time>
      </trkpt>
      <trkpt lat="48.05271" lon="7.12424">
        <ele>452.2</ele>
        <time>2021-06-23T06:36:54Z</time>
      </trkpt>
      <trkpt lat="48.05276" lon="7.12423">
        <ele>452.4</ele>
        <time>2021-06-23T06:36:56Z</time>
      </trkpt>
      <trkpt lat="48.05287" lon="7.12416">
        <ele>453.6</ele>
        <time>2021-06-23T06:37:01Z</time>
      </trkpt>
      <trkpt lat="48.05297" lon="7.12397">
        <ele>454.4</ele>
        <time>2021-06-23T06:37:07Z</time>
      </trkpt>
      <trkpt lat="48.05299" lon="7.12394">
        <ele>454.6</ele>
        <time>2021-06-23T06:37:08Z</time>
      </trkpt>
      <trkpt lat="48.05308" lon="7.12376">
        <ele>455.8</ele>
        <time>2021-06-23T06:37:14Z</time>
      </trkpt>
      <trkpt lat="48.05319" lon="7.12362">
        <ele>456.8</ele>
        <time>2021-06-23T06:37:20Z</time>
      </trkpt>
      <trkpt lat="48.05328" lon="7.12353">
        <ele>457.4</ele>
        <time>2021-06-23T06:37:24Z</time>
      </trkpt>
      <trkpt lat="48.0533" lon="7.12351">
        <ele>458</ele>
        <time>2021-06-23T06:37:25Z</time>
      </trkpt>
      <trkpt lat="48.05342" lon="7.12338">
        <ele>459</ele>
        <time>2021-06-23T06:37:31Z</time>
      </trkpt>
      <trkpt lat="48.05349" lon="7.1233">
        <ele>459.6</ele>
        <time>2021-06-23T06:37:35Z</time>
      </trkpt>
      <trkpt lat="48.05354" lon="7.12326">
        <ele>460.2</ele>
        <time>2021-06-23T06:37:37Z</time>
      </trkpt>
      <trkpt lat="48.05361" lon="7.12317">
        <ele>461.2</ele>
        <time>2021-06-23T06:37:41Z</time>
      </trkpt>
      <trkpt lat="48.05371" lon="7.12306">
        <ele>462.2</ele>
        <time>2021-06-23T06:37:46Z</time>
      </trkpt>
      <trkpt lat="48.05375" lon="7.12301">
        <ele>462.6</ele>
        <time>2021-06-23T06:37:48Z</time>
      </trkpt>
      <trkpt lat="48.05383" lon="7.12293">
        <ele>463</ele>
        <time>2021-06-23T06:37:52Z</time>
      </trkpt>
      <trkpt lat="48.05385" lon="7.12291">
        <ele>463.2</ele>
        <time>2021-06-23T06:37:53Z</time>
      </trkpt>
      <trkpt lat="48.05387" lon="7.12289">
        <ele>463.4</ele>
        <time>2021-06-23T06:37:54Z</time>
      </trkpt>
      <trkpt lat="48.05396" lon="7.12281">
        <ele>464.2</ele>
        <time>2021-06-23T06:37:58Z</time>
      </trkpt>
      <trkpt lat="48.05403" lon="7.1228">
        <ele>464.8</ele>
        <time>2021-06-23T06:38:01Z</time>
      </trkpt>
      <trkpt lat="48.05408" lon="7.12283">
        <ele>465.2</ele>
        <time>2021-06-23T06:38:03Z</time>
      </trkpt>
      <trkpt lat="48.0541" lon="7.12285">
        <ele>465.2</ele>
        <time>2021-06-23T06:38:04Z</time>
      </trkpt>
      <trkpt lat="48.05412" lon="7.12291">
        <ele>465.4</ele>
        <time>2021-06-23T06:38:06Z</time>
      </trkpt>
      <trkpt lat="48.05413" lon="7.12295">
        <ele>465.6</ele>
        <time>2021-06-23T06:38:07Z</time>
      </trkpt>
      <trkpt lat="48.05409" lon="7.12304">
        <ele>466.2</ele>
        <time>2021-06-23T06:38:10Z</time>
      </trkpt>
      <trkpt lat="48.05397" lon="7.12319">
        <ele>467.4</ele>
        <time>2021-06-23T06:38:16Z</time>
      </trkpt>
      <trkpt lat="48.05396" lon="7.12322">
        <ele>467.6</ele>
        <time>2021-06-23T06:38:17Z</time>
      </trkpt>
      <trkpt lat="48.0539" lon="7.12334">
        <ele>468.4</ele>
        <time>2021-06-23T06:38:21Z</time>
      </trkpt>
      <trkpt lat="48.05387" lon="7.12345">
        <ele>468.8</ele>
        <time>2021-06-23T06:38:24Z</time>
      </trkpt>
      <trkpt lat="48.05384" lon="7.1236">
        <ele>469.6</ele>
        <time>2021-06-23T06:38:28Z</time>
      </trkpt>
      <trkpt lat="48.05381" lon="7.12379">
        <ele>470.4</ele>
        <time>2021-06-23T06:38:33Z</time>
      </trkpt>
      <trkpt lat="48.0538" lon="7.12387">
        <ele>470.6</ele>
        <time>2021-06-23T06:38:35Z</time>
      </trkpt>
      <trkpt lat="48.05376" lon="7.12406">
        <ele>471.8</ele>
        <time>2021-06-23T06:38:40Z</time>
      </trkpt>
      <trkpt lat="48.05375" lon="7.1241">
        <ele>471.8</ele>
        <time>2021-06-23T06:38:41Z</time>
      </trkpt>
      <trkpt lat="48.05376" lon="7.12428">
        <ele>472.8</ele>
        <time>2021-06-23T06:38:46Z</time>
      </trkpt>
      <trkpt lat="48.05376" lon="7.12431">
        <ele>473</ele>
        <time>2021-06-23T06:38:47Z</time>
      </trkpt>
      <trkpt lat="48.05385" lon="7.12448">
        <ele>474</ele>
        <time>2021-06-23T06:38:53Z</time>
      </trkpt>
      <trkpt lat="48.05394" lon="7.12458">
        <ele>475</ele>
        <time>2021-06-23T06:38:58Z</time>
      </trkpt>
      <trkpt lat="48.05407" lon="7.12473">
        <ele>476</ele>
        <time>2021-06-23T06:39:04Z</time>
      </trkpt>
      <trkpt lat="48.05408" lon="7.12476">
        <ele>476.4</ele>
        <time>2021-06-23T06:39:05Z</time>
      </trkpt>
      <trkpt lat="48.05413" lon="7.12484">
        <ele>477</ele>
        <time>2021-06-23T06:39:08Z</time>
      </trkpt>
      <trkpt lat="48.05423" lon="7.12498">
        <ele>478.2</ele>
        <time>2021-06-23T06:39:13Z</time>
      </trkpt>
      <trkpt lat="48.05428" lon="7.12508">
        <ele>478.8</ele>
        <time>2021-06-23T06:39:16Z</time>
      </trkpt>
      <trkpt lat="48.05436" lon="7.12518">
        <ele>479</ele>
        <time>2021-06-23T06:39:19Z</time>
      </trkpt>
      <trkpt lat="48.05437" lon="7.12523">
        <ele>479</ele>
        <time>2021-06-23T06:39:20Z</time>
      </trkpt>
      <trkpt lat="48.05438" lon="7.12534">
        <ele>479</ele>
        <time>2021-06-23T06:39:22Z</time>
      </trkpt>
      <trkpt lat="48.05438" lon="7.1254">
        <ele>479</ele>
        <time>2021-06-23T06:39:23Z</time>
      </trkpt>
      <trkpt lat="48.05438" lon="7.12569">
        <ele>479</ele>
        <time>2021-06-23T06:39:28Z</time>
      </trkpt>
      <trkpt lat="48.05441" lon="7.12591">
        <ele>479.4</ele>
        <time>2021-06-23T06:39:32Z</time>
      </trkpt>
      <trkpt lat="48.05443" lon="7.1261">
        <ele>479.8</ele>
        <time>2021-06-23T06:39:36Z</time>
      </trkpt>
      <trkpt lat="48.05445" lon="7.12624">
        <ele>480.4</ele>
        <time>2021-06-23T06:39:39Z</time>
      </trkpt>
      <trkpt lat="48.0545" lon="7.12642">
        <ele>481</ele>
        <time>2021-06-23T06:39:43Z</time>
      </trkpt>
      <trkpt lat="48.05457" lon="7.12653">
        <ele>481.4</ele>
        <time>2021-06-23T06:39:46Z</time>
      </trkpt>
      <trkpt lat="48.05459" lon="7.12658">
        <ele>481.6</ele>
        <time>2021-06-23T06:39:47Z</time>
      </trkpt>
      <trkpt lat="48.05471" lon="7.1268">
        <ele>482.2</ele>
        <time>2021-06-23T06:39:53Z</time>
      </trkpt>
      <trkpt lat="48.05475" lon="7.12685">
        <ele>482.4</ele>
        <time>2021-06-23T06:39:55Z</time>
      </trkpt>
      <trkpt lat="48.05483" lon="7.12697">
        <ele>483.2</ele>
        <time>2021-06-23T06:39:59Z</time>
      </trkpt>
      <trkpt lat="48.05486" lon="7.12702">
        <ele>483.8</ele>
        <time>2021-06-23T06:40:01Z</time>
      </trkpt>
      <trkpt lat="48.05491" lon="7.12713">
        <ele>484.8</ele>
        <time>2021-06-23T06:40:05Z</time>
      </trkpt>
      <trkpt lat="48.05492" lon="7.12717">
        <ele>485.2</ele>
        <time>2021-06-23T06:40:06Z</time>
      </trkpt>
      <trkpt lat="48.05492" lon="7.12723">
        <ele>485.6</ele>
        <time>2021-06-23T06:40:08Z</time>
      </trkpt>
      <trkpt lat="48.05489" lon="7.12728">
        <ele>485.8</ele>
        <time>2021-06-23T06:40:10Z</time>
      </trkpt>
      <trkpt lat="48.05487" lon="7.12729">
        <ele>486</ele>
        <time>2021-06-23T06:40:11Z</time>
      </trkpt>
      <trkpt lat="48.05479" lon="7.12729">
        <ele>486.8</ele>
        <time>2021-06-23T06:40:14Z</time>
      </trkpt>
      <trkpt lat="48.05477" lon="7.12729">
        <ele>487</ele>
        <time>2021-06-23T06:40:15Z</time>
      </trkpt>
      <trkpt lat="48.05462" lon="7.1273">
        <ele>488.4</ele>
        <time>2021-06-23T06:40:21Z</time>
      </trkpt>
      <trkpt lat="48.0546" lon="7.1273">
        <ele>488.6</ele>
        <time>2021-06-23T06:40:22Z</time>
      </trkpt>
      <trkpt lat="48.05451" lon="7.12733">
        <ele>489.6</ele>
        <time>2021-06-23T06:40:26Z</time>
      </trkpt>
      <trkpt lat="48.05438" lon="7.12738">
        <ele>490.4</ele>
        <time>2021-06-23T06:40:31Z</time>
      </trkpt>
      <trkpt lat="48.05435" lon="7.12739">
        <ele>490.6</ele>
        <time>2021-06-23T06:40:32Z</time>
      </trkpt>
      <trkpt lat="48.05424" lon="7.12744">
        <ele>492</ele>
        <time>2021-06-23T06:40:37Z</time>
      </trkpt>
      <trkpt lat="48.05423" lon="7.12745">
        <ele>492</ele>
        <time>2021-06-23T06:40:38Z</time>
      </trkpt>
      <trkpt lat="48.05416" lon="7.12749">
        <ele>493</ele>
        <time>2021-06-23T06:40:41Z</time>
      </trkpt>
      <trkpt lat="48.05411" lon="7.1275">
        <ele>493.4</ele>
        <time>2021-06-23T06:40:43Z</time>
      </trkpt>
      <trkpt lat="48.05401" lon="7.12753">
        <ele>494.2</ele>
        <time>2021-06-23T06:40:48Z</time>
      </trkpt>
      <trkpt lat="48.05396" lon="7.12754">
        <ele>494.6</ele>
        <time>2021-06-23T06:40:50Z</time>
      </trkpt>
      <trkpt lat="48.05389" lon="7.12753">
        <ele>495.2</ele>
        <time>2021-06-23T06:40:53Z</time>
      </trkpt>
      <trkpt lat="48.05383" lon="7.12752">
        <ele>495.6</ele>
        <time>2021-06-23T06:40:56Z</time>
      </trkpt>
      <trkpt lat="48.05377" lon="7.12747">
        <ele>496.6</ele>
        <time>2021-06-23T06:40:59Z</time>
      </trkpt>
      <trkpt lat="48.05366" lon="7.12737">
        <ele>498</ele>
        <time>2021-06-23T06:41:04Z</time>
      </trkpt>
      <trkpt lat="48.05353" lon="7.12725">
        <ele>499.2</ele>
        <time>2021-06-23T06:41:10Z</time>
      </trkpt>
      <trkpt lat="48.05345" lon="7.12724">
        <ele>499.6</ele>
        <time>2021-06-23T06:41:13Z</time>
      </trkpt>
      <trkpt lat="48.05336" lon="7.12733">
        <ele>500</ele>
        <time>2021-06-23T06:41:18Z</time>
      </trkpt>
      <trkpt lat="48.05336" lon="7.12737">
        <ele>500.2</ele>
        <time>2021-06-23T06:41:19Z</time>
      </trkpt>
      <trkpt lat="48.05338" lon="7.12744">
        <ele>500.8</ele>
        <time>2021-06-23T06:41:22Z</time>
      </trkpt>
      <trkpt lat="48.0534" lon="7.12745">
        <ele>500.8</ele>
        <time>2021-06-23T06:41:23Z</time>
      </trkpt>
      <trkpt lat="48.05346" lon="7.12748">
        <ele>501.4</ele>
        <time>2021-06-23T06:41:26Z</time>
      </trkpt>
      <trkpt lat="48.05348" lon="7.12749">
        <ele>501.4</ele>
        <time>2021-06-23T06:41:27Z</time>
      </trkpt>
      <trkpt lat="48.05363" lon="7.1276">
        <ele>502.4</ele>
        <time>2021-06-23T06:41:33Z</time>
      </trkpt>
      <trkpt lat="48.05366" lon="7.12761">
        <ele>502.6</ele>
        <time>2021-06-23T06:41:34Z</time>
      </trkpt>
      <trkpt lat="48.05377" lon="7.12769">
        <ele>503.6</ele>
        <time>2021-06-23T06:41:39Z</time>
      </trkpt>
      <trkpt lat="48.05379" lon="7.1277">
        <ele>503.8</ele>
        <time>2021-06-23T06:41:40Z</time>
      </trkpt>
      <trkpt lat="48.05381" lon="7.12771">
        <ele>504</ele>
        <time>2021-06-23T06:41:41Z</time>
      </trkpt>
      <trkpt lat="48.05387" lon="7.12775">
        <ele>504.8</ele>
        <time>2021-06-23T06:41:44Z</time>
      </trkpt>
      <trkpt lat="48.05391" lon="7.12777">
        <ele>505.2</ele>
        <time>2021-06-23T06:41:46Z</time>
      </trkpt>
      <trkpt lat="48.054" lon="7.12783">
        <ele>506</ele>
        <time>2021-06-23T06:41:50Z</time>
      </trkpt>
      <trkpt lat="48.05405" lon="7.12785">
        <ele>506.2</ele>
        <time>2021-06-23T06:41:52Z</time>
      </trkpt>
      <trkpt lat="48.05416" lon="7.12791">
        <ele>507</ele>
        <time>2021-06-23T06:41:57Z</time>
      </trkpt>
      <trkpt lat="48.05424" lon="7.12794">
        <ele>507.6</ele>
        <time>2021-06-23T06:42:00Z</time>
      </trkpt>
      <trkpt lat="48.05429" lon="7.12795">
        <ele>508.2</ele>
        <time>2021-06-23T06:42:02Z</time>
      </trkpt>
      <trkpt lat="48.0544" lon="7.128">
        <ele>509.4</ele>
        <time>2021-06-23T06:42:06Z</time>
      </trkpt>
      <trkpt lat="48.05448" lon="7.12802">
        <ele>509.8</ele>
        <time>2021-06-23T06:42:09Z</time>
      </trkpt>
      <trkpt lat="48.05456" lon="7.12806">
        <ele>510.4</ele>
        <time>2021-06-23T06:42:12Z</time>
      </trkpt>
      <trkpt lat="48.05464" lon="7.12809">
        <ele>511</ele>
        <time>2021-06-23T06:42:15Z</time>
      </trkpt>
      <trkpt lat="48.0547" lon="7.12815">
        <ele>511.6</ele>
        <time>2021-06-23T06:42:18Z</time>
      </trkpt>
      <trkpt lat="48.0548" lon="7.12822">
        <ele>512.2</ele>
        <time>2021-06-23T06:42:22Z</time>
      </trkpt>
      <trkpt lat="48.05485" lon="7.12826">
        <ele>512.6</ele>
        <time>2021-06-23T06:42:24Z</time>
      </trkpt>
      <trkpt lat="48.05498" lon="7.12837">
        <ele>513.6</ele>
        <time>2021-06-23T06:42:30Z</time>
      </trkpt>
      <trkpt lat="48.055" lon="7.12839">
        <ele>513.6</ele>
        <time>2021-06-23T06:42:31Z</time>
      </trkpt>
      <trkpt lat="48.05509" lon="7.12847">
        <ele>514.6</ele>
        <time>2021-06-23T06:42:35Z</time>
      </trkpt>
      <trkpt lat="48.05521" lon="7.12861">
        <ele>515.8</ele>
        <time>2021-06-23T06:42:41Z</time>
      </trkpt>
      <trkpt lat="48.0553" lon="7.12872">
        <ele>516.8</ele>
        <time>2021-06-23T06:42:46Z</time>
      </trkpt>
      <trkpt lat="48.05532" lon="7.12874">
        <ele>517</ele>
        <time>2021-06-23T06:42:47Z</time>
      </trkpt>
      <trkpt lat="48.0554" lon="7.12883">
        <ele>517.8</ele>
        <time>2021-06-23T06:42:51Z</time>
      </trkpt>
      <trkpt lat="48.05548" lon="7.12892">
        <ele>518.6</ele>
        <time>2021-06-23T06:42:55Z</time>
      </trkpt>
      <trkpt lat="48.05551" lon="7.12897">
        <ele>519</ele>
        <time>2021-06-23T06:42:57Z</time>
      </trkpt>
      <trkpt lat="48.05563" lon="7.12911">
        <ele>520</ele>
        <time>2021-06-23T06:43:03Z</time>
      </trkpt>
      <trkpt lat="48.05573" lon="7.12922">
        <ele>521</ele>
        <time>2021-06-23T06:43:08Z</time>
      </trkpt>
      <trkpt lat="48.05581" lon="7.12931">
        <ele>521.8</ele>
        <time>2021-06-23T06:43:12Z</time>
      </trkpt>
      <trkpt lat="48.05585" lon="7.12935">
        <ele>522</ele>
        <time>2021-06-23T06:43:14Z</time>
      </trkpt>
      <trkpt lat="48.05596" lon="7.12944">
        <ele>523.2</ele>
        <time>2021-06-23T06:43:19Z</time>
      </trkpt>
      <trkpt lat="48.056" lon="7.12947">
        <ele>523.6</ele>
        <time>2021-06-23T06:43:21Z</time>
      </trkpt>
      <trkpt lat="48.05609" lon="7.12952">
        <ele>524.4</ele>
        <time>2021-06-23T06:43:25Z</time>
      </trkpt>
      <trkpt lat="48.05618" lon="7.12958">
        <ele>525.2</ele>
        <time>2021-06-23T06:43:29Z</time>
      </trkpt>
      <trkpt lat="48.0562" lon="7.12959">
        <ele>525.4</ele>
        <time>2021-06-23T06:43:30Z</time>
      </trkpt>
      <trkpt lat="48.05635" lon="7.12967">
        <ele>526.4</ele>
        <time>2021-06-23T06:43:36Z</time>
      </trkpt>
      <trkpt lat="48.0564" lon="7.12969">
        <ele>526.8</ele>
        <time>2021-06-23T06:43:38Z</time>
      </trkpt>
      <trkpt lat="48.05647" lon="7.12972">
        <ele>527.4</ele>
        <time>2021-06-23T06:43:41Z</time>
      </trkpt>
      <trkpt lat="48.05662" lon="7.12977">
        <ele>528.4</ele>
        <time>2021-06-23T06:43:47Z</time>
      </trkpt>
      <trkpt lat="48.05675" lon="7.12982">
        <ele>529.4</ele>
        <time>2021-06-23T06:43:53Z</time>
      </trkpt>
      <trkpt lat="48.05677" lon="7.12984">
        <ele>529.6</ele>
        <time>2021-06-23T06:43:54Z</time>
      </trkpt>
      <trkpt lat="48.05688" lon="7.12987">
        <ele>530.4</ele>
        <time>2021-06-23T06:43:58Z</time>
      </trkpt>
      <trkpt lat="48.05694" lon="7.1299">
        <ele>531</ele>
        <time>2021-06-23T06:44:01Z</time>
      </trkpt>
      <trkpt lat="48.05697" lon="7.1299">
        <ele>531.4</ele>
        <time>2021-06-23T06:44:02Z</time>
      </trkpt>
      <trkpt lat="48.05699" lon="7.12991">
        <ele>531.6</ele>
        <time>2021-06-23T06:44:03Z</time>
      </trkpt>
      <trkpt lat="48.05712" lon="7.12995">
        <ele>532.6</ele>
        <time>2021-06-23T06:44:09Z</time>
      </trkpt>
      <trkpt lat="48.05722" lon="7.12997">
        <ele>533.8</ele>
        <time>2021-06-23T06:44:14Z</time>
      </trkpt>
      <trkpt lat="48.05725" lon="7.12998">
        <ele>534</ele>
        <time>2021-06-23T06:44:15Z</time>
      </trkpt>
      <trkpt lat="48.0574" lon="7.13003">
        <ele>535.2</ele>
        <time>2021-06-23T06:44:22Z</time>
      </trkpt>
      <trkpt lat="48.05743" lon="7.13004">
        <ele>535.4</ele>
        <time>2021-06-23T06:44:23Z</time>
      </trkpt>
      <trkpt lat="48.05757" lon="7.13004">
        <ele>536.2</ele>
        <time>2021-06-23T06:44:28Z</time>
      </trkpt>
      <trkpt lat="48.05767" lon="7.13006">
        <ele>536.8</ele>
        <time>2021-06-23T06:44:31Z</time>
      </trkpt>
      <trkpt lat="48.05772" lon="7.13007">
        <ele>537.4</ele>
        <time>2021-06-23T06:44:33Z</time>
      </trkpt>
      <trkpt lat="48.05788" lon="7.13011">
        <ele>538</ele>
        <time>2021-06-23T06:44:38Z</time>
      </trkpt>
      <trkpt lat="48.05791" lon="7.13012">
        <ele>538.4</ele>
        <time>2021-06-23T06:44:39Z</time>
      </trkpt>
      <trkpt lat="48.05798" lon="7.13023">
        <ele>539</ele>
        <time>2021-06-23T06:44:43Z</time>
      </trkpt>
      <trkpt lat="48.05799" lon="7.13034">
        <ele>539.4</ele>
        <time>2021-06-23T06:44:46Z</time>
      </trkpt>
      <trkpt lat="48.05797" lon="7.13039">
        <ele>539.6</ele>
        <time>2021-06-23T06:44:47Z</time>
      </trkpt>
      <trkpt lat="48.05789" lon="7.13045">
        <ele>540.2</ele>
        <time>2021-06-23T06:44:50Z</time>
      </trkpt>
      <trkpt lat="48.05787" lon="7.13044">
        <ele>540.4</ele>
        <time>2021-06-23T06:44:51Z</time>
      </trkpt>
      <trkpt lat="48.05786" lon="7.13043">
        <ele>540.6</ele>
        <time>2021-06-23T06:44:52Z</time>
      </trkpt>
      <trkpt lat="48.05774" lon="7.13038">
        <ele>541.8</ele>
        <time>2021-06-23T06:44:57Z</time>
      </trkpt>
      <trkpt lat="48.05769" lon="7.13037">
        <ele>542</ele>
        <time>2021-06-23T06:44:59Z</time>
      </trkpt>
      <trkpt lat="48.05754" lon="7.13036">
        <ele>542.8</ele>
        <time>2021-06-23T06:45:05Z</time>
      </trkpt>
      <trkpt lat="48.05747" lon="7.13035">
        <ele>543.4</ele>
        <time>2021-06-23T06:45:08Z</time>
      </trkpt>
      <trkpt lat="48.05745" lon="7.13035">
        <ele>543.6</ele>
        <time>2021-06-23T06:45:09Z</time>
      </trkpt>
      <trkpt lat="48.05729" lon="7.13035">
        <ele>544.6</ele>
        <time>2021-06-23T06:45:16Z</time>
      </trkpt>
      <trkpt lat="48.05727" lon="7.13035">
        <ele>545</ele>
        <time>2021-06-23T06:45:17Z</time>
      </trkpt>
      <trkpt lat="48.0572" lon="7.13035">
        <ele>545.8</ele>
        <time>2021-06-23T06:45:20Z</time>
      </trkpt>
      <trkpt lat="48.05709" lon="7.13037">
        <ele>546.6</ele>
        <time>2021-06-23T06:45:25Z</time>
      </trkpt>
      <trkpt lat="48.05706" lon="7.13035">
        <ele>547</ele>
        <time>2021-06-23T06:45:26Z</time>
      </trkpt>
      <trkpt lat="48.05694" lon="7.13034">
        <ele>548.4</ele>
        <time>2021-06-23T06:45:31Z</time>
      </trkpt>
      <trkpt lat="48.05692" lon="7.13034">
        <ele>548.6</ele>
        <time>2021-06-23T06:45:32Z</time>
      </trkpt>
      <trkpt lat="48.05678" lon="7.13035">
        <ele>549.4</ele>
        <time>2021-06-23T06:45:36Z</time>
      </trkpt>
      <trkpt lat="48.05668" lon="7.13035">
        <ele>550.4</ele>
        <time>2021-06-23T06:45:40Z</time>
      </trkpt>
      <trkpt lat="48.05666" lon="7.13034">
        <ele>550.6</ele>
        <time>2021-06-23T06:45:41Z</time>
      </trkpt>
      <trkpt lat="48.05653" lon="7.13035">
        <ele>551.6</ele>
        <time>2021-06-23T06:45:46Z</time>
      </trkpt>
      <trkpt lat="48.05648" lon="7.13036">
        <ele>552</ele>
        <time>2021-06-23T06:45:48Z</time>
      </trkpt>
      <trkpt lat="48.05638" lon="7.13037">
        <ele>552.8</ele>
        <time>2021-06-23T06:45:52Z</time>
      </trkpt>
      <trkpt lat="48.05625" lon="7.13038">
        <ele>553.8</ele>
        <time>2021-06-23T06:45:57Z</time>
      </trkpt>
      <trkpt lat="48.05622" lon="7.13038">
        <ele>554.2</ele>
        <time>2021-06-23T06:45:58Z</time>
      </trkpt>
      <trkpt lat="48.05611" lon="7.13039">
        <ele>554.8</ele>
        <time>2021-06-23T06:46:02Z</time>
      </trkpt>
      <trkpt lat="48.05598" lon="7.1304">
        <ele>555.6</ele>
        <time>2021-06-23T06:46:07Z</time>
      </trkpt>
      <trkpt lat="48.05593" lon="7.13041">
        <ele>556</ele>
        <time>2021-06-23T06:46:09Z</time>
      </trkpt>
      <trkpt lat="48.0558" lon="7.13042">
        <ele>556.8</ele>
        <time>2021-06-23T06:46:14Z</time>
      </trkpt>
      <trkpt lat="48.05577" lon="7.13042">
        <ele>557</ele>
        <time>2021-06-23T06:46:15Z</time>
      </trkpt>
      <trkpt lat="48.05564" lon="7.13043">
        <ele>558</ele>
        <time>2021-06-23T06:46:20Z</time>
      </trkpt>
      <trkpt lat="48.05556" lon="7.13044">
        <ele>558.8</ele>
        <time>2021-06-23T06:46:23Z</time>
      </trkpt>
      <trkpt lat="48.05554" lon="7.13044">
        <ele>559</ele>
        <time>2021-06-23T06:46:24Z</time>
      </trkpt>
      <trkpt lat="48.05536" lon="7.13047">
        <ele>560.2</ele>
        <time>2021-06-23T06:46:31Z</time>
      </trkpt>
      <trkpt lat="48.05531" lon="7.1305">
        <ele>560.6</ele>
        <time>2021-06-23T06:46:33Z</time>
      </trkpt>
      <trkpt lat="48.05522" lon="7.13057">
        <ele>561.4</ele>
        <time>2021-06-23T06:46:37Z</time>
      </trkpt>
      <trkpt lat="48.05515" lon="7.13064">
        <ele>562.2</ele>
        <time>2021-06-23T06:46:40Z</time>
      </trkpt>
      <trkpt lat="48.05511" lon="7.1307">
        <ele>562.6</ele>
        <time>2021-06-23T06:46:42Z</time>
      </trkpt>
      <trkpt lat="48.05501" lon="7.13087">
        <ele>563.6</ele>
        <time>2021-06-23T06:46:48Z</time>
      </trkpt>
      <trkpt lat="48.05493" lon="7.13107">
        <ele>564.4</ele>
        <time>2021-06-23T06:46:54Z</time>
      </trkpt>
      <trkpt lat="48.05492" lon="7.1311">
        <ele>564.6</ele>
        <time>2021-06-23T06:46:55Z</time>
      </trkpt>
      <trkpt lat="48.05489" lon="7.13132">
        <ele>565.8</ele>
        <time>2021-06-23T06:47:01Z</time>
      </trkpt>
      <trkpt lat="48.05489" lon="7.13136">
        <ele>566</ele>
        <time>2021-06-23T06:47:02Z</time>
      </trkpt>
      <trkpt lat="48.05489" lon="7.13155">
        <ele>566.8</ele>
        <time>2021-06-23T06:47:07Z</time>
      </trkpt>
      <trkpt lat="48.05492" lon="7.13173">
        <ele>568.2</ele>
        <time>2021-06-23T06:47:12Z</time>
      </trkpt>
      <trkpt lat="48.05498" lon="7.13191">
        <ele>569.2</ele>
        <time>2021-06-23T06:47:17Z</time>
      </trkpt>
      <trkpt lat="48.05501" lon="7.13201">
        <ele>570</ele>
        <time>2021-06-23T06:47:20Z</time>
      </trkpt>
      <trkpt lat="48.05504" lon="7.13208">
        <ele>570.4</ele>
        <time>2021-06-23T06:47:22Z</time>
      </trkpt>
      <trkpt lat="48.0551" lon="7.13223">
        <ele>571.4</ele>
        <time>2021-06-23T06:47:27Z</time>
      </trkpt>
      <trkpt lat="48.05515" lon="7.13234">
        <ele>572</ele>
        <time>2021-06-23T06:47:31Z</time>
      </trkpt>
      <trkpt lat="48.0552" lon="7.13246">
        <ele>572.6</ele>
        <time>2021-06-23T06:47:35Z</time>
      </trkpt>
      <trkpt lat="48.05528" lon="7.13257">
        <ele>573.2</ele>
        <time>2021-06-23T06:47:39Z</time>
      </trkpt>
      <trkpt lat="48.05535" lon="7.13259">
        <ele>573.6</ele>
        <time>2021-06-23T06:47:42Z</time>
      </trkpt>
      <trkpt lat="48.05539" lon="7.13256">
        <ele>573.8</ele>
        <time>2021-06-23T06:47:44Z</time>
      </trkpt>
      <trkpt lat="48.05543" lon="7.13242">
        <ele>574.2</ele>
        <time>2021-06-23T06:47:48Z</time>
      </trkpt>
      <trkpt lat="48.05541" lon="7.1323">
        <ele>574.8</ele>
        <time>2021-06-23T06:47:51Z</time>
      </trkpt>
      <trkpt lat="48.05537" lon="7.13219">
        <ele>575.2</ele>
        <time>2021-06-23T06:47:54Z</time>
      </trkpt>
      <trkpt lat="48.05534" lon="7.13208">
        <ele>575.8</ele>
        <time>2021-06-23T06:47:57Z</time>
      </trkpt>
      <trkpt lat="48.05534" lon="7.13191">
        <ele>576.4</ele>
        <time>2021-06-23T06:48:01Z</time>
      </trkpt>
      <trkpt lat="48.05537" lon="7.13179">
        <ele>577</ele>
        <time>2021-06-23T06:48:04Z</time>
      </trkpt>
      <trkpt lat="48.05543" lon="7.13168">
        <ele>577.6</ele>
        <time>2021-06-23T06:48:07Z</time>
      </trkpt>
      <trkpt lat="48.05553" lon="7.13159">
        <ele>578.2</ele>
        <time>2021-06-23T06:48:12Z</time>
      </trkpt>
      <trkpt lat="48.05555" lon="7.13157">
        <ele>578.2</ele>
        <time>2021-06-23T06:48:13Z</time>
      </trkpt>
      <trkpt lat="48.05576" lon="7.13154">
        <ele>579</ele>
        <time>2021-06-23T06:48:21Z</time>
      </trkpt>
      <trkpt lat="48.05579" lon="7.13153">
        <ele>579.6</ele>
        <time>2021-06-23T06:48:22Z</time>
      </trkpt>
      <trkpt lat="48.05594" lon="7.13151">
        <ele>580.6</ele>
        <time>2021-06-23T06:48:28Z</time>
      </trkpt>
      <trkpt lat="48.05604" lon="7.1315">
        <ele>581.2</ele>
        <time>2021-06-23T06:48:32Z</time>
      </trkpt>
      <trkpt lat="48.0561" lon="7.13149">
        <ele>581.6</ele>
        <time>2021-06-23T06:48:34Z</time>
      </trkpt>
      <trkpt lat="48.0562" lon="7.13148">
        <ele>582.8</ele>
        <time>2021-06-23T06:48:38Z</time>
      </trkpt>
      <trkpt lat="48.05627" lon="7.13147">
        <ele>583</ele>
        <time>2021-06-23T06:48:41Z</time>
      </trkpt>
      <trkpt lat="48.0564" lon="7.13145">
        <ele>584</ele>
        <time>2021-06-23T06:48:46Z</time>
      </trkpt>
      <trkpt lat="48.05653" lon="7.13144">
        <ele>585.2</ele>
        <time>2021-06-23T06:48:51Z</time>
      </trkpt>
      <trkpt lat="48.05658" lon="7.13143">
        <ele>585.4</ele>
        <time>2021-06-23T06:48:53Z</time>
      </trkpt>
      <trkpt lat="48.05671" lon="7.13143">
        <ele>586.4</ele>
        <time>2021-06-23T06:48:58Z</time>
      </trkpt>
      <trkpt lat="48.05679" lon="7.13145">
        <ele>587</ele>
        <time>2021-06-23T06:49:01Z</time>
      </trkpt>
      <trkpt lat="48.05686" lon="7.13147">
        <ele>587.6</ele>
        <time>2021-06-23T06:49:04Z</time>
      </trkpt>
      <trkpt lat="48.05699" lon="7.13153">
        <ele>588.6</ele>
        <time>2021-06-23T06:49:09Z</time>
      </trkpt>
      <trkpt lat="48.05704" lon="7.13155">
        <ele>588.8</ele>
        <time>2021-06-23T06:49:11Z</time>
      </trkpt>
      <trkpt lat="48.05715" lon="7.13163">
        <ele>590</ele>
        <time>2021-06-23T06:49:16Z</time>
      </trkpt>
      <trkpt lat="48.05719" lon="7.13167">
        <ele>590.2</ele>
        <time>2021-06-23T06:49:18Z</time>
      </trkpt>
      <trkpt lat="48.05728" lon="7.13174">
        <ele>591</ele>
        <time>2021-06-23T06:49:22Z</time>
      </trkpt>
      <trkpt lat="48.05736" lon="7.13181">
        <ele>591.6</ele>
        <time>2021-06-23T06:49:26Z</time>
      </trkpt>
      <trkpt lat="48.05742" lon="7.13184">
        <ele>592.2</ele>
        <time>2021-06-23T06:49:28Z</time>
      </trkpt>
      <trkpt lat="48.05758" lon="7.13192">
        <ele>593.2</ele>
        <time>2021-06-23T06:49:34Z</time>
      </trkpt>
      <trkpt lat="48.0576" lon="7.13193">
        <ele>593.4</ele>
        <time>2021-06-23T06:49:35Z</time>
      </trkpt>
      <trkpt lat="48.05767" lon="7.13196">
        <ele>594.4</ele>
        <time>2021-06-23T06:49:38Z</time>
      </trkpt>
      <trkpt lat="48.05779" lon="7.13204">
        <ele>595.2</ele>
        <time>2021-06-23T06:49:43Z</time>
      </trkpt>
      <trkpt lat="48.05781" lon="7.13205">
        <ele>595.4</ele>
        <time>2021-06-23T06:49:44Z</time>
      </trkpt>
      <trkpt lat="48.05793" lon="7.13213">
        <ele>596.4</ele>
        <time>2021-06-23T06:49:49Z</time>
      </trkpt>
      <trkpt lat="48.05803" lon="7.13218">
        <ele>597</ele>
        <time>2021-06-23T06:49:53Z</time>
      </trkpt>
      <trkpt lat="48.0581" lon="7.13221">
        <ele>597.6</ele>
        <time>2021-06-23T06:49:56Z</time>
      </trkpt>
      <trkpt lat="48.0582" lon="7.13225">
        <ele>598.4</ele>
        <time>2021-06-23T06:50:00Z</time>
      </trkpt>
      <trkpt lat="48.05826" lon="7.13227">
        <ele>598.6</ele>
        <time>2021-06-23T06:50:02Z</time>
      </trkpt>
      <trkpt lat="48.05842" lon="7.13233">
        <ele>599.8</ele>
        <time>2021-06-23T06:50:08Z</time>
      </trkpt>
      <trkpt lat="48.05855" lon="7.1324">
        <ele>601</ele>
        <time>2021-06-23T06:50:14Z</time>
      </trkpt>
      <trkpt lat="48.05861" lon="7.13243">
        <ele>601.6</ele>
        <time>2021-06-23T06:50:17Z</time>
      </trkpt>
      <trkpt lat="48.05864" lon="7.13244">
        <ele>602</ele>
        <time>2021-06-23T06:50:18Z</time>
      </trkpt>
      <trkpt lat="48.05882" lon="7.1325">
        <ele>603</ele>
        <time>2021-06-23T06:50:25Z</time>
      </trkpt>
      <trkpt lat="48.05891" lon="7.13254">
        <ele>604</ele>
        <time>2021-06-23T06:50:29Z</time>
      </trkpt>
      <trkpt lat="48.05897" lon="7.13257">
        <ele>604.6</ele>
        <time>2021-06-23T06:50:32Z</time>
      </trkpt>
      <trkpt lat="48.05901" lon="7.1326">
        <ele>605.2</ele>
        <time>2021-06-23T06:50:34Z</time>
      </trkpt>
      <trkpt lat="48.05913" lon="7.13264">
        <ele>606.4</ele>
        <time>2021-06-23T06:50:39Z</time>
      </trkpt>
      <trkpt lat="48.05916" lon="7.13265">
        <ele>606.6</ele>
        <time>2021-06-23T06:50:40Z</time>
      </trkpt>
      <trkpt lat="48.05925" lon="7.13269">
        <ele>607.6</ele>
        <time>2021-06-23T06:50:45Z</time>
      </trkpt>
      <trkpt lat="48.05937" lon="7.13275">
        <ele>608.6</ele>
        <time>2021-06-23T06:50:50Z</time>
      </trkpt>
      <trkpt lat="48.05942" lon="7.13278">
        <ele>608.8</ele>
        <time>2021-06-23T06:50:52Z</time>
      </trkpt>
      <trkpt lat="48.05944" lon="7.13279">
        <ele>609</ele>
        <time>2021-06-23T06:50:53Z</time>
      </trkpt>
      <trkpt lat="48.05953" lon="7.13281">
        <ele>609.4</ele>
        <time>2021-06-23T06:50:56Z</time>
      </trkpt>
      <trkpt lat="48.05955" lon="7.13282">
        <ele>609.6</ele>
        <time>2021-06-23T06:50:57Z</time>
      </trkpt>
      <trkpt lat="48.05966" lon="7.13285">
        <ele>610.4</ele>
        <time>2021-06-23T06:51:01Z</time>
      </trkpt>
      <trkpt lat="48.05968" lon="7.13285">
        <ele>610.8</ele>
        <time>2021-06-23T06:51:02Z</time>
      </trkpt>
      <trkpt lat="48.05977" lon="7.13289">
        <ele>611.2</ele>
        <time>2021-06-23T06:51:05Z</time>
      </trkpt>
      <trkpt lat="48.05984" lon="7.13293">
        <ele>611.8</ele>
        <time>2021-06-23T06:51:08Z</time>
      </trkpt>
      <trkpt lat="48.05989" lon="7.13297">
        <ele>612.2</ele>
        <time>2021-06-23T06:51:10Z</time>
      </trkpt>
      <trkpt lat="48.05996" lon="7.13305">
        <ele>613</ele>
        <time>2021-06-23T06:51:14Z</time>
      </trkpt>
      <trkpt lat="48.06001" lon="7.13306">
        <ele>613.2</ele>
        <time>2021-06-23T06:51:16Z</time>
      </trkpt>
      <trkpt lat="48.06007" lon="7.13311">
        <ele>614</ele>
        <time>2021-06-23T06:51:19Z</time>
      </trkpt>
      <trkpt lat="48.06015" lon="7.13318">
        <ele>614.6</ele>
        <time>2021-06-23T06:51:23Z</time>
      </trkpt>
      <trkpt lat="48.06019" lon="7.1332">
        <ele>615</ele>
        <time>2021-06-23T06:51:25Z</time>
      </trkpt>
      <trkpt lat="48.0603" lon="7.13328">
        <ele>616.2</ele>
        <time>2021-06-23T06:51:30Z</time>
      </trkpt>
      <trkpt lat="48.06041" lon="7.13337">
        <ele>617.4</ele>
        <time>2021-06-23T06:51:35Z</time>
      </trkpt>
      <trkpt lat="48.06054" lon="7.13343">
        <ele>618.2</ele>
        <time>2021-06-23T06:51:41Z</time>
      </trkpt>
      <trkpt lat="48.0607" lon="7.13349">
        <ele>619.4</ele>
        <time>2021-06-23T06:51:47Z</time>
      </trkpt>
      <trkpt lat="48.06082" lon="7.13352">
        <ele>620.2</ele>
        <time>2021-06-23T06:51:52Z</time>
      </trkpt>
      <trkpt lat="48.06085" lon="7.13353">
        <ele>620.6</ele>
        <time>2021-06-23T06:51:53Z</time>
      </trkpt>
      <trkpt lat="48.06103" lon="7.13363">
        <ele>621.6</ele>
        <time>2021-06-23T06:51:59Z</time>
      </trkpt>
      <trkpt lat="48.06108" lon="7.1337">
        <ele>622</ele>
        <time>2021-06-23T06:52:02Z</time>
      </trkpt>
      <trkpt lat="48.06108" lon="7.13377">
        <ele>622.4</ele>
        <time>2021-06-23T06:52:04Z</time>
      </trkpt>
      <trkpt lat="48.06104" lon="7.13379">
        <ele>622.6</ele>
        <time>2021-06-23T06:52:06Z</time>
      </trkpt>
      <trkpt lat="48.06101" lon="7.13378">
        <ele>622.8</ele>
        <time>2021-06-23T06:52:07Z</time>
      </trkpt>
      <trkpt lat="48.06092" lon="7.13371">
        <ele>623.8</ele>
        <time>2021-06-23T06:52:11Z</time>
      </trkpt>
      <trkpt lat="48.06081" lon="7.13365">
        <ele>624.6</ele>
        <time>2021-06-23T06:52:15Z</time>
      </trkpt>
      <trkpt lat="48.06074" lon="7.13364">
        <ele>624.8</ele>
        <time>2021-06-23T06:52:18Z</time>
      </trkpt>
      <trkpt lat="48.06067" lon="7.13363">
        <ele>625.6</ele>
        <time>2021-06-23T06:52:21Z</time>
      </trkpt>
      <trkpt lat="48.0606" lon="7.13362">
        <ele>626</ele>
        <time>2021-06-23T06:52:24Z</time>
      </trkpt>
      <trkpt lat="48.06056" lon="7.13362">
        <ele>626.4</ele>
        <time>2021-06-23T06:52:26Z</time>
      </trkpt>
      <trkpt lat="48.06045" lon="7.13361">
        <ele>627</ele>
        <time>2021-06-23T06:52:30Z</time>
      </trkpt>
      <trkpt lat="48.06039" lon="7.13361">
        <ele>627.4</ele>
        <time>2021-06-23T06:52:32Z</time>
      </trkpt>
      <trkpt lat="48.06032" lon="7.13359">
        <ele>628</ele>
        <time>2021-06-23T06:52:35Z</time>
      </trkpt>
      <trkpt lat="48.06024" lon="7.13357">
        <ele>629</ele>
        <time>2021-06-23T06:52:39Z</time>
      </trkpt>
      <trkpt lat="48.06022" lon="7.13356">
        <ele>629</ele>
        <time>2021-06-23T06:52:40Z</time>
      </trkpt>
      <trkpt lat="48.06008" lon="7.13352">
        <ele>630.2</ele>
        <time>2021-06-23T06:52:46Z</time>
      </trkpt>
      <trkpt lat="48.05992" lon="7.13349">
        <ele>631</ele>
        <time>2021-06-23T06:52:52Z</time>
      </trkpt>
      <trkpt lat="48.05989" lon="7.13348">
        <ele>631.2</ele>
        <time>2021-06-23T06:52:53Z</time>
      </trkpt>
      <trkpt lat="48.05973" lon="7.13345">
        <ele>632</ele>
        <time>2021-06-23T06:52:59Z</time>
      </trkpt>
      <trkpt lat="48.0597" lon="7.13345">
        <ele>632.4</ele>
        <time>2021-06-23T06:53:00Z</time>
      </trkpt>
      <trkpt lat="48.05954" lon="7.13342">
        <ele>633.4</ele>
        <time>2021-06-23T06:53:05Z</time>
      </trkpt>
      <trkpt lat="48.05951" lon="7.13342">
        <ele>633.4</ele>
        <time>2021-06-23T06:53:06Z</time>
      </trkpt>
      <trkpt lat="48.05935" lon="7.13341">
        <ele>634.6</ele>
        <time>2021-06-23T06:53:11Z</time>
      </trkpt>
      <trkpt lat="48.05932" lon="7.1334">
        <ele>634.6</ele>
        <time>2021-06-23T06:53:12Z</time>
      </trkpt>
      <trkpt lat="48.05918" lon="7.13341">
        <ele>635.6</ele>
        <time>2021-06-23T06:53:17Z</time>
      </trkpt>
      <trkpt lat="48.05915" lon="7.13341">
        <ele>635.8</ele>
        <time>2021-06-23T06:53:18Z</time>
      </trkpt>
      <trkpt lat="48.05899" lon="7.13345">
        <ele>636.8</ele>
        <time>2021-06-23T06:53:24Z</time>
      </trkpt>
      <trkpt lat="48.05892" lon="7.13348">
        <ele>637.2</ele>
        <time>2021-06-23T06:53:27Z</time>
      </trkpt>
      <trkpt lat="48.05885" lon="7.13353">
        <ele>638</ele>
        <time>2021-06-23T06:53:30Z</time>
      </trkpt>
      <trkpt lat="48.05878" lon="7.1336">
        <ele>638.4</ele>
        <time>2021-06-23T06:53:33Z</time>
      </trkpt>
      <trkpt lat="48.05876" lon="7.13363">
        <ele>638.6</ele>
        <time>2021-06-23T06:53:34Z</time>
      </trkpt>
      <trkpt lat="48.05871" lon="7.13371">
        <ele>639.2</ele>
        <time>2021-06-23T06:53:37Z</time>
      </trkpt>
      <trkpt lat="48.05867" lon="7.13385">
        <ele>640.2</ele>
        <time>2021-06-23T06:53:41Z</time>
      </trkpt>
      <trkpt lat="48.05867" lon="7.1339">
        <ele>640.6</ele>
        <time>2021-06-23T06:53:42Z</time>
      </trkpt>
      <trkpt lat="48.05866" lon="7.13414">
        <ele>641.4</ele>
        <time>2021-06-23T06:53:48Z</time>
      </trkpt>
      <trkpt lat="48.05866" lon="7.13418">
        <ele>641.6</ele>
        <time>2021-06-23T06:53:49Z</time>
      </trkpt>
      <trkpt lat="48.05866" lon="7.13447">
        <ele>642.6</ele>
        <time>2021-06-23T06:53:56Z</time>
      </trkpt>
      <trkpt lat="48.05866" lon="7.13455">
        <ele>642.8</ele>
        <time>2021-06-23T06:53:58Z</time>
      </trkpt>
      <trkpt lat="48.05865" lon="7.13475">
        <ele>643.8</ele>
        <time>2021-06-23T06:54:03Z</time>
      </trkpt>
      <trkpt lat="48.05865" lon="7.13491">
        <ele>644.2</ele>
        <time>2021-06-23T06:54:07Z</time>
      </trkpt>
      <trkpt lat="48.05866" lon="7.13502">
        <ele>645</ele>
        <time>2021-06-23T06:54:10Z</time>
      </trkpt>
      <trkpt lat="48.05871" lon="7.13517">
        <ele>645.4</ele>
        <time>2021-06-23T06:54:14Z</time>
      </trkpt>
      <trkpt lat="48.05876" lon="7.13527">
        <ele>646</ele>
        <time>2021-06-23T06:54:17Z</time>
      </trkpt>
      <trkpt lat="48.05884" lon="7.13538">
        <ele>646.6</ele>
        <time>2021-06-23T06:54:21Z</time>
      </trkpt>
      <trkpt lat="48.05888" lon="7.13544">
        <ele>647</ele>
        <time>2021-06-23T06:54:23Z</time>
      </trkpt>
      <trkpt lat="48.059" lon="7.1356">
        <ele>647.8</ele>
        <time>2021-06-23T06:54:29Z</time>
      </trkpt>
      <trkpt lat="48.05904" lon="7.13565">
        <ele>648.2</ele>
        <time>2021-06-23T06:54:31Z</time>
      </trkpt>
      <trkpt lat="48.05912" lon="7.13575">
        <ele>648.8</ele>
        <time>2021-06-23T06:54:35Z</time>
      </trkpt>
      <trkpt lat="48.0592" lon="7.13585">
        <ele>649.4</ele>
        <time>2021-06-23T06:54:39Z</time>
      </trkpt>
      <trkpt lat="48.0593" lon="7.13596">
        <ele>650.4</ele>
        <time>2021-06-23T06:54:44Z</time>
      </trkpt>
      <trkpt lat="48.05939" lon="7.13616">
        <ele>651.6</ele>
        <time>2021-06-23T06:54:50Z</time>
      </trkpt>
      <trkpt lat="48.05941" lon="7.13619">
        <ele>652</ele>
        <time>2021-06-23T06:54:51Z</time>
      </trkpt>
      <trkpt lat="48.05948" lon="7.13635">
        <ele>652.8</ele>
        <time>2021-06-23T06:54:56Z</time>
      </trkpt>
      <trkpt lat="48.05951" lon="7.13641">
        <ele>653</ele>
        <time>2021-06-23T06:54:58Z</time>
      </trkpt>
      <trkpt lat="48.05958" lon="7.13653">
        <ele>653.8</ele>
        <time>2021-06-23T06:55:02Z</time>
      </trkpt>
      <trkpt lat="48.0596" lon="7.13656">
        <ele>653.8</ele>
        <time>2021-06-23T06:55:03Z</time>
      </trkpt>
      <trkpt lat="48.05971" lon="7.13681">
        <ele>654.8</ele>
        <time>2021-06-23T06:55:10Z</time>
      </trkpt>
      <trkpt lat="48.05979" lon="7.13698">
        <ele>655.8</ele>
        <time>2021-06-23T06:55:15Z</time>
      </trkpt>
      <trkpt lat="48.0598" lon="7.13701">
        <ele>656</ele>
        <time>2021-06-23T06:55:16Z</time>
      </trkpt>
      <trkpt lat="48.05987" lon="7.13719">
        <ele>657</ele>
        <time>2021-06-23T06:55:21Z</time>
      </trkpt>
      <trkpt lat="48.05989" lon="7.13729">
        <ele>657.2</ele>
        <time>2021-06-23T06:55:23Z</time>
      </trkpt>
      <trkpt lat="48.0599" lon="7.13748">
        <ele>658</ele>
        <time>2021-06-23T06:55:28Z</time>
      </trkpt>
      <trkpt lat="48.05989" lon="7.13756">
        <ele>658.4</ele>
        <time>2021-06-23T06:55:30Z</time>
      </trkpt>
      <trkpt lat="48.05988" lon="7.13773">
        <ele>659.2</ele>
        <time>2021-06-23T06:55:34Z</time>
      </trkpt>
      <trkpt lat="48.05989" lon="7.13781">
        <ele>659.4</ele>
        <time>2021-06-23T06:55:36Z</time>
      </trkpt>
      <trkpt lat="48.05992" lon="7.13792">
        <ele>660.4</ele>
        <time>2021-06-23T06:55:39Z</time>
      </trkpt>
      <trkpt lat="48.05996" lon="7.13797">
        <ele>660.8</ele>
        <time>2021-06-23T06:55:41Z</time>
      </trkpt>
      <trkpt lat="48.06004" lon="7.138">
        <ele>660.8</ele>
        <time>2021-06-23T06:55:44Z</time>
      </trkpt>
      <trkpt lat="48.06006" lon="7.13799">
        <ele>661</ele>
        <time>2021-06-23T06:55:45Z</time>
      </trkpt>
      <trkpt lat="48.06009" lon="7.13797">
        <ele>661.4</ele>
        <time>2021-06-23T06:55:46Z</time>
      </trkpt>
      <trkpt lat="48.06014" lon="7.13783">
        <ele>662</ele>
        <time>2021-06-23T06:55:50Z</time>
      </trkpt>
      <trkpt lat="48.06015" lon="7.13776">
        <ele>662.6</ele>
        <time>2021-06-23T06:55:52Z</time>
      </trkpt>
      <trkpt lat="48.06015" lon="7.13755">
        <ele>663.6</ele>
        <time>2021-06-23T06:55:57Z</time>
      </trkpt>
      <trkpt lat="48.06013" lon="7.13731">
        <ele>664.6</ele>
        <time>2021-06-23T06:56:03Z</time>
      </trkpt>
      <trkpt lat="48.06007" lon="7.13704">
        <ele>665.6</ele>
        <time>2021-06-23T06:56:10Z</time>
      </trkpt>
      <trkpt lat="48.06004" lon="7.13695">
        <ele>666</ele>
        <time>2021-06-23T06:56:13Z</time>
      </trkpt>
      <trkpt lat="48.05999" lon="7.13685">
        <ele>667</ele>
        <time>2021-06-23T06:56:16Z</time>
      </trkpt>
      <trkpt lat="48.05998" lon="7.13682">
        <ele>667.2</ele>
        <time>2021-06-23T06:56:17Z</time>
      </trkpt>
      <trkpt lat="48.05997" lon="7.13679">
        <ele>667.2</ele>
        <time>2021-06-23T06:56:18Z</time>
      </trkpt>
      <trkpt lat="48.05991" lon="7.13669">
        <ele>668</ele>
        <time>2021-06-23T06:56:21Z</time>
      </trkpt>
      <trkpt lat="48.05988" lon="7.13662">
        <ele>668.4</ele>
        <time>2021-06-23T06:56:23Z</time>
      </trkpt>
      <trkpt lat="48.05984" lon="7.13651">
        <ele>669</ele>
        <time>2021-06-23T06:56:26Z</time>
      </trkpt>
      <trkpt lat="48.05978" lon="7.13636">
        <ele>669.6</ele>
        <time>2021-06-23T06:56:30Z</time>
      </trkpt>
      <trkpt lat="48.05973" lon="7.13621">
        <ele>670.2</ele>
        <time>2021-06-23T06:56:34Z</time>
      </trkpt>
      <trkpt lat="48.05968" lon="7.13605">
        <ele>670.8</ele>
        <time>2021-06-23T06:56:38Z</time>
      </trkpt>
      <trkpt lat="48.05966" lon="7.13593">
        <ele>671.2</ele>
        <time>2021-06-23T06:56:41Z</time>
      </trkpt>
      <trkpt lat="48.05962" lon="7.13574">
        <ele>672.2</ele>
        <time>2021-06-23T06:56:46Z</time>
      </trkpt>
      <trkpt lat="48.05962" lon="7.1357">
        <ele>672.4</ele>
        <time>2021-06-23T06:56:47Z</time>
      </trkpt>
      <trkpt lat="48.05958" lon="7.13551">
        <ele>673.4</ele>
        <time>2021-06-23T06:56:52Z</time>
      </trkpt>
      <trkpt lat="48.05958" lon="7.13539">
        <ele>674</ele>
        <time>2021-06-23T06:56:55Z</time>
      </trkpt>
      <trkpt lat="48.05959" lon="7.1353">
        <ele>674.6</ele>
        <time>2021-06-23T06:56:57Z</time>
      </trkpt>
      <trkpt lat="48.05966" lon="7.13516">
        <ele>675.2</ele>
        <time>2021-06-23T06:57:01Z</time>
      </trkpt>
      <trkpt lat="48.05976" lon="7.13507">
        <ele>675.6</ele>
        <time>2021-06-23T06:57:05Z</time>
      </trkpt>
      <trkpt lat="48.05982" lon="7.13506">
        <ele>675.8</ele>
        <time>2021-06-23T06:57:07Z</time>
      </trkpt>
      <trkpt lat="48.06001" lon="7.13506">
        <ele>676.8</ele>
        <time>2021-06-23T06:57:14Z</time>
      </trkpt>
      <trkpt lat="48.06004" lon="7.13506">
        <ele>677</ele>
        <time>2021-06-23T06:57:15Z</time>
      </trkpt>
      <trkpt lat="48.06017" lon="7.13509">
        <ele>677.8</ele>
        <time>2021-06-23T06:57:20Z</time>
      </trkpt>
      <trkpt lat="48.06025" lon="7.13513">
        <ele>678.4</ele>
        <time>2021-06-23T06:57:23Z</time>
      </trkpt>
      <trkpt lat="48.06032" lon="7.13518">
        <ele>679</ele>
        <time>2021-06-23T06:57:26Z</time>
      </trkpt>
      <trkpt lat="48.06042" lon="7.13531">
        <ele>680</ele>
        <time>2021-06-23T06:57:31Z</time>
      </trkpt>
      <trkpt lat="48.06042" lon="7.13549">
        <ele>681.2</ele>
        <time>2021-06-23T06:57:36Z</time>
      </trkpt>
      <trkpt lat="48.06038" lon="7.13556">
        <ele>681.4</ele>
        <time>2021-06-23T06:57:38Z</time>
      </trkpt>
      <trkpt lat="48.0603" lon="7.1356">
        <ele>682.4</ele>
        <time>2021-06-23T06:57:41Z</time>
      </trkpt>
      <trkpt lat="48.06015" lon="7.13567">
        <ele>683.4</ele>
        <time>2021-06-23T06:57:47Z</time>
      </trkpt>
      <trkpt lat="48.06011" lon="7.13571">
        <ele>683.6</ele>
        <time>2021-06-23T06:57:49Z</time>
      </trkpt>
      <trkpt lat="48.06004" lon="7.13579">
        <ele>684.6</ele>
        <time>2021-06-23T06:57:52Z</time>
      </trkpt>
      <trkpt lat="48.06001" lon="7.13591">
        <ele>685</ele>
        <time>2021-06-23T06:57:55Z</time>
      </trkpt>
      <trkpt lat="48.06" lon="7.13598">
        <ele>685.4</ele>
        <time>2021-06-23T06:57:57Z</time>
      </trkpt>
      <trkpt lat="48.06001" lon="7.13602">
        <ele>685.6</ele>
        <time>2021-06-23T06:57:58Z</time>
      </trkpt>
      <trkpt lat="48.06001" lon="7.1361">
        <ele>686</ele>
        <time>2021-06-23T06:58:00Z</time>
      </trkpt>
      <trkpt lat="48.06006" lon="7.13629">
        <ele>687</ele>
        <time>2021-06-23T06:58:05Z</time>
      </trkpt>
      <trkpt lat="48.06009" lon="7.13635">
        <ele>687.4</ele>
        <time>2021-06-23T06:58:07Z</time>
      </trkpt>
      <trkpt lat="48.06019" lon="7.13646">
        <ele>688.2</ele>
        <time>2021-06-23T06:58:12Z</time>
      </trkpt>
      <trkpt lat="48.06021" lon="7.13647">
        <ele>688.4</ele>
        <time>2021-06-23T06:58:13Z</time>
      </trkpt>
      <trkpt lat="48.06034" lon="7.13651">
        <ele>689.6</ele>
        <time>2021-06-23T06:58:18Z</time>
      </trkpt>
      <trkpt lat="48.06041" lon="7.13654">
        <ele>690.2</ele>
        <time>2021-06-23T06:58:21Z</time>
      </trkpt>
      <trkpt lat="48.06046" lon="7.13656">
        <ele>690.6</ele>
        <time>2021-06-23T06:58:23Z</time>
      </trkpt>
      <trkpt lat="48.06057" lon="7.13664">
        <ele>691.6</ele>
        <time>2021-06-23T06:58:28Z</time>
      </trkpt>
      <trkpt lat="48.06065" lon="7.13677">
        <ele>692.8</ele>
        <time>2021-06-23T06:58:33Z</time>
      </trkpt>
      <trkpt lat="48.06067" lon="7.1368">
        <ele>693.2</ele>
        <time>2021-06-23T06:58:34Z</time>
      </trkpt>
      <trkpt lat="48.06068" lon="7.13683">
        <ele>693.2</ele>
        <time>2021-06-23T06:58:35Z</time>
      </trkpt>
      <trkpt lat="48.06073" lon="7.13693">
        <ele>693.8</ele>
        <time>2021-06-23T06:58:38Z</time>
      </trkpt>
      <trkpt lat="48.06077" lon="7.13706">
        <ele>694.6</ele>
        <time>2021-06-23T06:58:42Z</time>
      </trkpt>
      <trkpt lat="48.06078" lon="7.13709">
        <ele>694.8</ele>
        <time>2021-06-23T06:58:43Z</time>
      </trkpt>
      <trkpt lat="48.06083" lon="7.13726">
        <ele>696</ele>
        <time>2021-06-23T06:58:48Z</time>
      </trkpt>
      <trkpt lat="48.06087" lon="7.13736">
        <ele>696.6</ele>
        <time>2021-06-23T06:58:51Z</time>
      </trkpt>
      <trkpt lat="48.0609" lon="7.13746">
        <ele>697.2</ele>
        <time>2021-06-23T06:58:54Z</time>
      </trkpt>
      <trkpt lat="48.06094" lon="7.13759">
        <ele>698.2</ele>
        <time>2021-06-23T06:58:58Z</time>
      </trkpt>
      <trkpt lat="48.06099" lon="7.13773">
        <ele>699.2</ele>
        <time>2021-06-23T06:59:02Z</time>
      </trkpt>
      <trkpt lat="48.06105" lon="7.13789">
        <ele>700.4</ele>
        <time>2021-06-23T06:59:07Z</time>
      </trkpt>
      <trkpt lat="48.06106" lon="7.13792">
        <ele>700.4</ele>
        <time>2021-06-23T06:59:08Z</time>
      </trkpt>
      <trkpt lat="48.0611" lon="7.13807">
        <ele>701.6</ele>
        <time>2021-06-23T06:59:12Z</time>
      </trkpt>
      <trkpt lat="48.06113" lon="7.13822">
        <ele>702.8</ele>
        <time>2021-06-23T06:59:16Z</time>
      </trkpt>
      <trkpt lat="48.06119" lon="7.13843">
        <ele>703.8</ele>
        <time>2021-06-23T06:59:22Z</time>
      </trkpt>
      <trkpt lat="48.06126" lon="7.13869">
        <ele>705</ele>
        <time>2021-06-23T06:59:29Z</time>
      </trkpt>
      <trkpt lat="48.06131" lon="7.13887">
        <ele>706</ele>
        <time>2021-06-23T06:59:34Z</time>
      </trkpt>
      <trkpt lat="48.06132" lon="7.13898">
        <ele>706.4</ele>
        <time>2021-06-23T06:59:37Z</time>
      </trkpt>
      <trkpt lat="48.06134" lon="7.13918">
        <ele>707.2</ele>
        <time>2021-06-23T06:59:42Z</time>
      </trkpt>
      <trkpt lat="48.06135" lon="7.13934">
        <ele>707.8</ele>
        <time>2021-06-23T06:59:46Z</time>
      </trkpt>
      <trkpt lat="48.06136" lon="7.13941">
        <ele>708.2</ele>
        <time>2021-06-23T06:59:48Z</time>
      </trkpt>
      <trkpt lat="48.06138" lon="7.13944">
        <ele>708.4</ele>
        <time>2021-06-23T06:59:49Z</time>
      </trkpt>
      <trkpt lat="48.0614" lon="7.13947">
        <ele>708.4</ele>
        <time>2021-06-23T06:59:50Z</time>
      </trkpt>
      <trkpt lat="48.06142" lon="7.13948">
        <ele>708.8</ele>
        <time>2021-06-23T06:59:51Z</time>
      </trkpt>
      <trkpt lat="48.06147" lon="7.13948">
        <ele>709</ele>
        <time>2021-06-23T06:59:53Z</time>
      </trkpt>
      <trkpt lat="48.0615" lon="7.13942">
        <ele>709.4</ele>
        <time>2021-06-23T06:59:55Z</time>
      </trkpt>
      <trkpt lat="48.06151" lon="7.13939">
        <ele>709.6</ele>
        <time>2021-06-23T06:59:56Z</time>
      </trkpt>
      <trkpt lat="48.0615" lon="7.13922">
        <ele>710.2</ele>
        <time>2021-06-23T07:00:00Z</time>
      </trkpt>
      <trkpt lat="48.06144" lon="7.13897">
        <ele>710.6</ele>
        <time>2021-06-23T07:00:06Z</time>
      </trkpt>
      <trkpt lat="48.06142" lon="7.13888">
        <ele>710.8</ele>
        <time>2021-06-23T07:00:08Z</time>
      </trkpt>
      <trkpt lat="48.06143" lon="7.13867">
        <ele>711</ele>
        <time>2021-06-23T07:00:13Z</time>
      </trkpt>
      <trkpt lat="48.06149" lon="7.13847">
        <ele>711.8</ele>
        <time>2021-06-23T07:00:18Z</time>
      </trkpt>
      <trkpt lat="48.0615" lon="7.13844">
        <ele>712</ele>
        <time>2021-06-23T07:00:19Z</time>
      </trkpt>
      <trkpt lat="48.06159" lon="7.13828">
        <ele>712.8</ele>
        <time>2021-06-23T07:00:24Z</time>
      </trkpt>
      <trkpt lat="48.06165" lon="7.13821">
        <ele>713.2</ele>
        <time>2021-06-23T07:00:27Z</time>
      </trkpt>
      <trkpt lat="48.06171" lon="7.13813">
        <ele>713.8</ele>
        <time>2021-06-23T07:00:30Z</time>
      </trkpt>
      <trkpt lat="48.06187" lon="7.13797">
        <ele>714.8</ele>
        <time>2021-06-23T07:00:37Z</time>
      </trkpt>
      <trkpt lat="48.0619" lon="7.13795">
        <ele>715</ele>
        <time>2021-06-23T07:00:38Z</time>
      </trkpt>
      <trkpt lat="48.06206" lon="7.13783">
        <ele>716</ele>
        <time>2021-06-23T07:00:45Z</time>
      </trkpt>
      <trkpt lat="48.06212" lon="7.1378">
        <ele>716.6</ele>
        <time>2021-06-23T07:00:47Z</time>
      </trkpt>
      <trkpt lat="48.06222" lon="7.13774">
        <ele>717.2</ele>
        <time>2021-06-23T07:00:51Z</time>
      </trkpt>
      <trkpt lat="48.06233" lon="7.13769">
        <ele>717.6</ele>
        <time>2021-06-23T07:00:55Z</time>
      </trkpt>
      <trkpt lat="48.0624" lon="7.13767">
        <ele>718.4</ele>
        <time>2021-06-23T07:00:58Z</time>
      </trkpt>
      <trkpt lat="48.06247" lon="7.13765">
        <ele>718.6</ele>
        <time>2021-06-23T07:01:01Z</time>
      </trkpt>
      <trkpt lat="48.06258" lon="7.13761">
        <ele>719.4</ele>
        <time>2021-06-23T07:01:05Z</time>
      </trkpt>
      <trkpt lat="48.06271" lon="7.13757">
        <ele>720.4</ele>
        <time>2021-06-23T07:01:10Z</time>
      </trkpt>
      <trkpt lat="48.06274" lon="7.13756">
        <ele>720.6</ele>
        <time>2021-06-23T07:01:11Z</time>
      </trkpt>
      <trkpt lat="48.06289" lon="7.13752">
        <ele>721.6</ele>
        <time>2021-06-23T07:01:17Z</time>
      </trkpt>
      <trkpt lat="48.06292" lon="7.13751">
        <ele>722</ele>
        <time>2021-06-23T07:01:18Z</time>
      </trkpt>
      <trkpt lat="48.06303" lon="7.13748">
        <ele>722.6</ele>
        <time>2021-06-23T07:01:22Z</time>
      </trkpt>
      <trkpt lat="48.06314" lon="7.13745">
        <ele>723.2</ele>
        <time>2021-06-23T07:01:26Z</time>
      </trkpt>
      <trkpt lat="48.0632" lon="7.13744">
        <ele>723.8</ele>
        <time>2021-06-23T07:01:28Z</time>
      </trkpt>
      <trkpt lat="48.06337" lon="7.13742">
        <ele>724.6</ele>
        <time>2021-06-23T07:01:34Z</time>
      </trkpt>
      <trkpt lat="48.0634" lon="7.13742">
        <ele>725</ele>
        <time>2021-06-23T07:01:35Z</time>
      </trkpt>
      <trkpt lat="48.06353" lon="7.1374">
        <ele>725.6</ele>
        <time>2021-06-23T07:01:40Z</time>
      </trkpt>
      <trkpt lat="48.06359" lon="7.13739">
        <ele>726</ele>
        <time>2021-06-23T07:01:42Z</time>
      </trkpt>
      <trkpt lat="48.06367" lon="7.13737">
        <ele>726.6</ele>
        <time>2021-06-23T07:01:45Z</time>
      </trkpt>
      <trkpt lat="48.0638" lon="7.13732">
        <ele>727.4</ele>
        <time>2021-06-23T07:01:50Z</time>
      </trkpt>
      <trkpt lat="48.06388" lon="7.13728">
        <ele>727.8</ele>
        <time>2021-06-23T07:01:53Z</time>
      </trkpt>
      <trkpt lat="48.06401" lon="7.1372">
        <ele>729</ele>
        <time>2021-06-23T07:01:58Z</time>
      </trkpt>
      <trkpt lat="48.06409" lon="7.13716">
        <ele>729.8</ele>
        <time>2021-06-23T07:02:01Z</time>
      </trkpt>
      <trkpt lat="48.06414" lon="7.13713">
        <ele>730</ele>
        <time>2021-06-23T07:02:03Z</time>
      </trkpt>
      <trkpt lat="48.06431" lon="7.13701">
        <ele>731</ele>
        <time>2021-06-23T07:02:10Z</time>
      </trkpt>
      <trkpt lat="48.06433" lon="7.13699">
        <ele>731.2</ele>
        <time>2021-06-23T07:02:11Z</time>
      </trkpt>
      <trkpt lat="48.06445" lon="7.13688">
        <ele>732</ele>
        <time>2021-06-23T07:02:16Z</time>
      </trkpt>
      <trkpt lat="48.06448" lon="7.13685">
        <ele>732.4</ele>
        <time>2021-06-23T07:02:17Z</time>
      </trkpt>
      <trkpt lat="48.0646" lon="7.13667">
        <ele>733.4</ele>
        <time>2021-06-23T07:02:23Z</time>
      </trkpt>
      <trkpt lat="48.06462" lon="7.13664">
        <ele>733.4</ele>
        <time>2021-06-23T07:02:24Z</time>
      </trkpt>
      <trkpt lat="48.06474" lon="7.13638">
        <ele>734.2</ele>
        <time>2021-06-23T07:02:31Z</time>
      </trkpt>
      <trkpt lat="48.06477" lon="7.13625">
        <ele>734.6</ele>
        <time>2021-06-23T07:02:34Z</time>
      </trkpt>
      <trkpt lat="48.0648" lon="7.13607">
        <ele>734.8</ele>
        <time>2021-06-23T07:02:38Z</time>
      </trkpt>
      <trkpt lat="48.06487" lon="7.13564">
        <ele>735.4</ele>
        <time>2021-06-23T07:02:47Z</time>
      </trkpt>
      <trkpt lat="48.06488" lon="7.13556">
        <ele>735.4</ele>
        <time>2021-06-23T07:02:49Z</time>
      </trkpt>
      <trkpt lat="48.06489" lon="7.13546">
        <ele>735.6</ele>
        <time>2021-06-23T07:02:51Z</time>
      </trkpt>
      <trkpt lat="48.06491" lon="7.13543">
        <ele>735.6</ele>
        <time>2021-06-23T07:02:52Z</time>
      </trkpt>
      <trkpt lat="48.06503" lon="7.13516">
        <ele>736.4</ele>
        <time>2021-06-23T07:02:59Z</time>
      </trkpt>
      <trkpt lat="48.06504" lon="7.13513">
        <ele>736.6</ele>
        <time>2021-06-23T07:03:00Z</time>
      </trkpt>
      <trkpt lat="48.06513" lon="7.13492">
        <ele>738</ele>
        <time>2021-06-23T07:03:06Z</time>
      </trkpt>
      <trkpt lat="48.06514" lon="7.13489">
        <ele>738.4</ele>
        <time>2021-06-23T07:03:07Z</time>
      </trkpt>
      <trkpt lat="48.0652" lon="7.13474">
        <ele>739.2</ele>
        <time>2021-06-23T07:03:11Z</time>
      </trkpt>
      <trkpt lat="48.06521" lon="7.1347">
        <ele>739.2</ele>
        <time>2021-06-23T07:03:12Z</time>
      </trkpt>
      <trkpt lat="48.06523" lon="7.13467">
        <ele>739.6</ele>
        <time>2021-06-23T07:03:13Z</time>
      </trkpt>
      <trkpt lat="48.06525" lon="7.13454">
        <ele>740.4</ele>
        <time>2021-06-23T07:03:17Z</time>
      </trkpt>
      <trkpt lat="48.06527" lon="7.13437">
        <ele>741.4</ele>
        <time>2021-06-23T07:03:22Z</time>
      </trkpt>
      <trkpt lat="48.06527" lon="7.1343">
        <ele>741.8</ele>
        <time>2021-06-23T07:03:24Z</time>
      </trkpt>
      <trkpt lat="48.06527" lon="7.13422">
        <ele>742.4</ele>
        <time>2021-06-23T07:03:26Z</time>
      </trkpt>
      <trkpt lat="48.06528" lon="7.13402">
        <ele>743.6</ele>
        <time>2021-06-23T07:03:31Z</time>
      </trkpt>
      <trkpt lat="48.06527" lon="7.13376">
        <ele>744.6</ele>
        <time>2021-06-23T07:03:37Z</time>
      </trkpt>
      <trkpt lat="48.06526" lon="7.1337">
        <ele>745</ele>
        <time>2021-06-23T07:03:39Z</time>
      </trkpt>
      <trkpt lat="48.06525" lon="7.13358">
        <ele>745.8</ele>
        <time>2021-06-23T07:03:42Z</time>
      </trkpt>
      <trkpt lat="48.06523" lon="7.13342">
        <ele>746.6</ele>
        <time>2021-06-23T07:03:46Z</time>
      </trkpt>
      <trkpt lat="48.06522" lon="7.1334">
        <ele>746.8</ele>
        <time>2021-06-23T07:03:47Z</time>
      </trkpt>
      <trkpt lat="48.06517" lon="7.13321">
        <ele>747.8</ele>
        <time>2021-06-23T07:03:52Z</time>
      </trkpt>
      <trkpt lat="48.06515" lon="7.13314">
        <ele>748.2</ele>
        <time>2021-06-23T07:03:54Z</time>
      </trkpt>
      <trkpt lat="48.06511" lon="7.13301">
        <ele>749</ele>
        <time>2021-06-23T07:03:58Z</time>
      </trkpt>
      <trkpt lat="48.06505" lon="7.13287">
        <ele>749.8</ele>
        <time>2021-06-23T07:04:02Z</time>
      </trkpt>
      <trkpt lat="48.06504" lon="7.13285">
        <ele>750</ele>
        <time>2021-06-23T07:04:03Z</time>
      </trkpt>
      <trkpt lat="48.06496" lon="7.13264">
        <ele>751</ele>
        <time>2021-06-23T07:04:09Z</time>
      </trkpt>
      <trkpt lat="48.0649" lon="7.13245">
        <ele>752.2</ele>
        <time>2021-06-23T07:04:15Z</time>
      </trkpt>
      <trkpt lat="48.0649" lon="7.13242">
        <ele>752.4</ele>
        <time>2021-06-23T07:04:16Z</time>
      </trkpt>
      <trkpt lat="48.06488" lon="7.13234">
        <ele>753.2</ele>
        <time>2021-06-23T07:04:20Z</time>
      </trkpt>
      <trkpt lat="48.06489" lon="7.13231">
        <ele>753.4</ele>
        <time>2021-06-23T07:04:21Z</time>
      </trkpt>
      <trkpt lat="48.06488" lon="7.13207">
        <ele>754.2</ele>
        <time>2021-06-23T07:04:27Z</time>
      </trkpt>
      <trkpt lat="48.06488" lon="7.13204">
        <ele>754.4</ele>
        <time>2021-06-23T07:04:28Z</time>
      </trkpt>
      <trkpt lat="48.06489" lon="7.13189">
        <ele>755.2</ele>
        <time>2021-06-23T07:04:32Z</time>
      </trkpt>
      <trkpt lat="48.06489" lon="7.13181">
        <ele>755.4</ele>
        <time>2021-06-23T07:04:34Z</time>
      </trkpt>
      <trkpt lat="48.06492" lon="7.1317">
        <ele>756.6</ele>
        <time>2021-06-23T07:04:37Z</time>
      </trkpt>
      <trkpt lat="48.06493" lon="7.13163">
        <ele>756.6</ele>
        <time>2021-06-23T07:04:39Z</time>
      </trkpt>
      <trkpt lat="48.06496" lon="7.13146">
        <ele>757.6</ele>
        <time>2021-06-23T07:04:44Z</time>
      </trkpt>
      <trkpt lat="48.065" lon="7.13127">
        <ele>758.6</ele>
        <time>2021-06-23T07:04:49Z</time>
      </trkpt>
      <trkpt lat="48.065" lon="7.13124">
        <ele>758.8</ele>
        <time>2021-06-23T07:04:50Z</time>
      </trkpt>
      <trkpt lat="48.06504" lon="7.13098">
        <ele>759.8</ele>
        <time>2021-06-23T07:04:57Z</time>
      </trkpt>
      <trkpt lat="48.06508" lon="7.13084">
        <ele>761</ele>
        <time>2021-06-23T07:05:01Z</time>
      </trkpt>
      <trkpt lat="48.0651" lon="7.13066">
        <ele>762</ele>
        <time>2021-06-23T07:05:06Z</time>
      </trkpt>
      <trkpt lat="48.06511" lon="7.13062">
        <ele>762.2</ele>
        <time>2021-06-23T07:05:07Z</time>
      </trkpt>
      <trkpt lat="48.06514" lon="7.13048">
        <ele>763.2</ele>
        <time>2021-06-23T07:05:11Z</time>
      </trkpt>
      <trkpt lat="48.06516" lon="7.13033">
        <ele>764</ele>
        <time>2021-06-23T07:05:15Z</time>
      </trkpt>
      <trkpt lat="48.06517" lon="7.13026">
        <ele>764.4</ele>
        <time>2021-06-23T07:05:17Z</time>
      </trkpt>
      <trkpt lat="48.06522" lon="7.13004">
        <ele>765.4</ele>
        <time>2021-06-23T07:05:23Z</time>
      </trkpt>
      <trkpt lat="48.06527" lon="7.12987">
        <ele>766.8</ele>
        <time>2021-06-23T07:05:28Z</time>
      </trkpt>
      <trkpt lat="48.06531" lon="7.12973">
        <ele>767.2</ele>
        <time>2021-06-23T07:05:32Z</time>
      </trkpt>
      <trkpt lat="48.06532" lon="7.1297">
        <ele>767.6</ele>
        <time>2021-06-23T07:05:33Z</time>
      </trkpt>
      <trkpt lat="48.06538" lon="7.12954">
        <ele>768.8</ele>
        <time>2021-06-23T07:05:38Z</time>
      </trkpt>
      <trkpt lat="48.06545" lon="7.12943">
        <ele>769</ele>
        <time>2021-06-23T07:05:42Z</time>
      </trkpt>
      <trkpt lat="48.0655" lon="7.12937">
        <ele>769.8</ele>
        <time>2021-06-23T07:05:45Z</time>
      </trkpt>
      <trkpt lat="48.06557" lon="7.12927">
        <ele>770.8</ele>
        <time>2021-06-23T07:05:49Z</time>
      </trkpt>
      <trkpt lat="48.06561" lon="7.12922">
        <ele>771</ele>
        <time>2021-06-23T07:05:51Z</time>
      </trkpt>
      <trkpt lat="48.06573" lon="7.12907">
        <ele>772</ele>
        <time>2021-06-23T07:05:57Z</time>
      </trkpt>
      <trkpt lat="48.06575" lon="7.12904">
        <ele>772.2</ele>
        <time>2021-06-23T07:05:58Z</time>
      </trkpt>
      <trkpt lat="48.06583" lon="7.12895">
        <ele>773.4</ele>
        <time>2021-06-23T07:06:02Z</time>
      </trkpt>
      <trkpt lat="48.06594" lon="7.12882">
        <ele>774.4</ele>
        <time>2021-06-23T07:06:07Z</time>
      </trkpt>
      <trkpt lat="48.06598" lon="7.12878">
        <ele>775.2</ele>
        <time>2021-06-23T07:06:09Z</time>
      </trkpt>
      <trkpt lat="48.06602" lon="7.12874">
        <ele>776</ele>
        <time>2021-06-23T07:06:11Z</time>
      </trkpt>
      <trkpt lat="48.06613" lon="7.12863">
        <ele>777</ele>
        <time>2021-06-23T07:06:16Z</time>
      </trkpt>
      <trkpt lat="48.06614" lon="7.12861">
        <ele>777.2</ele>
        <time>2021-06-23T07:06:17Z</time>
      </trkpt>
      <trkpt lat="48.0662" lon="7.12854">
        <ele>778.2</ele>
        <time>2021-06-23T07:06:20Z</time>
      </trkpt>
      <trkpt lat="48.06629" lon="7.12843">
        <ele>778.8</ele>
        <time>2021-06-23T07:06:24Z</time>
      </trkpt>
      <trkpt lat="48.06633" lon="7.12837">
        <ele>779.2</ele>
        <time>2021-06-23T07:06:26Z</time>
      </trkpt>
      <trkpt lat="48.06641" lon="7.12821">
        <ele>780.2</ele>
        <time>2021-06-23T07:06:31Z</time>
      </trkpt>
      <trkpt lat="48.06642" lon="7.12817">
        <ele>780.4</ele>
        <time>2021-06-23T07:06:32Z</time>
      </trkpt>
      <trkpt lat="48.06649" lon="7.12796">
        <ele>781.2</ele>
        <time>2021-06-23T07:06:38Z</time>
      </trkpt>
      <trkpt lat="48.06653" lon="7.12783">
        <ele>782.4</ele>
        <time>2021-06-23T07:06:42Z</time>
      </trkpt>
      <trkpt lat="48.06654" lon="7.1278">
        <ele>782.6</ele>
        <time>2021-06-23T07:06:43Z</time>
      </trkpt>
      <trkpt lat="48.06657" lon="7.12764">
        <ele>783.6</ele>
        <time>2021-06-23T07:06:47Z</time>
      </trkpt>
      <trkpt lat="48.06656" lon="7.12755">
        <ele>784</ele>
        <time>2021-06-23T07:06:49Z</time>
      </trkpt>
      <trkpt lat="48.06646" lon="7.12733">
        <ele>784.4</ele>
        <time>2021-06-23T07:06:54Z</time>
      </trkpt>
      <trkpt lat="48.06627" lon="7.12698">
        <ele>784.6</ele>
        <time>2021-06-23T07:07:01Z</time>
      </trkpt>
      <trkpt lat="48.06624" lon="7.12693">
        <ele>784.6</ele>
        <time>2021-06-23T07:07:02Z</time>
      </trkpt>
      <trkpt lat="48.06621" lon="7.12688">
        <ele>784.6</ele>
        <time>2021-06-23T07:07:03Z</time>
      </trkpt>
      <trkpt lat="48.06614" lon="7.12674">
        <ele>784.6</ele>
        <time>2021-06-23T07:07:06Z</time>
      </trkpt>
      <trkpt lat="48.06606" lon="7.12658">
        <ele>784.6</ele>
        <time>2021-06-23T07:07:09Z</time>
      </trkpt>
      <trkpt lat="48.06583" lon="7.126">
        <ele>784.4</ele>
        <time>2021-06-23T07:07:19Z</time>
      </trkpt>
      <trkpt lat="48.0657" lon="7.12558">
        <ele>784.4</ele>
        <time>2021-06-23T07:07:26Z</time>
      </trkpt>
      <trkpt lat="48.06569" lon="7.12552">
        <ele>784.4</ele>
        <time>2021-06-23T07:07:27Z</time>
      </trkpt>
      <trkpt lat="48.06567" lon="7.12546">
        <ele>784.4</ele>
        <time>2021-06-23T07:07:28Z</time>
      </trkpt>
      <trkpt lat="48.06566" lon="7.12516">
        <ele>784.8</ele>
        <time>2021-06-23T07:07:33Z</time>
      </trkpt>
      <trkpt lat="48.0657" lon="7.1249">
        <ele>785.8</ele>
        <time>2021-06-23T07:07:38Z</time>
      </trkpt>
      <trkpt lat="48.06571" lon="7.12486">
        <ele>785.8</ele>
        <time>2021-06-23T07:07:39Z</time>
      </trkpt>
      <trkpt lat="48.06581" lon="7.12466">
        <ele>787</ele>
        <time>2021-06-23T07:07:44Z</time>
      </trkpt>
      <trkpt lat="48.06583" lon="7.12463">
        <ele>787.2</ele>
        <time>2021-06-23T07:07:45Z</time>
      </trkpt>
      <trkpt lat="48.06594" lon="7.12447">
        <ele>788</ele>
        <time>2021-06-23T07:07:50Z</time>
      </trkpt>
      <trkpt lat="48.066" lon="7.12443">
        <ele>788</ele>
        <time>2021-06-23T07:07:52Z</time>
      </trkpt>
      <trkpt lat="48.06609" lon="7.12437">
        <ele>789.2</ele>
        <time>2021-06-23T07:07:55Z</time>
      </trkpt>
      <trkpt lat="48.06623" lon="7.12433">
        <ele>790.6</ele>
        <time>2021-06-23T07:08:00Z</time>
      </trkpt>
      <trkpt lat="48.06638" lon="7.12432">
        <ele>791.8</ele>
        <time>2021-06-23T07:08:06Z</time>
      </trkpt>
      <trkpt lat="48.06643" lon="7.12433">
        <ele>792.2</ele>
        <time>2021-06-23T07:08:08Z</time>
      </trkpt>
      <trkpt lat="48.06651" lon="7.12437">
        <ele>793</ele>
        <time>2021-06-23T07:08:11Z</time>
      </trkpt>
      <trkpt lat="48.06662" lon="7.12446">
        <ele>794</ele>
        <time>2021-06-23T07:08:16Z</time>
      </trkpt>
      <trkpt lat="48.06664" lon="7.12448">
        <ele>794.4</ele>
        <time>2021-06-23T07:08:17Z</time>
      </trkpt>
      <trkpt lat="48.06671" lon="7.12456">
        <ele>795.2</ele>
        <time>2021-06-23T07:08:20Z</time>
      </trkpt>
      <trkpt lat="48.06681" lon="7.12475">
        <ele>796.4</ele>
        <time>2021-06-23T07:08:26Z</time>
      </trkpt>
      <trkpt lat="48.06687" lon="7.12491">
        <ele>797.4</ele>
        <time>2021-06-23T07:08:31Z</time>
      </trkpt>
      <trkpt lat="48.0669" lon="7.12497">
        <ele>797.8</ele>
        <time>2021-06-23T07:08:33Z</time>
      </trkpt>
      <trkpt lat="48.06694" lon="7.12511">
        <ele>798.4</ele>
        <time>2021-06-23T07:08:37Z</time>
      </trkpt>
      <trkpt lat="48.06695" lon="7.12514">
        <ele>798.4</ele>
        <time>2021-06-23T07:08:38Z</time>
      </trkpt>
      <trkpt lat="48.06698" lon="7.12526">
        <ele>799.4</ele>
        <time>2021-06-23T07:08:41Z</time>
      </trkpt>
      <trkpt lat="48.06702" lon="7.12543">
        <ele>800.2</ele>
        <time>2021-06-23T07:08:46Z</time>
      </trkpt>
      <trkpt lat="48.06703" lon="7.12547">
        <ele>800.4</ele>
        <time>2021-06-23T07:08:47Z</time>
      </trkpt>
      <trkpt lat="48.06708" lon="7.12569">
        <ele>801.6</ele>
        <time>2021-06-23T07:08:53Z</time>
      </trkpt>
      <trkpt lat="48.06709" lon="7.12575">
        <ele>802</ele>
        <time>2021-06-23T07:08:55Z</time>
      </trkpt>
      <trkpt lat="48.06711" lon="7.12586">
        <ele>802.8</ele>
        <time>2021-06-23T07:08:58Z</time>
      </trkpt>
      <trkpt lat="48.06716" lon="7.12599">
        <ele>803.6</ele>
        <time>2021-06-23T07:09:02Z</time>
      </trkpt>
      <trkpt lat="48.06718" lon="7.12606">
        <ele>804</ele>
        <time>2021-06-23T07:09:04Z</time>
      </trkpt>
      <trkpt lat="48.06722" lon="7.12619">
        <ele>804.8</ele>
        <time>2021-06-23T07:09:08Z</time>
      </trkpt>
      <trkpt lat="48.06723" lon="7.12622">
        <ele>805</ele>
        <time>2021-06-23T07:09:09Z</time>
      </trkpt>
      <trkpt lat="48.06729" lon="7.12643">
        <ele>806.2</ele>
        <time>2021-06-23T07:09:15Z</time>
      </trkpt>
      <trkpt lat="48.06733" lon="7.12656">
        <ele>807</ele>
        <time>2021-06-23T07:09:19Z</time>
      </trkpt>
      <trkpt lat="48.06736" lon="7.12664">
        <ele>807.2</ele>
        <time>2021-06-23T07:09:21Z</time>
      </trkpt>
      <trkpt lat="48.0674" lon="7.12678">
        <ele>808.4</ele>
        <time>2021-06-23T07:09:25Z</time>
      </trkpt>
      <trkpt lat="48.06742" lon="7.12693">
        <ele>809.2</ele>
        <time>2021-06-23T07:09:29Z</time>
      </trkpt>
      <trkpt lat="48.06743" lon="7.12701">
        <ele>809.4</ele>
        <time>2021-06-23T07:09:31Z</time>
      </trkpt>
      <trkpt lat="48.06744" lon="7.12719">
        <ele>810.4</ele>
        <time>2021-06-23T07:09:36Z</time>
      </trkpt>
      <trkpt lat="48.06744" lon="7.12727">
        <ele>811</ele>
        <time>2021-06-23T07:09:39Z</time>
      </trkpt>
      <trkpt lat="48.06746" lon="7.12729">
        <ele>811.4</ele>
        <time>2021-06-23T07:09:41Z</time>
      </trkpt>
      <trkpt lat="48.06746" lon="7.12728">
        <ele>811.6</ele>
        <time>2021-06-23T07:09:42Z</time>
      </trkpt>
      <trkpt lat="48.06747" lon="7.12723">
        <ele>812</ele>
        <time>2021-06-23T07:09:44Z</time>
      </trkpt>
      <trkpt lat="48.06746" lon="7.12705">
        <ele>812.2</ele>
        <time>2021-06-23T07:09:49Z</time>
      </trkpt>
      <trkpt lat="48.06745" lon="7.12697">
        <ele>811.4</ele>
        <time>2021-06-23T07:09:53Z</time>
      </trkpt>
      <trkpt lat="48.06742" lon="7.127">
        <ele>811</ele>
        <time>2021-06-23T07:09:56Z</time>
      </trkpt>
      <trkpt lat="48.06742" lon="7.12701">
        <ele>810.6</ele>
        <time>2021-06-23T07:09:59Z</time>
      </trkpt>
      <trkpt lat="48.06743" lon="7.12706">
        <ele>810.4</ele>
        <time>2021-06-23T07:11:47Z</time>
      </trkpt>
      <trkpt lat="48.06744" lon="7.12718">
        <ele>810.6</ele>
        <time>2021-06-23T07:11:51Z</time>
      </trkpt>
      <trkpt lat="48.06744" lon="7.12737">
        <ele>811</ele>
        <time>2021-06-23T07:11:56Z</time>
      </trkpt>
      <trkpt lat="48.06744" lon="7.1276">
        <ele>812.4</ele>
        <time>2021-06-23T07:12:02Z</time>
      </trkpt>
      <trkpt lat="48.06743" lon="7.12764">
        <ele>812.6</ele>
        <time>2021-06-23T07:12:03Z</time>
      </trkpt>
      <trkpt lat="48.06742" lon="7.12775">
        <ele>813.4</ele>
        <time>2021-06-23T07:12:06Z</time>
      </trkpt>
      <trkpt lat="48.06739" lon="7.12795">
        <ele>814</ele>
        <time>2021-06-23T07:12:11Z</time>
      </trkpt>
      <trkpt lat="48.06738" lon="7.12802">
        <ele>814.6</ele>
        <time>2021-06-23T07:12:13Z</time>
      </trkpt>
      <trkpt lat="48.06733" lon="7.12823">
        <ele>816</ele>
        <time>2021-06-23T07:12:19Z</time>
      </trkpt>
      <trkpt lat="48.06731" lon="7.1283">
        <ele>816.2</ele>
        <time>2021-06-23T07:12:21Z</time>
      </trkpt>
      <trkpt lat="48.06726" lon="7.12848">
        <ele>817.2</ele>
        <time>2021-06-23T07:12:26Z</time>
      </trkpt>
      <trkpt lat="48.06723" lon="7.12861">
        <ele>817.8</ele>
        <time>2021-06-23T07:12:30Z</time>
      </trkpt>
      <trkpt lat="48.0672" lon="7.12873">
        <ele>818.4</ele>
        <time>2021-06-23T07:12:33Z</time>
      </trkpt>
      <trkpt lat="48.06716" lon="7.12889">
        <ele>819.4</ele>
        <time>2021-06-23T07:12:38Z</time>
      </trkpt>
      <trkpt lat="48.06715" lon="7.12893">
        <ele>819.6</ele>
        <time>2021-06-23T07:12:39Z</time>
      </trkpt>
      <trkpt lat="48.06711" lon="7.12911">
        <ele>820.6</ele>
        <time>2021-06-23T07:12:44Z</time>
      </trkpt>
      <trkpt lat="48.06709" lon="7.12918">
        <ele>821.2</ele>
        <time>2021-06-23T07:12:46Z</time>
      </trkpt>
      <trkpt lat="48.06707" lon="7.12933">
        <ele>822.2</ele>
        <time>2021-06-23T07:12:50Z</time>
      </trkpt>
      <trkpt lat="48.06704" lon="7.12946">
        <ele>823.2</ele>
        <time>2021-06-23T07:12:54Z</time>
      </trkpt>
      <trkpt lat="48.06699" lon="7.12971">
        <ele>825</ele>
        <time>2021-06-23T07:13:01Z</time>
      </trkpt>
      <trkpt lat="48.06699" lon="7.12975">
        <ele>825.6</ele>
        <time>2021-06-23T07:13:02Z</time>
      </trkpt>
      <trkpt lat="48.06698" lon="7.12986">
        <ele>826</ele>
        <time>2021-06-23T07:13:05Z</time>
      </trkpt>
      <trkpt lat="48.06699" lon="7.12996">
        <ele>826.8</ele>
        <time>2021-06-23T07:13:08Z</time>
      </trkpt>
      <trkpt lat="48.06698" lon="7.13012">
        <ele>827.2</ele>
        <time>2021-06-23T07:13:12Z</time>
      </trkpt>
      <trkpt lat="48.06696" lon="7.13022">
        <ele>828</ele>
        <time>2021-06-23T07:13:15Z</time>
      </trkpt>
      <trkpt lat="48.06696" lon="7.1303">
        <ele>828.6</ele>
        <time>2021-06-23T07:13:17Z</time>
      </trkpt>
      <trkpt lat="48.06697" lon="7.13051">
        <ele>829.4</ele>
        <time>2021-06-23T07:13:23Z</time>
      </trkpt>
      <trkpt lat="48.06697" lon="7.13054">
        <ele>829.6</ele>
        <time>2021-06-23T07:13:24Z</time>
      </trkpt>
      <trkpt lat="48.067" lon="7.13081">
        <ele>830.4</ele>
        <time>2021-06-23T07:13:31Z</time>
      </trkpt>
      <trkpt lat="48.067" lon="7.13085">
        <ele>831</ele>
        <time>2021-06-23T07:13:32Z</time>
      </trkpt>
      <trkpt lat="48.06702" lon="7.13105">
        <ele>832</ele>
        <time>2021-06-23T07:13:37Z</time>
      </trkpt>
      <trkpt lat="48.06703" lon="7.13107">
        <ele>832.2</ele>
        <time>2021-06-23T07:13:38Z</time>
      </trkpt>
      <trkpt lat="48.06704" lon="7.13123">
        <ele>833.4</ele>
        <time>2021-06-23T07:13:42Z</time>
      </trkpt>
      <trkpt lat="48.06705" lon="7.13142">
        <ele>834</ele>
        <time>2021-06-23T07:13:47Z</time>
      </trkpt>
      <trkpt lat="48.06706" lon="7.13149">
        <ele>834.4</ele>
        <time>2021-06-23T07:13:49Z</time>
      </trkpt>
      <trkpt lat="48.06707" lon="7.13172">
        <ele>835.6</ele>
        <time>2021-06-23T07:13:55Z</time>
      </trkpt>
      <trkpt lat="48.06708" lon="7.13183">
        <ele>835.8</ele>
        <time>2021-06-23T07:13:58Z</time>
      </trkpt>
      <trkpt lat="48.06708" lon="7.13202">
        <ele>836.6</ele>
        <time>2021-06-23T07:14:03Z</time>
      </trkpt>
      <trkpt lat="48.06709" lon="7.13213">
        <ele>837.4</ele>
        <time>2021-06-23T07:14:06Z</time>
      </trkpt>
      <trkpt lat="48.06709" lon="7.13216">
        <ele>837.6</ele>
        <time>2021-06-23T07:14:07Z</time>
      </trkpt>
      <trkpt lat="48.06709" lon="7.13231">
        <ele>838.8</ele>
        <time>2021-06-23T07:14:11Z</time>
      </trkpt>
      <trkpt lat="48.0671" lon="7.13246">
        <ele>839.8</ele>
        <time>2021-06-23T07:14:15Z</time>
      </trkpt>
      <trkpt lat="48.0671" lon="7.1325">
        <ele>840</ele>
        <time>2021-06-23T07:14:16Z</time>
      </trkpt>
      <trkpt lat="48.06712" lon="7.13266">
        <ele>841</ele>
        <time>2021-06-23T07:14:20Z</time>
      </trkpt>
      <trkpt lat="48.06717" lon="7.13286">
        <ele>842</ele>
        <time>2021-06-23T07:14:25Z</time>
      </trkpt>
      <trkpt lat="48.06732" lon="7.13323">
        <ele>842.8</ele>
        <time>2021-06-23T07:14:34Z</time>
      </trkpt>
      <trkpt lat="48.06734" lon="7.13326">
        <ele>843</ele>
        <time>2021-06-23T07:14:35Z</time>
      </trkpt>
      <trkpt lat="48.06749" lon="7.13339">
        <ele>843.2</ele>
        <time>2021-06-23T07:14:40Z</time>
      </trkpt>
      <trkpt lat="48.0677" lon="7.13348">
        <ele>843.8</ele>
        <time>2021-06-23T07:14:47Z</time>
      </trkpt>
      <trkpt lat="48.06773" lon="7.13349">
        <ele>844</ele>
        <time>2021-06-23T07:14:48Z</time>
      </trkpt>
      <trkpt lat="48.06788" lon="7.13346">
        <ele>844.8</ele>
        <time>2021-06-23T07:14:53Z</time>
      </trkpt>
      <trkpt lat="48.06802" lon="7.13339">
        <ele>845</ele>
        <time>2021-06-23T07:14:57Z</time>
      </trkpt>
      <trkpt lat="48.06811" lon="7.13333">
        <ele>845.2</ele>
        <time>2021-06-23T07:15:00Z</time>
      </trkpt>
      <trkpt lat="48.06827" lon="7.13321">
        <ele>846.2</ele>
        <time>2021-06-23T07:15:06Z</time>
      </trkpt>
      <trkpt lat="48.06837" lon="7.13316">
        <ele>846.4</ele>
        <time>2021-06-23T07:15:09Z</time>
      </trkpt>
      <trkpt lat="48.06846" lon="7.13311">
        <ele>846.8</ele>
        <time>2021-06-23T07:15:12Z</time>
      </trkpt>
      <trkpt lat="48.06849" lon="7.1331">
        <ele>847</ele>
        <time>2021-06-23T07:15:13Z</time>
      </trkpt>
      <trkpt lat="48.06852" lon="7.13309">
        <ele>847.2</ele>
        <time>2021-06-23T07:15:14Z</time>
      </trkpt>
      <trkpt lat="48.0686" lon="7.13304">
        <ele>847.8</ele>
        <time>2021-06-23T07:15:17Z</time>
      </trkpt>
      <trkpt lat="48.06871" lon="7.13297">
        <ele>848.6</ele>
        <time>2021-06-23T07:15:21Z</time>
      </trkpt>
      <trkpt lat="48.06878" lon="7.13293">
        <ele>849</ele>
        <time>2021-06-23T07:15:24Z</time>
      </trkpt>
      <trkpt lat="48.06883" lon="7.13292">
        <ele>849.6</ele>
        <time>2021-06-23T07:15:26Z</time>
      </trkpt>
      <trkpt lat="48.06894" lon="7.13289">
        <ele>850.4</ele>
        <time>2021-06-23T07:15:30Z</time>
      </trkpt>
      <trkpt lat="48.069" lon="7.1329">
        <ele>850.8</ele>
        <time>2021-06-23T07:15:32Z</time>
      </trkpt>
      <trkpt lat="48.06907" lon="7.13289">
        <ele>851.6</ele>
        <time>2021-06-23T07:15:35Z</time>
      </trkpt>
      <trkpt lat="48.06909" lon="7.13289">
        <ele>851.6</ele>
        <time>2021-06-23T07:15:36Z</time>
      </trkpt>
      <trkpt lat="48.06911" lon="7.1329">
        <ele>852</ele>
        <time>2021-06-23T07:15:37Z</time>
      </trkpt>
      <trkpt lat="48.06924" lon="7.1329">
        <ele>853.4</ele>
        <time>2021-06-23T07:15:43Z</time>
      </trkpt>
      <trkpt lat="48.06937" lon="7.1329">
        <ele>854.6</ele>
        <time>2021-06-23T07:15:48Z</time>
      </trkpt>
      <trkpt lat="48.06945" lon="7.13291">
        <ele>854.8</ele>
        <time>2021-06-23T07:15:51Z</time>
      </trkpt>
      <trkpt lat="48.06952" lon="7.13289">
        <ele>855.6</ele>
        <time>2021-06-23T07:15:54Z</time>
      </trkpt>
      <trkpt lat="48.06961" lon="7.13283">
        <ele>856.6</ele>
        <time>2021-06-23T07:15:57Z</time>
      </trkpt>
      <trkpt lat="48.06963" lon="7.13283">
        <ele>856.8</ele>
        <time>2021-06-23T07:15:58Z</time>
      </trkpt>
      <trkpt lat="48.06978" lon="7.13279">
        <ele>857.6</ele>
        <time>2021-06-23T07:16:03Z</time>
      </trkpt>
      <trkpt lat="48.0698" lon="7.13277">
        <ele>858.2</ele>
        <time>2021-06-23T07:16:04Z</time>
      </trkpt>
      <trkpt lat="48.0699" lon="7.13276">
        <ele>858.6</ele>
        <time>2021-06-23T07:16:08Z</time>
      </trkpt>
      <trkpt lat="48.07001" lon="7.13276">
        <ele>859.8</ele>
        <time>2021-06-23T07:16:13Z</time>
      </trkpt>
      <trkpt lat="48.07003" lon="7.13276">
        <ele>859.8</ele>
        <time>2021-06-23T07:16:14Z</time>
      </trkpt>
      <trkpt lat="48.0701" lon="7.13277">
        <ele>861</ele>
        <time>2021-06-23T07:16:17Z</time>
      </trkpt>
      <trkpt lat="48.07022" lon="7.13277">
        <ele>861.6</ele>
        <time>2021-06-23T07:16:21Z</time>
      </trkpt>
      <trkpt lat="48.07027" lon="7.13276">
        <ele>862</ele>
        <time>2021-06-23T07:16:23Z</time>
      </trkpt>
      <trkpt lat="48.0704" lon="7.13272">
        <ele>863.2</ele>
        <time>2021-06-23T07:16:28Z</time>
      </trkpt>
      <trkpt lat="48.07053" lon="7.13265">
        <ele>864.2</ele>
        <time>2021-06-23T07:16:32Z</time>
      </trkpt>
      <trkpt lat="48.07063" lon="7.13264">
        <ele>865</ele>
        <time>2021-06-23T07:16:36Z</time>
      </trkpt>
      <trkpt lat="48.07064" lon="7.13264">
        <ele>865.2</ele>
        <time>2021-06-23T07:16:37Z</time>
      </trkpt>
      <trkpt lat="48.07072" lon="7.13263">
        <ele>865.8</ele>
        <time>2021-06-23T07:16:40Z</time>
      </trkpt>
      <trkpt lat="48.07077" lon="7.13263">
        <ele>866.2</ele>
        <time>2021-06-23T07:16:42Z</time>
      </trkpt>
      <trkpt lat="48.07085" lon="7.13263">
        <ele>867</ele>
        <time>2021-06-23T07:16:46Z</time>
      </trkpt>
      <trkpt lat="48.0709" lon="7.13263">
        <ele>867.4</ele>
        <time>2021-06-23T07:16:48Z</time>
      </trkpt>
      <trkpt lat="48.071" lon="7.13263">
        <ele>868.4</ele>
        <time>2021-06-23T07:16:52Z</time>
      </trkpt>
      <trkpt lat="48.07105" lon="7.13262">
        <ele>868.8</ele>
        <time>2021-06-23T07:16:54Z</time>
      </trkpt>
      <trkpt lat="48.07115" lon="7.13262">
        <ele>869.4</ele>
        <time>2021-06-23T07:16:58Z</time>
      </trkpt>
      <trkpt lat="48.07123" lon="7.13261">
        <ele>870.2</ele>
        <time>2021-06-23T07:17:01Z</time>
      </trkpt>
      <trkpt lat="48.07128" lon="7.13258">
        <ele>870.4</ele>
        <time>2021-06-23T07:17:03Z</time>
      </trkpt>
      <trkpt lat="48.07137" lon="7.13253">
        <ele>871.4</ele>
        <time>2021-06-23T07:17:07Z</time>
      </trkpt>
      <trkpt lat="48.07139" lon="7.13254">
        <ele>871.8</ele>
        <time>2021-06-23T07:17:08Z</time>
      </trkpt>
      <trkpt lat="48.07153" lon="7.13256">
        <ele>872.8</ele>
        <time>2021-06-23T07:17:14Z</time>
      </trkpt>
      <trkpt lat="48.07157" lon="7.13256">
        <ele>873</ele>
        <time>2021-06-23T07:17:16Z</time>
      </trkpt>
      <trkpt lat="48.07166" lon="7.13255">
        <ele>873.8</ele>
        <time>2021-06-23T07:17:20Z</time>
      </trkpt>
      <trkpt lat="48.0717" lon="7.13255">
        <ele>874.4</ele>
        <time>2021-06-23T07:17:22Z</time>
      </trkpt>
      <trkpt lat="48.07175" lon="7.13256">
        <ele>875</ele>
        <time>2021-06-23T07:17:24Z</time>
      </trkpt>
      <trkpt lat="48.07184" lon="7.13254">
        <ele>875.6</ele>
        <time>2021-06-23T07:17:27Z</time>
      </trkpt>
      <trkpt lat="48.07193" lon="7.13253">
        <ele>876</ele>
        <time>2021-06-23T07:17:30Z</time>
      </trkpt>
      <trkpt lat="48.07205" lon="7.13253">
        <ele>876.8</ele>
        <time>2021-06-23T07:17:35Z</time>
      </trkpt>
      <trkpt lat="48.0721" lon="7.13253">
        <ele>877.2</ele>
        <time>2021-06-23T07:17:37Z</time>
      </trkpt>
      <trkpt lat="48.07223" lon="7.13252">
        <ele>878.2</ele>
        <time>2021-06-23T07:17:42Z</time>
      </trkpt>
      <trkpt lat="48.07241" lon="7.13243">
        <ele>879.2</ele>
        <time>2021-06-23T07:17:47Z</time>
      </trkpt>
      <trkpt lat="48.07247" lon="7.13245">
        <ele>879.4</ele>
        <time>2021-06-23T07:17:49Z</time>
      </trkpt>
      <trkpt lat="48.07254" lon="7.13252">
        <ele>880.2</ele>
        <time>2021-06-23T07:17:53Z</time>
      </trkpt>
      <trkpt lat="48.07257" lon="7.13253">
        <ele>880.2</ele>
        <time>2021-06-23T07:17:54Z</time>
      </trkpt>
      <trkpt lat="48.07259" lon="7.13253">
        <ele>880.6</ele>
        <time>2021-06-23T07:17:55Z</time>
      </trkpt>
      <trkpt lat="48.07268" lon="7.13256">
        <ele>881.4</ele>
        <time>2021-06-23T07:17:59Z</time>
      </trkpt>
      <trkpt lat="48.0727" lon="7.1326">
        <ele>882</ele>
        <time>2021-06-23T07:18:01Z</time>
      </trkpt>
      <trkpt lat="48.07276" lon="7.13265">
        <ele>882.2</ele>
        <time>2021-06-23T07:18:04Z</time>
      </trkpt>
      <trkpt lat="48.07285" lon="7.1327">
        <ele>882.6</ele>
        <time>2021-06-23T07:18:07Z</time>
      </trkpt>
      <trkpt lat="48.07294" lon="7.13274">
        <ele>883.6</ele>
        <time>2021-06-23T07:18:10Z</time>
      </trkpt>
      <trkpt lat="48.07305" lon="7.13281">
        <ele>884</ele>
        <time>2021-06-23T07:18:14Z</time>
      </trkpt>
      <trkpt lat="48.07313" lon="7.13284">
        <ele>884.4</ele>
        <time>2021-06-23T07:18:16Z</time>
      </trkpt>
      <trkpt lat="48.07326" lon="7.13293">
        <ele>885.6</ele>
        <time>2021-06-23T07:18:21Z</time>
      </trkpt>
      <trkpt lat="48.0733" lon="7.13295">
        <ele>885.8</ele>
        <time>2021-06-23T07:18:23Z</time>
      </trkpt>
      <trkpt lat="48.07333" lon="7.13302">
        <ele>886.4</ele>
        <time>2021-06-23T07:18:27Z</time>
      </trkpt>
      <trkpt lat="48.07335" lon="7.13305">
        <ele>886.4</ele>
        <time>2021-06-23T07:18:28Z</time>
      </trkpt>
      <trkpt lat="48.07352" lon="7.13319">
        <ele>887.6</ele>
        <time>2021-06-23T07:18:34Z</time>
      </trkpt>
      <trkpt lat="48.07366" lon="7.13332">
        <ele>888.4</ele>
        <time>2021-06-23T07:18:39Z</time>
      </trkpt>
      <trkpt lat="48.07376" lon="7.13345">
        <ele>889.6</ele>
        <time>2021-06-23T07:18:44Z</time>
      </trkpt>
      <trkpt lat="48.07377" lon="7.13348">
        <ele>889.6</ele>
        <time>2021-06-23T07:18:45Z</time>
      </trkpt>
      <trkpt lat="48.07391" lon="7.13362">
        <ele>890.6</ele>
        <time>2021-06-23T07:18:50Z</time>
      </trkpt>
      <trkpt lat="48.07394" lon="7.13366">
        <ele>890.6</ele>
        <time>2021-06-23T07:18:51Z</time>
      </trkpt>
      <trkpt lat="48.07401" lon="7.13381">
        <ele>891.6</ele>
        <time>2021-06-23T07:18:56Z</time>
      </trkpt>
      <trkpt lat="48.07403" lon="7.1339">
        <ele>892.4</ele>
        <time>2021-06-23T07:18:59Z</time>
      </trkpt>
      <trkpt lat="48.07405" lon="7.13393">
        <ele>892.6</ele>
        <time>2021-06-23T07:19:00Z</time>
      </trkpt>
      <trkpt lat="48.07412" lon="7.13403">
        <ele>893.2</ele>
        <time>2021-06-23T07:19:04Z</time>
      </trkpt>
      <trkpt lat="48.07413" lon="7.13406">
        <ele>893.4</ele>
        <time>2021-06-23T07:19:05Z</time>
      </trkpt>
      <trkpt lat="48.07414" lon="7.13415">
        <ele>894.2</ele>
        <time>2021-06-23T07:19:08Z</time>
      </trkpt>
      <trkpt lat="48.07415" lon="7.13425">
        <ele>894.6</ele>
        <time>2021-06-23T07:19:10Z</time>
      </trkpt>
      <trkpt lat="48.07417" lon="7.13446">
        <ele>895.6</ele>
        <time>2021-06-23T07:19:15Z</time>
      </trkpt>
      <trkpt lat="48.07416" lon="7.1345">
        <ele>895.6</ele>
        <time>2021-06-23T07:19:16Z</time>
      </trkpt>
      <trkpt lat="48.07426" lon="7.13464">
        <ele>896.4</ele>
        <time>2021-06-23T07:19:20Z</time>
      </trkpt>
      <trkpt lat="48.07431" lon="7.13472">
        <ele>896.4</ele>
        <time>2021-06-23T07:19:22Z</time>
      </trkpt>
      <trkpt lat="48.07434" lon="7.13487">
        <ele>897.4</ele>
        <time>2021-06-23T07:19:26Z</time>
      </trkpt>
      <trkpt lat="48.07436" lon="7.13492">
        <ele>897.6</ele>
        <time>2021-06-23T07:19:27Z</time>
      </trkpt>
      <trkpt lat="48.07443" lon="7.13504">
        <ele>898.8</ele>
        <time>2021-06-23T07:19:32Z</time>
      </trkpt>
      <trkpt lat="48.07446" lon="7.13507">
        <ele>899</ele>
        <time>2021-06-23T07:19:33Z</time>
      </trkpt>
      <trkpt lat="48.07456" lon="7.13515">
        <ele>899.8</ele>
        <time>2021-06-23T07:19:37Z</time>
      </trkpt>
      <trkpt lat="48.07459" lon="7.13516">
        <ele>899.8</ele>
        <time>2021-06-23T07:19:38Z</time>
      </trkpt>
      <trkpt lat="48.0747" lon="7.13516">
        <ele>900.6</ele>
        <time>2021-06-23T07:19:43Z</time>
      </trkpt>
      <trkpt lat="48.07473" lon="7.13515">
        <ele>900.8</ele>
        <time>2021-06-23T07:19:44Z</time>
      </trkpt>
      <trkpt lat="48.07484" lon="7.13512">
        <ele>901.2</ele>
        <time>2021-06-23T07:19:48Z</time>
      </trkpt>
      <trkpt lat="48.07492" lon="7.1351">
        <ele>901.6</ele>
        <time>2021-06-23T07:19:51Z</time>
      </trkpt>
      <trkpt lat="48.07502" lon="7.13505">
        <ele>902.6</ele>
        <time>2021-06-23T07:19:55Z</time>
      </trkpt>
      <trkpt lat="48.07505" lon="7.13501">
        <ele>902.8</ele>
        <time>2021-06-23T07:19:57Z</time>
      </trkpt>
      <trkpt lat="48.07512" lon="7.13496">
        <ele>903.2</ele>
        <time>2021-06-23T07:19:59Z</time>
      </trkpt>
      <trkpt lat="48.07521" lon="7.13495">
        <ele>903.8</ele>
        <time>2021-06-23T07:20:03Z</time>
      </trkpt>
      <trkpt lat="48.07527" lon="7.13492">
        <ele>904</ele>
        <time>2021-06-23T07:20:04Z</time>
      </trkpt>
      <trkpt lat="48.0753" lon="7.13492">
        <ele>904.2</ele>
        <time>2021-06-23T07:20:05Z</time>
      </trkpt>
      <trkpt lat="48.07537" lon="7.13491">
        <ele>905</ele>
        <time>2021-06-23T07:20:08Z</time>
      </trkpt>
      <trkpt lat="48.07539" lon="7.1349">
        <ele>905.2</ele>
        <time>2021-06-23T07:20:09Z</time>
      </trkpt>
      <trkpt lat="48.07547" lon="7.13487">
        <ele>906</ele>
        <time>2021-06-23T07:20:13Z</time>
      </trkpt>
      <trkpt lat="48.07554" lon="7.13486">
        <ele>906.4</ele>
        <time>2021-06-23T07:20:16Z</time>
      </trkpt>
      <trkpt lat="48.07557" lon="7.13486">
        <ele>906.8</ele>
        <time>2021-06-23T07:20:18Z</time>
      </trkpt>
      <trkpt lat="48.07558" lon="7.13487">
        <ele>907</ele>
        <time>2021-06-23T07:20:19Z</time>
      </trkpt>
      <trkpt lat="48.07562" lon="7.13489">
        <ele>907.4</ele>
        <time>2021-06-23T07:20:21Z</time>
      </trkpt>
      <trkpt lat="48.07567" lon="7.13493">
        <ele>908.2</ele>
        <time>2021-06-23T07:20:24Z</time>
      </trkpt>
      <trkpt lat="48.07573" lon="7.13499">
        <ele>908.4</ele>
        <time>2021-06-23T07:20:27Z</time>
      </trkpt>
      <trkpt lat="48.07574" lon="7.13501">
        <ele>908.8</ele>
        <time>2021-06-23T07:20:28Z</time>
      </trkpt>
      <trkpt lat="48.07576" lon="7.13508">
        <ele>909.2</ele>
        <time>2021-06-23T07:20:30Z</time>
      </trkpt>
      <trkpt lat="48.07582" lon="7.13514">
        <ele>909.6</ele>
        <time>2021-06-23T07:20:32Z</time>
      </trkpt>
      <trkpt lat="48.07593" lon="7.13524">
        <ele>910.2</ele>
        <time>2021-06-23T07:20:37Z</time>
      </trkpt>
      <trkpt lat="48.07598" lon="7.13529">
        <ele>910.8</ele>
        <time>2021-06-23T07:20:39Z</time>
      </trkpt>
      <trkpt lat="48.07608" lon="7.13537">
        <ele>911.6</ele>
        <time>2021-06-23T07:20:43Z</time>
      </trkpt>
      <trkpt lat="48.07618" lon="7.13543">
        <ele>912</ele>
        <time>2021-06-23T07:20:47Z</time>
      </trkpt>
      <trkpt lat="48.0762" lon="7.13546">
        <ele>912.2</ele>
        <time>2021-06-23T07:20:48Z</time>
      </trkpt>
      <trkpt lat="48.07624" lon="7.13548">
        <ele>912.4</ele>
        <time>2021-06-23T07:20:50Z</time>
      </trkpt>
      <trkpt lat="48.07633" lon="7.13552">
        <ele>913</ele>
        <time>2021-06-23T07:20:52Z</time>
      </trkpt>
      <trkpt lat="48.0764" lon="7.13559">
        <ele>913.8</ele>
        <time>2021-06-23T07:20:55Z</time>
      </trkpt>
      <trkpt lat="48.07654" lon="7.13571">
        <ele>914.4</ele>
        <time>2021-06-23T07:21:00Z</time>
      </trkpt>
      <trkpt lat="48.07658" lon="7.13574">
        <ele>914.8</ele>
        <time>2021-06-23T07:21:01Z</time>
      </trkpt>
      <trkpt lat="48.07668" lon="7.13586">
        <ele>915.8</ele>
        <time>2021-06-23T07:21:05Z</time>
      </trkpt>
      <trkpt lat="48.07673" lon="7.13593">
        <ele>916.4</ele>
        <time>2021-06-23T07:21:07Z</time>
      </trkpt>
      <trkpt lat="48.0768" lon="7.13604">
        <ele>917</ele>
        <time>2021-06-23T07:21:10Z</time>
      </trkpt>
      <trkpt lat="48.07688" lon="7.13618">
        <ele>917.6</ele>
        <time>2021-06-23T07:21:14Z</time>
      </trkpt>
      <trkpt lat="48.07689" lon="7.13625">
        <ele>918</ele>
        <time>2021-06-23T07:21:16Z</time>
      </trkpt>
      <trkpt lat="48.07692" lon="7.13642">
        <ele>919</ele>
        <time>2021-06-23T07:21:21Z</time>
      </trkpt>
      <trkpt lat="48.07693" lon="7.1365">
        <ele>919.4</ele>
        <time>2021-06-23T07:21:23Z</time>
      </trkpt>
      <trkpt lat="48.07697" lon="7.13663">
        <ele>920.2</ele>
        <time>2021-06-23T07:21:27Z</time>
      </trkpt>
      <trkpt lat="48.07698" lon="7.13671">
        <ele>920.6</ele>
        <time>2021-06-23T07:21:29Z</time>
      </trkpt>
      <trkpt lat="48.07699" lon="7.13687">
        <ele>921.2</ele>
        <time>2021-06-23T07:21:33Z</time>
      </trkpt>
      <trkpt lat="48.07701" lon="7.13694">
        <ele>921.6</ele>
        <time>2021-06-23T07:21:35Z</time>
      </trkpt>
      <trkpt lat="48.07702" lon="7.13702">
        <ele>922.2</ele>
        <time>2021-06-23T07:21:37Z</time>
      </trkpt>
      <trkpt lat="48.07701" lon="7.13705">
        <ele>922.4</ele>
        <time>2021-06-23T07:21:38Z</time>
      </trkpt>
      <trkpt lat="48.07701" lon="7.13708">
        <ele>922.6</ele>
        <time>2021-06-23T07:21:39Z</time>
      </trkpt>
      <trkpt lat="48.07709" lon="7.13727">
        <ele>923.4</ele>
        <time>2021-06-23T07:21:44Z</time>
      </trkpt>
      <trkpt lat="48.07711" lon="7.13731">
        <ele>923.6</ele>
        <time>2021-06-23T07:21:45Z</time>
      </trkpt>
      <trkpt lat="48.07717" lon="7.1375">
        <ele>924.6</ele>
        <time>2021-06-23T07:21:50Z</time>
      </trkpt>
      <trkpt lat="48.0772" lon="7.13757">
        <ele>925.2</ele>
        <time>2021-06-23T07:21:52Z</time>
      </trkpt>
      <trkpt lat="48.07725" lon="7.13764">
        <ele>925.6</ele>
        <time>2021-06-23T07:21:54Z</time>
      </trkpt>
      <trkpt lat="48.07724" lon="7.13771">
        <ele>926</ele>
        <time>2021-06-23T07:21:56Z</time>
      </trkpt>
      <trkpt lat="48.07723" lon="7.13775">
        <ele>926.2</ele>
        <time>2021-06-23T07:21:57Z</time>
      </trkpt>
      <trkpt lat="48.07724" lon="7.13783">
        <ele>926.4</ele>
        <time>2021-06-23T07:21:59Z</time>
      </trkpt>
      <trkpt lat="48.07725" lon="7.13787">
        <ele>926.4</ele>
        <time>2021-06-23T07:22:00Z</time>
      </trkpt>
      <trkpt lat="48.07719" lon="7.13803">
        <ele>927.6</ele>
        <time>2021-06-23T07:22:04Z</time>
      </trkpt>
      <trkpt lat="48.07718" lon="7.13811">
        <ele>927.8</ele>
        <time>2021-06-23T07:22:06Z</time>
      </trkpt>
      <trkpt lat="48.07716" lon="7.13821">
        <ele>928.4</ele>
        <time>2021-06-23T07:22:09Z</time>
      </trkpt>
      <trkpt lat="48.07716" lon="7.13824">
        <ele>928.6</ele>
        <time>2021-06-23T07:22:10Z</time>
      </trkpt>
      <trkpt lat="48.07712" lon="7.1384">
        <ele>929.6</ele>
        <time>2021-06-23T07:22:14Z</time>
      </trkpt>
      <trkpt lat="48.07709" lon="7.13844">
        <ele>929.6</ele>
        <time>2021-06-23T07:22:15Z</time>
      </trkpt>
      <trkpt lat="48.07707" lon="7.13867">
        <ele>930.6</ele>
        <time>2021-06-23T07:22:21Z</time>
      </trkpt>
      <trkpt lat="48.07706" lon="7.13875">
        <ele>931</ele>
        <time>2021-06-23T07:22:23Z</time>
      </trkpt>
      <trkpt lat="48.07701" lon="7.13893">
        <ele>931.8</ele>
        <time>2021-06-23T07:22:28Z</time>
      </trkpt>
      <trkpt lat="48.077" lon="7.139">
        <ele>932.2</ele>
        <time>2021-06-23T07:22:30Z</time>
      </trkpt>
      <trkpt lat="48.07699" lon="7.13914">
        <ele>933</ele>
        <time>2021-06-23T07:22:34Z</time>
      </trkpt>
      <trkpt lat="48.07702" lon="7.13921">
        <ele>933.2</ele>
        <time>2021-06-23T07:22:36Z</time>
      </trkpt>
      <trkpt lat="48.07704" lon="7.1394">
        <ele>934.2</ele>
        <time>2021-06-23T07:22:41Z</time>
      </trkpt>
      <trkpt lat="48.07705" lon="7.13948">
        <ele>934.6</ele>
        <time>2021-06-23T07:22:43Z</time>
      </trkpt>
      <trkpt lat="48.07708" lon="7.13959">
        <ele>935.2</ele>
        <time>2021-06-23T07:22:46Z</time>
      </trkpt>
      <trkpt lat="48.07711" lon="7.13966">
        <ele>935.6</ele>
        <time>2021-06-23T07:22:48Z</time>
      </trkpt>
      <trkpt lat="48.07717" lon="7.13977">
        <ele>936.4</ele>
        <time>2021-06-23T07:22:51Z</time>
      </trkpt>
      <trkpt lat="48.07722" lon="7.13984">
        <ele>936.4</ele>
        <time>2021-06-23T07:22:53Z</time>
      </trkpt>
      <trkpt lat="48.07725" lon="7.1399">
        <ele>936.8</ele>
        <time>2021-06-23T07:22:55Z</time>
      </trkpt>
      <trkpt lat="48.07727" lon="7.13996">
        <ele>937.2</ele>
        <time>2021-06-23T07:22:57Z</time>
      </trkpt>
      <trkpt lat="48.07738" lon="7.14013">
        <ele>938</ele>
        <time>2021-06-23T07:23:03Z</time>
      </trkpt>
      <trkpt lat="48.07742" lon="7.14019">
        <ele>938.6</ele>
        <time>2021-06-23T07:23:05Z</time>
      </trkpt>
      <trkpt lat="48.07744" lon="7.14022">
        <ele>938.8</ele>
        <time>2021-06-23T07:23:07Z</time>
      </trkpt>
      <trkpt lat="48.07744" lon="7.14023">
        <ele>939.2</ele>
        <time>2021-06-23T07:23:08Z</time>
      </trkpt>
      <trkpt lat="48.07745" lon="7.14026">
        <ele>939.4</ele>
        <time>2021-06-23T07:23:09Z</time>
      </trkpt>
      <trkpt lat="48.07746" lon="7.1403">
        <ele>939.6</ele>
        <time>2021-06-23T07:23:10Z</time>
      </trkpt>
      <trkpt lat="48.07748" lon="7.14034">
        <ele>940</ele>
        <time>2021-06-23T07:23:12Z</time>
      </trkpt>
      <trkpt lat="48.07754" lon="7.14041">
        <ele>940.6</ele>
        <time>2021-06-23T07:23:16Z</time>
      </trkpt>
      <trkpt lat="48.0776" lon="7.14044">
        <ele>941</ele>
        <time>2021-06-23T07:23:19Z</time>
      </trkpt>
      <trkpt lat="48.07762" lon="7.14048">
        <ele>941.4</ele>
        <time>2021-06-23T07:23:21Z</time>
      </trkpt>
      <trkpt lat="48.07764" lon="7.1405">
        <ele>941.6</ele>
        <time>2021-06-23T07:23:22Z</time>
      </trkpt>
      <trkpt lat="48.07768" lon="7.14056">
        <ele>941.8</ele>
        <time>2021-06-23T07:23:24Z</time>
      </trkpt>
      <trkpt lat="48.07782" lon="7.14067">
        <ele>942.8</ele>
        <time>2021-06-23T07:23:28Z</time>
      </trkpt>
      <trkpt lat="48.07788" lon="7.14072">
        <ele>943.4</ele>
        <time>2021-06-23T07:23:30Z</time>
      </trkpt>
      <trkpt lat="48.07796" lon="7.14077">
        <ele>943.8</ele>
        <time>2021-06-23T07:23:32Z</time>
      </trkpt>
      <trkpt lat="48.07811" lon="7.14094">
        <ele>944.6</ele>
        <time>2021-06-23T07:23:37Z</time>
      </trkpt>
      <trkpt lat="48.07815" lon="7.141">
        <ele>945</ele>
        <time>2021-06-23T07:23:39Z</time>
      </trkpt>
      <trkpt lat="48.0782" lon="7.14109">
        <ele>945.4</ele>
        <time>2021-06-23T07:23:42Z</time>
      </trkpt>
      <trkpt lat="48.0782" lon="7.14112">
        <ele>945.6</ele>
        <time>2021-06-23T07:23:43Z</time>
      </trkpt>
      <trkpt lat="48.07822" lon="7.14118">
        <ele>946.2</ele>
        <time>2021-06-23T07:23:45Z</time>
      </trkpt>
      <trkpt lat="48.07826" lon="7.14131">
        <ele>946.8</ele>
        <time>2021-06-23T07:23:49Z</time>
      </trkpt>
      <trkpt lat="48.07827" lon="7.14133">
        <ele>947.2</ele>
        <time>2021-06-23T07:23:50Z</time>
      </trkpt>
      <trkpt lat="48.07831" lon="7.14142">
        <ele>947.8</ele>
        <time>2021-06-23T07:23:53Z</time>
      </trkpt>
      <trkpt lat="48.07839" lon="7.14151">
        <ele>948.4</ele>
        <time>2021-06-23T07:23:56Z</time>
      </trkpt>
      <trkpt lat="48.0784" lon="7.14156">
        <ele>948.4</ele>
        <time>2021-06-23T07:23:57Z</time>
      </trkpt>
      <trkpt lat="48.07839" lon="7.14163">
        <ele>948.8</ele>
        <time>2021-06-23T07:23:59Z</time>
      </trkpt>
      <trkpt lat="48.07839" lon="7.14171">
        <ele>949.4</ele>
        <time>2021-06-23T07:24:01Z</time>
      </trkpt>
      <trkpt lat="48.07839" lon="7.14176">
        <ele>949.6</ele>
        <time>2021-06-23T07:24:02Z</time>
      </trkpt>
      <trkpt lat="48.07837" lon="7.14183">
        <ele>949.8</ele>
        <time>2021-06-23T07:24:04Z</time>
      </trkpt>
      <trkpt lat="48.0784" lon="7.14192">
        <ele>950.2</ele>
        <time>2021-06-23T07:24:06Z</time>
      </trkpt>
      <trkpt lat="48.07842" lon="7.14197">
        <ele>950.4</ele>
        <time>2021-06-23T07:24:07Z</time>
      </trkpt>
      <trkpt lat="48.07845" lon="7.14205">
        <ele>950.6</ele>
        <time>2021-06-23T07:24:09Z</time>
      </trkpt>
      <trkpt lat="48.07846" lon="7.14224">
        <ele>951.4</ele>
        <time>2021-06-23T07:24:14Z</time>
      </trkpt>
      <trkpt lat="48.07849" lon="7.1423">
        <ele>951.8</ele>
        <time>2021-06-23T07:24:16Z</time>
      </trkpt>
      <trkpt lat="48.07852" lon="7.14234">
        <ele>952.2</ele>
        <time>2021-06-23T07:24:18Z</time>
      </trkpt>
      <trkpt lat="48.07854" lon="7.14236">
        <ele>952.4</ele>
        <time>2021-06-23T07:24:19Z</time>
      </trkpt>
      <trkpt lat="48.07861" lon="7.14252">
        <ele>953.4</ele>
        <time>2021-06-23T07:24:24Z</time>
      </trkpt>
      <trkpt lat="48.07863" lon="7.14257">
        <ele>953.6</ele>
        <time>2021-06-23T07:24:25Z</time>
      </trkpt>
      <trkpt lat="48.07867" lon="7.14267">
        <ele>953.8</ele>
        <time>2021-06-23T07:24:27Z</time>
      </trkpt>
      <trkpt lat="48.0787" lon="7.14273">
        <ele>954</ele>
        <time>2021-06-23T07:24:28Z</time>
      </trkpt>
      <trkpt lat="48.07884" lon="7.14301">
        <ele>954.6</ele>
        <time>2021-06-23T07:24:33Z</time>
      </trkpt>
      <trkpt lat="48.07886" lon="7.14305">
        <ele>954.6</ele>
        <time>2021-06-23T07:24:34Z</time>
      </trkpt>
      <trkpt lat="48.07892" lon="7.14332">
        <ele>955.6</ele>
        <time>2021-06-23T07:24:40Z</time>
      </trkpt>
      <trkpt lat="48.07893" lon="7.14336">
        <ele>955.8</ele>
        <time>2021-06-23T07:24:41Z</time>
      </trkpt>
      <trkpt lat="48.07895" lon="7.14342">
        <ele>956.2</ele>
        <time>2021-06-23T07:24:45Z</time>
      </trkpt>
      <trkpt lat="48.07906" lon="7.14343">
        <ele>956.4</ele>
        <time>2021-06-23T07:24:51Z</time>
      </trkpt>
      <trkpt lat="48.07909" lon="7.14344">
        <ele>956.4</ele>
        <time>2021-06-23T07:24:53Z</time>
      </trkpt>
      <trkpt lat="48.0791" lon="7.14344">
        <ele>956.4</ele>
        <time>2021-06-23T07:24:56Z</time>
      </trkpt>
      <trkpt lat="48.07916" lon="7.14342">
        <ele>956.2</ele>
        <time>2021-06-23T07:37:01Z</time>
      </trkpt>
      <trkpt lat="48.07919" lon="7.14341">
        <ele>956.2</ele>
        <time>2021-06-23T07:37:03Z</time>
      </trkpt>
      <trkpt lat="48.07922" lon="7.1434">
        <ele>956.2</ele>
        <time>2021-06-23T07:37:05Z</time>
      </trkpt>
      <trkpt lat="48.0793" lon="7.14333">
        <ele>956.2</ele>
        <time>2021-06-23T07:37:09Z</time>
      </trkpt>
      <trkpt lat="48.07942" lon="7.14315">
        <ele>956.4</ele>
        <time>2021-06-23T07:37:15Z</time>
      </trkpt>
      <trkpt lat="48.07956" lon="7.14304">
        <ele>956.8</ele>
        <time>2021-06-23T07:37:21Z</time>
      </trkpt>
      <trkpt lat="48.07979" lon="7.14299">
        <ele>957</ele>
        <time>2021-06-23T07:37:26Z</time>
      </trkpt>
      <trkpt lat="48.07983" lon="7.14298">
        <ele>957.2</ele>
        <time>2021-06-23T07:37:27Z</time>
      </trkpt>
      <trkpt lat="48.08006" lon="7.14283">
        <ele>958</ele>
        <time>2021-06-23T07:37:33Z</time>
      </trkpt>
      <trkpt lat="48.08009" lon="7.14282">
        <ele>958.4</ele>
        <time>2021-06-23T07:37:34Z</time>
      </trkpt>
      <trkpt lat="48.08027" lon="7.14271">
        <ele>959.4</ele>
        <time>2021-06-23T07:37:38Z</time>
      </trkpt>
      <trkpt lat="48.08033" lon="7.14264">
        <ele>959.6</ele>
        <time>2021-06-23T07:37:39Z</time>
      </trkpt>
      <trkpt lat="48.08052" lon="7.14244">
        <ele>959.6</ele>
        <time>2021-06-23T07:37:44Z</time>
      </trkpt>
      <trkpt lat="48.08061" lon="7.14216">
        <ele>960.2</ele>
        <time>2021-06-23T07:37:50Z</time>
      </trkpt>
      <trkpt lat="48.08063" lon="7.1421">
        <ele>960.4</ele>
        <time>2021-06-23T07:37:51Z</time>
      </trkpt>
      <trkpt lat="48.08068" lon="7.14187">
        <ele>960.8</ele>
        <time>2021-06-23T07:37:55Z</time>
      </trkpt>
      <trkpt lat="48.08074" lon="7.14159">
        <ele>961.4</ele>
        <time>2021-06-23T07:38:00Z</time>
      </trkpt>
      <trkpt lat="48.08075" lon="7.14153">
        <ele>961.4</ele>
        <time>2021-06-23T07:38:01Z</time>
      </trkpt>
      <trkpt lat="48.08082" lon="7.14118">
        <ele>962.4</ele>
        <time>2021-06-23T07:38:07Z</time>
      </trkpt>
      <trkpt lat="48.08085" lon="7.14109">
        <ele>962.8</ele>
        <time>2021-06-23T07:38:09Z</time>
      </trkpt>
      <trkpt lat="48.081" lon="7.14076">
        <ele>963.2</ele>
        <time>2021-06-23T07:38:15Z</time>
      </trkpt>
      <trkpt lat="48.08115" lon="7.14056">
        <ele>963.6</ele>
        <time>2021-06-23T07:38:20Z</time>
      </trkpt>
      <trkpt lat="48.08118" lon="7.14052">
        <ele>963.6</ele>
        <time>2021-06-23T07:38:21Z</time>
      </trkpt>
      <trkpt lat="48.08127" lon="7.14048">
        <ele>963.6</ele>
        <time>2021-06-23T07:38:23Z</time>
      </trkpt>
      <trkpt lat="48.08142" lon="7.14038">
        <ele>964.4</ele>
        <time>2021-06-23T07:38:26Z</time>
      </trkpt>
      <trkpt lat="48.08152" lon="7.14032">
        <ele>964.6</ele>
        <time>2021-06-23T07:38:28Z</time>
      </trkpt>
      <trkpt lat="48.08179" lon="7.14017">
        <ele>965.2</ele>
        <time>2021-06-23T07:38:34Z</time>
      </trkpt>
      <trkpt lat="48.08191" lon="7.1401">
        <ele>965.6</ele>
        <time>2021-06-23T07:38:37Z</time>
      </trkpt>
      <trkpt lat="48.08204" lon="7.14003">
        <ele>966</ele>
        <time>2021-06-23T07:38:39Z</time>
      </trkpt>
      <trkpt lat="48.08215" lon="7.13999">
        <ele>966.6</ele>
        <time>2021-06-23T07:38:43Z</time>
      </trkpt>
      <trkpt lat="48.08218" lon="7.13994">
        <ele>966.6</ele>
        <time>2021-06-23T07:38:44Z</time>
      </trkpt>
      <trkpt lat="48.08242" lon="7.13991">
        <ele>967.2</ele>
        <time>2021-06-23T07:38:50Z</time>
      </trkpt>
      <trkpt lat="48.08255" lon="7.13994">
        <ele>967.6</ele>
        <time>2021-06-23T07:38:53Z</time>
      </trkpt>
      <trkpt lat="48.08264" lon="7.13994">
        <ele>967.8</ele>
        <time>2021-06-23T07:38:56Z</time>
      </trkpt>
      <trkpt lat="48.08282" lon="7.13997">
        <ele>968</ele>
        <time>2021-06-23T07:39:01Z</time>
      </trkpt>
      <trkpt lat="48.08304" lon="7.14003">
        <ele>968</ele>
        <time>2021-06-23T07:39:06Z</time>
      </trkpt>
      <trkpt lat="48.08315" lon="7.14004">
        <ele>968</ele>
        <time>2021-06-23T07:39:08Z</time>
      </trkpt>
      <trkpt lat="48.08325" lon="7.14002">
        <ele>967.8</ele>
        <time>2021-06-23T07:39:10Z</time>
      </trkpt>
      <trkpt lat="48.0833" lon="7.14">
        <ele>967.8</ele>
        <time>2021-06-23T07:39:11Z</time>
      </trkpt>
      <trkpt lat="48.08334" lon="7.13996">
        <ele>967.6</ele>
        <time>2021-06-23T07:39:12Z</time>
      </trkpt>
      <trkpt lat="48.08341" lon="7.13986">
        <ele>967.6</ele>
        <time>2021-06-23T07:39:14Z</time>
      </trkpt>
      <trkpt lat="48.08344" lon="7.1398">
        <ele>967.4</ele>
        <time>2021-06-23T07:39:15Z</time>
      </trkpt>
      <trkpt lat="48.08346" lon="7.13973">
        <ele>967.4</ele>
        <time>2021-06-23T07:39:16Z</time>
      </trkpt>
      <trkpt lat="48.08347" lon="7.13958">
        <ele>967.4</ele>
        <time>2021-06-23T07:39:18Z</time>
      </trkpt>
      <trkpt lat="48.08343" lon="7.13942">
        <ele>967.2</ele>
        <time>2021-06-23T07:39:20Z</time>
      </trkpt>
      <trkpt lat="48.08337" lon="7.13926">
        <ele>967</ele>
        <time>2021-06-23T07:39:22Z</time>
      </trkpt>
      <trkpt lat="48.08326" lon="7.13906">
        <ele>966.4</ele>
        <time>2021-06-23T07:39:25Z</time>
      </trkpt>
      <trkpt lat="48.0832" lon="7.13898">
        <ele>966.2</ele>
        <time>2021-06-23T07:39:26Z</time>
      </trkpt>
      <trkpt lat="48.083" lon="7.13863">
        <ele>965.2</ele>
        <time>2021-06-23T07:39:31Z</time>
      </trkpt>
      <trkpt lat="48.08296" lon="7.13855">
        <ele>965</ele>
        <time>2021-06-23T07:39:32Z</time>
      </trkpt>
      <trkpt lat="48.08281" lon="7.13831">
        <ele>964.2</ele>
        <time>2021-06-23T07:39:35Z</time>
      </trkpt>
      <trkpt lat="48.08268" lon="7.13806">
        <ele>963.2</ele>
        <time>2021-06-23T07:39:38Z</time>
      </trkpt>
      <trkpt lat="48.08262" lon="7.13798">
        <ele>963</ele>
        <time>2021-06-23T07:39:39Z</time>
      </trkpt>
      <trkpt lat="48.0824" lon="7.13763">
        <ele>962</ele>
        <time>2021-06-23T07:39:43Z</time>
      </trkpt>
      <trkpt lat="48.08234" lon="7.13753">
        <ele>961.4</ele>
        <time>2021-06-23T07:39:44Z</time>
      </trkpt>
      <trkpt lat="48.08218" lon="7.13722">
        <ele>960</ele>
        <time>2021-06-23T07:39:47Z</time>
      </trkpt>
      <trkpt lat="48.08214" lon="7.1371">
        <ele>959.4</ele>
        <time>2021-06-23T07:39:48Z</time>
      </trkpt>
      <trkpt lat="48.0821" lon="7.13698">
        <ele>958.8</ele>
        <time>2021-06-23T07:39:49Z</time>
      </trkpt>
      <trkpt lat="48.08201" lon="7.13673">
        <ele>957.6</ele>
        <time>2021-06-23T07:39:51Z</time>
      </trkpt>
      <trkpt lat="48.08196" lon="7.13661">
        <ele>957.4</ele>
        <time>2021-06-23T07:39:52Z</time>
      </trkpt>
      <trkpt lat="48.08192" lon="7.13649">
        <ele>956.8</ele>
        <time>2021-06-23T07:39:53Z</time>
      </trkpt>
      <trkpt lat="48.08187" lon="7.13637">
        <ele>956.4</ele>
        <time>2021-06-23T07:39:54Z</time>
      </trkpt>
      <trkpt lat="48.08181" lon="7.13626">
        <ele>955.4</ele>
        <time>2021-06-23T07:39:55Z</time>
      </trkpt>
      <trkpt lat="48.08169" lon="7.13603">
        <ele>954.2</ele>
        <time>2021-06-23T07:39:57Z</time>
      </trkpt>
      <trkpt lat="48.08163" lon="7.13591">
        <ele>954</ele>
        <time>2021-06-23T07:39:58Z</time>
      </trkpt>
      <trkpt lat="48.08146" lon="7.13557">
        <ele>953</ele>
        <time>2021-06-23T07:40:01Z</time>
      </trkpt>
      <trkpt lat="48.0814" lon="7.13545">
        <ele>951.8</ele>
        <time>2021-06-23T07:40:02Z</time>
      </trkpt>
      <trkpt lat="48.08127" lon="7.13521">
        <ele>950.6</ele>
        <time>2021-06-23T07:40:04Z</time>
      </trkpt>
      <trkpt lat="48.08121" lon="7.13509">
        <ele>949.4</ele>
        <time>2021-06-23T07:40:05Z</time>
      </trkpt>
      <trkpt lat="48.08108" lon="7.13485">
        <ele>947.8</ele>
        <time>2021-06-23T07:40:07Z</time>
      </trkpt>
      <trkpt lat="48.08081" lon="7.13438">
        <ele>946</ele>
        <time>2021-06-23T07:40:11Z</time>
      </trkpt>
      <trkpt lat="48.08065" lon="7.13417">
        <ele>945</ele>
        <time>2021-06-23T07:40:13Z</time>
      </trkpt>
      <trkpt lat="48.08043" lon="7.13387">
        <ele>943.6</ele>
        <time>2021-06-23T07:40:16Z</time>
      </trkpt>
      <trkpt lat="48.08021" lon="7.13353">
        <ele>942.6</ele>
        <time>2021-06-23T07:40:19Z</time>
      </trkpt>
      <trkpt lat="48.08" lon="7.13316">
        <ele>941.2</ele>
        <time>2021-06-23T07:40:22Z</time>
      </trkpt>
      <trkpt lat="48.07987" lon="7.13294">
        <ele>939.8</ele>
        <time>2021-06-23T07:40:24Z</time>
      </trkpt>
      <trkpt lat="48.07981" lon="7.13283">
        <ele>939.4</ele>
        <time>2021-06-23T07:40:25Z</time>
      </trkpt>
      <trkpt lat="48.07968" lon="7.13261">
        <ele>938.6</ele>
        <time>2021-06-23T07:40:27Z</time>
      </trkpt>
      <trkpt lat="48.0795" lon="7.13226">
        <ele>937.4</ele>
        <time>2021-06-23T07:40:30Z</time>
      </trkpt>
      <trkpt lat="48.07943" lon="7.13196">
        <ele>936.6</ele>
        <time>2021-06-23T07:40:32Z</time>
      </trkpt>
      <trkpt lat="48.07943" lon="7.13181">
        <ele>935.8</ele>
        <time>2021-06-23T07:40:33Z</time>
      </trkpt>
      <trkpt lat="48.07944" lon="7.13167">
        <ele>935.4</ele>
        <time>2021-06-23T07:40:34Z</time>
      </trkpt>
      <trkpt lat="48.0795" lon="7.1314">
        <ele>934.2</ele>
        <time>2021-06-23T07:40:36Z</time>
      </trkpt>
      <trkpt lat="48.0797" lon="7.13082">
        <ele>933.4</ele>
        <time>2021-06-23T07:40:41Z</time>
      </trkpt>
      <trkpt lat="48.07973" lon="7.1307">
        <ele>933</ele>
        <time>2021-06-23T07:40:42Z</time>
      </trkpt>
      <trkpt lat="48.07981" lon="7.13019">
        <ele>932.2</ele>
        <time>2021-06-23T07:40:46Z</time>
      </trkpt>
      <trkpt lat="48.07982" lon="7.13005">
        <ele>931.6</ele>
        <time>2021-06-23T07:40:47Z</time>
      </trkpt>
      <trkpt lat="48.0799" lon="7.12955">
        <ele>930.4</ele>
        <time>2021-06-23T07:40:51Z</time>
      </trkpt>
      <trkpt lat="48.07993" lon="7.12944">
        <ele>930.2</ele>
        <time>2021-06-23T07:40:52Z</time>
      </trkpt>
      <trkpt lat="48.07998" lon="7.12933">
        <ele>929.4</ele>
        <time>2021-06-23T07:40:53Z</time>
      </trkpt>
      <trkpt lat="48.08015" lon="7.12907">
        <ele>928.6</ele>
        <time>2021-06-23T07:40:56Z</time>
      </trkpt>
      <trkpt lat="48.08032" lon="7.12882">
        <ele>928.4</ele>
        <time>2021-06-23T07:40:59Z</time>
      </trkpt>
      <trkpt lat="48.08037" lon="7.12876">
        <ele>928.2</ele>
        <time>2021-06-23T07:41:00Z</time>
      </trkpt>
      <trkpt lat="48.08047" lon="7.12855">
        <ele>927.2</ele>
        <time>2021-06-23T07:41:02Z</time>
      </trkpt>
      <trkpt lat="48.08057" lon="7.12811">
        <ele>926</ele>
        <time>2021-06-23T07:41:06Z</time>
      </trkpt>
      <trkpt lat="48.08064" lon="7.12737">
        <ele>925</ele>
        <time>2021-06-23T07:41:12Z</time>
      </trkpt>
      <trkpt lat="48.08064" lon="7.12725">
        <ele>924.4</ele>
        <time>2021-06-23T07:41:13Z</time>
      </trkpt>
      <trkpt lat="48.08063" lon="7.12713">
        <ele>924</ele>
        <time>2021-06-23T07:41:14Z</time>
      </trkpt>
      <trkpt lat="48.08058" lon="7.12663">
        <ele>923.2</ele>
        <time>2021-06-23T07:41:18Z</time>
      </trkpt>
      <trkpt lat="48.08056" lon="7.1265">
        <ele>922.8</ele>
        <time>2021-06-23T07:41:19Z</time>
      </trkpt>
      <trkpt lat="48.08056" lon="7.12637">
        <ele>922</ele>
        <time>2021-06-23T07:41:20Z</time>
      </trkpt>
      <trkpt lat="48.08057" lon="7.12624">
        <ele>921.6</ele>
        <time>2021-06-23T07:41:21Z</time>
      </trkpt>
      <trkpt lat="48.08061" lon="7.12612">
        <ele>921</ele>
        <time>2021-06-23T07:41:22Z</time>
      </trkpt>
      <trkpt lat="48.08075" lon="7.12597">
        <ele>920.4</ele>
        <time>2021-06-23T07:41:24Z</time>
      </trkpt>
      <trkpt lat="48.08083" lon="7.12594">
        <ele>920.2</ele>
        <time>2021-06-23T07:41:25Z</time>
      </trkpt>
      <trkpt lat="48.08091" lon="7.12592">
        <ele>920</ele>
        <time>2021-06-23T07:41:26Z</time>
      </trkpt>
      <trkpt lat="48.08108" lon="7.12594">
        <ele>919.2</ele>
        <time>2021-06-23T07:41:28Z</time>
      </trkpt>
      <trkpt lat="48.08132" lon="7.12597">
        <ele>918</ele>
        <time>2021-06-23T07:41:31Z</time>
      </trkpt>
      <trkpt lat="48.08163" lon="7.12602">
        <ele>917.6</ele>
        <time>2021-06-23T07:41:35Z</time>
      </trkpt>
      <trkpt lat="48.08186" lon="7.12605">
        <ele>916.8</ele>
        <time>2021-06-23T07:41:38Z</time>
      </trkpt>
      <trkpt lat="48.08202" lon="7.12604">
        <ele>916.2</ele>
        <time>2021-06-23T07:41:40Z</time>
      </trkpt>
      <trkpt lat="48.08209" lon="7.12602">
        <ele>916</ele>
        <time>2021-06-23T07:41:41Z</time>
      </trkpt>
      <trkpt lat="48.08215" lon="7.12599">
        <ele>915.8</ele>
        <time>2021-06-23T07:41:42Z</time>
      </trkpt>
      <trkpt lat="48.08234" lon="7.12585">
        <ele>915.4</ele>
        <time>2021-06-23T07:41:45Z</time>
      </trkpt>
      <trkpt lat="48.08267" lon="7.12564">
        <ele>915</ele>
        <time>2021-06-23T07:41:51Z</time>
      </trkpt>
      <trkpt lat="48.08278" lon="7.12565">
        <ele>915</ele>
        <time>2021-06-23T07:41:53Z</time>
      </trkpt>
      <trkpt lat="48.0829" lon="7.12571">
        <ele>914.8</ele>
        <time>2021-06-23T07:41:55Z</time>
      </trkpt>
      <trkpt lat="48.08309" lon="7.12584">
        <ele>914.6</ele>
        <time>2021-06-23T07:41:58Z</time>
      </trkpt>
      <trkpt lat="48.0832" lon="7.12592">
        <ele>914.4</ele>
        <time>2021-06-23T07:42:00Z</time>
      </trkpt>
      <trkpt lat="48.08339" lon="7.12604">
        <ele>913.8</ele>
        <time>2021-06-23T07:42:03Z</time>
      </trkpt>
      <trkpt lat="48.08345" lon="7.12606">
        <ele>913.4</ele>
        <time>2021-06-23T07:42:04Z</time>
      </trkpt>
      <trkpt lat="48.08352" lon="7.12607">
        <ele>913</ele>
        <time>2021-06-23T07:42:05Z</time>
      </trkpt>
      <trkpt lat="48.08367" lon="7.12607">
        <ele>912.4</ele>
        <time>2021-06-23T07:42:07Z</time>
      </trkpt>
      <trkpt lat="48.08384" lon="7.12607">
        <ele>911.6</ele>
        <time>2021-06-23T07:42:09Z</time>
      </trkpt>
      <trkpt lat="48.08393" lon="7.12605">
        <ele>911.4</ele>
        <time>2021-06-23T07:42:10Z</time>
      </trkpt>
      <trkpt lat="48.08401" lon="7.12603">
        <ele>911</ele>
        <time>2021-06-23T07:42:11Z</time>
      </trkpt>
      <trkpt lat="48.08419" lon="7.12597">
        <ele>910.2</ele>
        <time>2021-06-23T07:42:13Z</time>
      </trkpt>
      <trkpt lat="48.08427" lon="7.12594">
        <ele>910</ele>
        <time>2021-06-23T07:42:14Z</time>
      </trkpt>
      <trkpt lat="48.08453" lon="7.12583">
        <ele>908.8</ele>
        <time>2021-06-23T07:42:17Z</time>
      </trkpt>
      <trkpt lat="48.08471" lon="7.12576">
        <ele>907.6</ele>
        <time>2021-06-23T07:42:19Z</time>
      </trkpt>
      <trkpt lat="48.08479" lon="7.12574">
        <ele>906.6</ele>
        <time>2021-06-23T07:42:20Z</time>
      </trkpt>
      <trkpt lat="48.08489" lon="7.1257">
        <ele>906.4</ele>
        <time>2021-06-23T07:42:21Z</time>
      </trkpt>
      <trkpt lat="48.08517" lon="7.12559">
        <ele>904.8</ele>
        <time>2021-06-23T07:42:24Z</time>
      </trkpt>
      <trkpt lat="48.08535" lon="7.12548">
        <ele>903.8</ele>
        <time>2021-06-23T07:42:26Z</time>
      </trkpt>
      <trkpt lat="48.08545" lon="7.12541">
        <ele>903.2</ele>
        <time>2021-06-23T07:42:27Z</time>
      </trkpt>
      <trkpt lat="48.08567" lon="7.12527">
        <ele>902.4</ele>
        <time>2021-06-23T07:42:29Z</time>
      </trkpt>
      <trkpt lat="48.08576" lon="7.12519">
        <ele>902.2</ele>
        <time>2021-06-23T07:42:30Z</time>
      </trkpt>
      <trkpt lat="48.0859" lon="7.12497">
        <ele>901.2</ele>
        <time>2021-06-23T07:42:32Z</time>
      </trkpt>
      <trkpt lat="48.08601" lon="7.12475">
        <ele>900</ele>
        <time>2021-06-23T07:42:34Z</time>
      </trkpt>
      <trkpt lat="48.08607" lon="7.12461">
        <ele>899.6</ele>
        <time>2021-06-23T07:42:35Z</time>
      </trkpt>
      <trkpt lat="48.08617" lon="7.12436">
        <ele>898.6</ele>
        <time>2021-06-23T07:42:37Z</time>
      </trkpt>
      <trkpt lat="48.0862" lon="7.12419">
        <ele>898</ele>
        <time>2021-06-23T07:42:38Z</time>
      </trkpt>
      <trkpt lat="48.08623" lon="7.12404">
        <ele>897.6</ele>
        <time>2021-06-23T07:42:39Z</time>
      </trkpt>
      <trkpt lat="48.08625" lon="7.1239">
        <ele>896.8</ele>
        <time>2021-06-23T07:42:40Z</time>
      </trkpt>
      <trkpt lat="48.08626" lon="7.12376">
        <ele>896.6</ele>
        <time>2021-06-23T07:42:41Z</time>
      </trkpt>
      <trkpt lat="48.08626" lon="7.12347">
        <ele>896</ele>
        <time>2021-06-23T07:42:43Z</time>
      </trkpt>
      <trkpt lat="48.08628" lon="7.12333">
        <ele>895.4</ele>
        <time>2021-06-23T07:42:44Z</time>
      </trkpt>
      <trkpt lat="48.08638" lon="7.12293">
        <ele>894</ele>
        <time>2021-06-23T07:42:47Z</time>
      </trkpt>
      <trkpt lat="48.0864" lon="7.12279">
        <ele>893.8</ele>
        <time>2021-06-23T07:42:48Z</time>
      </trkpt>
      <trkpt lat="48.08642" lon="7.12234">
        <ele>892.8</ele>
        <time>2021-06-23T07:42:51Z</time>
      </trkpt>
      <trkpt lat="48.08643" lon="7.12219">
        <ele>892.4</ele>
        <time>2021-06-23T07:42:52Z</time>
      </trkpt>
      <trkpt lat="48.08643" lon="7.12204">
        <ele>891.8</ele>
        <time>2021-06-23T07:42:53Z</time>
      </trkpt>
      <trkpt lat="48.08643" lon="7.12174">
        <ele>890.4</ele>
        <time>2021-06-23T07:42:55Z</time>
      </trkpt>
      <trkpt lat="48.08641" lon="7.12143">
        <ele>889.2</ele>
        <time>2021-06-23T07:42:57Z</time>
      </trkpt>
      <trkpt lat="48.08641" lon="7.12097">
        <ele>887.8</ele>
        <time>2021-06-23T07:43:00Z</time>
      </trkpt>
      <trkpt lat="48.08643" lon="7.12066">
        <ele>887.4</ele>
        <time>2021-06-23T07:43:02Z</time>
      </trkpt>
      <trkpt lat="48.08643" lon="7.12036">
        <ele>886.2</ele>
        <time>2021-06-23T07:43:04Z</time>
      </trkpt>
      <trkpt lat="48.0864" lon="7.12006">
        <ele>885</ele>
        <time>2021-06-23T07:43:06Z</time>
      </trkpt>
      <trkpt lat="48.08634" lon="7.11961">
        <ele>883.6</ele>
        <time>2021-06-23T07:43:09Z</time>
      </trkpt>
      <trkpt lat="48.08632" lon="7.11931">
        <ele>882.2</ele>
        <time>2021-06-23T07:43:11Z</time>
      </trkpt>
      <trkpt lat="48.08632" lon="7.119">
        <ele>881.4</ele>
        <time>2021-06-23T07:43:13Z</time>
      </trkpt>
      <trkpt lat="48.08633" lon="7.11886">
        <ele>881.2</ele>
        <time>2021-06-23T07:43:14Z</time>
      </trkpt>
      <trkpt lat="48.08638" lon="7.11872">
        <ele>881</ele>
        <time>2021-06-23T07:43:15Z</time>
      </trkpt>
      <trkpt lat="48.08644" lon="7.11859">
        <ele>880.6</ele>
        <time>2021-06-23T07:43:16Z</time>
      </trkpt>
      <trkpt lat="48.0865" lon="7.11846">
        <ele>879.8</ele>
        <time>2021-06-23T07:43:17Z</time>
      </trkpt>
      <trkpt lat="48.08662" lon="7.1182">
        <ele>878.6</ele>
        <time>2021-06-23T07:43:19Z</time>
      </trkpt>
      <trkpt lat="48.08669" lon="7.11807">
        <ele>877.6</ele>
        <time>2021-06-23T07:43:20Z</time>
      </trkpt>
      <trkpt lat="48.08675" lon="7.11793">
        <ele>877</ele>
        <time>2021-06-23T07:43:21Z</time>
      </trkpt>
      <trkpt lat="48.08689" lon="7.11767">
        <ele>875.8</ele>
        <time>2021-06-23T07:43:23Z</time>
      </trkpt>
      <trkpt lat="48.08702" lon="7.11741">
        <ele>874.4</ele>
        <time>2021-06-23T07:43:25Z</time>
      </trkpt>
      <trkpt lat="48.08718" lon="7.11716">
        <ele>873</ele>
        <time>2021-06-23T07:43:27Z</time>
      </trkpt>
      <trkpt lat="48.08725" lon="7.11705">
        <ele>872.4</ele>
        <time>2021-06-23T07:43:28Z</time>
      </trkpt>
      <trkpt lat="48.08732" lon="7.11694">
        <ele>871.8</ele>
        <time>2021-06-23T07:43:29Z</time>
      </trkpt>
      <trkpt lat="48.0874" lon="7.11684">
        <ele>871.2</ele>
        <time>2021-06-23T07:43:30Z</time>
      </trkpt>
      <trkpt lat="48.08748" lon="7.11674">
        <ele>870</ele>
        <time>2021-06-23T07:43:31Z</time>
      </trkpt>
      <trkpt lat="48.08762" lon="7.11657">
        <ele>868.8</ele>
        <time>2021-06-23T07:43:33Z</time>
      </trkpt>
      <trkpt lat="48.08768" lon="7.1165">
        <ele>868.4</ele>
        <time>2021-06-23T07:43:34Z</time>
      </trkpt>
      <trkpt lat="48.08775" lon="7.11645">
        <ele>867.8</ele>
        <time>2021-06-23T07:43:35Z</time>
      </trkpt>
      <trkpt lat="48.08784" lon="7.11636">
        <ele>866.8</ele>
        <time>2021-06-23T07:43:37Z</time>
      </trkpt>
      <trkpt lat="48.08789" lon="7.11633">
        <ele>866.6</ele>
        <time>2021-06-23T07:43:38Z</time>
      </trkpt>
      <trkpt lat="48.08792" lon="7.11631">
        <ele>866.4</ele>
        <time>2021-06-23T07:43:39Z</time>
      </trkpt>
      <trkpt lat="48.08795" lon="7.11631">
        <ele>866.2</ele>
        <time>2021-06-23T07:43:40Z</time>
      </trkpt>
      <trkpt lat="48.088" lon="7.11631">
        <ele>866</ele>
        <time>2021-06-23T07:43:44Z</time>
      </trkpt>
      <trkpt lat="48.08802" lon="7.11637">
        <ele>865.4</ele>
        <time>2021-06-23T07:44:30Z</time>
      </trkpt>
      <trkpt lat="48.08804" lon="7.11644">
        <ele>865.4</ele>
        <time>2021-06-23T07:44:32Z</time>
      </trkpt>
      <trkpt lat="48.08808" lon="7.11658">
        <ele>865.2</ele>
        <time>2021-06-23T07:44:35Z</time>
      </trkpt>
      <trkpt lat="48.08811" lon="7.1167">
        <ele>865.2</ele>
        <time>2021-06-23T07:44:37Z</time>
      </trkpt>
      <trkpt lat="48.08815" lon="7.11681">
        <ele>865</ele>
        <time>2021-06-23T07:44:39Z</time>
      </trkpt>
      <trkpt lat="48.08825" lon="7.11696">
        <ele>864.6</ele>
        <time>2021-06-23T07:44:42Z</time>
      </trkpt>
      <trkpt lat="48.08837" lon="7.11708">
        <ele>864.2</ele>
        <time>2021-06-23T07:44:45Z</time>
      </trkpt>
      <trkpt lat="48.0885" lon="7.11718">
        <ele>863.2</ele>
        <time>2021-06-23T07:44:48Z</time>
      </trkpt>
      <trkpt lat="48.08859" lon="7.11724">
        <ele>863</ele>
        <time>2021-06-23T07:44:50Z</time>
      </trkpt>
      <trkpt lat="48.08884" lon="7.11741">
        <ele>862.6</ele>
        <time>2021-06-23T07:44:55Z</time>
      </trkpt>
      <trkpt lat="48.08904" lon="7.11754">
        <ele>861.8</ele>
        <time>2021-06-23T07:44:59Z</time>
      </trkpt>
      <trkpt lat="48.08919" lon="7.11765">
        <ele>861.2</ele>
        <time>2021-06-23T07:45:02Z</time>
      </trkpt>
      <trkpt lat="48.08935" lon="7.11778">
        <ele>860.6</ele>
        <time>2021-06-23T07:45:05Z</time>
      </trkpt>
      <trkpt lat="48.08958" lon="7.11795">
        <ele>860.2</ele>
        <time>2021-06-23T07:45:09Z</time>
      </trkpt>
      <trkpt lat="48.08972" lon="7.11804">
        <ele>859.8</ele>
        <time>2021-06-23T07:45:11Z</time>
      </trkpt>
      <trkpt lat="48.08983" lon="7.11812">
        <ele>859.6</ele>
        <time>2021-06-23T07:45:13Z</time>
      </trkpt>
      <trkpt lat="48.09013" lon="7.11827">
        <ele>858.4</ele>
        <time>2021-06-23T07:45:18Z</time>
      </trkpt>
      <trkpt lat="48.09027" lon="7.11832">
        <ele>858</ele>
        <time>2021-06-23T07:45:20Z</time>
      </trkpt>
      <trkpt lat="48.09043" lon="7.11834">
        <ele>857.4</ele>
        <time>2021-06-23T07:45:22Z</time>
      </trkpt>
      <trkpt lat="48.09056" lon="7.11836">
        <ele>857</ele>
        <time>2021-06-23T07:45:24Z</time>
      </trkpt>
      <trkpt lat="48.09069" lon="7.11836">
        <ele>856.6</ele>
        <time>2021-06-23T07:45:26Z</time>
      </trkpt>
      <trkpt lat="48.09083" lon="7.11838">
        <ele>856.2</ele>
        <time>2021-06-23T07:45:28Z</time>
      </trkpt>
      <trkpt lat="48.0909" lon="7.1184">
        <ele>856</ele>
        <time>2021-06-23T07:45:29Z</time>
      </trkpt>
      <trkpt lat="48.09096" lon="7.11842">
        <ele>855.6</ele>
        <time>2021-06-23T07:45:30Z</time>
      </trkpt>
      <trkpt lat="48.09104" lon="7.11851">
        <ele>855</ele>
        <time>2021-06-23T07:45:32Z</time>
      </trkpt>
      <trkpt lat="48.09106" lon="7.11859">
        <ele>854.6</ele>
        <time>2021-06-23T07:45:33Z</time>
      </trkpt>
      <trkpt lat="48.09108" lon="7.1187">
        <ele>854.4</ele>
        <time>2021-06-23T07:45:34Z</time>
      </trkpt>
      <trkpt lat="48.09111" lon="7.11894">
        <ele>854</ele>
        <time>2021-06-23T07:45:36Z</time>
      </trkpt>
      <trkpt lat="48.09112" lon="7.11906">
        <ele>853.8</ele>
        <time>2021-06-23T07:45:37Z</time>
      </trkpt>
      <trkpt lat="48.09121" lon="7.11953">
        <ele>852.8</ele>
        <time>2021-06-23T07:45:41Z</time>
      </trkpt>
      <trkpt lat="48.09123" lon="7.11964">
        <ele>852.4</ele>
        <time>2021-06-23T07:45:42Z</time>
      </trkpt>
      <trkpt lat="48.09132" lon="7.12023">
        <ele>851.4</ele>
        <time>2021-06-23T07:45:47Z</time>
      </trkpt>
      <trkpt lat="48.09133" lon="7.12035">
        <ele>851.2</ele>
        <time>2021-06-23T07:45:48Z</time>
      </trkpt>
      <trkpt lat="48.09143" lon="7.12093">
        <ele>850</ele>
        <time>2021-06-23T07:45:53Z</time>
      </trkpt>
      <trkpt lat="48.09145" lon="7.12103">
        <ele>849.8</ele>
        <time>2021-06-23T07:45:54Z</time>
      </trkpt>
      <trkpt lat="48.09146" lon="7.12113">
        <ele>849.6</ele>
        <time>2021-06-23T07:45:55Z</time>
      </trkpt>
      <trkpt lat="48.09148" lon="7.12131">
        <ele>849.2</ele>
        <time>2021-06-23T07:45:57Z</time>
      </trkpt>
      <trkpt lat="48.0915" lon="7.12142">
        <ele>849</ele>
        <time>2021-06-23T07:45:58Z</time>
      </trkpt>
      <trkpt lat="48.09152" lon="7.12156">
        <ele>848.6</ele>
        <time>2021-06-23T07:45:59Z</time>
      </trkpt>
      <trkpt lat="48.09162" lon="7.12189">
        <ele>847.8</ele>
        <time>2021-06-23T07:46:02Z</time>
      </trkpt>
      <trkpt lat="48.09167" lon="7.12199">
        <ele>847.4</ele>
        <time>2021-06-23T07:46:03Z</time>
      </trkpt>
      <trkpt lat="48.09178" lon="7.12223">
        <ele>846.6</ele>
        <time>2021-06-23T07:46:05Z</time>
      </trkpt>
      <trkpt lat="48.09182" lon="7.12234">
        <ele>846.2</ele>
        <time>2021-06-23T07:46:06Z</time>
      </trkpt>
      <trkpt lat="48.09184" lon="7.12242">
        <ele>846</ele>
        <time>2021-06-23T07:46:07Z</time>
      </trkpt>
      <trkpt lat="48.09192" lon="7.12267">
        <ele>845.2</ele>
        <time>2021-06-23T07:46:10Z</time>
      </trkpt>
      <trkpt lat="48.09204" lon="7.1228">
        <ele>845</ele>
        <time>2021-06-23T07:46:12Z</time>
      </trkpt>
      <trkpt lat="48.09212" lon="7.12287">
        <ele>845</ele>
        <time>2021-06-23T07:46:13Z</time>
      </trkpt>
      <trkpt lat="48.09223" lon="7.12297">
        <ele>844.6</ele>
        <time>2021-06-23T07:46:15Z</time>
      </trkpt>
      <trkpt lat="48.0923" lon="7.123">
        <ele>844.4</ele>
        <time>2021-06-23T07:46:16Z</time>
      </trkpt>
      <trkpt lat="48.09237" lon="7.12301">
        <ele>844.2</ele>
        <time>2021-06-23T07:46:17Z</time>
      </trkpt>
      <trkpt lat="48.09244" lon="7.123">
        <ele>844.2</ele>
        <time>2021-06-23T07:46:18Z</time>
      </trkpt>
      <trkpt lat="48.0925" lon="7.12298">
        <ele>843.8</ele>
        <time>2021-06-23T07:46:19Z</time>
      </trkpt>
      <trkpt lat="48.0927" lon="7.12289">
        <ele>842.8</ele>
        <time>2021-06-23T07:46:22Z</time>
      </trkpt>
      <trkpt lat="48.09277" lon="7.12285">
        <ele>842.8</ele>
        <time>2021-06-23T07:46:23Z</time>
      </trkpt>
      <trkpt lat="48.09281" lon="7.12281">
        <ele>842.6</ele>
        <time>2021-06-23T07:46:24Z</time>
      </trkpt>
      <trkpt lat="48.09302" lon="7.12261">
        <ele>841.6</ele>
        <time>2021-06-23T07:46:28Z</time>
      </trkpt>
      <trkpt lat="48.09309" lon="7.12256">
        <ele>841.4</ele>
        <time>2021-06-23T07:46:29Z</time>
      </trkpt>
      <trkpt lat="48.09316" lon="7.12249">
        <ele>841</ele>
        <time>2021-06-23T07:46:30Z</time>
      </trkpt>
      <trkpt lat="48.09335" lon="7.1223">
        <ele>840.8</ele>
        <time>2021-06-23T07:46:32Z</time>
      </trkpt>
      <trkpt lat="48.09344" lon="7.12208">
        <ele>840.4</ele>
        <time>2021-06-23T07:46:34Z</time>
      </trkpt>
      <trkpt lat="48.09361" lon="7.12167">
        <ele>839.8</ele>
        <time>2021-06-23T07:46:38Z</time>
      </trkpt>
      <trkpt lat="48.09364" lon="7.12156">
        <ele>839.2</ele>
        <time>2021-06-23T07:46:39Z</time>
      </trkpt>
      <trkpt lat="48.09384" lon="7.12116">
        <ele>838.2</ele>
        <time>2021-06-23T07:46:43Z</time>
      </trkpt>
      <trkpt lat="48.09388" lon="7.12108">
        <ele>837.8</ele>
        <time>2021-06-23T07:46:44Z</time>
      </trkpt>
      <trkpt lat="48.09392" lon="7.12098">
        <ele>837.8</ele>
        <time>2021-06-23T07:46:45Z</time>
      </trkpt>
      <trkpt lat="48.09401" lon="7.12067">
        <ele>837</ele>
        <time>2021-06-23T07:46:48Z</time>
      </trkpt>
      <trkpt lat="48.09405" lon="7.12041">
        <ele>836.6</ele>
        <time>2021-06-23T07:46:50Z</time>
      </trkpt>
      <trkpt lat="48.09404" lon="7.12028">
        <ele>836.2</ele>
        <time>2021-06-23T07:46:51Z</time>
      </trkpt>
      <trkpt lat="48.09405" lon="7.12004">
        <ele>835.8</ele>
        <time>2021-06-23T07:46:53Z</time>
      </trkpt>
      <trkpt lat="48.09406" lon="7.11993">
        <ele>835.8</ele>
        <time>2021-06-23T07:46:54Z</time>
      </trkpt>
      <trkpt lat="48.0941" lon="7.11982">
        <ele>835.6</ele>
        <time>2021-06-23T07:46:55Z</time>
      </trkpt>
      <trkpt lat="48.0942" lon="7.11949">
        <ele>834.6</ele>
        <time>2021-06-23T07:46:58Z</time>
      </trkpt>
      <trkpt lat="48.09424" lon="7.11938">
        <ele>834.2</ele>
        <time>2021-06-23T07:46:59Z</time>
      </trkpt>
      <trkpt lat="48.09436" lon="7.11907">
        <ele>833.4</ele>
        <time>2021-06-23T07:47:02Z</time>
      </trkpt>
      <trkpt lat="48.09445" lon="7.1189">
        <ele>833</ele>
        <time>2021-06-23T07:47:04Z</time>
      </trkpt>
      <trkpt lat="48.09465" lon="7.11856">
        <ele>832.4</ele>
        <time>2021-06-23T07:47:08Z</time>
      </trkpt>
      <trkpt lat="48.0947" lon="7.11848">
        <ele>832.2</ele>
        <time>2021-06-23T07:47:09Z</time>
      </trkpt>
      <trkpt lat="48.09488" lon="7.11827">
        <ele>831</ele>
        <time>2021-06-23T07:47:12Z</time>
      </trkpt>
      <trkpt lat="48.09505" lon="7.1181">
        <ele>829.6</ele>
        <time>2021-06-23T07:47:15Z</time>
      </trkpt>
      <trkpt lat="48.0952" lon="7.11806">
        <ele>829.2</ele>
        <time>2021-06-23T07:47:17Z</time>
      </trkpt>
      <trkpt lat="48.09527" lon="7.11808">
        <ele>829</ele>
        <time>2021-06-23T07:47:18Z</time>
      </trkpt>
      <trkpt lat="48.09534" lon="7.11813">
        <ele>828.8</ele>
        <time>2021-06-23T07:47:19Z</time>
      </trkpt>
      <trkpt lat="48.09545" lon="7.1183">
        <ele>828.6</ele>
        <time>2021-06-23T07:47:21Z</time>
      </trkpt>
      <trkpt lat="48.09549" lon="7.1184">
        <ele>828.4</ele>
        <time>2021-06-23T07:47:22Z</time>
      </trkpt>
      <trkpt lat="48.09551" lon="7.11851">
        <ele>828.2</ele>
        <time>2021-06-23T07:47:23Z</time>
      </trkpt>
      <trkpt lat="48.09556" lon="7.11874">
        <ele>827.6</ele>
        <time>2021-06-23T07:47:25Z</time>
      </trkpt>
      <trkpt lat="48.09558" lon="7.11885">
        <ele>827</ele>
        <time>2021-06-23T07:47:26Z</time>
      </trkpt>
      <trkpt lat="48.09564" lon="7.11919">
        <ele>826</ele>
        <time>2021-06-23T07:47:29Z</time>
      </trkpt>
      <trkpt lat="48.09572" lon="7.11953">
        <ele>825.2</ele>
        <time>2021-06-23T07:47:32Z</time>
      </trkpt>
      <trkpt lat="48.09574" lon="7.11965">
        <ele>824.6</ele>
        <time>2021-06-23T07:47:33Z</time>
      </trkpt>
      <trkpt lat="48.09588" lon="7.12033">
        <ele>823.6</ele>
        <time>2021-06-23T07:47:39Z</time>
      </trkpt>
      <trkpt lat="48.0959" lon="7.12053">
        <ele>823.4</ele>
        <time>2021-06-23T07:47:41Z</time>
      </trkpt>
      <trkpt lat="48.09592" lon="7.12063">
        <ele>823</ele>
        <time>2021-06-23T07:47:42Z</time>
      </trkpt>
      <trkpt lat="48.09596" lon="7.12083">
        <ele>822.4</ele>
        <time>2021-06-23T07:47:44Z</time>
      </trkpt>
      <trkpt lat="48.09601" lon="7.12102">
        <ele>821.8</ele>
        <time>2021-06-23T07:47:46Z</time>
      </trkpt>
      <trkpt lat="48.09604" lon="7.1212">
        <ele>821.2</ele>
        <time>2021-06-23T07:47:48Z</time>
      </trkpt>
      <trkpt lat="48.09608" lon="7.12139">
        <ele>820.8</ele>
        <time>2021-06-23T07:47:50Z</time>
      </trkpt>
      <trkpt lat="48.0961" lon="7.1215">
        <ele>820.6</ele>
        <time>2021-06-23T07:47:51Z</time>
      </trkpt>
      <trkpt lat="48.09615" lon="7.1217">
        <ele>820</ele>
        <time>2021-06-23T07:47:53Z</time>
      </trkpt>
      <trkpt lat="48.09621" lon="7.12191">
        <ele>819.6</ele>
        <time>2021-06-23T07:47:55Z</time>
      </trkpt>
      <trkpt lat="48.09624" lon="7.12202">
        <ele>819.2</ele>
        <time>2021-06-23T07:47:56Z</time>
      </trkpt>
      <trkpt lat="48.09625" lon="7.12212">
        <ele>819</ele>
        <time>2021-06-23T07:47:57Z</time>
      </trkpt>
      <trkpt lat="48.09635" lon="7.12268">
        <ele>817.8</ele>
        <time>2021-06-23T07:48:02Z</time>
      </trkpt>
      <trkpt lat="48.09636" lon="7.12279">
        <ele>817.6</ele>
        <time>2021-06-23T07:48:03Z</time>
      </trkpt>
      <trkpt lat="48.09646" lon="7.12326">
        <ele>816.8</ele>
        <time>2021-06-23T07:48:07Z</time>
      </trkpt>
      <trkpt lat="48.09652" lon="7.12348">
        <ele>816</ele>
        <time>2021-06-23T07:48:09Z</time>
      </trkpt>
      <trkpt lat="48.09654" lon="7.12359">
        <ele>815</ele>
        <time>2021-06-23T07:48:10Z</time>
      </trkpt>
      <trkpt lat="48.09663" lon="7.12391">
        <ele>814</ele>
        <time>2021-06-23T07:48:13Z</time>
      </trkpt>
      <trkpt lat="48.09679" lon="7.12414">
        <ele>813.6</ele>
        <time>2021-06-23T07:48:15Z</time>
      </trkpt>
      <trkpt lat="48.0969" lon="7.12433">
        <ele>813.2</ele>
        <time>2021-06-23T07:48:17Z</time>
      </trkpt>
      <trkpt lat="48.09701" lon="7.12464">
        <ele>812.8</ele>
        <time>2021-06-23T07:48:20Z</time>
      </trkpt>
      <trkpt lat="48.09714" lon="7.12495">
        <ele>812</ele>
        <time>2021-06-23T07:48:23Z</time>
      </trkpt>
      <trkpt lat="48.09717" lon="7.12505">
        <ele>811.8</ele>
        <time>2021-06-23T07:48:24Z</time>
      </trkpt>
      <trkpt lat="48.09724" lon="7.12536">
        <ele>811.6</ele>
        <time>2021-06-23T07:48:27Z</time>
      </trkpt>
      <trkpt lat="48.09728" lon="7.12546">
        <ele>811.2</ele>
        <time>2021-06-23T07:48:28Z</time>
      </trkpt>
      <trkpt lat="48.09736" lon="7.12566">
        <ele>810.6</ele>
        <time>2021-06-23T07:48:30Z</time>
      </trkpt>
      <trkpt lat="48.09747" lon="7.12597">
        <ele>810.2</ele>
        <time>2021-06-23T07:48:33Z</time>
      </trkpt>
      <trkpt lat="48.09762" lon="7.12632">
        <ele>809.6</ele>
        <time>2021-06-23T07:48:36Z</time>
      </trkpt>
      <trkpt lat="48.09776" lon="7.12658">
        <ele>808.4</ele>
        <time>2021-06-23T07:48:39Z</time>
      </trkpt>
      <trkpt lat="48.09783" lon="7.12675">
        <ele>808</ele>
        <time>2021-06-23T07:48:41Z</time>
      </trkpt>
      <trkpt lat="48.09796" lon="7.12701">
        <ele>807</ele>
        <time>2021-06-23T07:48:44Z</time>
      </trkpt>
      <trkpt lat="48.09808" lon="7.12733">
        <ele>806.2</ele>
        <time>2021-06-23T07:48:47Z</time>
      </trkpt>
      <trkpt lat="48.09811" lon="7.12747">
        <ele>805.6</ele>
        <time>2021-06-23T07:48:48Z</time>
      </trkpt>
      <trkpt lat="48.09821" lon="7.12772">
        <ele>805.2</ele>
        <time>2021-06-23T07:48:50Z</time>
      </trkpt>
      <trkpt lat="48.09829" lon="7.12793">
        <ele>804.6</ele>
        <time>2021-06-23T07:48:52Z</time>
      </trkpt>
      <trkpt lat="48.09844" lon="7.12843">
        <ele>803.6</ele>
        <time>2021-06-23T07:48:57Z</time>
      </trkpt>
      <trkpt lat="48.09851" lon="7.12865">
        <ele>803.4</ele>
        <time>2021-06-23T07:48:59Z</time>
      </trkpt>
      <trkpt lat="48.09867" lon="7.12896">
        <ele>802.4</ele>
        <time>2021-06-23T07:49:02Z</time>
      </trkpt>
      <trkpt lat="48.09877" lon="7.12907">
        <ele>802.4</ele>
        <time>2021-06-23T07:49:03Z</time>
      </trkpt>
      <trkpt lat="48.09883" lon="7.12916">
        <ele>802.2</ele>
        <time>2021-06-23T07:49:04Z</time>
      </trkpt>
      <trkpt lat="48.09897" lon="7.12933">
        <ele>802</ele>
        <time>2021-06-23T07:49:06Z</time>
      </trkpt>
      <trkpt lat="48.09913" lon="7.12947">
        <ele>801.8</ele>
        <time>2021-06-23T07:49:08Z</time>
      </trkpt>
      <trkpt lat="48.09924" lon="7.12957">
        <ele>801.2</ele>
        <time>2021-06-23T07:49:10Z</time>
      </trkpt>
      <trkpt lat="48.0993" lon="7.1296">
        <ele>801.2</ele>
        <time>2021-06-23T07:49:11Z</time>
      </trkpt>
      <trkpt lat="48.09944" lon="7.12964">
        <ele>800</ele>
        <time>2021-06-23T07:49:13Z</time>
      </trkpt>
      <trkpt lat="48.09951" lon="7.12965">
        <ele>799.8</ele>
        <time>2021-06-23T07:49:14Z</time>
      </trkpt>
      <trkpt lat="48.09974" lon="7.12971">
        <ele>799.2</ele>
        <time>2021-06-23T07:49:17Z</time>
      </trkpt>
      <trkpt lat="48.09983" lon="7.12971">
        <ele>799</ele>
        <time>2021-06-23T07:49:18Z</time>
      </trkpt>
      <trkpt lat="48.09994" lon="7.12971">
        <ele>799</ele>
        <time>2021-06-23T07:49:19Z</time>
      </trkpt>
      <trkpt lat="48.1001" lon="7.12965">
        <ele>798.6</ele>
        <time>2021-06-23T07:49:21Z</time>
      </trkpt>
      <trkpt lat="48.10026" lon="7.12949">
        <ele>798</ele>
        <time>2021-06-23T07:49:23Z</time>
      </trkpt>
      <trkpt lat="48.10033" lon="7.12945">
        <ele>797.2</ele>
        <time>2021-06-23T07:49:24Z</time>
      </trkpt>
      <trkpt lat="48.1004" lon="7.12942">
        <ele>797</ele>
        <time>2021-06-23T07:49:25Z</time>
      </trkpt>
      <trkpt lat="48.10047" lon="7.1294">
        <ele>796.6</ele>
        <time>2021-06-23T07:49:26Z</time>
      </trkpt>
      <trkpt lat="48.10084" lon="7.12936">
        <ele>795.8</ele>
        <time>2021-06-23T07:49:30Z</time>
      </trkpt>
      <trkpt lat="48.10092" lon="7.12933">
        <ele>795.6</ele>
        <time>2021-06-23T07:49:31Z</time>
      </trkpt>
      <trkpt lat="48.101" lon="7.12927">
        <ele>795.2</ele>
        <time>2021-06-23T07:49:32Z</time>
      </trkpt>
      <trkpt lat="48.1012" lon="7.12904">
        <ele>795</ele>
        <time>2021-06-23T07:49:35Z</time>
      </trkpt>
      <trkpt lat="48.10124" lon="7.12895">
        <ele>794.6</ele>
        <time>2021-06-23T07:49:36Z</time>
      </trkpt>
      <trkpt lat="48.10129" lon="7.12886">
        <ele>794</ele>
        <time>2021-06-23T07:49:37Z</time>
      </trkpt>
      <trkpt lat="48.10139" lon="7.12863">
        <ele>793.4</ele>
        <time>2021-06-23T07:49:39Z</time>
      </trkpt>
      <trkpt lat="48.10143" lon="7.12855">
        <ele>793</ele>
        <time>2021-06-23T07:49:40Z</time>
      </trkpt>
      <trkpt lat="48.10152" lon="7.12835">
        <ele>792.4</ele>
        <time>2021-06-23T07:49:42Z</time>
      </trkpt>
      <trkpt lat="48.10157" lon="7.12821">
        <ele>792.2</ele>
        <time>2021-06-23T07:49:43Z</time>
      </trkpt>
      <trkpt lat="48.10166" lon="7.12801">
        <ele>791.8</ele>
        <time>2021-06-23T07:49:45Z</time>
      </trkpt>
      <trkpt lat="48.10178" lon="7.12783">
        <ele>791.4</ele>
        <time>2021-06-23T07:49:47Z</time>
      </trkpt>
      <trkpt lat="48.10182" lon="7.12772">
        <ele>790.8</ele>
        <time>2021-06-23T07:49:48Z</time>
      </trkpt>
      <trkpt lat="48.1019" lon="7.12735">
        <ele>790</ele>
        <time>2021-06-23T07:49:51Z</time>
      </trkpt>
      <trkpt lat="48.10196" lon="7.12711">
        <ele>789.2</ele>
        <time>2021-06-23T07:49:53Z</time>
      </trkpt>
      <trkpt lat="48.10198" lon="7.127">
        <ele>789</ele>
        <time>2021-06-23T07:49:54Z</time>
      </trkpt>
      <trkpt lat="48.10204" lon="7.12678">
        <ele>788.8</ele>
        <time>2021-06-23T07:49:56Z</time>
      </trkpt>
      <trkpt lat="48.1021" lon="7.12642">
        <ele>788.2</ele>
        <time>2021-06-23T07:49:59Z</time>
      </trkpt>
      <trkpt lat="48.10215" lon="7.12618">
        <ele>787.8</ele>
        <time>2021-06-23T07:50:01Z</time>
      </trkpt>
      <trkpt lat="48.10221" lon="7.12595">
        <ele>787</ele>
        <time>2021-06-23T07:50:03Z</time>
      </trkpt>
      <trkpt lat="48.10225" lon="7.12583">
        <ele>787</ele>
        <time>2021-06-23T07:50:04Z</time>
      </trkpt>
      <trkpt lat="48.10233" lon="7.12564">
        <ele>786.2</ele>
        <time>2021-06-23T07:50:06Z</time>
      </trkpt>
      <trkpt lat="48.10237" lon="7.12551">
        <ele>786</ele>
        <time>2021-06-23T07:50:07Z</time>
      </trkpt>
      <trkpt lat="48.10252" lon="7.12519">
        <ele>784.8</ele>
        <time>2021-06-23T07:50:10Z</time>
      </trkpt>
      <trkpt lat="48.10262" lon="7.12501">
        <ele>784.4</ele>
        <time>2021-06-23T07:50:12Z</time>
      </trkpt>
      <trkpt lat="48.10276" lon="7.12481">
        <ele>783.6</ele>
        <time>2021-06-23T07:50:14Z</time>
      </trkpt>
      <trkpt lat="48.10289" lon="7.12463">
        <ele>782</ele>
        <time>2021-06-23T07:50:16Z</time>
      </trkpt>
      <trkpt lat="48.10304" lon="7.12447">
        <ele>780.8</ele>
        <time>2021-06-23T07:50:18Z</time>
      </trkpt>
      <trkpt lat="48.10318" lon="7.12432">
        <ele>779.8</ele>
        <time>2021-06-23T07:50:20Z</time>
      </trkpt>
      <trkpt lat="48.1034" lon="7.1241">
        <ele>778.8</ele>
        <time>2021-06-23T07:50:23Z</time>
      </trkpt>
      <trkpt lat="48.10357" lon="7.12398">
        <ele>778.2</ele>
        <time>2021-06-23T07:50:25Z</time>
      </trkpt>
      <trkpt lat="48.10365" lon="7.12393">
        <ele>777.8</ele>
        <time>2021-06-23T07:50:26Z</time>
      </trkpt>
      <trkpt lat="48.10374" lon="7.1239">
        <ele>777.4</ele>
        <time>2021-06-23T07:50:27Z</time>
      </trkpt>
      <trkpt lat="48.10392" lon="7.12385">
        <ele>776.8</ele>
        <time>2021-06-23T07:50:29Z</time>
      </trkpt>
      <trkpt lat="48.10401" lon="7.12384">
        <ele>776.2</ele>
        <time>2021-06-23T07:50:30Z</time>
      </trkpt>
      <trkpt lat="48.1042" lon="7.12381">
        <ele>774.6</ele>
        <time>2021-06-23T07:50:32Z</time>
      </trkpt>
      <trkpt lat="48.10438" lon="7.12376">
        <ele>773.6</ele>
        <time>2021-06-23T07:50:34Z</time>
      </trkpt>
      <trkpt lat="48.10447" lon="7.12373">
        <ele>773</ele>
        <time>2021-06-23T07:50:35Z</time>
      </trkpt>
      <trkpt lat="48.10463" lon="7.12363">
        <ele>772.4</ele>
        <time>2021-06-23T07:50:37Z</time>
      </trkpt>
      <trkpt lat="48.1048" lon="7.12349">
        <ele>771.6</ele>
        <time>2021-06-23T07:50:39Z</time>
      </trkpt>
      <trkpt lat="48.10494" lon="7.12335">
        <ele>770.6</ele>
        <time>2021-06-23T07:50:41Z</time>
      </trkpt>
      <trkpt lat="48.10519" lon="7.12312">
        <ele>769.2</ele>
        <time>2021-06-23T07:50:44Z</time>
      </trkpt>
      <trkpt lat="48.1054" lon="7.12294">
        <ele>768.2</ele>
        <time>2021-06-23T07:50:47Z</time>
      </trkpt>
      <trkpt lat="48.10565" lon="7.12273">
        <ele>767.2</ele>
        <time>2021-06-23T07:50:51Z</time>
      </trkpt>
      <trkpt lat="48.10568" lon="7.12271">
        <ele>766.8</ele>
        <time>2021-06-23T07:50:52Z</time>
      </trkpt>
      <trkpt lat="48.10576" lon="7.12265">
        <ele>766</ele>
        <time>2021-06-23T07:50:54Z</time>
      </trkpt>
      <trkpt lat="48.10583" lon="7.12261">
        <ele>765.4</ele>
        <time>2021-06-23T07:50:57Z</time>
      </trkpt>
      <trkpt lat="48.10585" lon="7.12258">
        <ele>765.2</ele>
        <time>2021-06-23T07:50:59Z</time>
      </trkpt>
      <trkpt lat="48.10585" lon="7.12257">
        <ele>765</ele>
        <time>2021-06-23T07:51:01Z</time>
      </trkpt>
      <trkpt lat="48.10585" lon="7.12257">
        <ele>764.8</ele>
        <time>2021-06-23T07:51:02Z</time>
      </trkpt>
      <trkpt lat="48.10586" lon="7.12248">
        <ele>764.8</ele>
        <time>2021-06-23T07:52:53Z</time>
      </trkpt>
      <trkpt lat="48.10587" lon="7.12242">
        <ele>764.8</ele>
        <time>2021-06-23T07:52:55Z</time>
      </trkpt>
      <trkpt lat="48.10587" lon="7.12217">
        <ele>764.6</ele>
        <time>2021-06-23T07:53:00Z</time>
      </trkpt>
      <trkpt lat="48.10585" lon="7.12184">
        <ele>764.2</ele>
        <time>2021-06-23T07:53:04Z</time>
      </trkpt>
      <trkpt lat="48.10585" lon="7.12174">
        <ele>764</ele>
        <time>2021-06-23T07:53:05Z</time>
      </trkpt>
      <trkpt lat="48.10583" lon="7.12142">
        <ele>762.8</ele>
        <time>2021-06-23T07:53:08Z</time>
      </trkpt>
      <trkpt lat="48.10582" lon="7.12118">
        <ele>762</ele>
        <time>2021-06-23T07:53:10Z</time>
      </trkpt>
      <trkpt lat="48.10581" lon="7.12105">
        <ele>761.8</ele>
        <time>2021-06-23T07:53:11Z</time>
      </trkpt>
      <trkpt lat="48.10579" lon="7.12067">
        <ele>760.8</ele>
        <time>2021-06-23T07:53:14Z</time>
      </trkpt>
      <trkpt lat="48.10578" lon="7.1205">
        <ele>760.4</ele>
        <time>2021-06-23T07:53:15Z</time>
      </trkpt>
      <trkpt lat="48.10578" lon="7.12021">
        <ele>758.4</ele>
        <time>2021-06-23T07:53:17Z</time>
      </trkpt>
      <trkpt lat="48.10582" lon="7.11999">
        <ele>757</ele>
        <time>2021-06-23T07:53:19Z</time>
      </trkpt>
      <trkpt lat="48.10594" lon="7.11982">
        <ele>755.6</ele>
        <time>2021-06-23T07:53:21Z</time>
      </trkpt>
      <trkpt lat="48.10612" lon="7.11977">
        <ele>754.6</ele>
        <time>2021-06-23T07:53:24Z</time>
      </trkpt>
      <trkpt lat="48.10618" lon="7.11976">
        <ele>754.4</ele>
        <time>2021-06-23T07:53:25Z</time>
      </trkpt>
      <trkpt lat="48.10627" lon="7.11976">
        <ele>754.2</ele>
        <time>2021-06-23T07:53:27Z</time>
      </trkpt>
      <trkpt lat="48.10631" lon="7.11975">
        <ele>754.2</ele>
        <time>2021-06-23T07:53:28Z</time>
      </trkpt>
      <trkpt lat="48.10648" lon="7.11974">
        <ele>754.6</ele>
        <time>2021-06-23T07:53:32Z</time>
      </trkpt>
      <trkpt lat="48.10658" lon="7.11972">
        <ele>755.2</ele>
        <time>2021-06-23T07:53:34Z</time>
      </trkpt>
      <trkpt lat="48.10661" lon="7.11969">
        <ele>755.4</ele>
        <time>2021-06-23T07:53:35Z</time>
      </trkpt>
      <trkpt lat="48.10669" lon="7.11959">
        <ele>755.8</ele>
        <time>2021-06-23T07:53:37Z</time>
      </trkpt>
      <trkpt lat="48.10672" lon="7.11946">
        <ele>756.2</ele>
        <time>2021-06-23T07:53:39Z</time>
      </trkpt>
      <trkpt lat="48.10679" lon="7.11921">
        <ele>756.4</ele>
        <time>2021-06-23T07:53:42Z</time>
      </trkpt>
      <trkpt lat="48.10685" lon="7.11905">
        <ele>756.4</ele>
        <time>2021-06-23T07:53:44Z</time>
      </trkpt>
      <trkpt lat="48.10693" lon="7.11887">
        <ele>756</ele>
        <time>2021-06-23T07:53:46Z</time>
      </trkpt>
      <trkpt lat="48.10707" lon="7.11866">
        <ele>755.8</ele>
        <time>2021-06-23T07:53:49Z</time>
      </trkpt>
      <trkpt lat="48.10719" lon="7.11855">
        <ele>755.2</ele>
        <time>2021-06-23T07:53:51Z</time>
      </trkpt>
      <trkpt lat="48.10729" lon="7.1185">
        <ele>754.8</ele>
        <time>2021-06-23T07:53:53Z</time>
      </trkpt>
      <trkpt lat="48.1074" lon="7.11845">
        <ele>754.8</ele>
        <time>2021-06-23T07:53:55Z</time>
      </trkpt>
      <trkpt lat="48.10745" lon="7.11844">
        <ele>754.6</ele>
        <time>2021-06-23T07:53:56Z</time>
      </trkpt>
      <trkpt lat="48.10764" lon="7.11837">
        <ele>755</ele>
        <time>2021-06-23T07:54:00Z</time>
      </trkpt>
      <trkpt lat="48.10776" lon="7.11831">
        <ele>755.8</ele>
        <time>2021-06-23T07:54:03Z</time>
      </trkpt>
      <trkpt lat="48.10779" lon="7.11828">
        <ele>756.2</ele>
        <time>2021-06-23T07:54:04Z</time>
      </trkpt>
      <trkpt lat="48.10787" lon="7.11823">
        <ele>756.8</ele>
        <time>2021-06-23T07:54:06Z</time>
      </trkpt>
      <trkpt lat="48.10801" lon="7.11817">
        <ele>757.4</ele>
        <time>2021-06-23T07:54:09Z</time>
      </trkpt>
      <trkpt lat="48.10812" lon="7.11812">
        <ele>757.8</ele>
        <time>2021-06-23T07:54:11Z</time>
      </trkpt>
      <trkpt lat="48.10816" lon="7.1181">
        <ele>757.8</ele>
        <time>2021-06-23T07:54:12Z</time>
      </trkpt>
      <trkpt lat="48.10821" lon="7.11808">
        <ele>758</ele>
        <time>2021-06-23T07:54:13Z</time>
      </trkpt>
      <trkpt lat="48.10826" lon="7.11807">
        <ele>758.2</ele>
        <time>2021-06-23T07:54:14Z</time>
      </trkpt>
      <trkpt lat="48.10838" lon="7.11806">
        <ele>758.2</ele>
        <time>2021-06-23T07:54:16Z</time>
      </trkpt>
      <trkpt lat="48.10844" lon="7.11807">
        <ele>758.2</ele>
        <time>2021-06-23T07:54:17Z</time>
      </trkpt>
      <trkpt lat="48.10863" lon="7.11813">
        <ele>758.2</ele>
        <time>2021-06-23T07:54:20Z</time>
      </trkpt>
      <trkpt lat="48.10875" lon="7.11813">
        <ele>758</ele>
        <time>2021-06-23T07:54:22Z</time>
      </trkpt>
      <trkpt lat="48.10888" lon="7.11806">
        <ele>757.8</ele>
        <time>2021-06-23T07:54:24Z</time>
      </trkpt>
      <trkpt lat="48.10893" lon="7.118">
        <ele>757.6</ele>
        <time>2021-06-23T07:54:25Z</time>
      </trkpt>
      <trkpt lat="48.10898" lon="7.1179">
        <ele>757.4</ele>
        <time>2021-06-23T07:54:26Z</time>
      </trkpt>
      <trkpt lat="48.10903" lon="7.11776">
        <ele>757.2</ele>
        <time>2021-06-23T07:54:28Z</time>
      </trkpt>
      <trkpt lat="48.10905" lon="7.11768">
        <ele>757.2</ele>
        <time>2021-06-23T07:54:29Z</time>
      </trkpt>
      <trkpt lat="48.10907" lon="7.11759">
        <ele>757.2</ele>
        <time>2021-06-23T07:54:30Z</time>
      </trkpt>
      <trkpt lat="48.10907" lon="7.11737">
        <ele>757.8</ele>
        <time>2021-06-23T07:54:33Z</time>
      </trkpt>
      <trkpt lat="48.10903" lon="7.11675">
        <ele>759.2</ele>
        <time>2021-06-23T07:54:40Z</time>
      </trkpt>
      <trkpt lat="48.10902" lon="7.11657">
        <ele>759.2</ele>
        <time>2021-06-23T07:54:42Z</time>
      </trkpt>
      <trkpt lat="48.10903" lon="7.11619">
        <ele>759.2</ele>
        <time>2021-06-23T07:54:46Z</time>
      </trkpt>
      <trkpt lat="48.10905" lon="7.11564">
        <ele>758.2</ele>
        <time>2021-06-23T07:54:51Z</time>
      </trkpt>
      <trkpt lat="48.10905" lon="7.11552">
        <ele>757.8</ele>
        <time>2021-06-23T07:54:52Z</time>
      </trkpt>
      <trkpt lat="48.10907" lon="7.11504">
        <ele>756.8</ele>
        <time>2021-06-23T07:54:56Z</time>
      </trkpt>
      <trkpt lat="48.10907" lon="7.11483">
        <ele>756.2</ele>
        <time>2021-06-23T07:54:58Z</time>
      </trkpt>
      <trkpt lat="48.10907" lon="7.11457">
        <ele>755.4</ele>
        <time>2021-06-23T07:55:00Z</time>
      </trkpt>
      <trkpt lat="48.10908" lon="7.11405">
        <ele>754.8</ele>
        <time>2021-06-23T07:55:05Z</time>
      </trkpt>
      <trkpt lat="48.10909" lon="7.11379">
        <ele>754.8</ele>
        <time>2021-06-23T07:55:08Z</time>
      </trkpt>
      <trkpt lat="48.10914" lon="7.11361">
        <ele>755</ele>
        <time>2021-06-23T07:55:10Z</time>
      </trkpt>
      <trkpt lat="48.10923" lon="7.11352">
        <ele>755.2</ele>
        <time>2021-06-23T07:55:12Z</time>
      </trkpt>
      <trkpt lat="48.10927" lon="7.11351">
        <ele>755.4</ele>
        <time>2021-06-23T07:55:13Z</time>
      </trkpt>
      <trkpt lat="48.10933" lon="7.11351">
        <ele>755.6</ele>
        <time>2021-06-23T07:55:14Z</time>
      </trkpt>
      <trkpt lat="48.10945" lon="7.11357">
        <ele>756.2</ele>
        <time>2021-06-23T07:55:16Z</time>
      </trkpt>
      <trkpt lat="48.10955" lon="7.11364">
        <ele>756.6</ele>
        <time>2021-06-23T07:55:18Z</time>
      </trkpt>
      <trkpt lat="48.10979" lon="7.11378">
        <ele>756.6</ele>
        <time>2021-06-23T07:55:21Z</time>
      </trkpt>
      <trkpt lat="48.10979" lon="7.11378">
        <ele>756.6</ele>
        <time>2021-06-23T07:55:22Z</time>
      </trkpt>
      <trkpt lat="48.11018" lon="7.11385">
        <ele>755.6</ele>
        <time>2021-06-23T07:55:27Z</time>
      </trkpt>
      <trkpt lat="48.11023" lon="7.11384">
        <ele>755.2</ele>
        <time>2021-06-23T07:55:28Z</time>
      </trkpt>
      <trkpt lat="48.1105" lon="7.11377">
        <ele>754.6</ele>
        <time>2021-06-23T07:55:34Z</time>
      </trkpt>
      <trkpt lat="48.11072" lon="7.11376">
        <ele>754.8</ele>
        <time>2021-06-23T07:55:39Z</time>
      </trkpt>
      <trkpt lat="48.11076" lon="7.11384">
        <ele>755</ele>
        <time>2021-06-23T07:55:42Z</time>
      </trkpt>
      <trkpt lat="48.11076" lon="7.11387">
        <ele>755.2</ele>
        <time>2021-06-23T07:55:43Z</time>
      </trkpt>
      <trkpt lat="48.11077" lon="7.11388">
        <ele>755.2</ele>
        <time>2021-06-23T07:55:45Z</time>
      </trkpt>
      <trkpt lat="48.1108" lon="7.11395">
        <ele>754.2</ele>
        <time>2021-06-23T07:56:17Z</time>
      </trkpt>
      <trkpt lat="48.11096" lon="7.11396">
        <ele>754</ele>
        <time>2021-06-23T07:56:20Z</time>
      </trkpt>
      <trkpt lat="48.11112" lon="7.11392">
        <ele>753.8</ele>
        <time>2021-06-23T07:56:23Z</time>
      </trkpt>
      <trkpt lat="48.11121" lon="7.11388">
        <ele>753.6</ele>
        <time>2021-06-23T07:56:25Z</time>
      </trkpt>
      <trkpt lat="48.11131" lon="7.11385">
        <ele>753.6</ele>
        <time>2021-06-23T07:56:27Z</time>
      </trkpt>
      <trkpt lat="48.11136" lon="7.11382">
        <ele>753.6</ele>
        <time>2021-06-23T07:56:28Z</time>
      </trkpt>
      <trkpt lat="48.11154" lon="7.11376">
        <ele>754</ele>
        <time>2021-06-23T07:56:32Z</time>
      </trkpt>
      <trkpt lat="48.11175" lon="7.11366">
        <ele>754.8</ele>
        <time>2021-06-23T07:56:37Z</time>
      </trkpt>
      <trkpt lat="48.11186" lon="7.1136">
        <ele>755</ele>
        <time>2021-06-23T07:56:40Z</time>
      </trkpt>
      <trkpt lat="48.11186" lon="7.1136">
        <ele>755.4</ele>
        <time>2021-06-23T07:56:41Z</time>
      </trkpt>
      <trkpt lat="48.11199" lon="7.11343">
        <ele>756.6</ele>
        <time>2021-06-23T07:56:46Z</time>
      </trkpt>
      <trkpt lat="48.11208" lon="7.11328">
        <ele>757.8</ele>
        <time>2021-06-23T07:56:50Z</time>
      </trkpt>
      <trkpt lat="48.11211" lon="7.11324">
        <ele>758.2</ele>
        <time>2021-06-23T07:56:52Z</time>
      </trkpt>
      <trkpt lat="48.11218" lon="7.11307">
        <ele>758.8</ele>
        <time>2021-06-23T07:56:56Z</time>
      </trkpt>
      <trkpt lat="48.11219" lon="7.11304">
        <ele>759.2</ele>
        <time>2021-06-23T07:56:57Z</time>
      </trkpt>
      <trkpt lat="48.11227" lon="7.11285">
        <ele>760</ele>
        <time>2021-06-23T07:57:02Z</time>
      </trkpt>
      <trkpt lat="48.11232" lon="7.11278">
        <ele>760.6</ele>
        <time>2021-06-23T07:57:04Z</time>
      </trkpt>
      <trkpt lat="48.11239" lon="7.11264">
        <ele>761.2</ele>
        <time>2021-06-23T07:57:08Z</time>
      </trkpt>
      <trkpt lat="48.11242" lon="7.11258">
        <ele>762.4</ele>
        <time>2021-06-23T07:57:11Z</time>
      </trkpt>
      <trkpt lat="48.1125" lon="7.11242">
        <ele>763.2</ele>
        <time>2021-06-23T07:57:14Z</time>
      </trkpt>
      <trkpt lat="48.11254" lon="7.11235">
        <ele>763.6</ele>
        <time>2021-06-23T07:57:16Z</time>
      </trkpt>
      <trkpt lat="48.11262" lon="7.11217">
        <ele>764.8</ele>
        <time>2021-06-23T07:57:20Z</time>
      </trkpt>
      <trkpt lat="48.11267" lon="7.1121">
        <ele>765.2</ele>
        <time>2021-06-23T07:57:22Z</time>
      </trkpt>
      <trkpt lat="48.11273" lon="7.11199">
        <ele>765.8</ele>
        <time>2021-06-23T07:57:26Z</time>
      </trkpt>
      <trkpt lat="48.11273" lon="7.11195">
        <ele>766</ele>
        <time>2021-06-23T07:57:27Z</time>
      </trkpt>
      <trkpt lat="48.11275" lon="7.11192">
        <ele>766.2</ele>
        <time>2021-06-23T07:57:28Z</time>
      </trkpt>
      <trkpt lat="48.1128" lon="7.11182">
        <ele>767</ele>
        <time>2021-06-23T07:57:31Z</time>
      </trkpt>
      <trkpt lat="48.11293" lon="7.11171">
        <ele>768.2</ele>
        <time>2021-06-23T07:57:36Z</time>
      </trkpt>
      <trkpt lat="48.11298" lon="7.11168">
        <ele>768.4</ele>
        <time>2021-06-23T07:57:38Z</time>
      </trkpt>
      <trkpt lat="48.11308" lon="7.11162">
        <ele>769.2</ele>
        <time>2021-06-23T07:57:42Z</time>
      </trkpt>
      <trkpt lat="48.11316" lon="7.1116">
        <ele>769.8</ele>
        <time>2021-06-23T07:57:45Z</time>
      </trkpt>
      <trkpt lat="48.11321" lon="7.11159">
        <ele>770.2</ele>
        <time>2021-06-23T07:57:47Z</time>
      </trkpt>
      <trkpt lat="48.11336" lon="7.11159">
        <ele>771</ele>
        <time>2021-06-23T07:57:52Z</time>
      </trkpt>
      <trkpt lat="48.11339" lon="7.11159">
        <ele>771.4</ele>
        <time>2021-06-23T07:57:53Z</time>
      </trkpt>
      <trkpt lat="48.11351" lon="7.11161">
        <ele>772.4</ele>
        <time>2021-06-23T07:57:58Z</time>
      </trkpt>
      <trkpt lat="48.11356" lon="7.11163">
        <ele>772.6</ele>
        <time>2021-06-23T07:58:00Z</time>
      </trkpt>
      <trkpt lat="48.11364" lon="7.11167">
        <ele>773.4</ele>
        <time>2021-06-23T07:58:04Z</time>
      </trkpt>
      <trkpt lat="48.11373" lon="7.11171">
        <ele>774.2</ele>
        <time>2021-06-23T07:58:08Z</time>
      </trkpt>
      <trkpt lat="48.11376" lon="7.11172">
        <ele>774.6</ele>
        <time>2021-06-23T07:58:09Z</time>
      </trkpt>
      <trkpt lat="48.11391" lon="7.11178">
        <ele>775.6</ele>
        <time>2021-06-23T07:58:16Z</time>
      </trkpt>
      <trkpt lat="48.114" lon="7.11183">
        <ele>776.8</ele>
        <time>2021-06-23T07:58:20Z</time>
      </trkpt>
      <trkpt lat="48.11407" lon="7.11187">
        <ele>777.2</ele>
        <time>2021-06-23T07:58:23Z</time>
      </trkpt>
      <trkpt lat="48.11416" lon="7.11191">
        <ele>777.8</ele>
        <time>2021-06-23T07:58:28Z</time>
      </trkpt>
      <trkpt lat="48.11429" lon="7.11197">
        <ele>778.4</ele>
        <time>2021-06-23T07:58:32Z</time>
      </trkpt>
      <trkpt lat="48.11434" lon="7.11199">
        <ele>779.2</ele>
        <time>2021-06-23T07:58:34Z</time>
      </trkpt>
      <trkpt lat="48.11454" lon="7.11208">
        <ele>780.2</ele>
        <time>2021-06-23T07:58:41Z</time>
      </trkpt>
      <trkpt lat="48.11457" lon="7.1121">
        <ele>780.4</ele>
        <time>2021-06-23T07:58:42Z</time>
      </trkpt>
      <trkpt lat="48.11474" lon="7.11216">
        <ele>781.2</ele>
        <time>2021-06-23T07:58:47Z</time>
      </trkpt>
      <trkpt lat="48.11488" lon="7.11223">
        <ele>781.8</ele>
        <time>2021-06-23T07:58:51Z</time>
      </trkpt>
      <trkpt lat="48.11504" lon="7.11235">
        <ele>782.2</ele>
        <time>2021-06-23T07:58:56Z</time>
      </trkpt>
      <trkpt lat="48.11507" lon="7.11238">
        <ele>782.4</ele>
        <time>2021-06-23T07:58:57Z</time>
      </trkpt>
      <trkpt lat="48.11511" lon="7.11241">
        <ele>782.6</ele>
        <time>2021-06-23T07:58:58Z</time>
      </trkpt>
      <trkpt lat="48.11524" lon="7.11258">
        <ele>783.6</ele>
        <time>2021-06-23T07:59:03Z</time>
      </trkpt>
      <trkpt lat="48.11531" lon="7.11272">
        <ele>784.4</ele>
        <time>2021-06-23T07:59:07Z</time>
      </trkpt>
      <trkpt lat="48.11534" lon="7.11279">
        <ele>784.6</ele>
        <time>2021-06-23T07:59:09Z</time>
      </trkpt>
      <trkpt lat="48.11543" lon="7.11305">
        <ele>785.4</ele>
        <time>2021-06-23T07:59:15Z</time>
      </trkpt>
      <trkpt lat="48.1155" lon="7.11321">
        <ele>785.8</ele>
        <time>2021-06-23T07:59:19Z</time>
      </trkpt>
      <trkpt lat="48.11556" lon="7.11333">
        <ele>786.4</ele>
        <time>2021-06-23T07:59:22Z</time>
      </trkpt>
      <trkpt lat="48.1156" lon="7.11345">
        <ele>786.8</ele>
        <time>2021-06-23T07:59:25Z</time>
      </trkpt>
      <trkpt lat="48.11562" lon="7.11353">
        <ele>787.2</ele>
        <time>2021-06-23T07:59:27Z</time>
      </trkpt>
      <trkpt lat="48.11567" lon="7.11364">
        <ele>788</ele>
        <time>2021-06-23T07:59:30Z</time>
      </trkpt>
      <trkpt lat="48.11573" lon="7.11379">
        <ele>788.8</ele>
        <time>2021-06-23T07:59:34Z</time>
      </trkpt>
      <trkpt lat="48.11576" lon="7.11385">
        <ele>789</ele>
        <time>2021-06-23T07:59:36Z</time>
      </trkpt>
      <trkpt lat="48.11582" lon="7.11399">
        <ele>790.4</ele>
        <time>2021-06-23T07:59:41Z</time>
      </trkpt>
      <trkpt lat="48.11589" lon="7.11413">
        <ele>790.8</ele>
        <time>2021-06-23T07:59:44Z</time>
      </trkpt>
      <trkpt lat="48.11594" lon="7.11423">
        <ele>791.6</ele>
        <time>2021-06-23T07:59:47Z</time>
      </trkpt>
      <trkpt lat="48.116" lon="7.11436">
        <ele>792.2</ele>
        <time>2021-06-23T07:59:51Z</time>
      </trkpt>
      <trkpt lat="48.11602" lon="7.11439">
        <ele>792.6</ele>
        <time>2021-06-23T07:59:52Z</time>
      </trkpt>
      <trkpt lat="48.11611" lon="7.11455">
        <ele>793.8</ele>
        <time>2021-06-23T07:59:57Z</time>
      </trkpt>
      <trkpt lat="48.11619" lon="7.11468">
        <ele>794.8</ele>
        <time>2021-06-23T08:00:02Z</time>
      </trkpt>
      <trkpt lat="48.1163" lon="7.11481">
        <ele>795.8</ele>
        <time>2021-06-23T08:00:06Z</time>
      </trkpt>
      <trkpt lat="48.11634" lon="7.11487">
        <ele>796.2</ele>
        <time>2021-06-23T08:00:08Z</time>
      </trkpt>
      <trkpt lat="48.1164" lon="7.11497">
        <ele>797</ele>
        <time>2021-06-23T08:00:12Z</time>
      </trkpt>
      <trkpt lat="48.11647" lon="7.11508">
        <ele>797.6</ele>
        <time>2021-06-23T08:00:15Z</time>
      </trkpt>
      <trkpt lat="48.11653" lon="7.11517">
        <ele>798.2</ele>
        <time>2021-06-23T08:00:18Z</time>
      </trkpt>
      <trkpt lat="48.1167" lon="7.11541">
        <ele>799.4</ele>
        <time>2021-06-23T08:00:26Z</time>
      </trkpt>
      <trkpt lat="48.11683" lon="7.11557">
        <ele>800.6</ele>
        <time>2021-06-23T08:00:32Z</time>
      </trkpt>
      <trkpt lat="48.11689" lon="7.11565">
        <ele>801</ele>
        <time>2021-06-23T08:00:35Z</time>
      </trkpt>
      <trkpt lat="48.11693" lon="7.11569">
        <ele>801.6</ele>
        <time>2021-06-23T08:00:37Z</time>
      </trkpt>
      <trkpt lat="48.11707" lon="7.11582">
        <ele>802.8</ele>
        <time>2021-06-23T08:00:43Z</time>
      </trkpt>
      <trkpt lat="48.1172" lon="7.11593">
        <ele>804</ele>
        <time>2021-06-23T08:00:48Z</time>
      </trkpt>
      <trkpt lat="48.11737" lon="7.11607">
        <ele>805.4</ele>
        <time>2021-06-23T08:00:55Z</time>
      </trkpt>
      <trkpt lat="48.1174" lon="7.11608">
        <ele>805.6</ele>
        <time>2021-06-23T08:00:56Z</time>
      </trkpt>
      <trkpt lat="48.11751" lon="7.11615">
        <ele>806.4</ele>
        <time>2021-06-23T08:01:00Z</time>
      </trkpt>
      <trkpt lat="48.11762" lon="7.1162">
        <ele>807.6</ele>
        <time>2021-06-23T08:01:04Z</time>
      </trkpt>
      <trkpt lat="48.11766" lon="7.11623">
        <ele>807.8</ele>
        <time>2021-06-23T08:01:06Z</time>
      </trkpt>
      <trkpt lat="48.11775" lon="7.11626">
        <ele>808.8</ele>
        <time>2021-06-23T08:01:10Z</time>
      </trkpt>
      <trkpt lat="48.11779" lon="7.11628">
        <ele>809.4</ele>
        <time>2021-06-23T08:01:12Z</time>
      </trkpt>
      <trkpt lat="48.11785" lon="7.11632">
        <ele>810</ele>
        <time>2021-06-23T08:01:15Z</time>
      </trkpt>
      <trkpt lat="48.11794" lon="7.11635">
        <ele>811</ele>
        <time>2021-06-23T08:01:19Z</time>
      </trkpt>
      <trkpt lat="48.118" lon="7.11639">
        <ele>811.8</ele>
        <time>2021-06-23T08:01:23Z</time>
      </trkpt>
      <trkpt lat="48.11802" lon="7.1164">
        <ele>812.2</ele>
        <time>2021-06-23T08:01:24Z</time>
      </trkpt>
      <trkpt lat="48.11805" lon="7.11642">
        <ele>812.8</ele>
        <time>2021-06-23T08:01:27Z</time>
      </trkpt>
      <trkpt lat="48.11807" lon="7.11643">
        <ele>813.2</ele>
        <time>2021-06-23T08:01:29Z</time>
      </trkpt>
      <trkpt lat="48.11809" lon="7.11643">
        <ele>813.4</ele>
        <time>2021-06-23T08:01:30Z</time>
      </trkpt>
      <trkpt lat="48.11813" lon="7.11645">
        <ele>814.2</ele>
        <time>2021-06-23T08:01:33Z</time>
      </trkpt>
      <trkpt lat="48.11821" lon="7.11647">
        <ele>814.6</ele>
        <time>2021-06-23T08:01:36Z</time>
      </trkpt>
      <trkpt lat="48.11827" lon="7.11649">
        <ele>815.4</ele>
        <time>2021-06-23T08:01:39Z</time>
      </trkpt>
      <trkpt lat="48.11833" lon="7.1165">
        <ele>815.8</ele>
        <time>2021-06-23T08:01:41Z</time>
      </trkpt>
      <trkpt lat="48.11835" lon="7.1165">
        <ele>816</ele>
        <time>2021-06-23T08:01:42Z</time>
      </trkpt>
      <trkpt lat="48.11839" lon="7.1165">
        <ele>816.6</ele>
        <time>2021-06-23T08:01:44Z</time>
      </trkpt>
      <trkpt lat="48.11862" lon="7.11651">
        <ele>817.4</ele>
        <time>2021-06-23T08:01:49Z</time>
      </trkpt>
      <trkpt lat="48.11869" lon="7.11652">
        <ele>817.8</ele>
        <time>2021-06-23T08:01:51Z</time>
      </trkpt>
      <trkpt lat="48.11882" lon="7.11652">
        <ele>818.4</ele>
        <time>2021-06-23T08:01:54Z</time>
      </trkpt>
      <trkpt lat="48.11894" lon="7.11651">
        <ele>818.8</ele>
        <time>2021-06-23T08:01:57Z</time>
      </trkpt>
      <trkpt lat="48.11904" lon="7.11655">
        <ele>819.8</ele>
        <time>2021-06-23T08:02:01Z</time>
      </trkpt>
      <trkpt lat="48.11907" lon="7.11656">
        <ele>820</ele>
        <time>2021-06-23T08:02:02Z</time>
      </trkpt>
      <trkpt lat="48.11916" lon="7.11656">
        <ele>821</ele>
        <time>2021-06-23T08:02:07Z</time>
      </trkpt>
      <trkpt lat="48.11928" lon="7.1166">
        <ele>822</ele>
        <time>2021-06-23T08:02:12Z</time>
      </trkpt>
      <trkpt lat="48.1193" lon="7.11661">
        <ele>822.2</ele>
        <time>2021-06-23T08:02:13Z</time>
      </trkpt>
      <trkpt lat="48.11938" lon="7.11664">
        <ele>822.8</ele>
        <time>2021-06-23T08:02:17Z</time>
      </trkpt>
      <trkpt lat="48.11951" lon="7.11667">
        <ele>824</ele>
        <time>2021-06-23T08:02:22Z</time>
      </trkpt>
      <trkpt lat="48.11957" lon="7.1167">
        <ele>824.2</ele>
        <time>2021-06-23T08:02:24Z</time>
      </trkpt>
      <trkpt lat="48.11969" lon="7.11677">
        <ele>825</ele>
        <time>2021-06-23T08:02:29Z</time>
      </trkpt>
      <trkpt lat="48.11972" lon="7.11679">
        <ele>825.2</ele>
        <time>2021-06-23T08:02:30Z</time>
      </trkpt>
      <trkpt lat="48.11984" lon="7.11687">
        <ele>826.2</ele>
        <time>2021-06-23T08:02:34Z</time>
      </trkpt>
      <trkpt lat="48.11998" lon="7.11696">
        <ele>826.8</ele>
        <time>2021-06-23T08:02:38Z</time>
      </trkpt>
      <trkpt lat="48.12009" lon="7.11701">
        <ele>827.2</ele>
        <time>2021-06-23T08:02:41Z</time>
      </trkpt>
      <trkpt lat="48.12023" lon="7.11708">
        <ele>827.8</ele>
        <time>2021-06-23T08:02:45Z</time>
      </trkpt>
      <trkpt lat="48.12029" lon="7.11717">
        <ele>828.4</ele>
        <time>2021-06-23T08:02:49Z</time>
      </trkpt>
      <trkpt lat="48.12043" lon="7.11729">
        <ele>829.2</ele>
        <time>2021-06-23T08:02:55Z</time>
      </trkpt>
      <trkpt lat="48.12044" lon="7.11731">
        <ele>829.4</ele>
        <time>2021-06-23T08:02:57Z</time>
      </trkpt>
      <trkpt lat="48.12048" lon="7.11735">
        <ele>829.8</ele>
        <time>2021-06-23T08:02:58Z</time>
      </trkpt>
      <trkpt lat="48.12056" lon="7.11741">
        <ele>830.2</ele>
        <time>2021-06-23T08:03:01Z</time>
      </trkpt>
      <trkpt lat="48.12059" lon="7.11743">
        <ele>830.6</ele>
        <time>2021-06-23T08:03:03Z</time>
      </trkpt>
      <trkpt lat="48.12062" lon="7.11746">
        <ele>831</ele>
        <time>2021-06-23T08:03:05Z</time>
      </trkpt>
      <trkpt lat="48.12074" lon="7.11759">
        <ele>831.6</ele>
        <time>2021-06-23T08:03:10Z</time>
      </trkpt>
      <trkpt lat="48.12083" lon="7.11764">
        <ele>832.2</ele>
        <time>2021-06-23T08:03:13Z</time>
      </trkpt>
      <trkpt lat="48.12095" lon="7.11775">
        <ele>832.8</ele>
        <time>2021-06-23T08:03:18Z</time>
      </trkpt>
      <trkpt lat="48.1211" lon="7.11787">
        <ele>833.8</ele>
        <time>2021-06-23T08:03:23Z</time>
      </trkpt>
      <trkpt lat="48.12112" lon="7.11789">
        <ele>834</ele>
        <time>2021-06-23T08:03:24Z</time>
      </trkpt>
      <trkpt lat="48.12119" lon="7.11794">
        <ele>835</ele>
        <time>2021-06-23T08:03:27Z</time>
      </trkpt>
      <trkpt lat="48.12133" lon="7.11802">
        <ele>836.2</ele>
        <time>2021-06-23T08:03:32Z</time>
      </trkpt>
      <trkpt lat="48.12145" lon="7.11809">
        <ele>837.2</ele>
        <time>2021-06-23T08:03:37Z</time>
      </trkpt>
      <trkpt lat="48.12148" lon="7.1181">
        <ele>837.2</ele>
        <time>2021-06-23T08:03:38Z</time>
      </trkpt>
      <trkpt lat="48.1215" lon="7.11811">
        <ele>837.4</ele>
        <time>2021-06-23T08:03:39Z</time>
      </trkpt>
      <trkpt lat="48.12159" lon="7.11817">
        <ele>838.2</ele>
        <time>2021-06-23T08:03:43Z</time>
      </trkpt>
      <trkpt lat="48.12162" lon="7.11818">
        <ele>838.4</ele>
        <time>2021-06-23T08:03:44Z</time>
      </trkpt>
      <trkpt lat="48.12178" lon="7.11821">
        <ele>839.4</ele>
        <time>2021-06-23T08:03:49Z</time>
      </trkpt>
      <trkpt lat="48.1218" lon="7.11822">
        <ele>839.6</ele>
        <time>2021-06-23T08:03:50Z</time>
      </trkpt>
      <trkpt lat="48.12183" lon="7.11824">
        <ele>839.8</ele>
        <time>2021-06-23T08:03:51Z</time>
      </trkpt>
      <trkpt lat="48.12187" lon="7.11825">
        <ele>840</ele>
        <time>2021-06-23T08:03:52Z</time>
      </trkpt>
      <trkpt lat="48.12193" lon="7.11831">
        <ele>840.4</ele>
        <time>2021-06-23T08:03:54Z</time>
      </trkpt>
      <trkpt lat="48.12201" lon="7.11835">
        <ele>841</ele>
        <time>2021-06-23T08:03:57Z</time>
      </trkpt>
      <trkpt lat="48.12209" lon="7.11842">
        <ele>841.4</ele>
        <time>2021-06-23T08:04:00Z</time>
      </trkpt>
      <trkpt lat="48.1222" lon="7.11845">
        <ele>842.2</ele>
        <time>2021-06-23T08:04:04Z</time>
      </trkpt>
      <trkpt lat="48.12222" lon="7.11845">
        <ele>842.4</ele>
        <time>2021-06-23T08:04:05Z</time>
      </trkpt>
      <trkpt lat="48.12239" lon="7.11853">
        <ele>843.4</ele>
        <time>2021-06-23T08:04:09Z</time>
      </trkpt>
      <trkpt lat="48.12241" lon="7.11855">
        <ele>843.8</ele>
        <time>2021-06-23T08:04:10Z</time>
      </trkpt>
      <trkpt lat="48.12266" lon="7.1187">
        <ele>844.8</ele>
        <time>2021-06-23T08:04:17Z</time>
      </trkpt>
      <trkpt lat="48.12283" lon="7.11891">
        <ele>846</ele>
        <time>2021-06-23T08:04:24Z</time>
      </trkpt>
      <trkpt lat="48.12296" lon="7.11913">
        <ele>847.2</ele>
        <time>2021-06-23T08:04:31Z</time>
      </trkpt>
      <trkpt lat="48.12298" lon="7.11919">
        <ele>847.6</ele>
        <time>2021-06-23T08:04:33Z</time>
      </trkpt>
      <trkpt lat="48.12301" lon="7.11926">
        <ele>848.2</ele>
        <time>2021-06-23T08:04:35Z</time>
      </trkpt>
      <trkpt lat="48.12304" lon="7.11939">
        <ele>848.8</ele>
        <time>2021-06-23T08:04:39Z</time>
      </trkpt>
      <trkpt lat="48.12306" lon="7.11945">
        <ele>849.6</ele>
        <time>2021-06-23T08:04:41Z</time>
      </trkpt>
      <trkpt lat="48.12312" lon="7.11962">
        <ele>850.8</ele>
        <time>2021-06-23T08:04:46Z</time>
      </trkpt>
      <trkpt lat="48.12314" lon="7.11965">
        <ele>851</ele>
        <time>2021-06-23T08:04:47Z</time>
      </trkpt>
      <trkpt lat="48.12325" lon="7.11982">
        <ele>852</ele>
        <time>2021-06-23T08:04:52Z</time>
      </trkpt>
      <trkpt lat="48.12331" lon="7.11994">
        <ele>852.8</ele>
        <time>2021-06-23T08:04:56Z</time>
      </trkpt>
      <trkpt lat="48.12335" lon="7.11999">
        <ele>853</ele>
        <time>2021-06-23T08:04:58Z</time>
      </trkpt>
      <trkpt lat="48.1234" lon="7.12004">
        <ele>854.2</ele>
        <time>2021-06-23T08:05:01Z</time>
      </trkpt>
      <trkpt lat="48.12341" lon="7.12006">
        <ele>854.4</ele>
        <time>2021-06-23T08:05:02Z</time>
      </trkpt>
      <trkpt lat="48.12347" lon="7.12014">
        <ele>855.2</ele>
        <time>2021-06-23T08:05:06Z</time>
      </trkpt>
      <trkpt lat="48.12351" lon="7.12019">
        <ele>856</ele>
        <time>2021-06-23T08:05:09Z</time>
      </trkpt>
      <trkpt lat="48.12353" lon="7.12023">
        <ele>856.4</ele>
        <time>2021-06-23T08:05:11Z</time>
      </trkpt>
      <trkpt lat="48.12361" lon="7.12036">
        <ele>857.4</ele>
        <time>2021-06-23T08:05:16Z</time>
      </trkpt>
      <trkpt lat="48.12364" lon="7.12041">
        <ele>857.8</ele>
        <time>2021-06-23T08:05:18Z</time>
      </trkpt>
      <trkpt lat="48.12371" lon="7.1205">
        <ele>858.6</ele>
        <time>2021-06-23T08:05:22Z</time>
      </trkpt>
      <trkpt lat="48.12379" lon="7.1206">
        <ele>859.4</ele>
        <time>2021-06-23T08:05:26Z</time>
      </trkpt>
      <trkpt lat="48.12394" lon="7.12072">
        <ele>860.6</ele>
        <time>2021-06-23T08:05:32Z</time>
      </trkpt>
      <trkpt lat="48.12409" lon="7.12091">
        <ele>862</ele>
        <time>2021-06-23T08:05:38Z</time>
      </trkpt>
      <trkpt lat="48.12426" lon="7.12107">
        <ele>863</ele>
        <time>2021-06-23T08:05:45Z</time>
      </trkpt>
      <trkpt lat="48.12428" lon="7.1211">
        <ele>863.2</ele>
        <time>2021-06-23T08:05:46Z</time>
      </trkpt>
      <trkpt lat="48.1244" lon="7.12118">
        <ele>864</ele>
        <time>2021-06-23T08:05:50Z</time>
      </trkpt>
      <trkpt lat="48.12442" lon="7.1212">
        <ele>864.2</ele>
        <time>2021-06-23T08:05:51Z</time>
      </trkpt>
      <trkpt lat="48.12455" lon="7.1213">
        <ele>865</ele>
        <time>2021-06-23T08:05:56Z</time>
      </trkpt>
      <trkpt lat="48.12458" lon="7.12131">
        <ele>865.2</ele>
        <time>2021-06-23T08:05:57Z</time>
      </trkpt>
      <trkpt lat="48.12471" lon="7.12137">
        <ele>866.2</ele>
        <time>2021-06-23T08:06:02Z</time>
      </trkpt>
      <trkpt lat="48.12479" lon="7.12139">
        <ele>866.8</ele>
        <time>2021-06-23T08:06:05Z</time>
      </trkpt>
      <trkpt lat="48.12489" lon="7.12139">
        <ele>867.4</ele>
        <time>2021-06-23T08:06:08Z</time>
      </trkpt>
      <trkpt lat="48.125" lon="7.12137">
        <ele>868.4</ele>
        <time>2021-06-23T08:06:12Z</time>
      </trkpt>
      <trkpt lat="48.12506" lon="7.12137">
        <ele>868.8</ele>
        <time>2021-06-23T08:06:14Z</time>
      </trkpt>
      <trkpt lat="48.12522" lon="7.1213">
        <ele>869.8</ele>
        <time>2021-06-23T08:06:20Z</time>
      </trkpt>
      <trkpt lat="48.12525" lon="7.12129">
        <ele>870</ele>
        <time>2021-06-23T08:06:21Z</time>
      </trkpt>
      <trkpt lat="48.12535" lon="7.12121">
        <ele>870.8</ele>
        <time>2021-06-23T08:06:25Z</time>
      </trkpt>
      <trkpt lat="48.12547" lon="7.12105">
        <ele>872</ele>
        <time>2021-06-23T08:06:31Z</time>
      </trkpt>
      <trkpt lat="48.12557" lon="7.1209">
        <ele>873.2</ele>
        <time>2021-06-23T08:06:36Z</time>
      </trkpt>
      <trkpt lat="48.12571" lon="7.1207">
        <ele>874.4</ele>
        <time>2021-06-23T08:06:43Z</time>
      </trkpt>
      <trkpt lat="48.12574" lon="7.12063">
        <ele>874.6</ele>
        <time>2021-06-23T08:06:45Z</time>
      </trkpt>
      <trkpt lat="48.12584" lon="7.12046">
        <ele>875.4</ele>
        <time>2021-06-23T08:06:50Z</time>
      </trkpt>
      <trkpt lat="48.12591" lon="7.12032">
        <ele>876</ele>
        <time>2021-06-23T08:06:54Z</time>
      </trkpt>
      <trkpt lat="48.12593" lon="7.12024">
        <ele>876.4</ele>
        <time>2021-06-23T08:06:56Z</time>
      </trkpt>
      <trkpt lat="48.12603" lon="7.11999">
        <ele>877.8</ele>
        <time>2021-06-23T08:07:03Z</time>
      </trkpt>
      <trkpt lat="48.12604" lon="7.11994">
        <ele>877.8</ele>
        <time>2021-06-23T08:07:04Z</time>
      </trkpt>
      <trkpt lat="48.12607" lon="7.11973">
        <ele>878.8</ele>
        <time>2021-06-23T08:07:09Z</time>
      </trkpt>
      <trkpt lat="48.12609" lon="7.11956">
        <ele>879.6</ele>
        <time>2021-06-23T08:07:13Z</time>
      </trkpt>
      <trkpt lat="48.1261" lon="7.11949">
        <ele>879.8</ele>
        <time>2021-06-23T08:07:15Z</time>
      </trkpt>
      <trkpt lat="48.12608" lon="7.1193">
        <ele>881</ele>
        <time>2021-06-23T08:07:19Z</time>
      </trkpt>
      <trkpt lat="48.12608" lon="7.11927">
        <ele>881</ele>
        <time>2021-06-23T08:07:20Z</time>
      </trkpt>
      <trkpt lat="48.12605" lon="7.11907">
        <ele>882.2</ele>
        <time>2021-06-23T08:07:25Z</time>
      </trkpt>
      <trkpt lat="48.12599" lon="7.11887">
        <ele>883</ele>
        <time>2021-06-23T08:07:30Z</time>
      </trkpt>
      <trkpt lat="48.12598" lon="7.11883">
        <ele>883.2</ele>
        <time>2021-06-23T08:07:31Z</time>
      </trkpt>
      <trkpt lat="48.12587" lon="7.11861">
        <ele>884.2</ele>
        <time>2021-06-23T08:07:37Z</time>
      </trkpt>
      <trkpt lat="48.12585" lon="7.11858">
        <ele>884.4</ele>
        <time>2021-06-23T08:07:38Z</time>
      </trkpt>
      <trkpt lat="48.12571" lon="7.11838">
        <ele>885.6</ele>
        <time>2021-06-23T08:07:45Z</time>
      </trkpt>
      <trkpt lat="48.12559" lon="7.11829">
        <ele>886.8</ele>
        <time>2021-06-23T08:07:50Z</time>
      </trkpt>
      <trkpt lat="48.12547" lon="7.11822">
        <ele>887.6</ele>
        <time>2021-06-23T08:07:55Z</time>
      </trkpt>
      <trkpt lat="48.12543" lon="7.1182">
        <ele>887.8</ele>
        <time>2021-06-23T08:07:57Z</time>
      </trkpt>
      <trkpt lat="48.12535" lon="7.11817">
        <ele>888.4</ele>
        <time>2021-06-23T08:08:00Z</time>
      </trkpt>
      <trkpt lat="48.12528" lon="7.11813">
        <ele>889</ele>
        <time>2021-06-23T08:08:02Z</time>
      </trkpt>
      <trkpt lat="48.12515" lon="7.11808">
        <ele>890.4</ele>
        <time>2021-06-23T08:08:06Z</time>
      </trkpt>
      <trkpt lat="48.12497" lon="7.11801">
        <ele>891.6</ele>
        <time>2021-06-23T08:08:12Z</time>
      </trkpt>
      <trkpt lat="48.12488" lon="7.11799">
        <ele>891.8</ele>
        <time>2021-06-23T08:08:15Z</time>
      </trkpt>
      <trkpt lat="48.12475" lon="7.11795">
        <ele>892.8</ele>
        <time>2021-06-23T08:08:19Z</time>
      </trkpt>
      <trkpt lat="48.12462" lon="7.11791">
        <ele>893.4</ele>
        <time>2021-06-23T08:08:23Z</time>
      </trkpt>
      <trkpt lat="48.12459" lon="7.1179">
        <ele>893.6</ele>
        <time>2021-06-23T08:08:24Z</time>
      </trkpt>
      <trkpt lat="48.12443" lon="7.11784">
        <ele>894.8</ele>
        <time>2021-06-23T08:08:30Z</time>
      </trkpt>
      <trkpt lat="48.1244" lon="7.11782">
        <ele>895</ele>
        <time>2021-06-23T08:08:31Z</time>
      </trkpt>
      <trkpt lat="48.12429" lon="7.11776">
        <ele>895.8</ele>
        <time>2021-06-23T08:08:36Z</time>
      </trkpt>
      <trkpt lat="48.12425" lon="7.11774">
        <ele>896</ele>
        <time>2021-06-23T08:08:38Z</time>
      </trkpt>
      <trkpt lat="48.12414" lon="7.11769">
        <ele>897</ele>
        <time>2021-06-23T08:08:42Z</time>
      </trkpt>
      <trkpt lat="48.12405" lon="7.11765">
        <ele>897.6</ele>
        <time>2021-06-23T08:08:45Z</time>
      </trkpt>
      <trkpt lat="48.12396" lon="7.1176">
        <ele>898</ele>
        <time>2021-06-23T08:08:48Z</time>
      </trkpt>
      <trkpt lat="48.1239" lon="7.11755">
        <ele>898.4</ele>
        <time>2021-06-23T08:08:50Z</time>
      </trkpt>
      <trkpt lat="48.12385" lon="7.11752">
        <ele>898.6</ele>
        <time>2021-06-23T08:08:52Z</time>
      </trkpt>
      <trkpt lat="48.12375" lon="7.11746">
        <ele>899.4</ele>
        <time>2021-06-23T08:08:55Z</time>
      </trkpt>
      <trkpt lat="48.12364" lon="7.11737">
        <ele>900</ele>
        <time>2021-06-23T08:08:59Z</time>
      </trkpt>
      <trkpt lat="48.12358" lon="7.11735">
        <ele>900.6</ele>
        <time>2021-06-23T08:09:01Z</time>
      </trkpt>
      <trkpt lat="48.12347" lon="7.11728">
        <ele>901.2</ele>
        <time>2021-06-23T08:09:05Z</time>
      </trkpt>
      <trkpt lat="48.12343" lon="7.11723">
        <ele>901.8</ele>
        <time>2021-06-23T08:09:07Z</time>
      </trkpt>
      <trkpt lat="48.12333" lon="7.1171">
        <ele>902.6</ele>
        <time>2021-06-23T08:09:12Z</time>
      </trkpt>
      <trkpt lat="48.12331" lon="7.11707">
        <ele>902.8</ele>
        <time>2021-06-23T08:09:13Z</time>
      </trkpt>
      <trkpt lat="48.12319" lon="7.11689">
        <ele>904</ele>
        <time>2021-06-23T08:09:19Z</time>
      </trkpt>
      <trkpt lat="48.12317" lon="7.11686">
        <ele>904.2</ele>
        <time>2021-06-23T08:09:20Z</time>
      </trkpt>
      <trkpt lat="48.12306" lon="7.11671">
        <ele>905.2</ele>
        <time>2021-06-23T08:09:25Z</time>
      </trkpt>
      <trkpt lat="48.12302" lon="7.11666">
        <ele>905.6</ele>
        <time>2021-06-23T08:09:27Z</time>
      </trkpt>
      <trkpt lat="48.12294" lon="7.11651">
        <ele>906.4</ele>
        <time>2021-06-23T08:09:31Z</time>
      </trkpt>
      <trkpt lat="48.12289" lon="7.11641">
        <ele>906.8</ele>
        <time>2021-06-23T08:09:34Z</time>
      </trkpt>
      <trkpt lat="48.12285" lon="7.1163">
        <ele>907.4</ele>
        <time>2021-06-23T08:09:37Z</time>
      </trkpt>
      <trkpt lat="48.12281" lon="7.11614">
        <ele>908.6</ele>
        <time>2021-06-23T08:09:41Z</time>
      </trkpt>
      <trkpt lat="48.1228" lon="7.11607">
        <ele>908.8</ele>
        <time>2021-06-23T08:09:43Z</time>
      </trkpt>
      <trkpt lat="48.12278" lon="7.11593">
        <ele>909.6</ele>
        <time>2021-06-23T08:09:46Z</time>
      </trkpt>
      <trkpt lat="48.12274" lon="7.11573">
        <ele>910.8</ele>
        <time>2021-06-23T08:09:51Z</time>
      </trkpt>
      <trkpt lat="48.12274" lon="7.11569">
        <ele>911</ele>
        <time>2021-06-23T08:09:52Z</time>
      </trkpt>
      <trkpt lat="48.1227" lon="7.11555">
        <ele>911.8</ele>
        <time>2021-06-23T08:09:56Z</time>
      </trkpt>
      <trkpt lat="48.12267" lon="7.11542">
        <ele>912.4</ele>
        <time>2021-06-23T08:09:59Z</time>
      </trkpt>
      <trkpt lat="48.12266" lon="7.11539">
        <ele>912.6</ele>
        <time>2021-06-23T08:10:00Z</time>
      </trkpt>
      <trkpt lat="48.12265" lon="7.11535">
        <ele>912.8</ele>
        <time>2021-06-23T08:10:01Z</time>
      </trkpt>
      <trkpt lat="48.12259" lon="7.11514">
        <ele>914.2</ele>
        <time>2021-06-23T08:10:07Z</time>
      </trkpt>
      <trkpt lat="48.12251" lon="7.11499">
        <ele>915.4</ele>
        <time>2021-06-23T08:10:12Z</time>
      </trkpt>
      <trkpt lat="48.12246" lon="7.11492">
        <ele>916</ele>
        <time>2021-06-23T08:10:15Z</time>
      </trkpt>
      <trkpt lat="48.12244" lon="7.1149">
        <ele>916.4</ele>
        <time>2021-06-23T08:10:16Z</time>
      </trkpt>
      <trkpt lat="48.12238" lon="7.11484">
        <ele>917.4</ele>
        <time>2021-06-23T08:10:19Z</time>
      </trkpt>
      <trkpt lat="48.12233" lon="7.11478">
        <ele>918</ele>
        <time>2021-06-23T08:10:22Z</time>
      </trkpt>
      <trkpt lat="48.12226" lon="7.11474">
        <ele>918.4</ele>
        <time>2021-06-23T08:10:24Z</time>
      </trkpt>
      <trkpt lat="48.12215" lon="7.11465">
        <ele>919.6</ele>
        <time>2021-06-23T08:10:28Z</time>
      </trkpt>
      <trkpt lat="48.12209" lon="7.11461">
        <ele>920</ele>
        <time>2021-06-23T08:10:30Z</time>
      </trkpt>
      <trkpt lat="48.12203" lon="7.11457">
        <ele>920.2</ele>
        <time>2021-06-23T08:10:32Z</time>
      </trkpt>
      <trkpt lat="48.12198" lon="7.11455">
        <ele>920.8</ele>
        <time>2021-06-23T08:10:34Z</time>
      </trkpt>
      <trkpt lat="48.12188" lon="7.11447">
        <ele>921.6</ele>
        <time>2021-06-23T08:10:38Z</time>
      </trkpt>
      <trkpt lat="48.12186" lon="7.11445">
        <ele>921.8</ele>
        <time>2021-06-23T08:10:39Z</time>
      </trkpt>
      <trkpt lat="48.12174" lon="7.11437">
        <ele>923</ele>
        <time>2021-06-23T08:10:43Z</time>
      </trkpt>
      <trkpt lat="48.12166" lon="7.11431">
        <ele>923.6</ele>
        <time>2021-06-23T08:10:46Z</time>
      </trkpt>
      <trkpt lat="48.1216" lon="7.11428">
        <ele>924</ele>
        <time>2021-06-23T08:10:48Z</time>
      </trkpt>
      <trkpt lat="48.12151" lon="7.11419">
        <ele>925</ele>
        <time>2021-06-23T08:10:52Z</time>
      </trkpt>
      <trkpt lat="48.12149" lon="7.11417">
        <ele>925.4</ele>
        <time>2021-06-23T08:10:53Z</time>
      </trkpt>
      <trkpt lat="48.12136" lon="7.11411">
        <ele>926.2</ele>
        <time>2021-06-23T08:10:58Z</time>
      </trkpt>
      <trkpt lat="48.12134" lon="7.11409">
        <ele>926.6</ele>
        <time>2021-06-23T08:10:59Z</time>
      </trkpt>
      <trkpt lat="48.12126" lon="7.11397">
        <ele>927.4</ele>
        <time>2021-06-23T08:11:04Z</time>
      </trkpt>
      <trkpt lat="48.12123" lon="7.11394">
        <ele>927.6</ele>
        <time>2021-06-23T08:11:05Z</time>
      </trkpt>
      <trkpt lat="48.12115" lon="7.11387">
        <ele>928.6</ele>
        <time>2021-06-23T08:11:09Z</time>
      </trkpt>
      <trkpt lat="48.12109" lon="7.11382">
        <ele>929.4</ele>
        <time>2021-06-23T08:11:13Z</time>
      </trkpt>
      <trkpt lat="48.12104" lon="7.11379">
        <ele>929.6</ele>
        <time>2021-06-23T08:11:15Z</time>
      </trkpt>
      <trkpt lat="48.12091" lon="7.1137">
        <ele>930.8</ele>
        <time>2021-06-23T08:11:19Z</time>
      </trkpt>
      <trkpt lat="48.12078" lon="7.11364">
        <ele>932.2</ele>
        <time>2021-06-23T08:11:24Z</time>
      </trkpt>
      <trkpt lat="48.12069" lon="7.1136">
        <ele>932.8</ele>
        <time>2021-06-23T08:11:27Z</time>
      </trkpt>
      <trkpt lat="48.12059" lon="7.11358">
        <ele>933.4</ele>
        <time>2021-06-23T08:11:30Z</time>
      </trkpt>
      <trkpt lat="48.1205" lon="7.11356">
        <ele>934.2</ele>
        <time>2021-06-23T08:11:33Z</time>
      </trkpt>
      <trkpt lat="48.12046" lon="7.11355">
        <ele>934.4</ele>
        <time>2021-06-23T08:11:34Z</time>
      </trkpt>
      <trkpt lat="48.12032" lon="7.11348">
        <ele>935.4</ele>
        <time>2021-06-23T08:11:39Z</time>
      </trkpt>
      <trkpt lat="48.12029" lon="7.11347">
        <ele>936</ele>
        <time>2021-06-23T08:11:40Z</time>
      </trkpt>
      <trkpt lat="48.12022" lon="7.11344">
        <ele>936.6</ele>
        <time>2021-06-23T08:11:43Z</time>
      </trkpt>
      <trkpt lat="48.12011" lon="7.11338">
        <ele>937.4</ele>
        <time>2021-06-23T08:11:47Z</time>
      </trkpt>
      <trkpt lat="48.12009" lon="7.11337">
        <ele>937.6</ele>
        <time>2021-06-23T08:11:48Z</time>
      </trkpt>
      <trkpt lat="48.11995" lon="7.11329">
        <ele>938.8</ele>
        <time>2021-06-23T08:11:54Z</time>
      </trkpt>
      <trkpt lat="48.11993" lon="7.11328">
        <ele>939</ele>
        <time>2021-06-23T08:11:55Z</time>
      </trkpt>
      <trkpt lat="48.11974" lon="7.11309">
        <ele>939.6</ele>
        <time>2021-06-23T08:12:02Z</time>
      </trkpt>
      <trkpt lat="48.11972" lon="7.11306">
        <ele>939.8</ele>
        <time>2021-06-23T08:12:03Z</time>
      </trkpt>
      <trkpt lat="48.11966" lon="7.11291">
        <ele>940.6</ele>
        <time>2021-06-23T08:12:07Z</time>
      </trkpt>
      <trkpt lat="48.11966" lon="7.11282">
        <ele>940.8</ele>
        <time>2021-06-23T08:12:09Z</time>
      </trkpt>
      <trkpt lat="48.11966" lon="7.11265">
        <ele>941.4</ele>
        <time>2021-06-23T08:12:12Z</time>
      </trkpt>
      <trkpt lat="48.11967" lon="7.11261">
        <ele>941.6</ele>
        <time>2021-06-23T08:12:13Z</time>
      </trkpt>
      <trkpt lat="48.11971" lon="7.11248">
        <ele>942</ele>
        <time>2021-06-23T08:12:16Z</time>
      </trkpt>
      <trkpt lat="48.11976" lon="7.11236">
        <ele>943</ele>
        <time>2021-06-23T08:12:19Z</time>
      </trkpt>
      <trkpt lat="48.11977" lon="7.11232">
        <ele>943</ele>
        <time>2021-06-23T08:12:20Z</time>
      </trkpt>
      <trkpt lat="48.11985" lon="7.1122">
        <ele>944</ele>
        <time>2021-06-23T08:12:24Z</time>
      </trkpt>
      <trkpt lat="48.11989" lon="7.11215">
        <ele>944.4</ele>
        <time>2021-06-23T08:12:26Z</time>
      </trkpt>
      <trkpt lat="48.11995" lon="7.11206">
        <ele>945.2</ele>
        <time>2021-06-23T08:12:29Z</time>
      </trkpt>
      <trkpt lat="48.12" lon="7.11198">
        <ele>946.2</ele>
        <time>2021-06-23T08:12:32Z</time>
      </trkpt>
      <trkpt lat="48.12011" lon="7.11185">
        <ele>947.4</ele>
        <time>2021-06-23T08:12:37Z</time>
      </trkpt>
      <trkpt lat="48.12013" lon="7.11182">
        <ele>947.4</ele>
        <time>2021-06-23T08:12:38Z</time>
      </trkpt>
      <trkpt lat="48.1202" lon="7.11175">
        <ele>948.4</ele>
        <time>2021-06-23T08:12:41Z</time>
      </trkpt>
      <trkpt lat="48.12027" lon="7.11167">
        <ele>949</ele>
        <time>2021-06-23T08:12:44Z</time>
      </trkpt>
      <trkpt lat="48.12031" lon="7.11162">
        <ele>949.6</ele>
        <time>2021-06-23T08:12:46Z</time>
      </trkpt>
      <trkpt lat="48.12043" lon="7.11151">
        <ele>950.4</ele>
        <time>2021-06-23T08:12:51Z</time>
      </trkpt>
      <trkpt lat="48.12048" lon="7.11147">
        <ele>951</ele>
        <time>2021-06-23T08:12:53Z</time>
      </trkpt>
      <trkpt lat="48.12058" lon="7.11141">
        <ele>952.2</ele>
        <time>2021-06-23T08:12:57Z</time>
      </trkpt>
      <trkpt lat="48.12071" lon="7.11136">
        <ele>953.4</ele>
        <time>2021-06-23T08:13:02Z</time>
      </trkpt>
      <trkpt lat="48.12079" lon="7.11132">
        <ele>954</ele>
        <time>2021-06-23T08:13:05Z</time>
      </trkpt>
      <trkpt lat="48.12087" lon="7.11127">
        <ele>954.6</ele>
        <time>2021-06-23T08:13:08Z</time>
      </trkpt>
      <trkpt lat="48.12098" lon="7.11119">
        <ele>955.6</ele>
        <time>2021-06-23T08:13:12Z</time>
      </trkpt>
      <trkpt lat="48.12102" lon="7.11112">
        <ele>955.8</ele>
        <time>2021-06-23T08:13:14Z</time>
      </trkpt>
      <trkpt lat="48.12111" lon="7.11102">
        <ele>956.8</ele>
        <time>2021-06-23T08:13:18Z</time>
      </trkpt>
      <trkpt lat="48.12119" lon="7.11088">
        <ele>957.6</ele>
        <time>2021-06-23T08:13:23Z</time>
      </trkpt>
      <trkpt lat="48.12123" lon="7.11083">
        <ele>958.2</ele>
        <time>2021-06-23T08:13:25Z</time>
      </trkpt>
      <trkpt lat="48.1213" lon="7.1107">
        <ele>959</ele>
        <time>2021-06-23T08:13:29Z</time>
      </trkpt>
      <trkpt lat="48.12132" lon="7.11066">
        <ele>959.2</ele>
        <time>2021-06-23T08:13:30Z</time>
      </trkpt>
      <trkpt lat="48.1214" lon="7.11053">
        <ele>960.2</ele>
        <time>2021-06-23T08:13:34Z</time>
      </trkpt>
      <trkpt lat="48.12145" lon="7.11043">
        <ele>960.6</ele>
        <time>2021-06-23T08:13:37Z</time>
      </trkpt>
      <trkpt lat="48.12154" lon="7.11024">
        <ele>961.4</ele>
        <time>2021-06-23T08:13:42Z</time>
      </trkpt>
      <trkpt lat="48.12161" lon="7.11008">
        <ele>962.2</ele>
        <time>2021-06-23T08:13:46Z</time>
      </trkpt>
      <trkpt lat="48.12163" lon="7.11004">
        <ele>962.4</ele>
        <time>2021-06-23T08:13:47Z</time>
      </trkpt>
      <trkpt lat="48.12169" lon="7.10986">
        <ele>963</ele>
        <time>2021-06-23T08:13:52Z</time>
      </trkpt>
      <trkpt lat="48.12171" lon="7.10978">
        <ele>963.4</ele>
        <time>2021-06-23T08:13:54Z</time>
      </trkpt>
      <trkpt lat="48.12176" lon="7.10954">
        <ele>964.4</ele>
        <time>2021-06-23T08:14:00Z</time>
      </trkpt>
      <trkpt lat="48.12177" lon="7.10949">
        <ele>964.8</ele>
        <time>2021-06-23T08:14:01Z</time>
      </trkpt>
      <trkpt lat="48.12176" lon="7.10926">
        <ele>965.8</ele>
        <time>2021-06-23T08:14:06Z</time>
      </trkpt>
      <trkpt lat="48.12175" lon="7.10896">
        <ele>967</ele>
        <time>2021-06-23T08:14:12Z</time>
      </trkpt>
      <trkpt lat="48.12175" lon="7.10887">
        <ele>967.2</ele>
        <time>2021-06-23T08:14:14Z</time>
      </trkpt>
      <trkpt lat="48.12174" lon="7.10866">
        <ele>968</ele>
        <time>2021-06-23T08:14:18Z</time>
      </trkpt>
      <trkpt lat="48.12176" lon="7.10827">
        <ele>969.2</ele>
        <time>2021-06-23T08:14:26Z</time>
      </trkpt>
      <trkpt lat="48.12178" lon="7.10803">
        <ele>969.6</ele>
        <time>2021-06-23T08:14:31Z</time>
      </trkpt>
      <trkpt lat="48.1218" lon="7.10788">
        <ele>970</ele>
        <time>2021-06-23T08:14:34Z</time>
      </trkpt>
      <trkpt lat="48.12182" lon="7.10777">
        <ele>970.4</ele>
        <time>2021-06-23T08:14:36Z</time>
      </trkpt>
      <trkpt lat="48.12184" lon="7.10764">
        <ele>970.8</ele>
        <time>2021-06-23T08:14:38Z</time>
      </trkpt>
      <trkpt lat="48.12186" lon="7.10752">
        <ele>971</ele>
        <time>2021-06-23T08:14:40Z</time>
      </trkpt>
      <trkpt lat="48.12201" lon="7.10709">
        <ele>972</ele>
        <time>2021-06-23T08:14:48Z</time>
      </trkpt>
      <trkpt lat="48.12218" lon="7.10672">
        <ele>973</ele>
        <time>2021-06-23T08:14:56Z</time>
      </trkpt>
      <trkpt lat="48.1222" lon="7.10667">
        <ele>973.2</ele>
        <time>2021-06-23T08:14:57Z</time>
      </trkpt>
      <trkpt lat="48.12222" lon="7.10663">
        <ele>973.2</ele>
        <time>2021-06-23T08:14:58Z</time>
      </trkpt>
      <trkpt lat="48.12233" lon="7.10637">
        <ele>973.6</ele>
        <time>2021-06-23T08:15:03Z</time>
      </trkpt>
      <trkpt lat="48.12253" lon="7.10596">
        <ele>973.8</ele>
        <time>2021-06-23T08:15:12Z</time>
      </trkpt>
      <trkpt lat="48.12259" lon="7.10584">
        <ele>974</ele>
        <time>2021-06-23T08:15:15Z</time>
      </trkpt>
      <trkpt lat="48.12269" lon="7.10561">
        <ele>974.6</ele>
        <time>2021-06-23T08:15:20Z</time>
      </trkpt>
      <trkpt lat="48.12273" lon="7.10551">
        <ele>975</ele>
        <time>2021-06-23T08:15:22Z</time>
      </trkpt>
      <trkpt lat="48.12284" lon="7.10527">
        <ele>975.8</ele>
        <time>2021-06-23T08:15:28Z</time>
      </trkpt>
      <trkpt lat="48.12285" lon="7.10523">
        <ele>976</ele>
        <time>2021-06-23T08:15:29Z</time>
      </trkpt>
      <trkpt lat="48.12289" lon="7.10511">
        <ele>976.4</ele>
        <time>2021-06-23T08:15:32Z</time>
      </trkpt>
      <trkpt lat="48.12292" lon="7.10503">
        <ele>977.2</ele>
        <time>2021-06-23T08:15:34Z</time>
      </trkpt>
      <trkpt lat="48.12297" lon="7.10487">
        <ele>978.2</ele>
        <time>2021-06-23T08:15:38Z</time>
      </trkpt>
      <trkpt lat="48.12299" lon="7.10476">
        <ele>978.8</ele>
        <time>2021-06-23T08:15:41Z</time>
      </trkpt>
      <trkpt lat="48.12301" lon="7.10467">
        <ele>979.6</ele>
        <time>2021-06-23T08:15:43Z</time>
      </trkpt>
      <trkpt lat="48.12304" lon="7.10445">
        <ele>980.6</ele>
        <time>2021-06-23T08:15:48Z</time>
      </trkpt>
      <trkpt lat="48.12305" lon="7.10437">
        <ele>981.2</ele>
        <time>2021-06-23T08:15:50Z</time>
      </trkpt>
      <trkpt lat="48.12304" lon="7.10424">
        <ele>981.8</ele>
        <time>2021-06-23T08:15:53Z</time>
      </trkpt>
      <trkpt lat="48.12302" lon="7.10412">
        <ele>983</ele>
        <time>2021-06-23T08:15:56Z</time>
      </trkpt>
      <trkpt lat="48.12298" lon="7.10391">
        <ele>984</ele>
        <time>2021-06-23T08:16:01Z</time>
      </trkpt>
      <trkpt lat="48.12294" lon="7.10374">
        <ele>984.8</ele>
        <time>2021-06-23T08:16:05Z</time>
      </trkpt>
      <trkpt lat="48.12291" lon="7.10366">
        <ele>985</ele>
        <time>2021-06-23T08:16:07Z</time>
      </trkpt>
      <trkpt lat="48.12289" lon="7.10362">
        <ele>985.4</ele>
        <time>2021-06-23T08:16:08Z</time>
      </trkpt>
      <trkpt lat="48.12279" lon="7.10339">
        <ele>986.2</ele>
        <time>2021-06-23T08:16:13Z</time>
      </trkpt>
      <trkpt lat="48.12277" lon="7.10335">
        <ele>986.4</ele>
        <time>2021-06-23T08:16:14Z</time>
      </trkpt>
      <trkpt lat="48.1226" lon="7.10306">
        <ele>987</ele>
        <time>2021-06-23T08:16:21Z</time>
      </trkpt>
      <trkpt lat="48.12251" lon="7.10292">
        <ele>987.6</ele>
        <time>2021-06-23T08:16:24Z</time>
      </trkpt>
      <trkpt lat="48.12238" lon="7.1027">
        <ele>988.2</ele>
        <time>2021-06-23T08:16:29Z</time>
      </trkpt>
      <trkpt lat="48.1223" lon="7.10256">
        <ele>988.6</ele>
        <time>2021-06-23T08:16:32Z</time>
      </trkpt>
      <trkpt lat="48.12215" lon="7.1023">
        <ele>989</ele>
        <time>2021-06-23T08:16:37Z</time>
      </trkpt>
      <trkpt lat="48.12198" lon="7.10198">
        <ele>989.4</ele>
        <time>2021-06-23T08:16:43Z</time>
      </trkpt>
      <trkpt lat="48.12193" lon="7.10186">
        <ele>989.6</ele>
        <time>2021-06-23T08:16:45Z</time>
      </trkpt>
      <trkpt lat="48.12183" lon="7.10161">
        <ele>989.8</ele>
        <time>2021-06-23T08:16:49Z</time>
      </trkpt>
      <trkpt lat="48.12177" lon="7.10135">
        <ele>989.8</ele>
        <time>2021-06-23T08:16:53Z</time>
      </trkpt>
      <trkpt lat="48.12173" lon="7.10117">
        <ele>989.8</ele>
        <time>2021-06-23T08:16:56Z</time>
      </trkpt>
      <trkpt lat="48.12172" lon="7.10105">
        <ele>990</ele>
        <time>2021-06-23T08:16:58Z</time>
      </trkpt>
      <trkpt lat="48.1217" lon="7.10091">
        <ele>990</ele>
        <time>2021-06-23T08:17:00Z</time>
      </trkpt>
      <trkpt lat="48.1217" lon="7.10078">
        <ele>990.6</ele>
        <time>2021-06-23T08:17:02Z</time>
      </trkpt>
      <trkpt lat="48.12169" lon="7.10057">
        <ele>990.8</ele>
        <time>2021-06-23T08:17:05Z</time>
      </trkpt>
      <trkpt lat="48.1217" lon="7.1001">
        <ele>991.6</ele>
        <time>2021-06-23T08:17:12Z</time>
      </trkpt>
      <trkpt lat="48.12171" lon="7.10004">
        <ele>991.6</ele>
        <time>2021-06-23T08:17:13Z</time>
      </trkpt>
      <trkpt lat="48.12174" lon="7.09991">
        <ele>991.8</ele>
        <time>2021-06-23T08:17:15Z</time>
      </trkpt>
      <trkpt lat="48.12179" lon="7.09972">
        <ele>992.2</ele>
        <time>2021-06-23T08:17:18Z</time>
      </trkpt>
      <trkpt lat="48.12181" lon="7.09966">
        <ele>992.4</ele>
        <time>2021-06-23T08:17:19Z</time>
      </trkpt>
      <trkpt lat="48.12183" lon="7.09961">
        <ele>992.6</ele>
        <time>2021-06-23T08:17:20Z</time>
      </trkpt>
      <trkpt lat="48.12186" lon="7.09956">
        <ele>992.4</ele>
        <time>2021-06-23T08:17:21Z</time>
      </trkpt>
      <trkpt lat="48.1219" lon="7.09951">
        <ele>992.8</ele>
        <time>2021-06-23T08:17:22Z</time>
      </trkpt>
      <trkpt lat="48.12194" lon="7.09948">
        <ele>992.8</ele>
        <time>2021-06-23T08:17:23Z</time>
      </trkpt>
      <trkpt lat="48.12201" lon="7.09942">
        <ele>993</ele>
        <time>2021-06-23T08:17:25Z</time>
      </trkpt>
      <trkpt lat="48.1221" lon="7.0994">
        <ele>993.4</ele>
        <time>2021-06-23T08:17:27Z</time>
      </trkpt>
      <trkpt lat="48.12214" lon="7.0994">
        <ele>993.6</ele>
        <time>2021-06-23T08:17:28Z</time>
      </trkpt>
      <trkpt lat="48.12227" lon="7.09941">
        <ele>994.6</ele>
        <time>2021-06-23T08:17:32Z</time>
      </trkpt>
      <trkpt lat="48.1223" lon="7.09943">
        <ele>994.8</ele>
        <time>2021-06-23T08:17:33Z</time>
      </trkpt>
      <trkpt lat="48.12243" lon="7.09948">
        <ele>995.6</ele>
        <time>2021-06-23T08:17:37Z</time>
      </trkpt>
      <trkpt lat="48.12245" lon="7.0995">
        <ele>996</ele>
        <time>2021-06-23T08:17:38Z</time>
      </trkpt>
      <trkpt lat="48.12252" lon="7.09956">
        <ele>996.8</ele>
        <time>2021-06-23T08:17:41Z</time>
      </trkpt>
      <trkpt lat="48.12261" lon="7.09966">
        <ele>997.6</ele>
        <time>2021-06-23T08:17:45Z</time>
      </trkpt>
      <trkpt lat="48.12271" lon="7.09973">
        <ele>998.8</ele>
        <time>2021-06-23T08:17:49Z</time>
      </trkpt>
      <trkpt lat="48.12275" lon="7.09977">
        <ele>999.2</ele>
        <time>2021-06-23T08:17:51Z</time>
      </trkpt>
      <trkpt lat="48.12277" lon="7.09979">
        <ele>999.4</ele>
        <time>2021-06-23T08:17:52Z</time>
      </trkpt>
      <trkpt lat="48.12281" lon="7.09982">
        <ele>999.8</ele>
        <time>2021-06-23T08:17:54Z</time>
      </trkpt>
      <trkpt lat="48.1229" lon="7.09985">
        <ele>1000.8</ele>
        <time>2021-06-23T08:17:58Z</time>
      </trkpt>
      <trkpt lat="48.12295" lon="7.09988">
        <ele>1001.4</ele>
        <time>2021-06-23T08:18:00Z</time>
      </trkpt>
      <trkpt lat="48.12302" lon="7.09992">
        <ele>1002</ele>
        <time>2021-06-23T08:18:03Z</time>
      </trkpt>
      <trkpt lat="48.12313" lon="7.09995">
        <ele>1003</ele>
        <time>2021-06-23T08:18:08Z</time>
      </trkpt>
      <trkpt lat="48.12316" lon="7.09995">
        <ele>1003.2</ele>
        <time>2021-06-23T08:18:09Z</time>
      </trkpt>
      <trkpt lat="48.12327" lon="7.0999">
        <ele>1004.2</ele>
        <time>2021-06-23T08:18:14Z</time>
      </trkpt>
      <trkpt lat="48.12334" lon="7.09986">
        <ele>1004.8</ele>
        <time>2021-06-23T08:18:17Z</time>
      </trkpt>
      <trkpt lat="48.12338" lon="7.09983">
        <ele>1005.2</ele>
        <time>2021-06-23T08:18:19Z</time>
      </trkpt>
      <trkpt lat="48.12347" lon="7.09971">
        <ele>1006.4</ele>
        <time>2021-06-23T08:18:24Z</time>
      </trkpt>
      <trkpt lat="48.12353" lon="7.09955">
        <ele>1007.4</ele>
        <time>2021-06-23T08:18:29Z</time>
      </trkpt>
      <trkpt lat="48.12357" lon="7.09944">
        <ele>1007.6</ele>
        <time>2021-06-23T08:18:32Z</time>
      </trkpt>
      <trkpt lat="48.12359" lon="7.09937">
        <ele>1008.2</ele>
        <time>2021-06-23T08:18:34Z</time>
      </trkpt>
      <trkpt lat="48.12359" lon="7.09934">
        <ele>1008.4</ele>
        <time>2021-06-23T08:18:35Z</time>
      </trkpt>
      <trkpt lat="48.12363" lon="7.09921">
        <ele>1009.6</ele>
        <time>2021-06-23T08:18:39Z</time>
      </trkpt>
      <trkpt lat="48.12368" lon="7.09897">
        <ele>1011</ele>
        <time>2021-06-23T08:18:46Z</time>
      </trkpt>
      <trkpt lat="48.12369" lon="7.09893">
        <ele>1011.2</ele>
        <time>2021-06-23T08:18:47Z</time>
      </trkpt>
      <trkpt lat="48.12371" lon="7.09879">
        <ele>1012.2</ele>
        <time>2021-06-23T08:18:51Z</time>
      </trkpt>
      <trkpt lat="48.12374" lon="7.09865">
        <ele>1013</ele>
        <time>2021-06-23T08:18:55Z</time>
      </trkpt>
      <trkpt lat="48.12375" lon="7.09861">
        <ele>1013.4</ele>
        <time>2021-06-23T08:18:56Z</time>
      </trkpt>
      <trkpt lat="48.12379" lon="7.09843">
        <ele>1014.4</ele>
        <time>2021-06-23T08:19:01Z</time>
      </trkpt>
      <trkpt lat="48.12384" lon="7.09831">
        <ele>1015.4</ele>
        <time>2021-06-23T08:19:05Z</time>
      </trkpt>
      <trkpt lat="48.12393" lon="7.09819">
        <ele>1016.8</ele>
        <time>2021-06-23T08:19:10Z</time>
      </trkpt>
      <trkpt lat="48.12394" lon="7.09818">
        <ele>1017</ele>
        <time>2021-06-23T08:19:11Z</time>
      </trkpt>
      <trkpt lat="48.12399" lon="7.09814">
        <ele>1017.8</ele>
        <time>2021-06-23T08:19:14Z</time>
      </trkpt>
      <trkpt lat="48.12408" lon="7.09806">
        <ele>1019.2</ele>
        <time>2021-06-23T08:19:19Z</time>
      </trkpt>
      <trkpt lat="48.12416" lon="7.09798">
        <ele>1020</ele>
        <time>2021-06-23T08:19:24Z</time>
      </trkpt>
      <trkpt lat="48.12423" lon="7.09795">
        <ele>1021</ele>
        <time>2021-06-23T08:19:28Z</time>
      </trkpt>
      <trkpt lat="48.12426" lon="7.09794">
        <ele>1021.4</ele>
        <time>2021-06-23T08:19:29Z</time>
      </trkpt>
      <trkpt lat="48.12435" lon="7.09789">
        <ele>1022.6</ele>
        <time>2021-06-23T08:19:34Z</time>
      </trkpt>
      <trkpt lat="48.12439" lon="7.09786">
        <ele>1023</ele>
        <time>2021-06-23T08:19:36Z</time>
      </trkpt>
      <trkpt lat="48.12446" lon="7.09781">
        <ele>1023.6</ele>
        <time>2021-06-23T08:19:39Z</time>
      </trkpt>
      <trkpt lat="48.12453" lon="7.09776">
        <ele>1024.4</ele>
        <time>2021-06-23T08:19:42Z</time>
      </trkpt>
      <trkpt lat="48.12457" lon="7.09773">
        <ele>1024.8</ele>
        <time>2021-06-23T08:19:44Z</time>
      </trkpt>
      <trkpt lat="48.12468" lon="7.09762">
        <ele>1026.2</ele>
        <time>2021-06-23T08:19:49Z</time>
      </trkpt>
      <trkpt lat="48.12478" lon="7.09747">
        <ele>1027</ele>
        <time>2021-06-23T08:19:54Z</time>
      </trkpt>
      <trkpt lat="48.12482" lon="7.09741">
        <ele>1027.4</ele>
        <time>2021-06-23T08:19:56Z</time>
      </trkpt>
      <trkpt lat="48.12488" lon="7.09733">
        <ele>1028.2</ele>
        <time>2021-06-23T08:19:59Z</time>
      </trkpt>
      <trkpt lat="48.12497" lon="7.09717">
        <ele>1029.4</ele>
        <time>2021-06-23T08:20:04Z</time>
      </trkpt>
      <trkpt lat="48.12503" lon="7.09703">
        <ele>1030.6</ele>
        <time>2021-06-23T08:20:08Z</time>
      </trkpt>
      <trkpt lat="48.12507" lon="7.09692">
        <ele>1031</ele>
        <time>2021-06-23T08:20:11Z</time>
      </trkpt>
      <trkpt lat="48.12511" lon="7.09681">
        <ele>1031.6</ele>
        <time>2021-06-23T08:20:14Z</time>
      </trkpt>
      <trkpt lat="48.12516" lon="7.0967">
        <ele>1032.4</ele>
        <time>2021-06-23T08:20:17Z</time>
      </trkpt>
      <trkpt lat="48.12519" lon="7.09663">
        <ele>1032.8</ele>
        <time>2021-06-23T08:20:19Z</time>
      </trkpt>
      <trkpt lat="48.12528" lon="7.09648">
        <ele>1033.8</ele>
        <time>2021-06-23T08:20:24Z</time>
      </trkpt>
      <trkpt lat="48.1253" lon="7.09645">
        <ele>1034</ele>
        <time>2021-06-23T08:20:25Z</time>
      </trkpt>
      <trkpt lat="48.1254" lon="7.0963">
        <ele>1034.8</ele>
        <time>2021-06-23T08:20:30Z</time>
      </trkpt>
      <trkpt lat="48.12547" lon="7.09619">
        <ele>1035.8</ele>
        <time>2021-06-23T08:20:34Z</time>
      </trkpt>
      <trkpt lat="48.12549" lon="7.09616">
        <ele>1036.2</ele>
        <time>2021-06-23T08:20:35Z</time>
      </trkpt>
      <trkpt lat="48.12557" lon="7.09605">
        <ele>1036.8</ele>
        <time>2021-06-23T08:20:39Z</time>
      </trkpt>
      <trkpt lat="48.12563" lon="7.09596">
        <ele>1037.6</ele>
        <time>2021-06-23T08:20:42Z</time>
      </trkpt>
      <trkpt lat="48.12564" lon="7.09593">
        <ele>1038</ele>
        <time>2021-06-23T08:20:43Z</time>
      </trkpt>
      <trkpt lat="48.12575" lon="7.09579">
        <ele>1038.8</ele>
        <time>2021-06-23T08:20:48Z</time>
      </trkpt>
      <trkpt lat="48.12577" lon="7.09576">
        <ele>1039</ele>
        <time>2021-06-23T08:20:49Z</time>
      </trkpt>
      <trkpt lat="48.12585" lon="7.09564">
        <ele>1039.8</ele>
        <time>2021-06-23T08:20:53Z</time>
      </trkpt>
      <trkpt lat="48.12588" lon="7.09557">
        <ele>1040.6</ele>
        <time>2021-06-23T08:20:55Z</time>
      </trkpt>
      <trkpt lat="48.12592" lon="7.09551">
        <ele>1041</ele>
        <time>2021-06-23T08:20:57Z</time>
      </trkpt>
      <trkpt lat="48.126" lon="7.09541">
        <ele>1042</ele>
        <time>2021-06-23T08:21:01Z</time>
      </trkpt>
      <trkpt lat="48.12602" lon="7.09538">
        <ele>1042.2</ele>
        <time>2021-06-23T08:21:02Z</time>
      </trkpt>
      <trkpt lat="48.12615" lon="7.0952">
        <ele>1043.4</ele>
        <time>2021-06-23T08:21:08Z</time>
      </trkpt>
      <trkpt lat="48.12619" lon="7.09515">
        <ele>1043.8</ele>
        <time>2021-06-23T08:21:10Z</time>
      </trkpt>
      <trkpt lat="48.12626" lon="7.09507">
        <ele>1044.4</ele>
        <time>2021-06-23T08:21:13Z</time>
      </trkpt>
      <trkpt lat="48.12639" lon="7.09494">
        <ele>1045.2</ele>
        <time>2021-06-23T08:21:18Z</time>
      </trkpt>
      <trkpt lat="48.12646" lon="7.09488">
        <ele>1045.8</ele>
        <time>2021-06-23T08:21:21Z</time>
      </trkpt>
      <trkpt lat="48.12658" lon="7.09477">
        <ele>1047</ele>
        <time>2021-06-23T08:21:26Z</time>
      </trkpt>
      <trkpt lat="48.12663" lon="7.09472">
        <ele>1047.6</ele>
        <time>2021-06-23T08:21:28Z</time>
      </trkpt>
      <trkpt lat="48.12668" lon="7.09469">
        <ele>1048.2</ele>
        <time>2021-06-23T08:21:30Z</time>
      </trkpt>
      <trkpt lat="48.12685" lon="7.09454">
        <ele>1049.2</ele>
        <time>2021-06-23T08:21:37Z</time>
      </trkpt>
      <trkpt lat="48.12688" lon="7.09451">
        <ele>1049.2</ele>
        <time>2021-06-23T08:21:38Z</time>
      </trkpt>
      <trkpt lat="48.1269" lon="7.0945">
        <ele>1049.6</ele>
        <time>2021-06-23T08:21:39Z</time>
      </trkpt>
      <trkpt lat="48.12698" lon="7.09443">
        <ele>1050.2</ele>
        <time>2021-06-23T08:21:42Z</time>
      </trkpt>
      <trkpt lat="48.12711" lon="7.09433">
        <ele>1051</ele>
        <time>2021-06-23T08:21:47Z</time>
      </trkpt>
      <trkpt lat="48.12715" lon="7.09428">
        <ele>1051.4</ele>
        <time>2021-06-23T08:21:49Z</time>
      </trkpt>
      <trkpt lat="48.12725" lon="7.09419">
        <ele>1052.6</ele>
        <time>2021-06-23T08:21:53Z</time>
      </trkpt>
      <trkpt lat="48.12729" lon="7.09415">
        <ele>1052.8</ele>
        <time>2021-06-23T08:21:55Z</time>
      </trkpt>
      <trkpt lat="48.12738" lon="7.09405">
        <ele>1053.6</ele>
        <time>2021-06-23T08:21:59Z</time>
      </trkpt>
      <trkpt lat="48.12748" lon="7.09396">
        <ele>1054.6</ele>
        <time>2021-06-23T08:22:03Z</time>
      </trkpt>
      <trkpt lat="48.1275" lon="7.09393">
        <ele>1054.8</ele>
        <time>2021-06-23T08:22:04Z</time>
      </trkpt>
      <trkpt lat="48.12764" lon="7.09378">
        <ele>1056</ele>
        <time>2021-06-23T08:22:10Z</time>
      </trkpt>
      <trkpt lat="48.12769" lon="7.09373">
        <ele>1056.2</ele>
        <time>2021-06-23T08:22:12Z</time>
      </trkpt>
      <trkpt lat="48.12783" lon="7.09358">
        <ele>1057.2</ele>
        <time>2021-06-23T08:22:18Z</time>
      </trkpt>
      <trkpt lat="48.12786" lon="7.09356">
        <ele>1057.6</ele>
        <time>2021-06-23T08:22:19Z</time>
      </trkpt>
      <trkpt lat="48.12797" lon="7.09343">
        <ele>1058.4</ele>
        <time>2021-06-23T08:22:24Z</time>
      </trkpt>
      <trkpt lat="48.12806" lon="7.09331">
        <ele>1059</ele>
        <time>2021-06-23T08:22:28Z</time>
      </trkpt>
      <trkpt lat="48.12812" lon="7.09323">
        <ele>1059.6</ele>
        <time>2021-06-23T08:22:31Z</time>
      </trkpt>
      <trkpt lat="48.12826" lon="7.09307">
        <ele>1060.4</ele>
        <time>2021-06-23T08:22:37Z</time>
      </trkpt>
      <trkpt lat="48.12828" lon="7.09304">
        <ele>1060.6</ele>
        <time>2021-06-23T08:22:38Z</time>
      </trkpt>
      <trkpt lat="48.12841" lon="7.09286">
        <ele>1061.6</ele>
        <time>2021-06-23T08:22:44Z</time>
      </trkpt>
      <trkpt lat="48.12848" lon="7.09277">
        <ele>1062</ele>
        <time>2021-06-23T08:22:47Z</time>
      </trkpt>
      <trkpt lat="48.12852" lon="7.09272">
        <ele>1062.6</ele>
        <time>2021-06-23T08:22:49Z</time>
      </trkpt>
      <trkpt lat="48.12866" lon="7.09255">
        <ele>1063.2</ele>
        <time>2021-06-23T08:22:55Z</time>
      </trkpt>
      <trkpt lat="48.12871" lon="7.0925">
        <ele>1063.6</ele>
        <time>2021-06-23T08:22:57Z</time>
      </trkpt>
      <trkpt lat="48.12882" lon="7.09238">
        <ele>1065</ele>
        <time>2021-06-23T08:23:02Z</time>
      </trkpt>
      <trkpt lat="48.12894" lon="7.09225">
        <ele>1066</ele>
        <time>2021-06-23T08:23:07Z</time>
      </trkpt>
      <trkpt lat="48.12899" lon="7.09221">
        <ele>1066.4</ele>
        <time>2021-06-23T08:23:09Z</time>
      </trkpt>
      <trkpt lat="48.12904" lon="7.09217">
        <ele>1066.8</ele>
        <time>2021-06-23T08:23:11Z</time>
      </trkpt>
      <trkpt lat="48.12909" lon="7.09213">
        <ele>1067.2</ele>
        <time>2021-06-23T08:23:13Z</time>
      </trkpt>
      <trkpt lat="48.12917" lon="7.09206">
        <ele>1067.6</ele>
        <time>2021-06-23T08:23:16Z</time>
      </trkpt>
      <trkpt lat="48.12922" lon="7.09202">
        <ele>1068.2</ele>
        <time>2021-06-23T08:23:18Z</time>
      </trkpt>
      <trkpt lat="48.12939" lon="7.09191">
        <ele>1069.2</ele>
        <time>2021-06-23T08:23:24Z</time>
      </trkpt>
      <trkpt lat="48.12942" lon="7.09189">
        <ele>1069.4</ele>
        <time>2021-06-23T08:23:25Z</time>
      </trkpt>
      <trkpt lat="48.12963" lon="7.09182">
        <ele>1070.4</ele>
        <time>2021-06-23T08:23:32Z</time>
      </trkpt>
      <trkpt lat="48.12965" lon="7.09182">
        <ele>1070.6</ele>
        <time>2021-06-23T08:23:33Z</time>
      </trkpt>
      <trkpt lat="48.12984" lon="7.0918">
        <ele>1071.4</ele>
        <time>2021-06-23T08:23:39Z</time>
      </trkpt>
      <trkpt lat="48.12999" lon="7.0918">
        <ele>1072.2</ele>
        <time>2021-06-23T08:23:44Z</time>
      </trkpt>
      <trkpt lat="48.13006" lon="7.09181">
        <ele>1072.8</ele>
        <time>2021-06-23T08:23:46Z</time>
      </trkpt>
      <trkpt lat="48.13033" lon="7.09185">
        <ele>1073.8</ele>
        <time>2021-06-23T08:23:54Z</time>
      </trkpt>
      <trkpt lat="48.1304" lon="7.09187">
        <ele>1074.2</ele>
        <time>2021-06-23T08:23:56Z</time>
      </trkpt>
      <trkpt lat="48.13065" lon="7.09193">
        <ele>1075</ele>
        <time>2021-06-23T08:24:03Z</time>
      </trkpt>
      <trkpt lat="48.13068" lon="7.09193">
        <ele>1074.8</ele>
        <time>2021-06-23T08:24:04Z</time>
      </trkpt>
      <trkpt lat="48.13093" lon="7.09198">
        <ele>1075.8</ele>
        <time>2021-06-23T08:24:11Z</time>
      </trkpt>
      <trkpt lat="48.13104" lon="7.09199">
        <ele>1076.2</ele>
        <time>2021-06-23T08:24:14Z</time>
      </trkpt>
      <trkpt lat="48.13121" lon="7.09202">
        <ele>1076.8</ele>
        <time>2021-06-23T08:24:19Z</time>
      </trkpt>
      <trkpt lat="48.13139" lon="7.09206">
        <ele>1077.8</ele>
        <time>2021-06-23T08:24:24Z</time>
      </trkpt>
      <trkpt lat="48.13143" lon="7.09206">
        <ele>1078</ele>
        <time>2021-06-23T08:24:25Z</time>
      </trkpt>
      <trkpt lat="48.13178" lon="7.09212">
        <ele>1078.8</ele>
        <time>2021-06-23T08:24:34Z</time>
      </trkpt>
      <trkpt lat="48.13186" lon="7.09214">
        <ele>1079</ele>
        <time>2021-06-23T08:24:36Z</time>
      </trkpt>
      <trkpt lat="48.13215" lon="7.09219">
        <ele>1079.4</ele>
        <time>2021-06-23T08:24:43Z</time>
      </trkpt>
      <trkpt lat="48.13253" lon="7.09224">
        <ele>1079.6</ele>
        <time>2021-06-23T08:24:52Z</time>
      </trkpt>
      <trkpt lat="48.13274" lon="7.09226">
        <ele>1080</ele>
        <time>2021-06-23T08:24:57Z</time>
      </trkpt>
      <trkpt lat="48.13289" lon="7.09229">
        <ele>1080.6</ele>
        <time>2021-06-23T08:25:01Z</time>
      </trkpt>
      <trkpt lat="48.13304" lon="7.09233">
        <ele>1081.2</ele>
        <time>2021-06-23T08:25:05Z</time>
      </trkpt>
      <trkpt lat="48.1332" lon="7.0924">
        <ele>1082</ele>
        <time>2021-06-23T08:25:09Z</time>
      </trkpt>
      <trkpt lat="48.13327" lon="7.09245">
        <ele>1082.2</ele>
        <time>2021-06-23T08:25:11Z</time>
      </trkpt>
      <trkpt lat="48.13343" lon="7.09262">
        <ele>1083.2</ele>
        <time>2021-06-23T08:25:17Z</time>
      </trkpt>
      <trkpt lat="48.13346" lon="7.09265">
        <ele>1083.4</ele>
        <time>2021-06-23T08:25:18Z</time>
      </trkpt>
      <trkpt lat="48.13358" lon="7.09278">
        <ele>1084.4</ele>
        <time>2021-06-23T08:25:23Z</time>
      </trkpt>
      <trkpt lat="48.13367" lon="7.09284">
        <ele>1085</ele>
        <time>2021-06-23T08:25:26Z</time>
      </trkpt>
      <trkpt lat="48.13378" lon="7.09288">
        <ele>1085.6</ele>
        <time>2021-06-23T08:25:30Z</time>
      </trkpt>
      <trkpt lat="48.13381" lon="7.09289">
        <ele>1086</ele>
        <time>2021-06-23T08:25:31Z</time>
      </trkpt>
      <trkpt lat="48.1339" lon="7.09291">
        <ele>1087</ele>
        <time>2021-06-23T08:25:34Z</time>
      </trkpt>
      <trkpt lat="48.13397" lon="7.09291">
        <ele>1087.8</ele>
        <time>2021-06-23T08:25:37Z</time>
      </trkpt>
      <trkpt lat="48.134" lon="7.09292">
        <ele>1088.2</ele>
        <time>2021-06-23T08:25:38Z</time>
      </trkpt>
      <trkpt lat="48.13411" lon="7.09291">
        <ele>1089.6</ele>
        <time>2021-06-23T08:25:43Z</time>
      </trkpt>
      <trkpt lat="48.13417" lon="7.09288">
        <ele>1090.4</ele>
        <time>2021-06-23T08:25:46Z</time>
      </trkpt>
      <trkpt lat="48.13422" lon="7.09284">
        <ele>1090.6</ele>
        <time>2021-06-23T08:25:48Z</time>
      </trkpt>
      <trkpt lat="48.13432" lon="7.09276">
        <ele>1091.4</ele>
        <time>2021-06-23T08:25:52Z</time>
      </trkpt>
      <trkpt lat="48.13434" lon="7.09274">
        <ele>1091.8</ele>
        <time>2021-06-23T08:25:53Z</time>
      </trkpt>
      <trkpt lat="48.13443" lon="7.09264">
        <ele>1092.8</ele>
        <time>2021-06-23T08:25:57Z</time>
      </trkpt>
      <trkpt lat="48.13448" lon="7.09259">
        <ele>1093.4</ele>
        <time>2021-06-23T08:25:59Z</time>
      </trkpt>
      <trkpt lat="48.13454" lon="7.09251">
        <ele>1094</ele>
        <time>2021-06-23T08:26:02Z</time>
      </trkpt>
      <trkpt lat="48.13464" lon="7.09237">
        <ele>1095.2</ele>
        <time>2021-06-23T08:26:07Z</time>
      </trkpt>
      <trkpt lat="48.13469" lon="7.09231">
        <ele>1095.6</ele>
        <time>2021-06-23T08:26:09Z</time>
      </trkpt>
      <trkpt lat="48.13476" lon="7.0922">
        <ele>1096.4</ele>
        <time>2021-06-23T08:26:13Z</time>
      </trkpt>
      <trkpt lat="48.13483" lon="7.09207">
        <ele>1097.2</ele>
        <time>2021-06-23T08:26:17Z</time>
      </trkpt>
      <trkpt lat="48.13485" lon="7.09204">
        <ele>1097.4</ele>
        <time>2021-06-23T08:26:18Z</time>
      </trkpt>
      <trkpt lat="48.13491" lon="7.09192">
        <ele>1098.4</ele>
        <time>2021-06-23T08:26:22Z</time>
      </trkpt>
      <trkpt lat="48.13492" lon="7.0919">
        <ele>1098.8</ele>
        <time>2021-06-23T08:26:23Z</time>
      </trkpt>
      <trkpt lat="48.13499" lon="7.09171">
        <ele>1099.6</ele>
        <time>2021-06-23T08:26:29Z</time>
      </trkpt>
      <trkpt lat="48.135" lon="7.09167">
        <ele>1099.8</ele>
        <time>2021-06-23T08:26:30Z</time>
      </trkpt>
      <trkpt lat="48.13506" lon="7.09146">
        <ele>1101</ele>
        <time>2021-06-23T08:26:36Z</time>
      </trkpt>
      <trkpt lat="48.13508" lon="7.09138">
        <ele>1101.4</ele>
        <time>2021-06-23T08:26:38Z</time>
      </trkpt>
      <trkpt lat="48.13511" lon="7.09128">
        <ele>1102</ele>
        <time>2021-06-23T08:26:41Z</time>
      </trkpt>
      <trkpt lat="48.13515" lon="7.09105">
        <ele>1103</ele>
        <time>2021-06-23T08:26:47Z</time>
      </trkpt>
      <trkpt lat="48.1352" lon="7.09077">
        <ele>1104.4</ele>
        <time>2021-06-23T08:26:54Z</time>
      </trkpt>
      <trkpt lat="48.13526" lon="7.0905">
        <ele>1105.6</ele>
        <time>2021-06-23T08:27:01Z</time>
      </trkpt>
      <trkpt lat="48.13528" lon="7.09043">
        <ele>1105.8</ele>
        <time>2021-06-23T08:27:03Z</time>
      </trkpt>
      <trkpt lat="48.13531" lon="7.09029">
        <ele>1106.6</ele>
        <time>2021-06-23T08:27:07Z</time>
      </trkpt>
      <trkpt lat="48.13534" lon="7.09019">
        <ele>1107.4</ele>
        <time>2021-06-23T08:27:10Z</time>
      </trkpt>
      <trkpt lat="48.13538" lon="7.09004">
        <ele>1108.4</ele>
        <time>2021-06-23T08:27:14Z</time>
      </trkpt>
      <trkpt lat="48.13542" lon="7.0899">
        <ele>1109.6</ele>
        <time>2021-06-23T08:27:18Z</time>
      </trkpt>
      <trkpt lat="48.13546" lon="7.08976">
        <ele>1110.8</ele>
        <time>2021-06-23T08:27:22Z</time>
      </trkpt>
      <trkpt lat="48.1355" lon="7.08965">
        <ele>1111.6</ele>
        <time>2021-06-23T08:27:25Z</time>
      </trkpt>
      <trkpt lat="48.13551" lon="7.08962">
        <ele>1111.8</ele>
        <time>2021-06-23T08:27:26Z</time>
      </trkpt>
      <trkpt lat="48.13559" lon="7.08945">
        <ele>1113</ele>
        <time>2021-06-23T08:27:31Z</time>
      </trkpt>
      <trkpt lat="48.13562" lon="7.08939">
        <ele>1113.6</ele>
        <time>2021-06-23T08:27:33Z</time>
      </trkpt>
      <trkpt lat="48.13563" lon="7.08936">
        <ele>1114</ele>
        <time>2021-06-23T08:27:34Z</time>
      </trkpt>
      <trkpt lat="48.1357" lon="7.08924">
        <ele>1115</ele>
        <time>2021-06-23T08:27:38Z</time>
      </trkpt>
      <trkpt lat="48.13577" lon="7.08912">
        <ele>1116</ele>
        <time>2021-06-23T08:27:42Z</time>
      </trkpt>
      <trkpt lat="48.13579" lon="7.08909">
        <ele>1116.2</ele>
        <time>2021-06-23T08:27:43Z</time>
      </trkpt>
      <trkpt lat="48.13592" lon="7.08896">
        <ele>1117</ele>
        <time>2021-06-23T08:27:49Z</time>
      </trkpt>
      <trkpt lat="48.13594" lon="7.08893">
        <ele>1117.4</ele>
        <time>2021-06-23T08:27:50Z</time>
      </trkpt>
      <trkpt lat="48.13611" lon="7.08874">
        <ele>1118.6</ele>
        <time>2021-06-23T08:27:58Z</time>
      </trkpt>
      <trkpt lat="48.1362" lon="7.08867">
        <ele>1119.6</ele>
        <time>2021-06-23T08:28:02Z</time>
      </trkpt>
      <trkpt lat="48.13625" lon="7.08864">
        <ele>1120</ele>
        <time>2021-06-23T08:28:04Z</time>
      </trkpt>
      <trkpt lat="48.13634" lon="7.08862">
        <ele>1120.6</ele>
        <time>2021-06-23T08:28:08Z</time>
      </trkpt>
      <trkpt lat="48.13642" lon="7.0886">
        <ele>1121.2</ele>
        <time>2021-06-23T08:28:12Z</time>
      </trkpt>
      <trkpt lat="48.13649" lon="7.08849">
        <ele>1121.6</ele>
        <time>2021-06-23T08:28:17Z</time>
      </trkpt>
      <trkpt lat="48.1365" lon="7.08846">
        <ele>1121.6</ele>
        <time>2021-06-23T08:28:18Z</time>
      </trkpt>
      <trkpt lat="48.1365" lon="7.08842">
        <ele>1121.6</ele>
        <time>2021-06-23T08:28:19Z</time>
      </trkpt>
      <trkpt lat="48.13648" lon="7.08833">
        <ele>1121.2</ele>
        <time>2021-06-23T08:28:22Z</time>
      </trkpt>
      <trkpt lat="48.13647" lon="7.0883">
        <ele>1121</ele>
        <time>2021-06-23T08:28:26Z</time>
      </trkpt>
      <trkpt lat="48.13639" lon="7.08849">
        <ele>1121.2</ele>
        <time>2021-06-23T08:29:48Z</time>
      </trkpt>
      <trkpt lat="48.13635" lon="7.08853">
        <ele>1121.2</ele>
        <time>2021-06-23T08:29:51Z</time>
      </trkpt>
      <trkpt lat="48.13622" lon="7.08862">
        <ele>1121.4</ele>
        <time>2021-06-23T08:30:01Z</time>
      </trkpt>
      <trkpt lat="48.13609" lon="7.08874">
        <ele>1120.6</ele>
        <time>2021-06-23T08:30:12Z</time>
      </trkpt>
      <trkpt lat="48.13607" lon="7.08876">
        <ele>1120.4</ele>
        <time>2021-06-23T08:30:14Z</time>
      </trkpt>
      <trkpt lat="48.13595" lon="7.08888">
        <ele>1119.2</ele>
        <time>2021-06-23T08:30:24Z</time>
      </trkpt>
      <trkpt lat="48.13593" lon="7.0889">
        <ele>1119.2</ele>
        <time>2021-06-23T08:30:26Z</time>
      </trkpt>
      <trkpt lat="48.13593" lon="7.08891">
        <ele>1119.2</ele>
        <time>2021-06-23T08:30:27Z</time>
      </trkpt>
      <trkpt lat="48.13593" lon="7.08891">
        <ele>1118.8</ele>
        <time>2021-06-23T08:30:29Z</time>
      </trkpt>
      <trkpt lat="48.13593" lon="7.08891">
        <ele>1118.6</ele>
        <time>2021-06-23T08:30:32Z</time>
      </trkpt>
      <trkpt lat="48.13592" lon="7.08893">
        <ele>1117.8</ele>
        <time>2021-06-23T08:35:21Z</time>
      </trkpt>
      <trkpt lat="48.1359" lon="7.08895">
        <ele>1117.8</ele>
        <time>2021-06-23T08:35:22Z</time>
      </trkpt>
      <trkpt lat="48.13578" lon="7.08905">
        <ele>1117.4</ele>
        <time>2021-06-23T08:35:26Z</time>
      </trkpt>
      <trkpt lat="48.13575" lon="7.08909">
        <ele>1117.4</ele>
        <time>2021-06-23T08:35:27Z</time>
      </trkpt>
      <trkpt lat="48.13565" lon="7.08923">
        <ele>1116.8</ele>
        <time>2021-06-23T08:35:30Z</time>
      </trkpt>
      <trkpt lat="48.13557" lon="7.08935">
        <ele>1116.6</ele>
        <time>2021-06-23T08:35:32Z</time>
      </trkpt>
      <trkpt lat="48.13554" lon="7.08943">
        <ele>1116.2</ele>
        <time>2021-06-23T08:35:33Z</time>
      </trkpt>
      <trkpt lat="48.13542" lon="7.0897">
        <ele>1115.6</ele>
        <time>2021-06-23T08:35:36Z</time>
      </trkpt>
      <trkpt lat="48.13539" lon="7.08981">
        <ele>1115.2</ele>
        <time>2021-06-23T08:35:37Z</time>
      </trkpt>
      <trkpt lat="48.13532" lon="7.09004">
        <ele>1114.6</ele>
        <time>2021-06-23T08:35:39Z</time>
      </trkpt>
      <trkpt lat="48.13529" lon="7.09017">
        <ele>1113.8</ele>
        <time>2021-06-23T08:35:40Z</time>
      </trkpt>
      <trkpt lat="48.13527" lon="7.0903">
        <ele>1113.4</ele>
        <time>2021-06-23T08:35:41Z</time>
      </trkpt>
      <trkpt lat="48.13524" lon="7.09045">
        <ele>1112.8</ele>
        <time>2021-06-23T08:35:42Z</time>
      </trkpt>
      <trkpt lat="48.13518" lon="7.09074">
        <ele>1111.4</ele>
        <time>2021-06-23T08:35:44Z</time>
      </trkpt>
      <trkpt lat="48.13512" lon="7.09104">
        <ele>1109.8</ele>
        <time>2021-06-23T08:35:46Z</time>
      </trkpt>
      <trkpt lat="48.13505" lon="7.09134">
        <ele>1107.2</ele>
        <time>2021-06-23T08:35:48Z</time>
      </trkpt>
      <trkpt lat="48.13501" lon="7.0915">
        <ele>1105.8</ele>
        <time>2021-06-23T08:35:49Z</time>
      </trkpt>
      <trkpt lat="48.13493" lon="7.0918">
        <ele>1104.6</ele>
        <time>2021-06-23T08:35:51Z</time>
      </trkpt>
      <trkpt lat="48.13486" lon="7.09194">
        <ele>1104.2</ele>
        <time>2021-06-23T08:35:52Z</time>
      </trkpt>
      <trkpt lat="48.13478" lon="7.09207">
        <ele>1103.2</ele>
        <time>2021-06-23T08:35:53Z</time>
      </trkpt>
      <trkpt lat="48.13463" lon="7.09232">
        <ele>1101.6</ele>
        <time>2021-06-23T08:35:55Z</time>
      </trkpt>
      <trkpt lat="48.13455" lon="7.09243">
        <ele>1101</ele>
        <time>2021-06-23T08:35:56Z</time>
      </trkpt>
      <trkpt lat="48.13446" lon="7.09254">
        <ele>1100.2</ele>
        <time>2021-06-23T08:35:57Z</time>
      </trkpt>
      <trkpt lat="48.13426" lon="7.09272">
        <ele>1099</ele>
        <time>2021-06-23T08:35:59Z</time>
      </trkpt>
      <trkpt lat="48.13415" lon="7.09279">
        <ele>1097.8</ele>
        <time>2021-06-23T08:36:00Z</time>
      </trkpt>
      <trkpt lat="48.13404" lon="7.09283">
        <ele>1097.4</ele>
        <time>2021-06-23T08:36:01Z</time>
      </trkpt>
      <trkpt lat="48.13392" lon="7.09285">
        <ele>1095.4</ele>
        <time>2021-06-23T08:36:02Z</time>
      </trkpt>
      <trkpt lat="48.1338" lon="7.09284">
        <ele>1094.8</ele>
        <time>2021-06-23T08:36:03Z</time>
      </trkpt>
      <trkpt lat="48.13367" lon="7.0928">
        <ele>1094</ele>
        <time>2021-06-23T08:36:04Z</time>
      </trkpt>
      <trkpt lat="48.13355" lon="7.09272">
        <ele>1093</ele>
        <time>2021-06-23T08:36:05Z</time>
      </trkpt>
      <trkpt lat="48.13344" lon="7.09262">
        <ele>1091.2</ele>
        <time>2021-06-23T08:36:06Z</time>
      </trkpt>
      <trkpt lat="48.13324" lon="7.09242">
        <ele>1089</ele>
        <time>2021-06-23T08:36:08Z</time>
      </trkpt>
      <trkpt lat="48.13313" lon="7.09233">
        <ele>1088</ele>
        <time>2021-06-23T08:36:09Z</time>
      </trkpt>
      <trkpt lat="48.1329" lon="7.09222">
        <ele>1085.2</ele>
        <time>2021-06-23T08:36:11Z</time>
      </trkpt>
      <trkpt lat="48.13278" lon="7.09219">
        <ele>1084.6</ele>
        <time>2021-06-23T08:36:12Z</time>
      </trkpt>
      <trkpt lat="48.13266" lon="7.09218">
        <ele>1083.4</ele>
        <time>2021-06-23T08:36:13Z</time>
      </trkpt>
      <trkpt lat="48.13243" lon="7.09216">
        <ele>1082.4</ele>
        <time>2021-06-23T08:36:15Z</time>
      </trkpt>
      <trkpt lat="48.13221" lon="7.09213">
        <ele>1081.4</ele>
        <time>2021-06-23T08:36:17Z</time>
      </trkpt>
      <trkpt lat="48.1321" lon="7.09211">
        <ele>1081.2</ele>
        <time>2021-06-23T08:36:18Z</time>
      </trkpt>
      <trkpt lat="48.132" lon="7.09209">
        <ele>1080.2</ele>
        <time>2021-06-23T08:36:19Z</time>
      </trkpt>
      <trkpt lat="48.13181" lon="7.09205">
        <ele>1079</ele>
        <time>2021-06-23T08:36:21Z</time>
      </trkpt>
      <trkpt lat="48.13163" lon="7.09202">
        <ele>1078.6</ele>
        <time>2021-06-23T08:36:23Z</time>
      </trkpt>
      <trkpt lat="48.13113" lon="7.09194">
        <ele>1078</ele>
        <time>2021-06-23T08:36:29Z</time>
      </trkpt>
      <trkpt lat="48.13056" lon="7.09183">
        <ele>1077</ele>
        <time>2021-06-23T08:36:36Z</time>
      </trkpt>
      <trkpt lat="48.13048" lon="7.09182">
        <ele>1076.6</ele>
        <time>2021-06-23T08:36:37Z</time>
      </trkpt>
      <trkpt lat="48.13024" lon="7.09176">
        <ele>1075.2</ele>
        <time>2021-06-23T08:36:40Z</time>
      </trkpt>
      <trkpt lat="48.12993" lon="7.09173">
        <ele>1074.4</ele>
        <time>2021-06-23T08:36:44Z</time>
      </trkpt>
      <trkpt lat="48.12985" lon="7.09173">
        <ele>1074.4</ele>
        <time>2021-06-23T08:36:45Z</time>
      </trkpt>
      <trkpt lat="48.12977" lon="7.09174">
        <ele>1073.8</ele>
        <time>2021-06-23T08:36:46Z</time>
      </trkpt>
      <trkpt lat="48.12952" lon="7.09178">
        <ele>1072.4</ele>
        <time>2021-06-23T08:36:49Z</time>
      </trkpt>
      <trkpt lat="48.12935" lon="7.09183">
        <ele>1071.8</ele>
        <time>2021-06-23T08:36:51Z</time>
      </trkpt>
      <trkpt lat="48.12927" lon="7.09187">
        <ele>1071.6</ele>
        <time>2021-06-23T08:36:52Z</time>
      </trkpt>
      <trkpt lat="48.12919" lon="7.09193">
        <ele>1071.2</ele>
        <time>2021-06-23T08:36:53Z</time>
      </trkpt>
      <trkpt lat="48.12903" lon="7.09206">
        <ele>1070.4</ele>
        <time>2021-06-23T08:36:55Z</time>
      </trkpt>
      <trkpt lat="48.12896" lon="7.09213">
        <ele>1070</ele>
        <time>2021-06-23T08:36:56Z</time>
      </trkpt>
      <trkpt lat="48.12864" lon="7.09246">
        <ele>1067.6</ele>
        <time>2021-06-23T08:37:00Z</time>
      </trkpt>
      <trkpt lat="48.12848" lon="7.09265">
        <ele>1066.6</ele>
        <time>2021-06-23T08:37:02Z</time>
      </trkpt>
      <trkpt lat="48.12832" lon="7.09285">
        <ele>1065.4</ele>
        <time>2021-06-23T08:37:04Z</time>
      </trkpt>
      <trkpt lat="48.12816" lon="7.09305">
        <ele>1064.2</ele>
        <time>2021-06-23T08:37:06Z</time>
      </trkpt>
      <trkpt lat="48.128" lon="7.09326">
        <ele>1062.8</ele>
        <time>2021-06-23T08:37:08Z</time>
      </trkpt>
      <trkpt lat="48.12792" lon="7.09336">
        <ele>1061.8</ele>
        <time>2021-06-23T08:37:09Z</time>
      </trkpt>
      <trkpt lat="48.12774" lon="7.09356">
        <ele>1060.6</ele>
        <time>2021-06-23T08:37:11Z</time>
      </trkpt>
      <trkpt lat="48.12749" lon="7.09386">
        <ele>1059</ele>
        <time>2021-06-23T08:37:14Z</time>
      </trkpt>
      <trkpt lat="48.12731" lon="7.09405">
        <ele>1057.6</ele>
        <time>2021-06-23T08:37:16Z</time>
      </trkpt>
      <trkpt lat="48.12712" lon="7.09422">
        <ele>1056.2</ele>
        <time>2021-06-23T08:37:18Z</time>
      </trkpt>
      <trkpt lat="48.12693" lon="7.09438">
        <ele>1055</ele>
        <time>2021-06-23T08:37:20Z</time>
      </trkpt>
      <trkpt lat="48.12674" lon="7.09455">
        <ele>1053.6</ele>
        <time>2021-06-23T08:37:22Z</time>
      </trkpt>
      <trkpt lat="48.12655" lon="7.09472">
        <ele>1052.2</ele>
        <time>2021-06-23T08:37:24Z</time>
      </trkpt>
      <trkpt lat="48.12634" lon="7.0949">
        <ele>1050.8</ele>
        <time>2021-06-23T08:37:26Z</time>
      </trkpt>
      <trkpt lat="48.12617" lon="7.09507">
        <ele>1049.4</ele>
        <time>2021-06-23T08:37:28Z</time>
      </trkpt>
      <trkpt lat="48.126" lon="7.09529">
        <ele>1048.2</ele>
        <time>2021-06-23T08:37:30Z</time>
      </trkpt>
      <trkpt lat="48.12584" lon="7.09551">
        <ele>1046.8</ele>
        <time>2021-06-23T08:37:32Z</time>
      </trkpt>
      <trkpt lat="48.12576" lon="7.09562">
        <ele>1045.8</ele>
        <time>2021-06-23T08:37:33Z</time>
      </trkpt>
      <trkpt lat="48.12568" lon="7.09574">
        <ele>1045.4</ele>
        <time>2021-06-23T08:37:34Z</time>
      </trkpt>
      <trkpt lat="48.12552" lon="7.09597">
        <ele>1044.2</ele>
        <time>2021-06-23T08:37:36Z</time>
      </trkpt>
      <trkpt lat="48.12544" lon="7.09608">
        <ele>1042.8</ele>
        <time>2021-06-23T08:37:37Z</time>
      </trkpt>
      <trkpt lat="48.12537" lon="7.09619">
        <ele>1041.8</ele>
        <time>2021-06-23T08:37:38Z</time>
      </trkpt>
      <trkpt lat="48.12522" lon="7.09643">
        <ele>1039.8</ele>
        <time>2021-06-23T08:37:40Z</time>
      </trkpt>
      <trkpt lat="48.12508" lon="7.09669">
        <ele>1037.6</ele>
        <time>2021-06-23T08:37:42Z</time>
      </trkpt>
      <trkpt lat="48.12497" lon="7.09696">
        <ele>1036</ele>
        <time>2021-06-23T08:37:44Z</time>
      </trkpt>
      <trkpt lat="48.12491" lon="7.0971">
        <ele>1035.6</ele>
        <time>2021-06-23T08:37:45Z</time>
      </trkpt>
      <trkpt lat="48.12484" lon="7.09724">
        <ele>1034.6</ele>
        <time>2021-06-23T08:37:46Z</time>
      </trkpt>
      <trkpt lat="48.12477" lon="7.09736">
        <ele>1033.8</ele>
        <time>2021-06-23T08:37:47Z</time>
      </trkpt>
      <trkpt lat="48.12469" lon="7.09748">
        <ele>1033.4</ele>
        <time>2021-06-23T08:37:48Z</time>
      </trkpt>
      <trkpt lat="48.1246" lon="7.09758">
        <ele>1032.6</ele>
        <time>2021-06-23T08:37:49Z</time>
      </trkpt>
      <trkpt lat="48.12451" lon="7.09767">
        <ele>1032.4</ele>
        <time>2021-06-23T08:37:50Z</time>
      </trkpt>
      <trkpt lat="48.12441" lon="7.09776">
        <ele>1030.8</ele>
        <time>2021-06-23T08:37:51Z</time>
      </trkpt>
      <trkpt lat="48.1242" lon="7.09791">
        <ele>1029.2</ele>
        <time>2021-06-23T08:37:53Z</time>
      </trkpt>
      <trkpt lat="48.12399" lon="7.09806">
        <ele>1027</ele>
        <time>2021-06-23T08:37:55Z</time>
      </trkpt>
      <trkpt lat="48.12388" lon="7.09814">
        <ele>1026.2</ele>
        <time>2021-06-23T08:37:56Z</time>
      </trkpt>
      <trkpt lat="48.12379" lon="7.09826">
        <ele>1025</ele>
        <time>2021-06-23T08:37:57Z</time>
      </trkpt>
      <trkpt lat="48.12372" lon="7.0984">
        <ele>1023.8</ele>
        <time>2021-06-23T08:37:58Z</time>
      </trkpt>
      <trkpt lat="48.12366" lon="7.09857">
        <ele>1022.8</ele>
        <time>2021-06-23T08:37:59Z</time>
      </trkpt>
      <trkpt lat="48.12362" lon="7.09875">
        <ele>1021.4</ele>
        <time>2021-06-23T08:38:00Z</time>
      </trkpt>
      <trkpt lat="48.12359" lon="7.09893">
        <ele>1020.8</ele>
        <time>2021-06-23T08:38:01Z</time>
      </trkpt>
      <trkpt lat="48.12356" lon="7.09912">
        <ele>1019.4</ele>
        <time>2021-06-23T08:38:02Z</time>
      </trkpt>
      <trkpt lat="48.1235" lon="7.09949">
        <ele>1016.8</ele>
        <time>2021-06-23T08:38:04Z</time>
      </trkpt>
      <trkpt lat="48.12344" lon="7.09965">
        <ele>1015.6</ele>
        <time>2021-06-23T08:38:05Z</time>
      </trkpt>
      <trkpt lat="48.12337" lon="7.09978">
        <ele>1014</ele>
        <time>2021-06-23T08:38:06Z</time>
      </trkpt>
      <trkpt lat="48.12327" lon="7.09987">
        <ele>1012</ele>
        <time>2021-06-23T08:38:07Z</time>
      </trkpt>
      <trkpt lat="48.12317" lon="7.09992">
        <ele>1011.4</ele>
        <time>2021-06-23T08:38:08Z</time>
      </trkpt>
      <trkpt lat="48.12305" lon="7.09992">
        <ele>1010.4</ele>
        <time>2021-06-23T08:38:09Z</time>
      </trkpt>
      <trkpt lat="48.12293" lon="7.09989">
        <ele>1009.6</ele>
        <time>2021-06-23T08:38:10Z</time>
      </trkpt>
      <trkpt lat="48.12281" lon="7.09981">
        <ele>1008.2</ele>
        <time>2021-06-23T08:38:11Z</time>
      </trkpt>
      <trkpt lat="48.12258" lon="7.09962">
        <ele>1005.8</ele>
        <time>2021-06-23T08:38:13Z</time>
      </trkpt>
      <trkpt lat="48.12236" lon="7.09943">
        <ele>1003.8</ele>
        <time>2021-06-23T08:38:15Z</time>
      </trkpt>
      <trkpt lat="48.12224" lon="7.09936">
        <ele>1003.4</ele>
        <time>2021-06-23T08:38:16Z</time>
      </trkpt>
      <trkpt lat="48.12212" lon="7.09934">
        <ele>1002.2</ele>
        <time>2021-06-23T08:38:17Z</time>
      </trkpt>
      <trkpt lat="48.12201" lon="7.09935">
        <ele>1000.2</ele>
        <time>2021-06-23T08:38:18Z</time>
      </trkpt>
      <trkpt lat="48.1219" lon="7.09942">
        <ele>999</ele>
        <time>2021-06-23T08:38:19Z</time>
      </trkpt>
      <trkpt lat="48.1218" lon="7.09953">
        <ele>997.4</ele>
        <time>2021-06-23T08:38:20Z</time>
      </trkpt>
      <trkpt lat="48.12173" lon="7.09968">
        <ele>996.6</ele>
        <time>2021-06-23T08:38:21Z</time>
      </trkpt>
      <trkpt lat="48.12168" lon="7.09983">
        <ele>995.2</ele>
        <time>2021-06-23T08:38:22Z</time>
      </trkpt>
      <trkpt lat="48.12164" lon="7.09999">
        <ele>994.8</ele>
        <time>2021-06-23T08:38:23Z</time>
      </trkpt>
      <trkpt lat="48.12162" lon="7.10014">
        <ele>993.8</ele>
        <time>2021-06-23T08:38:24Z</time>
      </trkpt>
      <trkpt lat="48.12161" lon="7.10029">
        <ele>993.4</ele>
        <time>2021-06-23T08:38:25Z</time>
      </trkpt>
      <trkpt lat="48.1216" lon="7.10043">
        <ele>992.6</ele>
        <time>2021-06-23T08:38:26Z</time>
      </trkpt>
      <trkpt lat="48.1216" lon="7.1007">
        <ele>991.8</ele>
        <time>2021-06-23T08:38:28Z</time>
      </trkpt>
      <trkpt lat="48.12162" lon="7.10083">
        <ele>991.2</ele>
        <time>2021-06-23T08:38:29Z</time>
      </trkpt>
      <trkpt lat="48.12168" lon="7.10118">
        <ele>990.8</ele>
        <time>2021-06-23T08:38:32Z</time>
      </trkpt>
      <trkpt lat="48.12172" lon="7.1014">
        <ele>990.4</ele>
        <time>2021-06-23T08:38:34Z</time>
      </trkpt>
      <trkpt lat="48.12175" lon="7.1015">
        <ele>989.8</ele>
        <time>2021-06-23T08:38:35Z</time>
      </trkpt>
      <trkpt lat="48.12185" lon="7.10181">
        <ele>989.4</ele>
        <time>2021-06-23T08:38:38Z</time>
      </trkpt>
      <trkpt lat="48.12189" lon="7.10191">
        <ele>989.2</ele>
        <time>2021-06-23T08:38:39Z</time>
      </trkpt>
      <trkpt lat="48.12196" lon="7.10208">
        <ele>989.2</ele>
        <time>2021-06-23T08:38:41Z</time>
      </trkpt>
      <trkpt lat="48.12204" lon="7.10224">
        <ele>989</ele>
        <time>2021-06-23T08:38:43Z</time>
      </trkpt>
      <trkpt lat="48.12212" lon="7.10238">
        <ele>989</ele>
        <time>2021-06-23T08:38:45Z</time>
      </trkpt>
      <trkpt lat="48.12216" lon="7.10245">
        <ele>988.8</ele>
        <time>2021-06-23T08:38:46Z</time>
      </trkpt>
      <trkpt lat="48.12221" lon="7.10251">
        <ele>988.6</ele>
        <time>2021-06-23T08:38:47Z</time>
      </trkpt>
      <trkpt lat="48.1223" lon="7.10263">
        <ele>988.4</ele>
        <time>2021-06-23T08:38:49Z</time>
      </trkpt>
      <trkpt lat="48.12236" lon="7.10276">
        <ele>988.2</ele>
        <time>2021-06-23T08:38:51Z</time>
      </trkpt>
      <trkpt lat="48.12251" lon="7.10299">
        <ele>987.8</ele>
        <time>2021-06-23T08:38:55Z</time>
      </trkpt>
      <trkpt lat="48.12259" lon="7.1031">
        <ele>987.8</ele>
        <time>2021-06-23T08:38:57Z</time>
      </trkpt>
      <trkpt lat="48.12266" lon="7.10323">
        <ele>987.8</ele>
        <time>2021-06-23T08:38:59Z</time>
      </trkpt>
      <trkpt lat="48.12276" lon="7.10343">
        <ele>987.6</ele>
        <time>2021-06-23T08:39:02Z</time>
      </trkpt>
      <trkpt lat="48.12286" lon="7.10368">
        <ele>987.2</ele>
        <time>2021-06-23T08:39:05Z</time>
      </trkpt>
      <trkpt lat="48.12289" lon="7.10377">
        <ele>987.2</ele>
        <time>2021-06-23T08:39:06Z</time>
      </trkpt>
      <trkpt lat="48.12296" lon="7.10412">
        <ele>986.2</ele>
        <time>2021-06-23T08:39:09Z</time>
      </trkpt>
      <trkpt lat="48.12297" lon="7.10424">
        <ele>986</ele>
        <time>2021-06-23T08:39:10Z</time>
      </trkpt>
      <trkpt lat="48.12297" lon="7.10437">
        <ele>985.4</ele>
        <time>2021-06-23T08:39:11Z</time>
      </trkpt>
      <trkpt lat="48.12295" lon="7.10464">
        <ele>984.8</ele>
        <time>2021-06-23T08:39:13Z</time>
      </trkpt>
      <trkpt lat="48.12293" lon="7.10478">
        <ele>984.2</ele>
        <time>2021-06-23T08:39:14Z</time>
      </trkpt>
      <trkpt lat="48.1229" lon="7.10492">
        <ele>983.2</ele>
        <time>2021-06-23T08:39:15Z</time>
      </trkpt>
      <trkpt lat="48.12276" lon="7.10532">
        <ele>981.2</ele>
        <time>2021-06-23T08:39:18Z</time>
      </trkpt>
      <trkpt lat="48.12265" lon="7.10559">
        <ele>979.8</ele>
        <time>2021-06-23T08:39:20Z</time>
      </trkpt>
      <trkpt lat="48.12253" lon="7.10584">
        <ele>977.8</ele>
        <time>2021-06-23T08:39:22Z</time>
      </trkpt>
      <trkpt lat="48.12247" lon="7.10596">
        <ele>977</ele>
        <time>2021-06-23T08:39:23Z</time>
      </trkpt>
      <trkpt lat="48.12241" lon="7.10608">
        <ele>976.2</ele>
        <time>2021-06-23T08:39:24Z</time>
      </trkpt>
      <trkpt lat="48.12231" lon="7.10632">
        <ele>974.8</ele>
        <time>2021-06-23T08:39:26Z</time>
      </trkpt>
      <trkpt lat="48.1222" lon="7.10653">
        <ele>973.8</ele>
        <time>2021-06-23T08:39:28Z</time>
      </trkpt>
      <trkpt lat="48.12215" lon="7.10663">
        <ele>973.4</ele>
        <time>2021-06-23T08:39:29Z</time>
      </trkpt>
      <trkpt lat="48.1219" lon="7.10721">
        <ele>972.6</ele>
        <time>2021-06-23T08:39:35Z</time>
      </trkpt>
      <trkpt lat="48.12184" lon="7.10741">
        <ele>972.4</ele>
        <time>2021-06-23T08:39:37Z</time>
      </trkpt>
      <trkpt lat="48.12181" lon="7.10753">
        <ele>972.4</ele>
        <time>2021-06-23T08:39:38Z</time>
      </trkpt>
      <trkpt lat="48.12178" lon="7.10775">
        <ele>972.2</ele>
        <time>2021-06-23T08:39:40Z</time>
      </trkpt>
      <trkpt lat="48.12173" lon="7.10822">
        <ele>971.2</ele>
        <time>2021-06-23T08:39:44Z</time>
      </trkpt>
      <trkpt lat="48.1217" lon="7.10858">
        <ele>970</ele>
        <time>2021-06-23T08:39:47Z</time>
      </trkpt>
      <trkpt lat="48.1217" lon="7.10907">
        <ele>969</ele>
        <time>2021-06-23T08:39:51Z</time>
      </trkpt>
      <trkpt lat="48.1217" lon="7.10932">
        <ele>968.4</ele>
        <time>2021-06-23T08:39:53Z</time>
      </trkpt>
      <trkpt lat="48.12169" lon="7.10958">
        <ele>967.6</ele>
        <time>2021-06-23T08:39:55Z</time>
      </trkpt>
      <trkpt lat="48.12166" lon="7.10984">
        <ele>967</ele>
        <time>2021-06-23T08:39:57Z</time>
      </trkpt>
      <trkpt lat="48.12162" lon="7.10996">
        <ele>966.4</ele>
        <time>2021-06-23T08:39:58Z</time>
      </trkpt>
      <trkpt lat="48.12151" lon="7.11019">
        <ele>965.2</ele>
        <time>2021-06-23T08:40:00Z</time>
      </trkpt>
      <trkpt lat="48.1214" lon="7.11043">
        <ele>964</ele>
        <time>2021-06-23T08:40:02Z</time>
      </trkpt>
      <trkpt lat="48.12128" lon="7.11067">
        <ele>962.8</ele>
        <time>2021-06-23T08:40:04Z</time>
      </trkpt>
      <trkpt lat="48.12116" lon="7.11091">
        <ele>961.6</ele>
        <time>2021-06-23T08:40:06Z</time>
      </trkpt>
      <trkpt lat="48.12109" lon="7.11101">
        <ele>961.4</ele>
        <time>2021-06-23T08:40:07Z</time>
      </trkpt>
      <trkpt lat="48.121" lon="7.1111">
        <ele>960.8</ele>
        <time>2021-06-23T08:40:08Z</time>
      </trkpt>
      <trkpt lat="48.12091" lon="7.11118">
        <ele>960.6</ele>
        <time>2021-06-23T08:40:09Z</time>
      </trkpt>
      <trkpt lat="48.12069" lon="7.11129">
        <ele>959</ele>
        <time>2021-06-23T08:40:11Z</time>
      </trkpt>
      <trkpt lat="48.12048" lon="7.11138">
        <ele>957.2</ele>
        <time>2021-06-23T08:40:13Z</time>
      </trkpt>
      <trkpt lat="48.12038" lon="7.11145">
        <ele>956.6</ele>
        <time>2021-06-23T08:40:14Z</time>
      </trkpt>
      <trkpt lat="48.12029" lon="7.11154">
        <ele>955.4</ele>
        <time>2021-06-23T08:40:15Z</time>
      </trkpt>
      <trkpt lat="48.12011" lon="7.11173">
        <ele>953.6</ele>
        <time>2021-06-23T08:40:17Z</time>
      </trkpt>
      <trkpt lat="48.11993" lon="7.11195">
        <ele>952</ele>
        <time>2021-06-23T08:40:19Z</time>
      </trkpt>
      <trkpt lat="48.11984" lon="7.11206">
        <ele>951</ele>
        <time>2021-06-23T08:40:20Z</time>
      </trkpt>
      <trkpt lat="48.11976" lon="7.11218">
        <ele>950.2</ele>
        <time>2021-06-23T08:40:21Z</time>
      </trkpt>
      <trkpt lat="48.11968" lon="7.1123">
        <ele>949.2</ele>
        <time>2021-06-23T08:40:22Z</time>
      </trkpt>
      <trkpt lat="48.11957" lon="7.11257">
        <ele>947.6</ele>
        <time>2021-06-23T08:40:24Z</time>
      </trkpt>
      <trkpt lat="48.11956" lon="7.11286">
        <ele>945.8</ele>
        <time>2021-06-23T08:40:26Z</time>
      </trkpt>
      <trkpt lat="48.11967" lon="7.11311">
        <ele>944.6</ele>
        <time>2021-06-23T08:40:28Z</time>
      </trkpt>
      <trkpt lat="48.11983" lon="7.11329">
        <ele>943.2</ele>
        <time>2021-06-23T08:40:30Z</time>
      </trkpt>
      <trkpt lat="48.11992" lon="7.11334">
        <ele>942.8</ele>
        <time>2021-06-23T08:40:31Z</time>
      </trkpt>
      <trkpt lat="48.12001" lon="7.11339">
        <ele>942.6</ele>
        <time>2021-06-23T08:40:32Z</time>
      </trkpt>
      <trkpt lat="48.12011" lon="7.11342">
        <ele>941.8</ele>
        <time>2021-06-23T08:40:33Z</time>
      </trkpt>
      <trkpt lat="48.1203" lon="7.11349">
        <ele>940.4</ele>
        <time>2021-06-23T08:40:35Z</time>
      </trkpt>
      <trkpt lat="48.1206" lon="7.1136">
        <ele>939</ele>
        <time>2021-06-23T08:40:38Z</time>
      </trkpt>
      <trkpt lat="48.1208" lon="7.11368">
        <ele>937.8</ele>
        <time>2021-06-23T08:40:40Z</time>
      </trkpt>
      <trkpt lat="48.121" lon="7.11378">
        <ele>936</ele>
        <time>2021-06-23T08:40:42Z</time>
      </trkpt>
      <trkpt lat="48.1211" lon="7.11384">
        <ele>935.4</ele>
        <time>2021-06-23T08:40:43Z</time>
      </trkpt>
      <trkpt lat="48.12119" lon="7.11392">
        <ele>934.4</ele>
        <time>2021-06-23T08:40:44Z</time>
      </trkpt>
      <trkpt lat="48.12138" lon="7.11408">
        <ele>933</ele>
        <time>2021-06-23T08:40:46Z</time>
      </trkpt>
      <trkpt lat="48.12157" lon="7.11423">
        <ele>931.6</ele>
        <time>2021-06-23T08:40:48Z</time>
      </trkpt>
      <trkpt lat="48.12167" lon="7.11431">
        <ele>931</ele>
        <time>2021-06-23T08:40:49Z</time>
      </trkpt>
      <trkpt lat="48.12176" lon="7.11439">
        <ele>930.2</ele>
        <time>2021-06-23T08:40:50Z</time>
      </trkpt>
      <trkpt lat="48.12186" lon="7.11447">
        <ele>928.8</ele>
        <time>2021-06-23T08:40:51Z</time>
      </trkpt>
      <trkpt lat="48.12206" lon="7.11463">
        <ele>927.6</ele>
        <time>2021-06-23T08:40:53Z</time>
      </trkpt>
      <trkpt lat="48.12227" lon="7.11479">
        <ele>925.6</ele>
        <time>2021-06-23T08:40:55Z</time>
      </trkpt>
      <trkpt lat="48.12237" lon="7.11489">
        <ele>925</ele>
        <time>2021-06-23T08:40:56Z</time>
      </trkpt>
      <trkpt lat="48.12247" lon="7.115">
        <ele>923.8</ele>
        <time>2021-06-23T08:40:57Z</time>
      </trkpt>
      <trkpt lat="48.12255" lon="7.11513">
        <ele>923</ele>
        <time>2021-06-23T08:40:58Z</time>
      </trkpt>
      <trkpt lat="48.12262" lon="7.11528">
        <ele>922</ele>
        <time>2021-06-23T08:40:59Z</time>
      </trkpt>
      <trkpt lat="48.12268" lon="7.11544">
        <ele>921.4</ele>
        <time>2021-06-23T08:41:00Z</time>
      </trkpt>
      <trkpt lat="48.12272" lon="7.11561">
        <ele>919.6</ele>
        <time>2021-06-23T08:41:01Z</time>
      </trkpt>
      <trkpt lat="48.12276" lon="7.11578">
        <ele>918</ele>
        <time>2021-06-23T08:41:02Z</time>
      </trkpt>
      <trkpt lat="48.12283" lon="7.11613">
        <ele>916.2</ele>
        <time>2021-06-23T08:41:04Z</time>
      </trkpt>
      <trkpt lat="48.12287" lon="7.11631">
        <ele>915.8</ele>
        <time>2021-06-23T08:41:05Z</time>
      </trkpt>
      <trkpt lat="48.12293" lon="7.11647">
        <ele>914.8</ele>
        <time>2021-06-23T08:41:06Z</time>
      </trkpt>
      <trkpt lat="48.12306" lon="7.11677">
        <ele>912.8</ele>
        <time>2021-06-23T08:41:08Z</time>
      </trkpt>
      <trkpt lat="48.12322" lon="7.11703">
        <ele>910.6</ele>
        <time>2021-06-23T08:41:10Z</time>
      </trkpt>
      <trkpt lat="48.12331" lon="7.11715">
        <ele>910.2</ele>
        <time>2021-06-23T08:41:11Z</time>
      </trkpt>
      <trkpt lat="48.1234" lon="7.11726">
        <ele>908.4</ele>
        <time>2021-06-23T08:41:12Z</time>
      </trkpt>
      <trkpt lat="48.12351" lon="7.11735">
        <ele>907</ele>
        <time>2021-06-23T08:41:13Z</time>
      </trkpt>
      <trkpt lat="48.12372" lon="7.11749">
        <ele>905.6</ele>
        <time>2021-06-23T08:41:15Z</time>
      </trkpt>
      <trkpt lat="48.12383" lon="7.11756">
        <ele>905.2</ele>
        <time>2021-06-23T08:41:16Z</time>
      </trkpt>
      <trkpt lat="48.12393" lon="7.11762">
        <ele>904.4</ele>
        <time>2021-06-23T08:41:17Z</time>
      </trkpt>
      <trkpt lat="48.12414" lon="7.11775">
        <ele>902.6</ele>
        <time>2021-06-23T08:41:19Z</time>
      </trkpt>
      <trkpt lat="48.12435" lon="7.11787">
        <ele>900.6</ele>
        <time>2021-06-23T08:41:21Z</time>
      </trkpt>
      <trkpt lat="48.12457" lon="7.11797">
        <ele>899.4</ele>
        <time>2021-06-23T08:41:23Z</time>
      </trkpt>
      <trkpt lat="48.1248" lon="7.11805">
        <ele>898.2</ele>
        <time>2021-06-23T08:41:25Z</time>
      </trkpt>
      <trkpt lat="48.12492" lon="7.11808">
        <ele>897.2</ele>
        <time>2021-06-23T08:41:26Z</time>
      </trkpt>
      <trkpt lat="48.12515" lon="7.11815">
        <ele>895.8</ele>
        <time>2021-06-23T08:41:28Z</time>
      </trkpt>
      <trkpt lat="48.12537" lon="7.11823">
        <ele>894.4</ele>
        <time>2021-06-23T08:41:30Z</time>
      </trkpt>
      <trkpt lat="48.12548" lon="7.11829">
        <ele>893.8</ele>
        <time>2021-06-23T08:41:31Z</time>
      </trkpt>
      <trkpt lat="48.12559" lon="7.11835">
        <ele>892.8</ele>
        <time>2021-06-23T08:41:32Z</time>
      </trkpt>
      <trkpt lat="48.12568" lon="7.11843">
        <ele>892</ele>
        <time>2021-06-23T08:41:33Z</time>
      </trkpt>
      <trkpt lat="48.12576" lon="7.11851">
        <ele>891.2</ele>
        <time>2021-06-23T08:41:34Z</time>
      </trkpt>
      <trkpt lat="48.12586" lon="7.11864">
        <ele>890.2</ele>
        <time>2021-06-23T08:41:35Z</time>
      </trkpt>
      <trkpt lat="48.12593" lon="7.11877">
        <ele>889.8</ele>
        <time>2021-06-23T08:41:36Z</time>
      </trkpt>
      <trkpt lat="48.12599" lon="7.1189">
        <ele>888.8</ele>
        <time>2021-06-23T08:41:37Z</time>
      </trkpt>
      <trkpt lat="48.12604" lon="7.11904">
        <ele>888.4</ele>
        <time>2021-06-23T08:41:38Z</time>
      </trkpt>
      <trkpt lat="48.12608" lon="7.11919">
        <ele>887.2</ele>
        <time>2021-06-23T08:41:39Z</time>
      </trkpt>
      <trkpt lat="48.1261" lon="7.11934">
        <ele>886.2</ele>
        <time>2021-06-23T08:41:40Z</time>
      </trkpt>
      <trkpt lat="48.1261" lon="7.1195">
        <ele>885</ele>
        <time>2021-06-23T08:41:41Z</time>
      </trkpt>
      <trkpt lat="48.12608" lon="7.1198">
        <ele>883.8</ele>
        <time>2021-06-23T08:41:43Z</time>
      </trkpt>
      <trkpt lat="48.126" lon="7.12013">
        <ele>882.4</ele>
        <time>2021-06-23T08:41:45Z</time>
      </trkpt>
      <trkpt lat="48.12594" lon="7.12027">
        <ele>881.2</ele>
        <time>2021-06-23T08:41:46Z</time>
      </trkpt>
      <trkpt lat="48.1258" lon="7.12053">
        <ele>879.8</ele>
        <time>2021-06-23T08:41:48Z</time>
      </trkpt>
      <trkpt lat="48.12566" lon="7.12077">
        <ele>878.6</ele>
        <time>2021-06-23T08:41:50Z</time>
      </trkpt>
      <trkpt lat="48.1255" lon="7.12101">
        <ele>876.6</ele>
        <time>2021-06-23T08:41:52Z</time>
      </trkpt>
      <trkpt lat="48.12532" lon="7.12121">
        <ele>875.8</ele>
        <time>2021-06-23T08:41:54Z</time>
      </trkpt>
      <trkpt lat="48.12522" lon="7.12127">
        <ele>874.8</ele>
        <time>2021-06-23T08:41:55Z</time>
      </trkpt>
      <trkpt lat="48.12511" lon="7.12131">
        <ele>874.6</ele>
        <time>2021-06-23T08:41:56Z</time>
      </trkpt>
      <trkpt lat="48.125" lon="7.12134">
        <ele>873.6</ele>
        <time>2021-06-23T08:41:57Z</time>
      </trkpt>
      <trkpt lat="48.12491" lon="7.12134">
        <ele>873</ele>
        <time>2021-06-23T08:41:58Z</time>
      </trkpt>
      <trkpt lat="48.1248" lon="7.12132">
        <ele>872.2</ele>
        <time>2021-06-23T08:41:59Z</time>
      </trkpt>
      <trkpt lat="48.12466" lon="7.12128">
        <ele>871.8</ele>
        <time>2021-06-23T08:42:00Z</time>
      </trkpt>
      <trkpt lat="48.12454" lon="7.12122">
        <ele>870.4</ele>
        <time>2021-06-23T08:42:01Z</time>
      </trkpt>
      <trkpt lat="48.12443" lon="7.12115">
        <ele>870</ele>
        <time>2021-06-23T08:42:02Z</time>
      </trkpt>
      <trkpt lat="48.12432" lon="7.12107">
        <ele>869</ele>
        <time>2021-06-23T08:42:03Z</time>
      </trkpt>
      <trkpt lat="48.12411" lon="7.12091">
        <ele>867.8</ele>
        <time>2021-06-23T08:42:05Z</time>
      </trkpt>
      <trkpt lat="48.12401" lon="7.12081">
        <ele>866.6</ele>
        <time>2021-06-23T08:42:06Z</time>
      </trkpt>
      <trkpt lat="48.12382" lon="7.1206">
        <ele>865</ele>
        <time>2021-06-23T08:42:08Z</time>
      </trkpt>
      <trkpt lat="48.12363" lon="7.12037">
        <ele>863.6</ele>
        <time>2021-06-23T08:42:10Z</time>
      </trkpt>
      <trkpt lat="48.12344" lon="7.12012">
        <ele>862.2</ele>
        <time>2021-06-23T08:42:12Z</time>
      </trkpt>
      <trkpt lat="48.12328" lon="7.11984">
        <ele>860.4</ele>
        <time>2021-06-23T08:42:14Z</time>
      </trkpt>
      <trkpt lat="48.1232" lon="7.1197">
        <ele>858.4</ele>
        <time>2021-06-23T08:42:15Z</time>
      </trkpt>
      <trkpt lat="48.12306" lon="7.11939">
        <ele>856.8</ele>
        <time>2021-06-23T08:42:17Z</time>
      </trkpt>
      <trkpt lat="48.12293" lon="7.11908">
        <ele>855.4</ele>
        <time>2021-06-23T08:42:19Z</time>
      </trkpt>
      <trkpt lat="48.12279" lon="7.11879">
        <ele>853.2</ele>
        <time>2021-06-23T08:42:21Z</time>
      </trkpt>
      <trkpt lat="48.12261" lon="7.11855">
        <ele>850.8</ele>
        <time>2021-06-23T08:42:23Z</time>
      </trkpt>
      <trkpt lat="48.12239" lon="7.11839">
        <ele>849.6</ele>
        <time>2021-06-23T08:42:25Z</time>
      </trkpt>
      <trkpt lat="48.12228" lon="7.11832">
        <ele>848.4</ele>
        <time>2021-06-23T08:42:26Z</time>
      </trkpt>
      <trkpt lat="48.12205" lon="7.11821">
        <ele>846.8</ele>
        <time>2021-06-23T08:42:28Z</time>
      </trkpt>
      <trkpt lat="48.12182" lon="7.11812">
        <ele>844.4</ele>
        <time>2021-06-23T08:42:30Z</time>
      </trkpt>
      <trkpt lat="48.1217" lon="7.11808">
        <ele>843.4</ele>
        <time>2021-06-23T08:42:31Z</time>
      </trkpt>
      <trkpt lat="48.12158" lon="7.11803">
        <ele>841.8</ele>
        <time>2021-06-23T08:42:32Z</time>
      </trkpt>
      <trkpt lat="48.12135" lon="7.1179">
        <ele>840.8</ele>
        <time>2021-06-23T08:42:34Z</time>
      </trkpt>
      <trkpt lat="48.12124" lon="7.11782">
        <ele>840.4</ele>
        <time>2021-06-23T08:42:35Z</time>
      </trkpt>
      <trkpt lat="48.12113" lon="7.11775">
        <ele>839.4</ele>
        <time>2021-06-23T08:42:36Z</time>
      </trkpt>
      <trkpt lat="48.12102" lon="7.11766">
        <ele>837.2</ele>
        <time>2021-06-23T08:42:37Z</time>
      </trkpt>
      <trkpt lat="48.12081" lon="7.11749">
        <ele>835.4</ele>
        <time>2021-06-23T08:42:39Z</time>
      </trkpt>
      <trkpt lat="48.12061" lon="7.11732">
        <ele>833.8</ele>
        <time>2021-06-23T08:42:41Z</time>
      </trkpt>
      <trkpt lat="48.12041" lon="7.11715">
        <ele>832</ele>
        <time>2021-06-23T08:42:43Z</time>
      </trkpt>
      <trkpt lat="48.1201" lon="7.1169">
        <ele>830.2</ele>
        <time>2021-06-23T08:42:46Z</time>
      </trkpt>
      <trkpt lat="48.11981" lon="7.11669">
        <ele>828.8</ele>
        <time>2021-06-23T08:42:49Z</time>
      </trkpt>
      <trkpt lat="48.11971" lon="7.11664">
        <ele>827.6</ele>
        <time>2021-06-23T08:42:50Z</time>
      </trkpt>
      <trkpt lat="48.11939" lon="7.11655">
        <ele>826.4</ele>
        <time>2021-06-23T08:42:53Z</time>
      </trkpt>
      <trkpt lat="48.11917" lon="7.1165">
        <ele>825.2</ele>
        <time>2021-06-23T08:42:55Z</time>
      </trkpt>
      <trkpt lat="48.11895" lon="7.11647">
        <ele>823.8</ele>
        <time>2021-06-23T08:42:57Z</time>
      </trkpt>
      <trkpt lat="48.11884" lon="7.11646">
        <ele>823.2</ele>
        <time>2021-06-23T08:42:58Z</time>
      </trkpt>
      <trkpt lat="48.11873" lon="7.11647">
        <ele>822.6</ele>
        <time>2021-06-23T08:42:59Z</time>
      </trkpt>
      <trkpt lat="48.11862" lon="7.11646">
        <ele>822</ele>
        <time>2021-06-23T08:43:00Z</time>
      </trkpt>
      <trkpt lat="48.1185" lon="7.11645">
        <ele>821</ele>
        <time>2021-06-23T08:43:01Z</time>
      </trkpt>
      <trkpt lat="48.11827" lon="7.11641">
        <ele>819</ele>
        <time>2021-06-23T08:43:03Z</time>
      </trkpt>
      <trkpt lat="48.11805" lon="7.11633">
        <ele>817.8</ele>
        <time>2021-06-23T08:43:05Z</time>
      </trkpt>
      <trkpt lat="48.11781" lon="7.11625">
        <ele>816.6</ele>
        <time>2021-06-23T08:43:07Z</time>
      </trkpt>
      <trkpt lat="48.11758" lon="7.11615">
        <ele>815</ele>
        <time>2021-06-23T08:43:09Z</time>
      </trkpt>
      <trkpt lat="48.11735" lon="7.11601">
        <ele>813.8</ele>
        <time>2021-06-23T08:43:11Z</time>
      </trkpt>
      <trkpt lat="48.11724" lon="7.11593">
        <ele>812.6</ele>
        <time>2021-06-23T08:43:12Z</time>
      </trkpt>
      <trkpt lat="48.11713" lon="7.11584">
        <ele>811.4</ele>
        <time>2021-06-23T08:43:13Z</time>
      </trkpt>
      <trkpt lat="48.11703" lon="7.11574">
        <ele>810</ele>
        <time>2021-06-23T08:43:14Z</time>
      </trkpt>
      <trkpt lat="48.11682" lon="7.11555">
        <ele>807.4</ele>
        <time>2021-06-23T08:43:16Z</time>
      </trkpt>
      <trkpt lat="48.11663" lon="7.11532">
        <ele>805.8</ele>
        <time>2021-06-23T08:43:18Z</time>
      </trkpt>
      <trkpt lat="48.11654" lon="7.1152">
        <ele>804.2</ele>
        <time>2021-06-23T08:43:19Z</time>
      </trkpt>
      <trkpt lat="48.11645" lon="7.11506">
        <ele>803.6</ele>
        <time>2021-06-23T08:43:20Z</time>
      </trkpt>
      <trkpt lat="48.11637" lon="7.11493">
        <ele>802.4</ele>
        <time>2021-06-23T08:43:21Z</time>
      </trkpt>
      <trkpt lat="48.11621" lon="7.11468">
        <ele>800.8</ele>
        <time>2021-06-23T08:43:23Z</time>
      </trkpt>
      <trkpt lat="48.11605" lon="7.11442">
        <ele>799</ele>
        <time>2021-06-23T08:43:25Z</time>
      </trkpt>
      <trkpt lat="48.11591" lon="7.11415">
        <ele>797.4</ele>
        <time>2021-06-23T08:43:27Z</time>
      </trkpt>
      <trkpt lat="48.11578" lon="7.11385">
        <ele>795.6</ele>
        <time>2021-06-23T08:43:29Z</time>
      </trkpt>
      <trkpt lat="48.11572" lon="7.1137">
        <ele>794.6</ele>
        <time>2021-06-23T08:43:30Z</time>
      </trkpt>
      <trkpt lat="48.11554" lon="7.11324">
        <ele>793</ele>
        <time>2021-06-23T08:43:33Z</time>
      </trkpt>
      <trkpt lat="48.11548" lon="7.11309">
        <ele>791.4</ele>
        <time>2021-06-23T08:43:34Z</time>
      </trkpt>
      <trkpt lat="48.11536" lon="7.11279">
        <ele>789.4</ele>
        <time>2021-06-23T08:43:36Z</time>
      </trkpt>
      <trkpt lat="48.11523" lon="7.11251">
        <ele>788.4</ele>
        <time>2021-06-23T08:43:38Z</time>
      </trkpt>
      <trkpt lat="48.11515" lon="7.11239">
        <ele>787.6</ele>
        <time>2021-06-23T08:43:39Z</time>
      </trkpt>
      <trkpt lat="48.11506" lon="7.11229">
        <ele>787.4</ele>
        <time>2021-06-23T08:43:40Z</time>
      </trkpt>
      <trkpt lat="48.11496" lon="7.1122">
        <ele>786.6</ele>
        <time>2021-06-23T08:43:41Z</time>
      </trkpt>
      <trkpt lat="48.11487" lon="7.11214">
        <ele>786</ele>
        <time>2021-06-23T08:43:42Z</time>
      </trkpt>
      <trkpt lat="48.11477" lon="7.11209">
        <ele>785</ele>
        <time>2021-06-23T08:43:43Z</time>
      </trkpt>
      <trkpt lat="48.11456" lon="7.112">
        <ele>783.4</ele>
        <time>2021-06-23T08:43:45Z</time>
      </trkpt>
      <trkpt lat="48.11446" lon="7.11195">
        <ele>783</ele>
        <time>2021-06-23T08:43:46Z</time>
      </trkpt>
      <trkpt lat="48.11436" lon="7.11191">
        <ele>782.2</ele>
        <time>2021-06-23T08:43:47Z</time>
      </trkpt>
      <trkpt lat="48.11406" lon="7.11176">
        <ele>780.6</ele>
        <time>2021-06-23T08:43:50Z</time>
      </trkpt>
      <trkpt lat="48.11375" lon="7.11161">
        <ele>779</ele>
        <time>2021-06-23T08:43:53Z</time>
      </trkpt>
      <trkpt lat="48.11353" lon="7.11153">
        <ele>778</ele>
        <time>2021-06-23T08:43:55Z</time>
      </trkpt>
      <trkpt lat="48.11342" lon="7.11151">
        <ele>777.2</ele>
        <time>2021-06-23T08:43:56Z</time>
      </trkpt>
      <trkpt lat="48.11331" lon="7.1115">
        <ele>776.6</ele>
        <time>2021-06-23T08:43:57Z</time>
      </trkpt>
      <trkpt lat="48.11321" lon="7.11151">
        <ele>775.8</ele>
        <time>2021-06-23T08:43:58Z</time>
      </trkpt>
      <trkpt lat="48.1131" lon="7.11154">
        <ele>775.6</ele>
        <time>2021-06-23T08:43:59Z</time>
      </trkpt>
      <trkpt lat="48.113" lon="7.1116">
        <ele>774.6</ele>
        <time>2021-06-23T08:44:00Z</time>
      </trkpt>
      <trkpt lat="48.1129" lon="7.11168">
        <ele>773.4</ele>
        <time>2021-06-23T08:44:01Z</time>
      </trkpt>
      <trkpt lat="48.1128" lon="7.11178">
        <ele>772.8</ele>
        <time>2021-06-23T08:44:02Z</time>
      </trkpt>
      <trkpt lat="48.11272" lon="7.11189">
        <ele>771.6</ele>
        <time>2021-06-23T08:44:03Z</time>
      </trkpt>
      <trkpt lat="48.11264" lon="7.11202">
        <ele>771.2</ele>
        <time>2021-06-23T08:44:04Z</time>
      </trkpt>
      <trkpt lat="48.11257" lon="7.11215">
        <ele>770.2</ele>
        <time>2021-06-23T08:44:05Z</time>
      </trkpt>
      <trkpt lat="48.11251" lon="7.11229">
        <ele>769.6</ele>
        <time>2021-06-23T08:44:06Z</time>
      </trkpt>
      <trkpt lat="48.11245" lon="7.11243">
        <ele>768.6</ele>
        <time>2021-06-23T08:44:07Z</time>
      </trkpt>
      <trkpt lat="48.11233" lon="7.11273">
        <ele>766</ele>
        <time>2021-06-23T08:44:09Z</time>
      </trkpt>
      <trkpt lat="48.1122" lon="7.11301">
        <ele>765</ele>
        <time>2021-06-23T08:44:11Z</time>
      </trkpt>
      <trkpt lat="48.11212" lon="7.11314">
        <ele>764.4</ele>
        <time>2021-06-23T08:44:12Z</time>
      </trkpt>
      <trkpt lat="48.11204" lon="7.11327">
        <ele>764</ele>
        <time>2021-06-23T08:44:13Z</time>
      </trkpt>
      <trkpt lat="48.11196" lon="7.11338">
        <ele>762.8</ele>
        <time>2021-06-23T08:44:14Z</time>
      </trkpt>
      <trkpt lat="48.11178" lon="7.11357">
        <ele>761.2</ele>
        <time>2021-06-23T08:44:16Z</time>
      </trkpt>
      <trkpt lat="48.11157" lon="7.11369">
        <ele>759.4</ele>
        <time>2021-06-23T08:44:18Z</time>
      </trkpt>
      <trkpt lat="48.11148" lon="7.11374">
        <ele>759.2</ele>
        <time>2021-06-23T08:44:19Z</time>
      </trkpt>
      <trkpt lat="48.11129" lon="7.11382">
        <ele>757.2</ele>
        <time>2021-06-23T08:44:21Z</time>
      </trkpt>
      <trkpt lat="48.11112" lon="7.1139">
        <ele>756.2</ele>
        <time>2021-06-23T08:44:23Z</time>
      </trkpt>
      <trkpt lat="48.11096" lon="7.11396">
        <ele>755.2</ele>
        <time>2021-06-23T08:44:25Z</time>
      </trkpt>
      <trkpt lat="48.11088" lon="7.11399">
        <ele>755</ele>
        <time>2021-06-23T08:44:26Z</time>
      </trkpt>
      <trkpt lat="48.1107" lon="7.11407">
        <ele>754.4</ele>
        <time>2021-06-23T08:44:29Z</time>
      </trkpt>
      <trkpt lat="48.11065" lon="7.1141">
        <ele>754.4</ele>
        <time>2021-06-23T08:44:30Z</time>
      </trkpt>
      <trkpt lat="48.11057" lon="7.11414">
        <ele>754.2</ele>
        <time>2021-06-23T08:44:32Z</time>
      </trkpt>
      <trkpt lat="48.11053" lon="7.11418">
        <ele>754.2</ele>
        <time>2021-06-23T08:44:35Z</time>
      </trkpt>
      <trkpt lat="48.11053" lon="7.11419">
        <ele>754.2</ele>
        <time>2021-06-23T08:44:36Z</time>
      </trkpt>
      <trkpt lat="48.11053" lon="7.11419">
        <ele>754.2</ele>
        <time>2021-06-23T08:44:38Z</time>
      </trkpt>
      <trkpt lat="48.1105" lon="7.11421">
        <ele>753.8</ele>
        <time>2021-06-23T08:45:35Z</time>
      </trkpt>
      <trkpt lat="48.11048" lon="7.11423">
        <ele>753.8</ele>
        <time>2021-06-23T08:45:36Z</time>
      </trkpt>
      <trkpt lat="48.11033" lon="7.11433">
        <ele>753.6</ele>
        <time>2021-06-23T08:45:41Z</time>
      </trkpt>
      <trkpt lat="48.1103" lon="7.11436">
        <ele>753.6</ele>
        <time>2021-06-23T08:45:42Z</time>
      </trkpt>
      <trkpt lat="48.11014" lon="7.11451">
        <ele>753.2</ele>
        <time>2021-06-23T08:45:46Z</time>
      </trkpt>
      <trkpt lat="48.11009" lon="7.11456">
        <ele>753</ele>
        <time>2021-06-23T08:45:47Z</time>
      </trkpt>
      <trkpt lat="48.11005" lon="7.11462">
        <ele>753</ele>
        <time>2021-06-23T08:45:48Z</time>
      </trkpt>
      <trkpt lat="48.10996" lon="7.11478">
        <ele>752.6</ele>
        <time>2021-06-23T08:45:50Z</time>
      </trkpt>
      <trkpt lat="48.10992" lon="7.11487">
        <ele>752.2</ele>
        <time>2021-06-23T08:45:51Z</time>
      </trkpt>
      <trkpt lat="48.10982" lon="7.11519">
        <ele>751.4</ele>
        <time>2021-06-23T08:45:54Z</time>
      </trkpt>
      <trkpt lat="48.10976" lon="7.11542">
        <ele>750.6</ele>
        <time>2021-06-23T08:45:56Z</time>
      </trkpt>
      <trkpt lat="48.10974" lon="7.11552">
        <ele>750</ele>
        <time>2021-06-23T08:45:57Z</time>
      </trkpt>
      <trkpt lat="48.10971" lon="7.11564">
        <ele>749.6</ele>
        <time>2021-06-23T08:45:58Z</time>
      </trkpt>
      <trkpt lat="48.10966" lon="7.11593">
        <ele>748.6</ele>
        <time>2021-06-23T08:46:00Z</time>
      </trkpt>
      <trkpt lat="48.10965" lon="7.11607">
        <ele>748.4</ele>
        <time>2021-06-23T08:46:01Z</time>
      </trkpt>
      <trkpt lat="48.10966" lon="7.11634">
        <ele>747.4</ele>
        <time>2021-06-23T08:46:03Z</time>
      </trkpt>
      <trkpt lat="48.1097" lon="7.11667">
        <ele>745.8</ele>
        <time>2021-06-23T08:46:05Z</time>
      </trkpt>
      <trkpt lat="48.10973" lon="7.11681">
        <ele>745.6</ele>
        <time>2021-06-23T08:46:06Z</time>
      </trkpt>
      <trkpt lat="48.10977" lon="7.11695">
        <ele>744.8</ele>
        <time>2021-06-23T08:46:07Z</time>
      </trkpt>
      <trkpt lat="48.10983" lon="7.11708">
        <ele>744.4</ele>
        <time>2021-06-23T08:46:08Z</time>
      </trkpt>
      <trkpt lat="48.10989" lon="7.11717">
        <ele>742.8</ele>
        <time>2021-06-23T08:46:09Z</time>
      </trkpt>
      <trkpt lat="48.10998" lon="7.1173">
        <ele>742</ele>
        <time>2021-06-23T08:46:10Z</time>
      </trkpt>
      <trkpt lat="48.11006" lon="7.11739">
        <ele>740.8</ele>
        <time>2021-06-23T08:46:11Z</time>
      </trkpt>
      <trkpt lat="48.11023" lon="7.11755">
        <ele>739.4</ele>
        <time>2021-06-23T08:46:13Z</time>
      </trkpt>
      <trkpt lat="48.11053" lon="7.11785">
        <ele>737.2</ele>
        <time>2021-06-23T08:46:16Z</time>
      </trkpt>
      <trkpt lat="48.11073" lon="7.11805">
        <ele>736</ele>
        <time>2021-06-23T08:46:18Z</time>
      </trkpt>
      <trkpt lat="48.11091" lon="7.11824">
        <ele>733.8</ele>
        <time>2021-06-23T08:46:20Z</time>
      </trkpt>
      <trkpt lat="48.11104" lon="7.11837">
        <ele>733.2</ele>
        <time>2021-06-23T08:46:21Z</time>
      </trkpt>
      <trkpt lat="48.11115" lon="7.11848">
        <ele>731.6</ele>
        <time>2021-06-23T08:46:22Z</time>
      </trkpt>
      <trkpt lat="48.11134" lon="7.11867">
        <ele>729</ele>
        <time>2021-06-23T08:46:24Z</time>
      </trkpt>
      <trkpt lat="48.11144" lon="7.11877">
        <ele>727.4</ele>
        <time>2021-06-23T08:46:25Z</time>
      </trkpt>
      <trkpt lat="48.11155" lon="7.11889">
        <ele>726.2</ele>
        <time>2021-06-23T08:46:26Z</time>
      </trkpt>
      <trkpt lat="48.11165" lon="7.11899">
        <ele>725</ele>
        <time>2021-06-23T08:46:27Z</time>
      </trkpt>
      <trkpt lat="48.11176" lon="7.11909">
        <ele>723.6</ele>
        <time>2021-06-23T08:46:28Z</time>
      </trkpt>
      <trkpt lat="48.11187" lon="7.11917">
        <ele>721.2</ele>
        <time>2021-06-23T08:46:29Z</time>
      </trkpt>
      <trkpt lat="48.11196" lon="7.11921">
        <ele>720.6</ele>
        <time>2021-06-23T08:46:30Z</time>
      </trkpt>
      <trkpt lat="48.11208" lon="7.11924">
        <ele>718.8</ele>
        <time>2021-06-23T08:46:31Z</time>
      </trkpt>
      <trkpt lat="48.11234" lon="7.11923">
        <ele>717</ele>
        <time>2021-06-23T08:46:33Z</time>
      </trkpt>
      <trkpt lat="48.11256" lon="7.11916">
        <ele>715.2</ele>
        <time>2021-06-23T08:46:35Z</time>
      </trkpt>
      <trkpt lat="48.11268" lon="7.11911">
        <ele>713.4</ele>
        <time>2021-06-23T08:46:36Z</time>
      </trkpt>
      <trkpt lat="48.11282" lon="7.11904">
        <ele>712.8</ele>
        <time>2021-06-23T08:46:37Z</time>
      </trkpt>
      <trkpt lat="48.11293" lon="7.11898">
        <ele>711.8</ele>
        <time>2021-06-23T08:46:38Z</time>
      </trkpt>
      <trkpt lat="48.11327" lon="7.11886">
        <ele>710.4</ele>
        <time>2021-06-23T08:46:41Z</time>
      </trkpt>
      <trkpt lat="48.11339" lon="7.11885">
        <ele>708.8</ele>
        <time>2021-06-23T08:46:42Z</time>
      </trkpt>
      <trkpt lat="48.11362" lon="7.11891">
        <ele>707</ele>
        <time>2021-06-23T08:46:44Z</time>
      </trkpt>
      <trkpt lat="48.11373" lon="7.11895">
        <ele>706.2</ele>
        <time>2021-06-23T08:46:45Z</time>
      </trkpt>
      <trkpt lat="48.11383" lon="7.11903">
        <ele>705.8</ele>
        <time>2021-06-23T08:46:46Z</time>
      </trkpt>
      <trkpt lat="48.11393" lon="7.11912">
        <ele>704</ele>
        <time>2021-06-23T08:46:47Z</time>
      </trkpt>
      <trkpt lat="48.11403" lon="7.11923">
        <ele>703.2</ele>
        <time>2021-06-23T08:46:48Z</time>
      </trkpt>
      <trkpt lat="48.11411" lon="7.11935">
        <ele>702</ele>
        <time>2021-06-23T08:46:49Z</time>
      </trkpt>
      <trkpt lat="48.11426" lon="7.11961">
        <ele>700.4</ele>
        <time>2021-06-23T08:46:51Z</time>
      </trkpt>
      <trkpt lat="48.11441" lon="7.11987">
        <ele>698.2</ele>
        <time>2021-06-23T08:46:53Z</time>
      </trkpt>
      <trkpt lat="48.11456" lon="7.12015">
        <ele>696.2</ele>
        <time>2021-06-23T08:46:55Z</time>
      </trkpt>
      <trkpt lat="48.11469" lon="7.12045">
        <ele>694.8</ele>
        <time>2021-06-23T08:46:57Z</time>
      </trkpt>
      <trkpt lat="48.11474" lon="7.12061">
        <ele>693.8</ele>
        <time>2021-06-23T08:46:58Z</time>
      </trkpt>
      <trkpt lat="48.11479" lon="7.12078">
        <ele>693.2</ele>
        <time>2021-06-23T08:46:59Z</time>
      </trkpt>
      <trkpt lat="48.11484" lon="7.12095">
        <ele>691.4</ele>
        <time>2021-06-23T08:47:00Z</time>
      </trkpt>
      <trkpt lat="48.11496" lon="7.12129">
        <ele>689.2</ele>
        <time>2021-06-23T08:47:02Z</time>
      </trkpt>
      <trkpt lat="48.11501" lon="7.12147">
        <ele>688.4</ele>
        <time>2021-06-23T08:47:03Z</time>
      </trkpt>
      <trkpt lat="48.11505" lon="7.12165">
        <ele>687.2</ele>
        <time>2021-06-23T08:47:04Z</time>
      </trkpt>
      <trkpt lat="48.1151" lon="7.12184">
        <ele>685.6</ele>
        <time>2021-06-23T08:47:05Z</time>
      </trkpt>
      <trkpt lat="48.11513" lon="7.12203">
        <ele>684.4</ele>
        <time>2021-06-23T08:47:06Z</time>
      </trkpt>
      <trkpt lat="48.11516" lon="7.12223">
        <ele>682.6</ele>
        <time>2021-06-23T08:47:07Z</time>
      </trkpt>
      <trkpt lat="48.11522" lon="7.12261">
        <ele>680.4</ele>
        <time>2021-06-23T08:47:09Z</time>
      </trkpt>
      <trkpt lat="48.11527" lon="7.12301">
        <ele>677.8</ele>
        <time>2021-06-23T08:47:11Z</time>
      </trkpt>
      <trkpt lat="48.11535" lon="7.12339">
        <ele>675</ele>
        <time>2021-06-23T08:47:13Z</time>
      </trkpt>
      <trkpt lat="48.1154" lon="7.12358">
        <ele>674</ele>
        <time>2021-06-23T08:47:14Z</time>
      </trkpt>
      <trkpt lat="48.11546" lon="7.12377">
        <ele>672.2</ele>
        <time>2021-06-23T08:47:15Z</time>
      </trkpt>
      <trkpt lat="48.11552" lon="7.12396">
        <ele>670.6</ele>
        <time>2021-06-23T08:47:16Z</time>
      </trkpt>
      <trkpt lat="48.11566" lon="7.12434">
        <ele>667.6</ele>
        <time>2021-06-23T08:47:18Z</time>
      </trkpt>
      <trkpt lat="48.11581" lon="7.1247">
        <ele>664.6</ele>
        <time>2021-06-23T08:47:20Z</time>
      </trkpt>
      <trkpt lat="48.11595" lon="7.12506">
        <ele>662</ele>
        <time>2021-06-23T08:47:22Z</time>
      </trkpt>
      <trkpt lat="48.11609" lon="7.12541">
        <ele>659.4</ele>
        <time>2021-06-23T08:47:24Z</time>
      </trkpt>
      <trkpt lat="48.11615" lon="7.12558">
        <ele>657.6</ele>
        <time>2021-06-23T08:47:25Z</time>
      </trkpt>
      <trkpt lat="48.11627" lon="7.12591">
        <ele>655.8</ele>
        <time>2021-06-23T08:47:27Z</time>
      </trkpt>
      <trkpt lat="48.11631" lon="7.12607">
        <ele>654.4</ele>
        <time>2021-06-23T08:47:28Z</time>
      </trkpt>
      <trkpt lat="48.11634" lon="7.12623">
        <ele>652.4</ele>
        <time>2021-06-23T08:47:29Z</time>
      </trkpt>
      <trkpt lat="48.11637" lon="7.12639">
        <ele>651.4</ele>
        <time>2021-06-23T08:47:30Z</time>
      </trkpt>
      <trkpt lat="48.11639" lon="7.12655">
        <ele>649.2</ele>
        <time>2021-06-23T08:47:31Z</time>
      </trkpt>
      <trkpt lat="48.1164" lon="7.12672">
        <ele>648.2</ele>
        <time>2021-06-23T08:47:32Z</time>
      </trkpt>
      <trkpt lat="48.11641" lon="7.12689">
        <ele>646.8</ele>
        <time>2021-06-23T08:47:33Z</time>
      </trkpt>
      <trkpt lat="48.11641" lon="7.12723">
        <ele>645.2</ele>
        <time>2021-06-23T08:47:35Z</time>
      </trkpt>
      <trkpt lat="48.1164" lon="7.12741">
        <ele>643.6</ele>
        <time>2021-06-23T08:47:36Z</time>
      </trkpt>
      <trkpt lat="48.11639" lon="7.12755">
        <ele>642.4</ele>
        <time>2021-06-23T08:47:37Z</time>
      </trkpt>
      <trkpt lat="48.11639" lon="7.12776">
        <ele>640.4</ele>
        <time>2021-06-23T08:47:38Z</time>
      </trkpt>
      <trkpt lat="48.1164" lon="7.12813">
        <ele>638.8</ele>
        <time>2021-06-23T08:47:40Z</time>
      </trkpt>
      <trkpt lat="48.11644" lon="7.12849">
        <ele>636.4</ele>
        <time>2021-06-23T08:47:42Z</time>
      </trkpt>
      <trkpt lat="48.11652" lon="7.12885">
        <ele>634.4</ele>
        <time>2021-06-23T08:47:44Z</time>
      </trkpt>
      <trkpt lat="48.11656" lon="7.12902">
        <ele>632.8</ele>
        <time>2021-06-23T08:47:45Z</time>
      </trkpt>
      <trkpt lat="48.11661" lon="7.12918">
        <ele>632.2</ele>
        <time>2021-06-23T08:47:46Z</time>
      </trkpt>
      <trkpt lat="48.11667" lon="7.12934">
        <ele>629.8</ele>
        <time>2021-06-23T08:47:47Z</time>
      </trkpt>
      <trkpt lat="48.11673" lon="7.1295">
        <ele>628.8</ele>
        <time>2021-06-23T08:47:48Z</time>
      </trkpt>
      <trkpt lat="48.11679" lon="7.12966">
        <ele>627.2</ele>
        <time>2021-06-23T08:47:49Z</time>
      </trkpt>
      <trkpt lat="48.11685" lon="7.12981">
        <ele>625.8</ele>
        <time>2021-06-23T08:47:50Z</time>
      </trkpt>
      <trkpt lat="48.11692" lon="7.12997">
        <ele>623.8</ele>
        <time>2021-06-23T08:47:51Z</time>
      </trkpt>
      <trkpt lat="48.11697" lon="7.13009">
        <ele>623.4</ele>
        <time>2021-06-23T08:47:52Z</time>
      </trkpt>
      <trkpt lat="48.11704" lon="7.13028">
        <ele>622.6</ele>
        <time>2021-06-23T08:47:53Z</time>
      </trkpt>
      <trkpt lat="48.11716" lon="7.13059">
        <ele>621.6</ele>
        <time>2021-06-23T08:47:55Z</time>
      </trkpt>
      <trkpt lat="48.11721" lon="7.13074">
        <ele>620</ele>
        <time>2021-06-23T08:47:56Z</time>
      </trkpt>
      <trkpt lat="48.11725" lon="7.13091">
        <ele>619</ele>
        <time>2021-06-23T08:47:57Z</time>
      </trkpt>
      <trkpt lat="48.11729" lon="7.13107">
        <ele>617.4</ele>
        <time>2021-06-23T08:47:58Z</time>
      </trkpt>
      <trkpt lat="48.11735" lon="7.13141">
        <ele>615.4</ele>
        <time>2021-06-23T08:48:00Z</time>
      </trkpt>
      <trkpt lat="48.1174" lon="7.13176">
        <ele>613.8</ele>
        <time>2021-06-23T08:48:02Z</time>
      </trkpt>
      <trkpt lat="48.11743" lon="7.13194">
        <ele>613.4</ele>
        <time>2021-06-23T08:48:03Z</time>
      </trkpt>
      <trkpt lat="48.11749" lon="7.13229">
        <ele>612.4</ele>
        <time>2021-06-23T08:48:05Z</time>
      </trkpt>
      <trkpt lat="48.11754" lon="7.13261">
        <ele>610.2</ele>
        <time>2021-06-23T08:48:07Z</time>
      </trkpt>
      <trkpt lat="48.11761" lon="7.13299">
        <ele>608.8</ele>
        <time>2021-06-23T08:48:09Z</time>
      </trkpt>
      <trkpt lat="48.11767" lon="7.13333">
        <ele>606.6</ele>
        <time>2021-06-23T08:48:11Z</time>
      </trkpt>
      <trkpt lat="48.1177" lon="7.13347">
        <ele>605.6</ele>
        <time>2021-06-23T08:48:12Z</time>
      </trkpt>
      <trkpt lat="48.11775" lon="7.13366">
        <ele>604.2</ele>
        <time>2021-06-23T08:48:13Z</time>
      </trkpt>
      <trkpt lat="48.11784" lon="7.13398">
        <ele>602.2</ele>
        <time>2021-06-23T08:48:15Z</time>
      </trkpt>
      <trkpt lat="48.11789" lon="7.13414">
        <ele>601</ele>
        <time>2021-06-23T08:48:16Z</time>
      </trkpt>
      <trkpt lat="48.11797" lon="7.13443">
        <ele>599.2</ele>
        <time>2021-06-23T08:48:18Z</time>
      </trkpt>
      <trkpt lat="48.11802" lon="7.13462">
        <ele>598.6</ele>
        <time>2021-06-23T08:48:19Z</time>
      </trkpt>
      <trkpt lat="48.11807" lon="7.13477">
        <ele>597.6</ele>
        <time>2021-06-23T08:48:20Z</time>
      </trkpt>
      <trkpt lat="48.11816" lon="7.13506">
        <ele>596.6</ele>
        <time>2021-06-23T08:48:22Z</time>
      </trkpt>
      <trkpt lat="48.11827" lon="7.13557">
        <ele>594.8</ele>
        <time>2021-06-23T08:48:25Z</time>
      </trkpt>
      <trkpt lat="48.1183" lon="7.13574">
        <ele>594.4</ele>
        <time>2021-06-23T08:48:26Z</time>
      </trkpt>
      <trkpt lat="48.11832" lon="7.13588">
        <ele>593.2</ele>
        <time>2021-06-23T08:48:27Z</time>
      </trkpt>
      <trkpt lat="48.11833" lon="7.13606">
        <ele>592.4</ele>
        <time>2021-06-23T08:48:28Z</time>
      </trkpt>
      <trkpt lat="48.11834" lon="7.13627">
        <ele>590.6</ele>
        <time>2021-06-23T08:48:29Z</time>
      </trkpt>
      <trkpt lat="48.11833" lon="7.13644">
        <ele>589.8</ele>
        <time>2021-06-23T08:48:30Z</time>
      </trkpt>
      <trkpt lat="48.11833" lon="7.13661">
        <ele>589</ele>
        <time>2021-06-23T08:48:31Z</time>
      </trkpt>
      <trkpt lat="48.1183" lon="7.13696">
        <ele>587.4</ele>
        <time>2021-06-23T08:48:33Z</time>
      </trkpt>
      <trkpt lat="48.11828" lon="7.13713">
        <ele>586.2</ele>
        <time>2021-06-23T08:48:34Z</time>
      </trkpt>
      <trkpt lat="48.11825" lon="7.13748">
        <ele>584.8</ele>
        <time>2021-06-23T08:48:36Z</time>
      </trkpt>
      <trkpt lat="48.11823" lon="7.13779">
        <ele>583.2</ele>
        <time>2021-06-23T08:48:38Z</time>
      </trkpt>
      <trkpt lat="48.11819" lon="7.13817">
        <ele>581.6</ele>
        <time>2021-06-23T08:48:40Z</time>
      </trkpt>
      <trkpt lat="48.11817" lon="7.13851">
        <ele>579.2</ele>
        <time>2021-06-23T08:48:42Z</time>
      </trkpt>
      <trkpt lat="48.11814" lon="7.13886">
        <ele>577.6</ele>
        <time>2021-06-23T08:48:44Z</time>
      </trkpt>
      <trkpt lat="48.11813" lon="7.13903">
        <ele>576.6</ele>
        <time>2021-06-23T08:48:45Z</time>
      </trkpt>
      <trkpt lat="48.1181" lon="7.13937">
        <ele>575.4</ele>
        <time>2021-06-23T08:48:47Z</time>
      </trkpt>
      <trkpt lat="48.11806" lon="7.1397">
        <ele>573</ele>
        <time>2021-06-23T08:48:49Z</time>
      </trkpt>
      <trkpt lat="48.11802" lon="7.14001">
        <ele>571.6</ele>
        <time>2021-06-23T08:48:51Z</time>
      </trkpt>
      <trkpt lat="48.11799" lon="7.14016">
        <ele>571.4</ele>
        <time>2021-06-23T08:48:52Z</time>
      </trkpt>
      <trkpt lat="48.11797" lon="7.14031">
        <ele>570.4</ele>
        <time>2021-06-23T08:48:53Z</time>
      </trkpt>
      <trkpt lat="48.11795" lon="7.14046">
        <ele>569</ele>
        <time>2021-06-23T08:48:54Z</time>
      </trkpt>
      <trkpt lat="48.11793" lon="7.14061">
        <ele>568</ele>
        <time>2021-06-23T08:48:55Z</time>
      </trkpt>
      <trkpt lat="48.11792" lon="7.14077">
        <ele>566.8</ele>
        <time>2021-06-23T08:48:56Z</time>
      </trkpt>
      <trkpt lat="48.11791" lon="7.14092">
        <ele>566.6</ele>
        <time>2021-06-23T08:48:57Z</time>
      </trkpt>
      <trkpt lat="48.11793" lon="7.14123">
        <ele>565.8</ele>
        <time>2021-06-23T08:48:59Z</time>
      </trkpt>
      <trkpt lat="48.11796" lon="7.1417">
        <ele>564.2</ele>
        <time>2021-06-23T08:49:02Z</time>
      </trkpt>
      <trkpt lat="48.11798" lon="7.14202">
        <ele>563.2</ele>
        <time>2021-06-23T08:49:04Z</time>
      </trkpt>
      <trkpt lat="48.11799" lon="7.14249">
        <ele>561.6</ele>
        <time>2021-06-23T08:49:07Z</time>
      </trkpt>
      <trkpt lat="48.11799" lon="7.14281">
        <ele>559.8</ele>
        <time>2021-06-23T08:49:09Z</time>
      </trkpt>
      <trkpt lat="48.11799" lon="7.14312">
        <ele>558.2</ele>
        <time>2021-06-23T08:49:11Z</time>
      </trkpt>
      <trkpt lat="48.118" lon="7.14339">
        <ele>556.8</ele>
        <time>2021-06-23T08:49:13Z</time>
      </trkpt>
      <trkpt lat="48.11801" lon="7.14355">
        <ele>556</ele>
        <time>2021-06-23T08:49:14Z</time>
      </trkpt>
      <trkpt lat="48.11804" lon="7.1437">
        <ele>555.8</ele>
        <time>2021-06-23T08:49:15Z</time>
      </trkpt>
      <trkpt lat="48.11808" lon="7.14387">
        <ele>554.6</ele>
        <time>2021-06-23T08:49:16Z</time>
      </trkpt>
      <trkpt lat="48.11816" lon="7.14412">
        <ele>553.6</ele>
        <time>2021-06-23T08:49:18Z</time>
      </trkpt>
      <trkpt lat="48.11821" lon="7.14426">
        <ele>553.2</ele>
        <time>2021-06-23T08:49:19Z</time>
      </trkpt>
      <trkpt lat="48.11828" lon="7.14441">
        <ele>552.4</ele>
        <time>2021-06-23T08:49:20Z</time>
      </trkpt>
      <trkpt lat="48.11841" lon="7.14464">
        <ele>551</ele>
        <time>2021-06-23T08:49:22Z</time>
      </trkpt>
      <trkpt lat="48.11847" lon="7.14472">
        <ele>550.2</ele>
        <time>2021-06-23T08:49:23Z</time>
      </trkpt>
      <trkpt lat="48.11855" lon="7.14482">
        <ele>549.6</ele>
        <time>2021-06-23T08:49:24Z</time>
      </trkpt>
      <trkpt lat="48.11874" lon="7.14501">
        <ele>548.2</ele>
        <time>2021-06-23T08:49:26Z</time>
      </trkpt>
      <trkpt lat="48.11883" lon="7.14509">
        <ele>547.2</ele>
        <time>2021-06-23T08:49:27Z</time>
      </trkpt>
      <trkpt lat="48.11899" lon="7.14522">
        <ele>546</ele>
        <time>2021-06-23T08:49:29Z</time>
      </trkpt>
      <trkpt lat="48.11926" lon="7.14542">
        <ele>544.6</ele>
        <time>2021-06-23T08:49:32Z</time>
      </trkpt>
      <trkpt lat="48.11944" lon="7.14555">
        <ele>543.2</ele>
        <time>2021-06-23T08:49:34Z</time>
      </trkpt>
      <trkpt lat="48.11954" lon="7.14564">
        <ele>543</ele>
        <time>2021-06-23T08:49:35Z</time>
      </trkpt>
      <trkpt lat="48.1196" lon="7.14571">
        <ele>541.8</ele>
        <time>2021-06-23T08:49:36Z</time>
      </trkpt>
      <trkpt lat="48.11968" lon="7.14584">
        <ele>541.4</ele>
        <time>2021-06-23T08:49:37Z</time>
      </trkpt>
      <trkpt lat="48.11973" lon="7.14593">
        <ele>540.8</ele>
        <time>2021-06-23T08:49:38Z</time>
      </trkpt>
      <trkpt lat="48.11997" lon="7.14642">
        <ele>539.2</ele>
        <time>2021-06-23T08:49:42Z</time>
      </trkpt>
      <trkpt lat="48.12003" lon="7.14653">
        <ele>538.6</ele>
        <time>2021-06-23T08:49:43Z</time>
      </trkpt>
      <trkpt lat="48.12007" lon="7.14661">
        <ele>538</ele>
        <time>2021-06-23T08:49:44Z</time>
      </trkpt>
      <trkpt lat="48.1202" lon="7.14683">
        <ele>537</ele>
        <time>2021-06-23T08:49:46Z</time>
      </trkpt>
      <trkpt lat="48.12036" lon="7.1471">
        <ele>535.8</ele>
        <time>2021-06-23T08:49:49Z</time>
      </trkpt>
      <trkpt lat="48.12042" lon="7.1472">
        <ele>535.4</ele>
        <time>2021-06-23T08:49:50Z</time>
      </trkpt>
      <trkpt lat="48.12052" lon="7.14743">
        <ele>534.4</ele>
        <time>2021-06-23T08:49:52Z</time>
      </trkpt>
      <trkpt lat="48.12064" lon="7.14774">
        <ele>533.2</ele>
        <time>2021-06-23T08:49:55Z</time>
      </trkpt>
      <trkpt lat="48.12079" lon="7.14808">
        <ele>532</ele>
        <time>2021-06-23T08:49:58Z</time>
      </trkpt>
      <trkpt lat="48.12089" lon="7.14827">
        <ele>531</ele>
        <time>2021-06-23T08:50:00Z</time>
      </trkpt>
      <trkpt lat="48.12107" lon="7.14861">
        <ele>529.2</ele>
        <time>2021-06-23T08:50:03Z</time>
      </trkpt>
      <trkpt lat="48.12117" lon="7.14879">
        <ele>527.6</ele>
        <time>2021-06-23T08:50:05Z</time>
      </trkpt>
      <trkpt lat="48.12128" lon="7.14901">
        <ele>526.2</ele>
        <time>2021-06-23T08:50:07Z</time>
      </trkpt>
      <trkpt lat="48.12134" lon="7.14911">
        <ele>526</ele>
        <time>2021-06-23T08:50:08Z</time>
      </trkpt>
      <trkpt lat="48.12149" lon="7.14942">
        <ele>524.6</ele>
        <time>2021-06-23T08:50:11Z</time>
      </trkpt>
      <trkpt lat="48.1216" lon="7.14962">
        <ele>524</ele>
        <time>2021-06-23T08:50:13Z</time>
      </trkpt>
      <trkpt lat="48.1217" lon="7.14979">
        <ele>523.4</ele>
        <time>2021-06-23T08:50:15Z</time>
      </trkpt>
      <trkpt lat="48.12176" lon="7.1499">
        <ele>522.4</ele>
        <time>2021-06-23T08:50:16Z</time>
      </trkpt>
      <trkpt lat="48.12192" lon="7.15017">
        <ele>521</ele>
        <time>2021-06-23T08:50:19Z</time>
      </trkpt>
      <trkpt lat="48.12197" lon="7.15024">
        <ele>520.2</ele>
        <time>2021-06-23T08:50:20Z</time>
      </trkpt>
      <trkpt lat="48.12202" lon="7.15035">
        <ele>519.4</ele>
        <time>2021-06-23T08:50:21Z</time>
      </trkpt>
      <trkpt lat="48.12222" lon="7.15072">
        <ele>518.2</ele>
        <time>2021-06-23T08:50:25Z</time>
      </trkpt>
      <trkpt lat="48.1224" lon="7.15105">
        <ele>517.2</ele>
        <time>2021-06-23T08:50:28Z</time>
      </trkpt>
      <trkpt lat="48.12246" lon="7.15116">
        <ele>516.6</ele>
        <time>2021-06-23T08:50:29Z</time>
      </trkpt>
      <trkpt lat="48.12258" lon="7.15136">
        <ele>515.4</ele>
        <time>2021-06-23T08:50:31Z</time>
      </trkpt>
      <trkpt lat="48.12269" lon="7.15157">
        <ele>514.2</ele>
        <time>2021-06-23T08:50:33Z</time>
      </trkpt>
      <trkpt lat="48.12275" lon="7.15167">
        <ele>513.4</ele>
        <time>2021-06-23T08:50:34Z</time>
      </trkpt>
      <trkpt lat="48.1228" lon="7.15174">
        <ele>513</ele>
        <time>2021-06-23T08:50:35Z</time>
      </trkpt>
      <trkpt lat="48.12297" lon="7.15203">
        <ele>511.8</ele>
        <time>2021-06-23T08:50:38Z</time>
      </trkpt>
      <trkpt lat="48.12301" lon="7.1521">
        <ele>511.6</ele>
        <time>2021-06-23T08:50:39Z</time>
      </trkpt>
      <trkpt lat="48.12312" lon="7.1523">
        <ele>510.6</ele>
        <time>2021-06-23T08:50:42Z</time>
      </trkpt>
      <trkpt lat="48.12315" lon="7.15235">
        <ele>510.2</ele>
        <time>2021-06-23T08:50:43Z</time>
      </trkpt>
      <trkpt lat="48.12322" lon="7.15247">
        <ele>509.6</ele>
        <time>2021-06-23T08:50:47Z</time>
      </trkpt>
      <trkpt lat="48.12324" lon="7.15251">
        <ele>509.2</ele>
        <time>2021-06-23T08:50:51Z</time>
      </trkpt>
      <trkpt lat="48.12325" lon="7.15252">
        <ele>509</ele>
        <time>2021-06-23T08:50:52Z</time>
      </trkpt>
      <trkpt lat="48.12336" lon="7.15263">
        <ele>508.6</ele>
        <time>2021-06-23T08:50:56Z</time>
      </trkpt>
      <trkpt lat="48.12345" lon="7.15271">
        <ele>508.2</ele>
        <time>2021-06-23T08:50:58Z</time>
      </trkpt>
      <trkpt lat="48.12356" lon="7.15277">
        <ele>507.8</ele>
        <time>2021-06-23T08:51:00Z</time>
      </trkpt>
      <trkpt lat="48.12375" lon="7.15282">
        <ele>507.4</ele>
        <time>2021-06-23T08:51:03Z</time>
      </trkpt>
      <trkpt lat="48.12388" lon="7.15283">
        <ele>507</ele>
        <time>2021-06-23T08:51:05Z</time>
      </trkpt>
      <trkpt lat="48.12423" lon="7.15287">
        <ele>506.2</ele>
        <time>2021-06-23T08:51:10Z</time>
      </trkpt>
      <trkpt lat="48.1243" lon="7.15289">
        <ele>506</ele>
        <time>2021-06-23T08:51:11Z</time>
      </trkpt>
      <trkpt lat="48.12466" lon="7.15299">
        <ele>505.2</ele>
        <time>2021-06-23T08:51:16Z</time>
      </trkpt>
      <trkpt lat="48.12473" lon="7.15302">
        <ele>505</ele>
        <time>2021-06-23T08:51:17Z</time>
      </trkpt>
      <trkpt lat="48.12488" lon="7.15314">
        <ele>504.4</ele>
        <time>2021-06-23T08:51:19Z</time>
      </trkpt>
      <trkpt lat="48.12499" lon="7.15327">
        <ele>504</ele>
        <time>2021-06-23T08:51:21Z</time>
      </trkpt>
      <trkpt lat="48.12517" lon="7.15353">
        <ele>503.6</ele>
        <time>2021-06-23T08:51:24Z</time>
      </trkpt>
      <trkpt lat="48.12526" lon="7.15369">
        <ele>503.2</ele>
        <time>2021-06-23T08:51:26Z</time>
      </trkpt>
      <trkpt lat="48.12531" lon="7.15381">
        <ele>503</ele>
        <time>2021-06-23T08:51:27Z</time>
      </trkpt>
      <trkpt lat="48.12538" lon="7.15404">
        <ele>502</ele>
        <time>2021-06-23T08:51:29Z</time>
      </trkpt>
      <trkpt lat="48.1254" lon="7.15416">
        <ele>501.6</ele>
        <time>2021-06-23T08:51:30Z</time>
      </trkpt>
      <trkpt lat="48.12545" lon="7.15438">
        <ele>501</ele>
        <time>2021-06-23T08:51:32Z</time>
      </trkpt>
      <trkpt lat="48.12547" lon="7.15454">
        <ele>500.6</ele>
        <time>2021-06-23T08:51:33Z</time>
      </trkpt>
      <trkpt lat="48.12548" lon="7.15466">
        <ele>500.2</ele>
        <time>2021-06-23T08:51:34Z</time>
      </trkpt>
      <trkpt lat="48.12549" lon="7.15492">
        <ele>499</ele>
        <time>2021-06-23T08:51:36Z</time>
      </trkpt>
      <trkpt lat="48.12548" lon="7.15505">
        <ele>497.8</ele>
        <time>2021-06-23T08:51:37Z</time>
      </trkpt>
      <trkpt lat="48.12548" lon="7.15518">
        <ele>497.6</ele>
        <time>2021-06-23T08:51:38Z</time>
      </trkpt>
      <trkpt lat="48.1255" lon="7.1553">
        <ele>496.8</ele>
        <time>2021-06-23T08:51:39Z</time>
      </trkpt>
      <trkpt lat="48.12552" lon="7.15542">
        <ele>496.4</ele>
        <time>2021-06-23T08:51:40Z</time>
      </trkpt>
      <trkpt lat="48.12561" lon="7.15562">
        <ele>495.4</ele>
        <time>2021-06-23T08:51:42Z</time>
      </trkpt>
      <trkpt lat="48.12577" lon="7.1558">
        <ele>494.4</ele>
        <time>2021-06-23T08:51:44Z</time>
      </trkpt>
      <trkpt lat="48.12591" lon="7.15595">
        <ele>493.2</ele>
        <time>2021-06-23T08:51:46Z</time>
      </trkpt>
      <trkpt lat="48.12602" lon="7.15608">
        <ele>492.2</ele>
        <time>2021-06-23T08:51:48Z</time>
      </trkpt>
      <trkpt lat="48.12606" lon="7.15615">
        <ele>491.8</ele>
        <time>2021-06-23T08:51:49Z</time>
      </trkpt>
      <trkpt lat="48.12608" lon="7.15623">
        <ele>491.4</ele>
        <time>2021-06-23T08:51:50Z</time>
      </trkpt>
      <trkpt lat="48.1261" lon="7.15631">
        <ele>491</ele>
        <time>2021-06-23T08:51:51Z</time>
      </trkpt>
      <trkpt lat="48.1261" lon="7.15641">
        <ele>490.8</ele>
        <time>2021-06-23T08:51:52Z</time>
      </trkpt>
      <trkpt lat="48.1261" lon="7.15661">
        <ele>490</ele>
        <time>2021-06-23T08:51:54Z</time>
      </trkpt>
      <trkpt lat="48.1261" lon="7.15693">
        <ele>489</ele>
        <time>2021-06-23T08:51:57Z</time>
      </trkpt>
      <trkpt lat="48.12609" lon="7.15703">
        <ele>489</ele>
        <time>2021-06-23T08:51:58Z</time>
      </trkpt>
      <trkpt lat="48.12609" lon="7.15722">
        <ele>487.8</ele>
        <time>2021-06-23T08:52:00Z</time>
      </trkpt>
      <trkpt lat="48.12609" lon="7.15758">
        <ele>487</ele>
        <time>2021-06-23T08:52:04Z</time>
      </trkpt>
      <trkpt lat="48.12609" lon="7.15767">
        <ele>486.8</ele>
        <time>2021-06-23T08:52:05Z</time>
      </trkpt>
      <trkpt lat="48.12612" lon="7.15809">
        <ele>486</ele>
        <time>2021-06-23T08:52:10Z</time>
      </trkpt>
      <trkpt lat="48.12618" lon="7.15844">
        <ele>485.6</ele>
        <time>2021-06-23T08:52:14Z</time>
      </trkpt>
      <trkpt lat="48.12622" lon="7.15861">
        <ele>485.2</ele>
        <time>2021-06-23T08:52:16Z</time>
      </trkpt>
      <trkpt lat="48.12625" lon="7.15877">
        <ele>484.8</ele>
        <time>2021-06-23T08:52:18Z</time>
      </trkpt>
      <trkpt lat="48.1263" lon="7.15919">
        <ele>483.6</ele>
        <time>2021-06-23T08:52:23Z</time>
      </trkpt>
      <trkpt lat="48.1263" lon="7.15928">
        <ele>483.4</ele>
        <time>2021-06-23T08:52:24Z</time>
      </trkpt>
      <trkpt lat="48.12632" lon="7.15977">
        <ele>482.6</ele>
        <time>2021-06-23T08:52:30Z</time>
      </trkpt>
      <trkpt lat="48.12632" lon="7.15985">
        <ele>482.6</ele>
        <time>2021-06-23T08:52:31Z</time>
      </trkpt>
      <trkpt lat="48.12628" lon="7.16018">
        <ele>482.2</ele>
        <time>2021-06-23T08:52:35Z</time>
      </trkpt>
      <trkpt lat="48.12629" lon="7.16034">
        <ele>481.4</ele>
        <time>2021-06-23T08:52:37Z</time>
      </trkpt>
      <trkpt lat="48.1263" lon="7.16043">
        <ele>481.2</ele>
        <time>2021-06-23T08:52:38Z</time>
      </trkpt>
      <trkpt lat="48.12633" lon="7.16074">
        <ele>480.4</ele>
        <time>2021-06-23T08:52:41Z</time>
      </trkpt>
      <trkpt lat="48.12634" lon="7.16084">
        <ele>480.4</ele>
        <time>2021-06-23T08:52:42Z</time>
      </trkpt>
      <trkpt lat="48.12636" lon="7.16106">
        <ele>479.2</ele>
        <time>2021-06-23T08:52:44Z</time>
      </trkpt>
      <trkpt lat="48.12637" lon="7.16117">
        <ele>479</ele>
        <time>2021-06-23T08:52:45Z</time>
      </trkpt>
      <trkpt lat="48.12639" lon="7.16139">
        <ele>478.2</ele>
        <time>2021-06-23T08:52:47Z</time>
      </trkpt>
      <trkpt lat="48.12641" lon="7.1617">
        <ele>477</ele>
        <time>2021-06-23T08:52:50Z</time>
      </trkpt>
      <trkpt lat="48.1264" lon="7.1619">
        <ele>476</ele>
        <time>2021-06-23T08:52:52Z</time>
      </trkpt>
      <trkpt lat="48.12637" lon="7.16221">
        <ele>475</ele>
        <time>2021-06-23T08:52:55Z</time>
      </trkpt>
      <trkpt lat="48.12634" lon="7.16266">
        <ele>474.4</ele>
        <time>2021-06-23T08:52:59Z</time>
      </trkpt>
      <trkpt lat="48.12632" lon="7.16288">
        <ele>473.4</ele>
        <time>2021-06-23T08:53:01Z</time>
      </trkpt>
      <trkpt lat="48.12631" lon="7.16311">
        <ele>472.2</ele>
        <time>2021-06-23T08:53:03Z</time>
      </trkpt>
      <trkpt lat="48.12629" lon="7.16345">
        <ele>471</ele>
        <time>2021-06-23T08:53:06Z</time>
      </trkpt>
      <trkpt lat="48.12627" lon="7.16368">
        <ele>469.8</ele>
        <time>2021-06-23T08:53:08Z</time>
      </trkpt>
      <trkpt lat="48.12626" lon="7.16401">
        <ele>469</ele>
        <time>2021-06-23T08:53:11Z</time>
      </trkpt>
      <trkpt lat="48.12625" lon="7.16413">
        <ele>468.8</ele>
        <time>2021-06-23T08:53:12Z</time>
      </trkpt>
      <trkpt lat="48.12623" lon="7.16444">
        <ele>467.4</ele>
        <time>2021-06-23T08:53:15Z</time>
      </trkpt>
      <trkpt lat="48.12619" lon="7.1647">
        <ele>466.4</ele>
        <time>2021-06-23T08:53:18Z</time>
      </trkpt>
      <trkpt lat="48.12617" lon="7.16479">
        <ele>466.2</ele>
        <time>2021-06-23T08:53:19Z</time>
      </trkpt>
      <trkpt lat="48.12611" lon="7.1649">
        <ele>465.8</ele>
        <time>2021-06-23T08:53:21Z</time>
      </trkpt>
      <trkpt lat="48.12602" lon="7.16494">
        <ele>465.4</ele>
        <time>2021-06-23T08:53:23Z</time>
      </trkpt>
      <trkpt lat="48.12598" lon="7.16493">
        <ele>465.4</ele>
        <time>2021-06-23T08:53:24Z</time>
      </trkpt>
      <trkpt lat="48.12558" lon="7.16491">
        <ele>465.2</ele>
        <time>2021-06-23T08:53:32Z</time>
      </trkpt>
      <trkpt lat="48.12539" lon="7.1649">
        <ele>465.8</ele>
        <time>2021-06-23T08:53:36Z</time>
      </trkpt>
      <trkpt lat="48.12522" lon="7.16491">
        <ele>466.4</ele>
        <time>2021-06-23T08:53:40Z</time>
      </trkpt>
      <trkpt lat="48.12512" lon="7.16493">
        <ele>466.4</ele>
        <time>2021-06-23T08:53:42Z</time>
      </trkpt>
      <trkpt lat="48.12487" lon="7.16501">
        <ele>467.6</ele>
        <time>2021-06-23T08:53:48Z</time>
      </trkpt>
      <trkpt lat="48.12484" lon="7.16503">
        <ele>467.6</ele>
        <time>2021-06-23T08:53:49Z</time>
      </trkpt>
      <trkpt lat="48.12469" lon="7.1651">
        <ele>468.8</ele>
        <time>2021-06-23T08:53:53Z</time>
      </trkpt>
      <trkpt lat="48.12463" lon="7.16513">
        <ele>469.2</ele>
        <time>2021-06-23T08:53:55Z</time>
      </trkpt>
      <trkpt lat="48.12448" lon="7.16518">
        <ele>470</ele>
        <time>2021-06-23T08:54:00Z</time>
      </trkpt>
      <trkpt lat="48.12445" lon="7.16519">
        <ele>470.2</ele>
        <time>2021-06-23T08:54:01Z</time>
      </trkpt>
      <trkpt lat="48.1243" lon="7.16517">
        <ele>471.4</ele>
        <time>2021-06-23T08:54:06Z</time>
      </trkpt>
      <trkpt lat="48.12425" lon="7.16514">
        <ele>472</ele>
        <time>2021-06-23T08:54:08Z</time>
      </trkpt>
      <trkpt lat="48.12419" lon="7.1651">
        <ele>472.6</ele>
        <time>2021-06-23T08:54:11Z</time>
      </trkpt>
      <trkpt lat="48.12411" lon="7.16505">
        <ele>473</ele>
        <time>2021-06-23T08:54:14Z</time>
      </trkpt>
      <trkpt lat="48.1241" lon="7.16504">
        <ele>473.2</ele>
        <time>2021-06-23T08:54:15Z</time>
      </trkpt>
      <trkpt lat="48.12404" lon="7.165">
        <ele>473.6</ele>
        <time>2021-06-23T08:54:17Z</time>
      </trkpt>
      <trkpt lat="48.12393" lon="7.16495">
        <ele>474.8</ele>
        <time>2021-06-23T08:54:22Z</time>
      </trkpt>
      <trkpt lat="48.12373" lon="7.1649">
        <ele>476</ele>
        <time>2021-06-23T08:54:29Z</time>
      </trkpt>
      <trkpt lat="48.12365" lon="7.16489">
        <ele>476.6</ele>
        <time>2021-06-23T08:54:32Z</time>
      </trkpt>
      <trkpt lat="48.12359" lon="7.16488">
        <ele>477.2</ele>
        <time>2021-06-23T08:54:34Z</time>
      </trkpt>
      <trkpt lat="48.12337" lon="7.16485">
        <ele>478.4</ele>
        <time>2021-06-23T08:54:42Z</time>
      </trkpt>
      <trkpt lat="48.1232" lon="7.16486">
        <ele>479.4</ele>
        <time>2021-06-23T08:54:48Z</time>
      </trkpt>
      <trkpt lat="48.12315" lon="7.16487">
        <ele>479.8</ele>
        <time>2021-06-23T08:54:50Z</time>
      </trkpt>
      <trkpt lat="48.12302" lon="7.16493">
        <ele>480.8</ele>
        <time>2021-06-23T08:54:55Z</time>
      </trkpt>
      <trkpt lat="48.12298" lon="7.16494">
        <ele>481</ele>
        <time>2021-06-23T08:54:57Z</time>
      </trkpt>
      <trkpt lat="48.12287" lon="7.16498">
        <ele>481.8</ele>
        <time>2021-06-23T08:55:01Z</time>
      </trkpt>
      <trkpt lat="48.12285" lon="7.16499">
        <ele>482</ele>
        <time>2021-06-23T08:55:02Z</time>
      </trkpt>
      <trkpt lat="48.12263" lon="7.1651">
        <ele>482.2</ele>
        <time>2021-06-23T08:55:08Z</time>
      </trkpt>
      <trkpt lat="48.12249" lon="7.16518">
        <ele>482.8</ele>
        <time>2021-06-23T08:55:12Z</time>
      </trkpt>
      <trkpt lat="48.12234" lon="7.16525">
        <ele>483.2</ele>
        <time>2021-06-23T08:55:16Z</time>
      </trkpt>
      <trkpt lat="48.12206" lon="7.16533">
        <ele>484</ele>
        <time>2021-06-23T08:55:23Z</time>
      </trkpt>
      <trkpt lat="48.12198" lon="7.16535">
        <ele>484</ele>
        <time>2021-06-23T08:55:25Z</time>
      </trkpt>
      <trkpt lat="48.12164" lon="7.16546">
        <ele>485.2</ele>
        <time>2021-06-23T08:55:34Z</time>
      </trkpt>
      <trkpt lat="48.12146" lon="7.1655">
        <ele>485.8</ele>
        <time>2021-06-23T08:55:40Z</time>
      </trkpt>
      <trkpt lat="48.12144" lon="7.16551">
        <ele>486.2</ele>
        <time>2021-06-23T08:55:43Z</time>
      </trkpt>
      <trkpt lat="48.12144" lon="7.16551">
        <ele>486.2</ele>
        <time>2021-06-23T08:55:44Z</time>
      </trkpt>
      <trkpt lat="48.12144" lon="7.16551">
        <ele>486.4</ele>
        <time>2021-06-23T08:55:45Z</time>
      </trkpt>
      <trkpt lat="48.12141" lon="7.16552">
        <ele>486.8</ele>
        <time>2021-06-23T08:57:34Z</time>
      </trkpt>
      <trkpt lat="48.12133" lon="7.16555">
        <ele>486.8</ele>
        <time>2021-06-23T08:57:37Z</time>
      </trkpt>
      <trkpt lat="48.12113" lon="7.16562">
        <ele>487.4</ele>
        <time>2021-06-23T08:57:43Z</time>
      </trkpt>
      <trkpt lat="48.12089" lon="7.1657">
        <ele>487.8</ele>
        <time>2021-06-23T08:57:49Z</time>
      </trkpt>
      <trkpt lat="48.12084" lon="7.16572">
        <ele>488</ele>
        <time>2021-06-23T08:57:50Z</time>
      </trkpt>
      <trkpt lat="48.12059" lon="7.16577">
        <ele>488.6</ele>
        <time>2021-06-23T08:57:56Z</time>
      </trkpt>
      <trkpt lat="48.12051" lon="7.16578">
        <ele>489</ele>
        <time>2021-06-23T08:57:58Z</time>
      </trkpt>
      <trkpt lat="48.12029" lon="7.16577">
        <ele>490</ele>
        <time>2021-06-23T08:58:04Z</time>
      </trkpt>
      <trkpt lat="48.12024" lon="7.16576">
        <ele>490.2</ele>
        <time>2021-06-23T08:58:05Z</time>
      </trkpt>
      <trkpt lat="48.12" lon="7.16571">
        <ele>491.6</ele>
        <time>2021-06-23T08:58:12Z</time>
      </trkpt>
      <trkpt lat="48.11994" lon="7.1657">
        <ele>492.2</ele>
        <time>2021-06-23T08:58:14Z</time>
      </trkpt>
      <trkpt lat="48.11987" lon="7.16568">
        <ele>492.6</ele>
        <time>2021-06-23T08:58:16Z</time>
      </trkpt>
      <trkpt lat="48.11974" lon="7.16565">
        <ele>493.4</ele>
        <time>2021-06-23T08:58:20Z</time>
      </trkpt>
      <trkpt lat="48.11966" lon="7.16564">
        <ele>494</ele>
        <time>2021-06-23T08:58:23Z</time>
      </trkpt>
      <trkpt lat="48.11948" lon="7.16563">
        <ele>495.2</ele>
        <time>2021-06-23T08:58:29Z</time>
      </trkpt>
      <trkpt lat="48.11933" lon="7.16566">
        <ele>496.2</ele>
        <time>2021-06-23T08:58:34Z</time>
      </trkpt>
      <trkpt lat="48.11924" lon="7.16569">
        <ele>496.8</ele>
        <time>2021-06-23T08:58:37Z</time>
      </trkpt>
      <trkpt lat="48.11919" lon="7.16571">
        <ele>497.4</ele>
        <time>2021-06-23T08:58:39Z</time>
      </trkpt>
      <trkpt lat="48.11899" lon="7.16583">
        <ele>498.4</ele>
        <time>2021-06-23T08:58:46Z</time>
      </trkpt>
      <trkpt lat="48.11886" lon="7.16594">
        <ele>499.6</ele>
        <time>2021-06-23T08:58:51Z</time>
      </trkpt>
      <trkpt lat="48.11877" lon="7.16603">
        <ele>500.8</ele>
        <time>2021-06-23T08:58:55Z</time>
      </trkpt>
      <trkpt lat="48.11857" lon="7.16624">
        <ele>501.8</ele>
        <time>2021-06-23T08:59:03Z</time>
      </trkpt>
      <trkpt lat="48.11852" lon="7.16629">
        <ele>502.2</ele>
        <time>2021-06-23T08:59:05Z</time>
      </trkpt>
      <trkpt lat="48.1184" lon="7.16641">
        <ele>503</ele>
        <time>2021-06-23T08:59:10Z</time>
      </trkpt>
      <trkpt lat="48.11826" lon="7.16651">
        <ele>504</ele>
        <time>2021-06-23T08:59:15Z</time>
      </trkpt>
      <trkpt lat="48.11823" lon="7.16654">
        <ele>504.2</ele>
        <time>2021-06-23T08:59:16Z</time>
      </trkpt>
      <trkpt lat="48.11807" lon="7.16669">
        <ele>505.4</ele>
        <time>2021-06-23T08:59:22Z</time>
      </trkpt>
      <trkpt lat="48.11804" lon="7.16672">
        <ele>505.4</ele>
        <time>2021-06-23T08:59:23Z</time>
      </trkpt>
      <trkpt lat="48.11785" lon="7.16697">
        <ele>506.4</ele>
        <time>2021-06-23T08:59:30Z</time>
      </trkpt>
      <trkpt lat="48.11776" lon="7.16708">
        <ele>506.6</ele>
        <time>2021-06-23T08:59:33Z</time>
      </trkpt>
      <trkpt lat="48.11754" lon="7.1673">
        <ele>507.6</ele>
        <time>2021-06-23T08:59:40Z</time>
      </trkpt>
      <trkpt lat="48.11731" lon="7.16752">
        <ele>508.2</ele>
        <time>2021-06-23T08:59:47Z</time>
      </trkpt>
      <trkpt lat="48.11713" lon="7.1677">
        <ele>508.6</ele>
        <time>2021-06-23T08:59:52Z</time>
      </trkpt>
      <trkpt lat="48.11698" lon="7.16784">
        <ele>509.2</ele>
        <time>2021-06-23T08:59:56Z</time>
      </trkpt>
      <trkpt lat="48.11685" lon="7.16796">
        <ele>510</ele>
        <time>2021-06-23T09:00:00Z</time>
      </trkpt>
      <trkpt lat="48.11673" lon="7.16805">
        <ele>510</ele>
        <time>2021-06-23T09:00:03Z</time>
      </trkpt>
      <trkpt lat="48.1167" lon="7.16807">
        <ele>510.6</ele>
        <time>2021-06-23T09:00:04Z</time>
      </trkpt>
      <trkpt lat="48.11662" lon="7.1681">
        <ele>511</ele>
        <time>2021-06-23T09:00:06Z</time>
      </trkpt>
      <trkpt lat="48.11643" lon="7.16815">
        <ele>511.8</ele>
        <time>2021-06-23T09:00:11Z</time>
      </trkpt>
      <trkpt lat="48.11636" lon="7.16817">
        <ele>512.2</ele>
        <time>2021-06-23T09:00:13Z</time>
      </trkpt>
      <trkpt lat="48.11615" lon="7.16821">
        <ele>513.4</ele>
        <time>2021-06-23T09:00:19Z</time>
      </trkpt>
      <trkpt lat="48.11607" lon="7.16823">
        <ele>513.8</ele>
        <time>2021-06-23T09:00:21Z</time>
      </trkpt>
      <trkpt lat="48.11598" lon="7.16826">
        <ele>514.6</ele>
        <time>2021-06-23T09:00:24Z</time>
      </trkpt>
      <trkpt lat="48.11578" lon="7.16832">
        <ele>515.8</ele>
        <time>2021-06-23T09:00:30Z</time>
      </trkpt>
      <trkpt lat="48.11565" lon="7.16835">
        <ele>516.8</ele>
        <time>2021-06-23T09:00:34Z</time>
      </trkpt>
      <trkpt lat="48.11551" lon="7.16835">
        <ele>517.6</ele>
        <time>2021-06-23T09:00:38Z</time>
      </trkpt>
      <trkpt lat="48.1154" lon="7.16834">
        <ele>518</ele>
        <time>2021-06-23T09:00:41Z</time>
      </trkpt>
      <trkpt lat="48.11528" lon="7.1683">
        <ele>518.6</ele>
        <time>2021-06-23T09:00:45Z</time>
      </trkpt>
      <trkpt lat="48.1152" lon="7.16826">
        <ele>519</ele>
        <time>2021-06-23T09:00:47Z</time>
      </trkpt>
      <trkpt lat="48.115" lon="7.16819">
        <ele>520.2</ele>
        <time>2021-06-23T09:00:53Z</time>
      </trkpt>
      <trkpt lat="48.11498" lon="7.16818">
        <ele>520.6</ele>
        <time>2021-06-23T09:00:54Z</time>
      </trkpt>
      <trkpt lat="48.11488" lon="7.16815">
        <ele>521.2</ele>
        <time>2021-06-23T09:00:57Z</time>
      </trkpt>
      <trkpt lat="48.11472" lon="7.1681">
        <ele>522.2</ele>
        <time>2021-06-23T09:01:02Z</time>
      </trkpt>
      <trkpt lat="48.11468" lon="7.16809">
        <ele>522.4</ele>
        <time>2021-06-23T09:01:03Z</time>
      </trkpt>
      <trkpt lat="48.11451" lon="7.16803">
        <ele>523.4</ele>
        <time>2021-06-23T09:01:08Z</time>
      </trkpt>
      <trkpt lat="48.11445" lon="7.168">
        <ele>524</ele>
        <time>2021-06-23T09:01:10Z</time>
      </trkpt>
      <trkpt lat="48.11433" lon="7.16793">
        <ele>524.8</ele>
        <time>2021-06-23T09:01:14Z</time>
      </trkpt>
      <trkpt lat="48.11418" lon="7.16786">
        <ele>526</ele>
        <time>2021-06-23T09:01:19Z</time>
      </trkpt>
      <trkpt lat="48.11405" lon="7.16778">
        <ele>527</ele>
        <time>2021-06-23T09:01:24Z</time>
      </trkpt>
      <trkpt lat="48.11396" lon="7.1677">
        <ele>528.2</ele>
        <time>2021-06-23T09:01:28Z</time>
      </trkpt>
      <trkpt lat="48.11383" lon="7.1676">
        <ele>529.6</ele>
        <time>2021-06-23T09:01:33Z</time>
      </trkpt>
      <trkpt lat="48.11377" lon="7.16754">
        <ele>530.4</ele>
        <time>2021-06-23T09:01:36Z</time>
      </trkpt>
      <trkpt lat="48.11375" lon="7.16751">
        <ele>530.8</ele>
        <time>2021-06-23T09:01:37Z</time>
      </trkpt>
      <trkpt lat="48.11361" lon="7.16738">
        <ele>532</ele>
        <time>2021-06-23T09:01:43Z</time>
      </trkpt>
      <trkpt lat="48.11353" lon="7.16731">
        <ele>532.6</ele>
        <time>2021-06-23T09:01:46Z</time>
      </trkpt>
      <trkpt lat="48.11343" lon="7.16725">
        <ele>533</ele>
        <time>2021-06-23T09:01:50Z</time>
      </trkpt>
      <trkpt lat="48.11334" lon="7.16721">
        <ele>534</ele>
        <time>2021-06-23T09:01:53Z</time>
      </trkpt>
      <trkpt lat="48.11331" lon="7.16719">
        <ele>534.2</ele>
        <time>2021-06-23T09:01:54Z</time>
      </trkpt>
      <trkpt lat="48.11308" lon="7.16711">
        <ele>535.4</ele>
        <time>2021-06-23T09:02:02Z</time>
      </trkpt>
      <trkpt lat="48.11286" lon="7.1671">
        <ele>536.4</ele>
        <time>2021-06-23T09:02:09Z</time>
      </trkpt>
      <trkpt lat="48.11267" lon="7.16713">
        <ele>537.6</ele>
        <time>2021-06-23T09:02:16Z</time>
      </trkpt>
      <trkpt lat="48.11261" lon="7.16715">
        <ele>538.2</ele>
        <time>2021-06-23T09:02:18Z</time>
      </trkpt>
      <trkpt lat="48.1125" lon="7.16721">
        <ele>538.8</ele>
        <time>2021-06-23T09:02:22Z</time>
      </trkpt>
      <trkpt lat="48.11236" lon="7.16729">
        <ele>539.4</ele>
        <time>2021-06-23T09:02:27Z</time>
      </trkpt>
      <trkpt lat="48.1123" lon="7.16733">
        <ele>539.8</ele>
        <time>2021-06-23T09:02:29Z</time>
      </trkpt>
      <trkpt lat="48.11214" lon="7.16747">
        <ele>540.6</ele>
        <time>2021-06-23T09:02:35Z</time>
      </trkpt>
      <trkpt lat="48.11211" lon="7.16749">
        <ele>541</ele>
        <time>2021-06-23T09:02:36Z</time>
      </trkpt>
      <trkpt lat="48.11195" lon="7.16767">
        <ele>542.2</ele>
        <time>2021-06-23T09:02:42Z</time>
      </trkpt>
      <trkpt lat="48.11177" lon="7.16789">
        <ele>543.2</ele>
        <time>2021-06-23T09:02:49Z</time>
      </trkpt>
      <trkpt lat="48.11174" lon="7.16792">
        <ele>543.2</ele>
        <time>2021-06-23T09:02:50Z</time>
      </trkpt>
      <trkpt lat="48.11163" lon="7.16805">
        <ele>544.4</ele>
        <time>2021-06-23T09:02:54Z</time>
      </trkpt>
      <trkpt lat="48.11145" lon="7.16827">
        <ele>545.2</ele>
        <time>2021-06-23T09:03:01Z</time>
      </trkpt>
      <trkpt lat="48.11143" lon="7.1683">
        <ele>545.4</ele>
        <time>2021-06-23T09:03:02Z</time>
      </trkpt>
      <trkpt lat="48.11131" lon="7.16845">
        <ele>546.8</ele>
        <time>2021-06-23T09:03:07Z</time>
      </trkpt>
      <trkpt lat="48.11126" lon="7.1685">
        <ele>547.2</ele>
        <time>2021-06-23T09:03:09Z</time>
      </trkpt>
      <trkpt lat="48.11116" lon="7.16862">
        <ele>547.8</ele>
        <time>2021-06-23T09:03:13Z</time>
      </trkpt>
      <trkpt lat="48.11108" lon="7.16874">
        <ele>548.4</ele>
        <time>2021-06-23T09:03:17Z</time>
      </trkpt>
      <trkpt lat="48.11103" lon="7.1688">
        <ele>549</ele>
        <time>2021-06-23T09:03:19Z</time>
      </trkpt>
      <trkpt lat="48.1109" lon="7.16894">
        <ele>549.8</ele>
        <time>2021-06-23T09:03:24Z</time>
      </trkpt>
      <trkpt lat="48.11084" lon="7.169">
        <ele>550.2</ele>
        <time>2021-06-23T09:03:26Z</time>
      </trkpt>
      <trkpt lat="48.11067" lon="7.16913">
        <ele>551.6</ele>
        <time>2021-06-23T09:03:32Z</time>
      </trkpt>
      <trkpt lat="48.11062" lon="7.16916">
        <ele>551.8</ele>
        <time>2021-06-23T09:03:34Z</time>
      </trkpt>
      <trkpt lat="48.11047" lon="7.16922">
        <ele>553</ele>
        <time>2021-06-23T09:03:39Z</time>
      </trkpt>
      <trkpt lat="48.11037" lon="7.16927">
        <ele>553.8</ele>
        <time>2021-06-23T09:03:43Z</time>
      </trkpt>
      <trkpt lat="48.11034" lon="7.16927">
        <ele>554</ele>
        <time>2021-06-23T09:03:44Z</time>
      </trkpt>
      <trkpt lat="48.1102" lon="7.16932">
        <ele>555.4</ele>
        <time>2021-06-23T09:03:50Z</time>
      </trkpt>
      <trkpt lat="48.1101" lon="7.16935">
        <ele>556.4</ele>
        <time>2021-06-23T09:03:54Z</time>
      </trkpt>
      <trkpt lat="48.11005" lon="7.16936">
        <ele>556.6</ele>
        <time>2021-06-23T09:03:56Z</time>
      </trkpt>
      <trkpt lat="48.10986" lon="7.16944">
        <ele>557.6</ele>
        <time>2021-06-23T09:04:02Z</time>
      </trkpt>
      <trkpt lat="48.10979" lon="7.16947">
        <ele>558.2</ele>
        <time>2021-06-23T09:04:04Z</time>
      </trkpt>
      <trkpt lat="48.10973" lon="7.1695">
        <ele>558.8</ele>
        <time>2021-06-23T09:04:06Z</time>
      </trkpt>
      <trkpt lat="48.10954" lon="7.16959">
        <ele>559.6</ele>
        <time>2021-06-23T09:04:12Z</time>
      </trkpt>
      <trkpt lat="48.10951" lon="7.16961">
        <ele>559.8</ele>
        <time>2021-06-23T09:04:13Z</time>
      </trkpt>
      <trkpt lat="48.10934" lon="7.16974">
        <ele>561</ele>
        <time>2021-06-23T09:04:19Z</time>
      </trkpt>
      <trkpt lat="48.10924" lon="7.16981">
        <ele>561.8</ele>
        <time>2021-06-23T09:04:23Z</time>
      </trkpt>
      <trkpt lat="48.10918" lon="7.16985">
        <ele>562</ele>
        <time>2021-06-23T09:04:25Z</time>
      </trkpt>
      <trkpt lat="48.10901" lon="7.16994">
        <ele>563.2</ele>
        <time>2021-06-23T09:04:31Z</time>
      </trkpt>
      <trkpt lat="48.10897" lon="7.16996">
        <ele>563.6</ele>
        <time>2021-06-23T09:04:33Z</time>
      </trkpt>
      <trkpt lat="48.10887" lon="7.17001">
        <ele>564.2</ele>
        <time>2021-06-23T09:04:37Z</time>
      </trkpt>
      <trkpt lat="48.10875" lon="7.17009">
        <ele>565.2</ele>
        <time>2021-06-23T09:04:42Z</time>
      </trkpt>
      <trkpt lat="48.10873" lon="7.17011">
        <ele>565.2</ele>
        <time>2021-06-23T09:04:43Z</time>
      </trkpt>
      <trkpt lat="48.10854" lon="7.17023">
        <ele>566.2</ele>
        <time>2021-06-23T09:04:50Z</time>
      </trkpt>
      <trkpt lat="48.10852" lon="7.17025">
        <ele>566.6</ele>
        <time>2021-06-23T09:04:51Z</time>
      </trkpt>
      <trkpt lat="48.10841" lon="7.17031">
        <ele>567.2</ele>
        <time>2021-06-23T09:04:55Z</time>
      </trkpt>
      <trkpt lat="48.10833" lon="7.17036">
        <ele>568</ele>
        <time>2021-06-23T09:04:58Z</time>
      </trkpt>
      <trkpt lat="48.10829" lon="7.17039">
        <ele>568.4</ele>
        <time>2021-06-23T09:05:00Z</time>
      </trkpt>
      <trkpt lat="48.10816" lon="7.17048">
        <ele>569.6</ele>
        <time>2021-06-23T09:05:05Z</time>
      </trkpt>
      <trkpt lat="48.10813" lon="7.17049">
        <ele>569.8</ele>
        <time>2021-06-23T09:05:06Z</time>
      </trkpt>
      <trkpt lat="48.10807" lon="7.17054">
        <ele>570.8</ele>
        <time>2021-06-23T09:05:09Z</time>
      </trkpt>
      <trkpt lat="48.10792" lon="7.17065">
        <ele>571.6</ele>
        <time>2021-06-23T09:05:15Z</time>
      </trkpt>
      <trkpt lat="48.10789" lon="7.17067">
        <ele>572</ele>
        <time>2021-06-23T09:05:16Z</time>
      </trkpt>
      <trkpt lat="48.10774" lon="7.17075">
        <ele>573</ele>
        <time>2021-06-23T09:05:22Z</time>
      </trkpt>
      <trkpt lat="48.10753" lon="7.17088">
        <ele>574</ele>
        <time>2021-06-23T09:05:29Z</time>
      </trkpt>
      <trkpt lat="48.1075" lon="7.17091">
        <ele>574.2</ele>
        <time>2021-06-23T09:05:30Z</time>
      </trkpt>
      <trkpt lat="48.10734" lon="7.17104">
        <ele>575.4</ele>
        <time>2021-06-23T09:05:36Z</time>
      </trkpt>
      <trkpt lat="48.10731" lon="7.17106">
        <ele>575.6</ele>
        <time>2021-06-23T09:05:37Z</time>
      </trkpt>
      <trkpt lat="48.10714" lon="7.17123">
        <ele>576.6</ele>
        <time>2021-06-23T09:05:44Z</time>
      </trkpt>
      <trkpt lat="48.10712" lon="7.17126">
        <ele>576.8</ele>
        <time>2021-06-23T09:05:45Z</time>
      </trkpt>
      <trkpt lat="48.10706" lon="7.17135">
        <ele>577.6</ele>
        <time>2021-06-23T09:05:48Z</time>
      </trkpt>
      <trkpt lat="48.10693" lon="7.17154">
        <ele>578.4</ele>
        <time>2021-06-23T09:05:54Z</time>
      </trkpt>
      <trkpt lat="48.10689" lon="7.1716">
        <ele>578.6</ele>
        <time>2021-06-23T09:05:56Z</time>
      </trkpt>
      <trkpt lat="48.10673" lon="7.17183">
        <ele>579.8</ele>
        <time>2021-06-23T09:06:03Z</time>
      </trkpt>
      <trkpt lat="48.10658" lon="7.17198">
        <ele>580.8</ele>
        <time>2021-06-23T09:06:09Z</time>
      </trkpt>
      <trkpt lat="48.10651" lon="7.17206">
        <ele>581.6</ele>
        <time>2021-06-23T09:06:12Z</time>
      </trkpt>
      <trkpt lat="48.10643" lon="7.17212">
        <ele>582</ele>
        <time>2021-06-23T09:06:15Z</time>
      </trkpt>
      <trkpt lat="48.10633" lon="7.17217">
        <ele>582.8</ele>
        <time>2021-06-23T09:06:19Z</time>
      </trkpt>
      <trkpt lat="48.10631" lon="7.17219">
        <ele>582.8</ele>
        <time>2021-06-23T09:06:20Z</time>
      </trkpt>
      <trkpt lat="48.10621" lon="7.17224">
        <ele>584</ele>
        <time>2021-06-23T09:06:24Z</time>
      </trkpt>
      <trkpt lat="48.10614" lon="7.17226">
        <ele>584.6</ele>
        <time>2021-06-23T09:06:27Z</time>
      </trkpt>
      <trkpt lat="48.10608" lon="7.17228">
        <ele>585.2</ele>
        <time>2021-06-23T09:06:29Z</time>
      </trkpt>
      <trkpt lat="48.10594" lon="7.17232">
        <ele>586.2</ele>
        <time>2021-06-23T09:06:34Z</time>
      </trkpt>
      <trkpt lat="48.10591" lon="7.17232">
        <ele>586.6</ele>
        <time>2021-06-23T09:06:35Z</time>
      </trkpt>
      <trkpt lat="48.10583" lon="7.17232">
        <ele>587.6</ele>
        <time>2021-06-23T09:06:38Z</time>
      </trkpt>
      <trkpt lat="48.10569" lon="7.17231">
        <ele>588.6</ele>
        <time>2021-06-23T09:06:43Z</time>
      </trkpt>
      <trkpt lat="48.10566" lon="7.17231">
        <ele>589</ele>
        <time>2021-06-23T09:06:44Z</time>
      </trkpt>
      <trkpt lat="48.10563" lon="7.1723">
        <ele>589</ele>
        <time>2021-06-23T09:06:45Z</time>
      </trkpt>
      <trkpt lat="48.10555" lon="7.17229">
        <ele>589.6</ele>
        <time>2021-06-23T09:06:48Z</time>
      </trkpt>
      <trkpt lat="48.10544" lon="7.17226">
        <ele>590.4</ele>
        <time>2021-06-23T09:06:52Z</time>
      </trkpt>
      <trkpt lat="48.10539" lon="7.17224">
        <ele>590.8</ele>
        <time>2021-06-23T09:06:54Z</time>
      </trkpt>
      <trkpt lat="48.10527" lon="7.17219">
        <ele>592</ele>
        <time>2021-06-23T09:06:58Z</time>
      </trkpt>
      <trkpt lat="48.10521" lon="7.17217">
        <ele>592.6</ele>
        <time>2021-06-23T09:07:00Z</time>
      </trkpt>
      <trkpt lat="48.10512" lon="7.17213">
        <ele>593</ele>
        <time>2021-06-23T09:07:03Z</time>
      </trkpt>
      <trkpt lat="48.10502" lon="7.17205">
        <ele>593.8</ele>
        <time>2021-06-23T09:07:07Z</time>
      </trkpt>
      <trkpt lat="48.10496" lon="7.172">
        <ele>594</ele>
        <time>2021-06-23T09:07:09Z</time>
      </trkpt>
      <trkpt lat="48.10484" lon="7.17187">
        <ele>595.2</ele>
        <time>2021-06-23T09:07:14Z</time>
      </trkpt>
      <trkpt lat="48.10471" lon="7.17164">
        <ele>596.4</ele>
        <time>2021-06-23T09:07:20Z</time>
      </trkpt>
      <trkpt lat="48.10468" lon="7.17157">
        <ele>596.8</ele>
        <time>2021-06-23T09:07:22Z</time>
      </trkpt>
      <trkpt lat="48.10462" lon="7.17141">
        <ele>597.4</ele>
        <time>2021-06-23T09:07:26Z</time>
      </trkpt>
      <trkpt lat="48.10457" lon="7.17129">
        <ele>597.8</ele>
        <time>2021-06-23T09:07:29Z</time>
      </trkpt>
      <trkpt lat="48.10445" lon="7.17114">
        <ele>598.4</ele>
        <time>2021-06-23T09:07:34Z</time>
      </trkpt>
      <trkpt lat="48.10428" lon="7.17116">
        <ele>599</ele>
        <time>2021-06-23T09:07:39Z</time>
      </trkpt>
      <trkpt lat="48.1042" lon="7.17136">
        <ele>599.6</ele>
        <time>2021-06-23T09:07:44Z</time>
      </trkpt>
      <trkpt lat="48.10425" lon="7.1716">
        <ele>600.2</ele>
        <time>2021-06-23T09:07:49Z</time>
      </trkpt>
      <trkpt lat="48.10431" lon="7.17169">
        <ele>600.6</ele>
        <time>2021-06-23T09:07:52Z</time>
      </trkpt>
      <trkpt lat="48.10434" lon="7.17176">
        <ele>600.8</ele>
        <time>2021-06-23T09:07:54Z</time>
      </trkpt>
      <trkpt lat="48.10438" lon="7.17183">
        <ele>601</ele>
        <time>2021-06-23T09:07:57Z</time>
      </trkpt>
      <trkpt lat="48.10439" lon="7.17186">
        <ele>601.2</ele>
        <time>2021-06-23T09:07:58Z</time>
      </trkpt>
      <trkpt lat="48.10446" lon="7.17201">
        <ele>601.8</ele>
        <time>2021-06-23T09:08:02Z</time>
      </trkpt>
      <trkpt lat="48.10451" lon="7.17209">
        <ele>602.2</ele>
        <time>2021-06-23T09:08:04Z</time>
      </trkpt>
      <trkpt lat="48.1046" lon="7.17225">
        <ele>603</ele>
        <time>2021-06-23T09:08:08Z</time>
      </trkpt>
      <trkpt lat="48.10463" lon="7.17228">
        <ele>603</ele>
        <time>2021-06-23T09:08:09Z</time>
      </trkpt>
      <trkpt lat="48.10482" lon="7.17252">
        <ele>604</ele>
        <time>2021-06-23T09:08:16Z</time>
      </trkpt>
      <trkpt lat="48.10485" lon="7.17255">
        <ele>604.2</ele>
        <time>2021-06-23T09:08:17Z</time>
      </trkpt>
      <trkpt lat="48.10501" lon="7.1727">
        <ele>604.8</ele>
        <time>2021-06-23T09:08:22Z</time>
      </trkpt>
      <trkpt lat="48.10509" lon="7.17277">
        <ele>605.2</ele>
        <time>2021-06-23T09:08:25Z</time>
      </trkpt>
      <trkpt lat="48.10524" lon="7.17289">
        <ele>605.8</ele>
        <time>2021-06-23T09:08:30Z</time>
      </trkpt>
      <trkpt lat="48.10533" lon="7.17293">
        <ele>606.4</ele>
        <time>2021-06-23T09:08:33Z</time>
      </trkpt>
      <trkpt lat="48.10542" lon="7.17297">
        <ele>607</ele>
        <time>2021-06-23T09:08:36Z</time>
      </trkpt>
      <trkpt lat="48.10559" lon="7.17302">
        <ele>608.2</ele>
        <time>2021-06-23T09:08:41Z</time>
      </trkpt>
      <trkpt lat="48.10578" lon="7.17307">
        <ele>609.2</ele>
        <time>2021-06-23T09:08:47Z</time>
      </trkpt>
      <trkpt lat="48.106" lon="7.17314">
        <ele>610.6</ele>
        <time>2021-06-23T09:08:54Z</time>
      </trkpt>
      <trkpt lat="48.10603" lon="7.17316">
        <ele>610.6</ele>
        <time>2021-06-23T09:08:55Z</time>
      </trkpt>
      <trkpt lat="48.10612" lon="7.17334">
        <ele>611.4</ele>
        <time>2021-06-23T09:09:00Z</time>
      </trkpt>
      <trkpt lat="48.10613" lon="7.17338">
        <ele>611.6</ele>
        <time>2021-06-23T09:09:01Z</time>
      </trkpt>
      <trkpt lat="48.10614" lon="7.17352">
        <ele>612.2</ele>
        <time>2021-06-23T09:09:04Z</time>
      </trkpt>
      <trkpt lat="48.10615" lon="7.17366">
        <ele>612.8</ele>
        <time>2021-06-23T09:09:07Z</time>
      </trkpt>
      <trkpt lat="48.10615" lon="7.1738">
        <ele>613.4</ele>
        <time>2021-06-23T09:09:10Z</time>
      </trkpt>
      <trkpt lat="48.10616" lon="7.17394">
        <ele>613.8</ele>
        <time>2021-06-23T09:09:13Z</time>
      </trkpt>
      <trkpt lat="48.10617" lon="7.17409">
        <ele>614.4</ele>
        <time>2021-06-23T09:09:16Z</time>
      </trkpt>
      <trkpt lat="48.10623" lon="7.17433">
        <ele>615</ele>
        <time>2021-06-23T09:09:21Z</time>
      </trkpt>
      <trkpt lat="48.10638" lon="7.17449">
        <ele>615.6</ele>
        <time>2021-06-23T09:09:26Z</time>
      </trkpt>
      <trkpt lat="48.10647" lon="7.1745">
        <ele>615.8</ele>
        <time>2021-06-23T09:09:28Z</time>
      </trkpt>
      <trkpt lat="48.10658" lon="7.17446">
        <ele>616</ele>
        <time>2021-06-23T09:09:31Z</time>
      </trkpt>
      <trkpt lat="48.10673" lon="7.17427">
        <ele>616.4</ele>
        <time>2021-06-23T09:09:37Z</time>
      </trkpt>
      <trkpt lat="48.10677" lon="7.17418">
        <ele>616.8</ele>
        <time>2021-06-23T09:09:39Z</time>
      </trkpt>
      <trkpt lat="48.10685" lon="7.17396">
        <ele>617.8</ele>
        <time>2021-06-23T09:09:44Z</time>
      </trkpt>
      <trkpt lat="48.10687" lon="7.17392">
        <ele>618</ele>
        <time>2021-06-23T09:09:45Z</time>
      </trkpt>
      <trkpt lat="48.10696" lon="7.17364">
        <ele>618.8</ele>
        <time>2021-06-23T09:09:51Z</time>
      </trkpt>
      <trkpt lat="48.10697" lon="7.17359">
        <ele>619.2</ele>
        <time>2021-06-23T09:09:52Z</time>
      </trkpt>
      <trkpt lat="48.10704" lon="7.17343">
        <ele>619.8</ele>
        <time>2021-06-23T09:09:56Z</time>
      </trkpt>
      <trkpt lat="48.10708" lon="7.17335">
        <ele>620</ele>
        <time>2021-06-23T09:09:58Z</time>
      </trkpt>
      <trkpt lat="48.10718" lon="7.1732">
        <ele>620.8</ele>
        <time>2021-06-23T09:10:02Z</time>
      </trkpt>
      <trkpt lat="48.10723" lon="7.17314">
        <ele>621.2</ele>
        <time>2021-06-23T09:10:04Z</time>
      </trkpt>
      <trkpt lat="48.10734" lon="7.17306">
        <ele>622</ele>
        <time>2021-06-23T09:10:08Z</time>
      </trkpt>
      <trkpt lat="48.10737" lon="7.17305">
        <ele>622.2</ele>
        <time>2021-06-23T09:10:09Z</time>
      </trkpt>
      <trkpt lat="48.10749" lon="7.17301">
        <ele>623.4</ele>
        <time>2021-06-23T09:10:14Z</time>
      </trkpt>
      <trkpt lat="48.10761" lon="7.173">
        <ele>624.4</ele>
        <time>2021-06-23T09:10:19Z</time>
      </trkpt>
      <trkpt lat="48.10763" lon="7.173">
        <ele>624.8</ele>
        <time>2021-06-23T09:10:20Z</time>
      </trkpt>
      <trkpt lat="48.10768" lon="7.173">
        <ele>625.4</ele>
        <time>2021-06-23T09:10:22Z</time>
      </trkpt>
      <trkpt lat="48.1078" lon="7.17303">
        <ele>626.4</ele>
        <time>2021-06-23T09:10:26Z</time>
      </trkpt>
      <trkpt lat="48.10782" lon="7.17303">
        <ele>626.4</ele>
        <time>2021-06-23T09:10:27Z</time>
      </trkpt>
      <trkpt lat="48.10795" lon="7.173">
        <ele>627.4</ele>
        <time>2021-06-23T09:10:32Z</time>
      </trkpt>
      <trkpt lat="48.10798" lon="7.17301">
        <ele>627.8</ele>
        <time>2021-06-23T09:10:33Z</time>
      </trkpt>
      <trkpt lat="48.10811" lon="7.17301">
        <ele>629</ele>
        <time>2021-06-23T09:10:38Z</time>
      </trkpt>
      <trkpt lat="48.10828" lon="7.17297">
        <ele>630.2</ele>
        <time>2021-06-23T09:10:44Z</time>
      </trkpt>
      <trkpt lat="48.10839" lon="7.17294">
        <ele>631.6</ele>
        <time>2021-06-23T09:10:48Z</time>
      </trkpt>
      <trkpt lat="48.10842" lon="7.17292">
        <ele>632</ele>
        <time>2021-06-23T09:10:49Z</time>
      </trkpt>
      <trkpt lat="48.10848" lon="7.17292">
        <ele>632.2</ele>
        <time>2021-06-23T09:10:51Z</time>
      </trkpt>
      <trkpt lat="48.10857" lon="7.1729">
        <ele>632.6</ele>
        <time>2021-06-23T09:10:54Z</time>
      </trkpt>
      <trkpt lat="48.10867" lon="7.17286">
        <ele>633.4</ele>
        <time>2021-06-23T09:10:58Z</time>
      </trkpt>
      <trkpt lat="48.10873" lon="7.17283">
        <ele>633.8</ele>
        <time>2021-06-23T09:11:00Z</time>
      </trkpt>
      <trkpt lat="48.10875" lon="7.17284">
        <ele>633.8</ele>
        <time>2021-06-23T09:11:01Z</time>
      </trkpt>
      <trkpt lat="48.10877" lon="7.17283">
        <ele>634.2</ele>
        <time>2021-06-23T09:11:02Z</time>
      </trkpt>
      <trkpt lat="48.10889" lon="7.17279">
        <ele>635</ele>
        <time>2021-06-23T09:11:06Z</time>
      </trkpt>
      <trkpt lat="48.109" lon="7.17276">
        <ele>636</ele>
        <time>2021-06-23T09:11:10Z</time>
      </trkpt>
      <trkpt lat="48.10902" lon="7.17276">
        <ele>636</ele>
        <time>2021-06-23T09:11:11Z</time>
      </trkpt>
      <trkpt lat="48.10916" lon="7.17272">
        <ele>636.8</ele>
        <time>2021-06-23T09:11:16Z</time>
      </trkpt>
      <trkpt lat="48.10923" lon="7.17268">
        <ele>637.2</ele>
        <time>2021-06-23T09:11:19Z</time>
      </trkpt>
      <trkpt lat="48.10934" lon="7.17264">
        <ele>637.8</ele>
        <time>2021-06-23T09:11:23Z</time>
      </trkpt>
      <trkpt lat="48.10942" lon="7.1726">
        <ele>638.2</ele>
        <time>2021-06-23T09:11:26Z</time>
      </trkpt>
      <trkpt lat="48.10946" lon="7.17257">
        <ele>638.6</ele>
        <time>2021-06-23T09:11:28Z</time>
      </trkpt>
      <trkpt lat="48.10948" lon="7.17256">
        <ele>638.6</ele>
        <time>2021-06-23T09:11:29Z</time>
      </trkpt>
      <trkpt lat="48.10957" lon="7.17254">
        <ele>639</ele>
        <time>2021-06-23T09:11:32Z</time>
      </trkpt>
      <trkpt lat="48.10963" lon="7.17255">
        <ele>639.4</ele>
        <time>2021-06-23T09:11:34Z</time>
      </trkpt>
      <trkpt lat="48.1097" lon="7.17254">
        <ele>639.8</ele>
        <time>2021-06-23T09:11:36Z</time>
      </trkpt>
      <trkpt lat="48.10977" lon="7.17252">
        <ele>640</ele>
        <time>2021-06-23T09:11:38Z</time>
      </trkpt>
      <trkpt lat="48.10983" lon="7.17253">
        <ele>640.4</ele>
        <time>2021-06-23T09:11:40Z</time>
      </trkpt>
      <trkpt lat="48.10999" lon="7.17255">
        <ele>641.4</ele>
        <time>2021-06-23T09:11:45Z</time>
      </trkpt>
      <trkpt lat="48.11002" lon="7.17255">
        <ele>641.6</ele>
        <time>2021-06-23T09:11:46Z</time>
      </trkpt>
      <trkpt lat="48.11019" lon="7.17253">
        <ele>642.6</ele>
        <time>2021-06-23T09:11:52Z</time>
      </trkpt>
      <trkpt lat="48.11025" lon="7.17255">
        <ele>643</ele>
        <time>2021-06-23T09:11:54Z</time>
      </trkpt>
      <trkpt lat="48.11046" lon="7.17251">
        <ele>644</ele>
        <time>2021-06-23T09:12:01Z</time>
      </trkpt>
      <trkpt lat="48.11059" lon="7.17248">
        <ele>645</ele>
        <time>2021-06-23T09:12:06Z</time>
      </trkpt>
      <trkpt lat="48.11061" lon="7.17247">
        <ele>645.2</ele>
        <time>2021-06-23T09:12:07Z</time>
      </trkpt>
      <trkpt lat="48.11071" lon="7.17247">
        <ele>645.8</ele>
        <time>2021-06-23T09:12:11Z</time>
      </trkpt>
      <trkpt lat="48.11082" lon="7.17249">
        <ele>646.2</ele>
        <time>2021-06-23T09:12:15Z</time>
      </trkpt>
      <trkpt lat="48.11096" lon="7.1725">
        <ele>647</ele>
        <time>2021-06-23T09:12:20Z</time>
      </trkpt>
      <trkpt lat="48.11099" lon="7.17253">
        <ele>647.4</ele>
        <time>2021-06-23T09:12:21Z</time>
      </trkpt>
      <trkpt lat="48.11106" lon="7.17258">
        <ele>648.2</ele>
        <time>2021-06-23T09:12:24Z</time>
      </trkpt>
      <trkpt lat="48.1111" lon="7.1726">
        <ele>648.6</ele>
        <time>2021-06-23T09:12:26Z</time>
      </trkpt>
      <trkpt lat="48.11113" lon="7.17261">
        <ele>648.6</ele>
        <time>2021-06-23T09:12:27Z</time>
      </trkpt>
      <trkpt lat="48.11115" lon="7.17262">
        <ele>648.8</ele>
        <time>2021-06-23T09:12:28Z</time>
      </trkpt>
      <trkpt lat="48.11124" lon="7.17266">
        <ele>649.8</ele>
        <time>2021-06-23T09:12:32Z</time>
      </trkpt>
      <trkpt lat="48.11129" lon="7.17269">
        <ele>650</ele>
        <time>2021-06-23T09:12:34Z</time>
      </trkpt>
      <trkpt lat="48.1114" lon="7.17271">
        <ele>650.8</ele>
        <time>2021-06-23T09:12:38Z</time>
      </trkpt>
      <trkpt lat="48.11147" lon="7.17272">
        <ele>651.2</ele>
        <time>2021-06-23T09:12:40Z</time>
      </trkpt>
      <trkpt lat="48.11163" lon="7.17287">
        <ele>651.8</ele>
        <time>2021-06-23T09:12:45Z</time>
      </trkpt>
      <trkpt lat="48.11166" lon="7.17291">
        <ele>652.2</ele>
        <time>2021-06-23T09:12:46Z</time>
      </trkpt>
      <trkpt lat="48.1118" lon="7.17295">
        <ele>653</ele>
        <time>2021-06-23T09:12:51Z</time>
      </trkpt>
      <trkpt lat="48.11185" lon="7.17301">
        <ele>653.4</ele>
        <time>2021-06-23T09:12:53Z</time>
      </trkpt>
      <trkpt lat="48.11196" lon="7.17306">
        <ele>653.8</ele>
        <time>2021-06-23T09:12:57Z</time>
      </trkpt>
      <trkpt lat="48.11207" lon="7.17311">
        <ele>654.4</ele>
        <time>2021-06-23T09:13:01Z</time>
      </trkpt>
      <trkpt lat="48.11224" lon="7.17318">
        <ele>655.2</ele>
        <time>2021-06-23T09:13:07Z</time>
      </trkpt>
      <trkpt lat="48.11229" lon="7.1732">
        <ele>655.4</ele>
        <time>2021-06-23T09:13:09Z</time>
      </trkpt>
      <trkpt lat="48.11246" lon="7.17328">
        <ele>656.2</ele>
        <time>2021-06-23T09:13:15Z</time>
      </trkpt>
      <trkpt lat="48.11251" lon="7.1733">
        <ele>656.6</ele>
        <time>2021-06-23T09:13:17Z</time>
      </trkpt>
      <trkpt lat="48.11272" lon="7.17346">
        <ele>657.6</ele>
        <time>2021-06-23T09:13:25Z</time>
      </trkpt>
      <trkpt lat="48.11278" lon="7.17366">
        <ele>658.2</ele>
        <time>2021-06-23T09:13:30Z</time>
      </trkpt>
      <trkpt lat="48.11276" lon="7.17375">
        <ele>658.6</ele>
        <time>2021-06-23T09:13:32Z</time>
      </trkpt>
      <trkpt lat="48.1127" lon="7.17384">
        <ele>659.2</ele>
        <time>2021-06-23T09:13:35Z</time>
      </trkpt>
      <trkpt lat="48.11261" lon="7.17386">
        <ele>659.8</ele>
        <time>2021-06-23T09:13:38Z</time>
      </trkpt>
      <trkpt lat="48.11255" lon="7.17386">
        <ele>660</ele>
        <time>2021-06-23T09:13:40Z</time>
      </trkpt>
      <trkpt lat="48.11238" lon="7.17381">
        <ele>660.8</ele>
        <time>2021-06-23T09:13:45Z</time>
      </trkpt>
      <trkpt lat="48.11228" lon="7.17377">
        <ele>661.2</ele>
        <time>2021-06-23T09:13:48Z</time>
      </trkpt>
      <trkpt lat="48.11209" lon="7.17369">
        <ele>661.8</ele>
        <time>2021-06-23T09:13:54Z</time>
      </trkpt>
      <trkpt lat="48.11202" lon="7.17366">
        <ele>662</ele>
        <time>2021-06-23T09:13:56Z</time>
      </trkpt>
      <trkpt lat="48.1117" lon="7.17353">
        <ele>662.8</ele>
        <time>2021-06-23T09:14:05Z</time>
      </trkpt>
      <trkpt lat="48.11167" lon="7.17352">
        <ele>662.8</ele>
        <time>2021-06-23T09:14:06Z</time>
      </trkpt>
      <trkpt lat="48.11146" lon="7.17342">
        <ele>663.8</ele>
        <time>2021-06-23T09:14:13Z</time>
      </trkpt>
      <trkpt lat="48.11143" lon="7.1734">
        <ele>663.8</ele>
        <time>2021-06-23T09:14:14Z</time>
      </trkpt>
      <trkpt lat="48.1113" lon="7.17335">
        <ele>665</ele>
        <time>2021-06-23T09:14:19Z</time>
      </trkpt>
      <trkpt lat="48.11113" lon="7.17336">
        <ele>665.8</ele>
        <time>2021-06-23T09:14:25Z</time>
      </trkpt>
      <trkpt lat="48.1111" lon="7.17337">
        <ele>666</ele>
        <time>2021-06-23T09:14:26Z</time>
      </trkpt>
      <trkpt lat="48.11102" lon="7.1734">
        <ele>666.8</ele>
        <time>2021-06-23T09:14:30Z</time>
      </trkpt>
      <trkpt lat="48.11096" lon="7.17342">
        <ele>667.2</ele>
        <time>2021-06-23T09:14:32Z</time>
      </trkpt>
      <trkpt lat="48.11085" lon="7.17345">
        <ele>668.2</ele>
        <time>2021-06-23T09:14:36Z</time>
      </trkpt>
      <trkpt lat="48.11082" lon="7.17346">
        <ele>668.4</ele>
        <time>2021-06-23T09:14:37Z</time>
      </trkpt>
      <trkpt lat="48.11056" lon="7.17353">
        <ele>669.4</ele>
        <time>2021-06-23T09:14:43Z</time>
      </trkpt>
      <trkpt lat="48.11052" lon="7.17355">
        <ele>669.6</ele>
        <time>2021-06-23T09:14:44Z</time>
      </trkpt>
      <trkpt lat="48.11031" lon="7.17361">
        <ele>671</ele>
        <time>2021-06-23T09:14:49Z</time>
      </trkpt>
      <trkpt lat="48.11018" lon="7.17365">
        <ele>672</ele>
        <time>2021-06-23T09:14:53Z</time>
      </trkpt>
      <trkpt lat="48.11015" lon="7.17367">
        <ele>672.2</ele>
        <time>2021-06-23T09:14:54Z</time>
      </trkpt>
      <trkpt lat="48.11001" lon="7.17369">
        <ele>673</ele>
        <time>2021-06-23T09:14:58Z</time>
      </trkpt>
      <trkpt lat="48.10997" lon="7.17368">
        <ele>673.2</ele>
        <time>2021-06-23T09:14:59Z</time>
      </trkpt>
      <trkpt lat="48.10978" lon="7.17364">
        <ele>674</ele>
        <time>2021-06-23T09:15:05Z</time>
      </trkpt>
      <trkpt lat="48.10965" lon="7.17367">
        <ele>675</ele>
        <time>2021-06-23T09:15:09Z</time>
      </trkpt>
      <trkpt lat="48.10962" lon="7.17368">
        <ele>675.2</ele>
        <time>2021-06-23T09:15:10Z</time>
      </trkpt>
      <trkpt lat="48.10952" lon="7.17374">
        <ele>675.8</ele>
        <time>2021-06-23T09:15:14Z</time>
      </trkpt>
      <trkpt lat="48.10946" lon="7.17377">
        <ele>676.2</ele>
        <time>2021-06-23T09:15:16Z</time>
      </trkpt>
      <trkpt lat="48.1093" lon="7.17389">
        <ele>677.2</ele>
        <time>2021-06-23T09:15:22Z</time>
      </trkpt>
      <trkpt lat="48.10927" lon="7.1739">
        <ele>677.4</ele>
        <time>2021-06-23T09:15:23Z</time>
      </trkpt>
      <trkpt lat="48.10914" lon="7.17401">
        <ele>678</ele>
        <time>2021-06-23T09:15:28Z</time>
      </trkpt>
      <trkpt lat="48.10908" lon="7.17405">
        <ele>678.4</ele>
        <time>2021-06-23T09:15:30Z</time>
      </trkpt>
      <trkpt lat="48.10896" lon="7.17413">
        <ele>679.4</ele>
        <time>2021-06-23T09:15:34Z</time>
      </trkpt>
      <trkpt lat="48.10888" lon="7.1742">
        <ele>679.6</ele>
        <time>2021-06-23T09:15:37Z</time>
      </trkpt>
      <trkpt lat="48.10882" lon="7.17425">
        <ele>679.8</ele>
        <time>2021-06-23T09:15:39Z</time>
      </trkpt>
      <trkpt lat="48.1087" lon="7.17432">
        <ele>680.4</ele>
        <time>2021-06-23T09:15:43Z</time>
      </trkpt>
      <trkpt lat="48.10864" lon="7.17436">
        <ele>680.8</ele>
        <time>2021-06-23T09:15:45Z</time>
      </trkpt>
      <trkpt lat="48.10844" lon="7.17446">
        <ele>681.4</ele>
        <time>2021-06-23T09:15:51Z</time>
      </trkpt>
      <trkpt lat="48.10841" lon="7.17447">
        <ele>681.6</ele>
        <time>2021-06-23T09:15:52Z</time>
      </trkpt>
      <trkpt lat="48.10827" lon="7.17455">
        <ele>682.4</ele>
        <time>2021-06-23T09:15:57Z</time>
      </trkpt>
      <trkpt lat="48.10822" lon="7.17459">
        <ele>683</ele>
        <time>2021-06-23T09:15:59Z</time>
      </trkpt>
      <trkpt lat="48.10808" lon="7.17472">
        <ele>683.6</ele>
        <time>2021-06-23T09:16:04Z</time>
      </trkpt>
      <trkpt lat="48.10799" lon="7.17486">
        <ele>684.2</ele>
        <time>2021-06-23T09:16:08Z</time>
      </trkpt>
      <trkpt lat="48.10793" lon="7.17498">
        <ele>684.6</ele>
        <time>2021-06-23T09:16:11Z</time>
      </trkpt>
      <trkpt lat="48.10788" lon="7.17511">
        <ele>685.2</ele>
        <time>2021-06-23T09:16:14Z</time>
      </trkpt>
      <trkpt lat="48.10778" lon="7.17541">
        <ele>686.2</ele>
        <time>2021-06-23T09:16:21Z</time>
      </trkpt>
      <trkpt lat="48.10776" lon="7.17546">
        <ele>686.4</ele>
        <time>2021-06-23T09:16:22Z</time>
      </trkpt>
      <trkpt lat="48.10765" lon="7.17577">
        <ele>687.2</ele>
        <time>2021-06-23T09:16:29Z</time>
      </trkpt>
      <trkpt lat="48.10764" lon="7.17582">
        <ele>687.4</ele>
        <time>2021-06-23T09:16:30Z</time>
      </trkpt>
      <trkpt lat="48.10755" lon="7.1761">
        <ele>688.4</ele>
        <time>2021-06-23T09:16:36Z</time>
      </trkpt>
      <trkpt lat="48.10753" lon="7.17613">
        <ele>688.6</ele>
        <time>2021-06-23T09:16:37Z</time>
      </trkpt>
      <trkpt lat="48.10743" lon="7.17639">
        <ele>689</ele>
        <time>2021-06-23T09:16:43Z</time>
      </trkpt>
      <trkpt lat="48.10737" lon="7.17657">
        <ele>689.8</ele>
        <time>2021-06-23T09:16:47Z</time>
      </trkpt>
      <trkpt lat="48.10734" lon="7.17664">
        <ele>690.4</ele>
        <time>2021-06-23T09:16:49Z</time>
      </trkpt>
      <trkpt lat="48.10733" lon="7.17674">
        <ele>691</ele>
        <time>2021-06-23T09:16:51Z</time>
      </trkpt>
      <trkpt lat="48.10728" lon="7.17691">
        <ele>691.4</ele>
        <time>2021-06-23T09:16:54Z</time>
      </trkpt>
      <trkpt lat="48.10725" lon="7.1771">
        <ele>692.2</ele>
        <time>2021-06-23T09:16:58Z</time>
      </trkpt>
      <trkpt lat="48.1072" lon="7.17734">
        <ele>692.6</ele>
        <time>2021-06-23T09:17:02Z</time>
      </trkpt>
      <trkpt lat="48.10716" lon="7.17746">
        <ele>693.2</ele>
        <time>2021-06-23T09:17:05Z</time>
      </trkpt>
      <trkpt lat="48.10715" lon="7.17756">
        <ele>693.6</ele>
        <time>2021-06-23T09:17:07Z</time>
      </trkpt>
      <trkpt lat="48.10712" lon="7.17773">
        <ele>694.8</ele>
        <time>2021-06-23T09:17:11Z</time>
      </trkpt>
      <trkpt lat="48.10711" lon="7.17785">
        <ele>695.6</ele>
        <time>2021-06-23T09:17:14Z</time>
      </trkpt>
      <trkpt lat="48.1071" lon="7.17792">
        <ele>696</ele>
        <time>2021-06-23T09:17:16Z</time>
      </trkpt>
      <trkpt lat="48.10709" lon="7.17806">
        <ele>696.6</ele>
        <time>2021-06-23T09:17:19Z</time>
      </trkpt>
      <trkpt lat="48.10707" lon="7.17817">
        <ele>697</ele>
        <time>2021-06-23T09:17:22Z</time>
      </trkpt>
      <trkpt lat="48.10707" lon="7.17836">
        <ele>697.6</ele>
        <time>2021-06-23T09:17:26Z</time>
      </trkpt>
      <trkpt lat="48.10707" lon="7.1784">
        <ele>698.2</ele>
        <time>2021-06-23T09:17:27Z</time>
      </trkpt>
      <trkpt lat="48.10706" lon="7.17863">
        <ele>699.6</ele>
        <time>2021-06-23T09:17:32Z</time>
      </trkpt>
      <trkpt lat="48.10709" lon="7.17886">
        <ele>700.6</ele>
        <time>2021-06-23T09:17:37Z</time>
      </trkpt>
      <trkpt lat="48.1071" lon="7.1789">
        <ele>700.8</ele>
        <time>2021-06-23T09:17:38Z</time>
      </trkpt>
      <trkpt lat="48.10721" lon="7.17924">
        <ele>701.8</ele>
        <time>2021-06-23T09:17:45Z</time>
      </trkpt>
      <trkpt lat="48.10723" lon="7.17927">
        <ele>701.8</ele>
        <time>2021-06-23T09:17:46Z</time>
      </trkpt>
      <trkpt lat="48.1074" lon="7.17946">
        <ele>702.8</ele>
        <time>2021-06-23T09:17:52Z</time>
      </trkpt>
      <trkpt lat="48.10743" lon="7.17949">
        <ele>702.8</ele>
        <time>2021-06-23T09:17:53Z</time>
      </trkpt>
      <trkpt lat="48.10769" lon="7.17974">
        <ele>703.8</ele>
        <time>2021-06-23T09:18:02Z</time>
      </trkpt>
      <trkpt lat="48.10772" lon="7.17977">
        <ele>703.8</ele>
        <time>2021-06-23T09:18:03Z</time>
      </trkpt>
      <trkpt lat="48.10793" lon="7.17997">
        <ele>704.8</ele>
        <time>2021-06-23T09:18:10Z</time>
      </trkpt>
      <trkpt lat="48.10804" lon="7.18009">
        <ele>705.4</ele>
        <time>2021-06-23T09:18:14Z</time>
      </trkpt>
      <trkpt lat="48.10812" lon="7.18019">
        <ele>705.8</ele>
        <time>2021-06-23T09:18:17Z</time>
      </trkpt>
      <trkpt lat="48.10823" lon="7.18038">
        <ele>706.8</ele>
        <time>2021-06-23T09:18:22Z</time>
      </trkpt>
      <trkpt lat="48.10825" lon="7.18042">
        <ele>707</ele>
        <time>2021-06-23T09:18:23Z</time>
      </trkpt>
      <trkpt lat="48.10835" lon="7.18069">
        <ele>708</ele>
        <time>2021-06-23T09:18:29Z</time>
      </trkpt>
      <trkpt lat="48.10837" lon="7.18073">
        <ele>708.2</ele>
        <time>2021-06-23T09:18:30Z</time>
      </trkpt>
      <trkpt lat="48.1084" lon="7.18087">
        <ele>709.2</ele>
        <time>2021-06-23T09:18:33Z</time>
      </trkpt>
      <trkpt lat="48.10842" lon="7.181">
        <ele>709.4</ele>
        <time>2021-06-23T09:18:36Z</time>
      </trkpt>
      <trkpt lat="48.10849" lon="7.18123">
        <ele>710.2</ele>
        <time>2021-06-23T09:18:41Z</time>
      </trkpt>
      <trkpt lat="48.10851" lon="7.18129">
        <ele>710.8</ele>
        <time>2021-06-23T09:18:42Z</time>
      </trkpt>
      <trkpt lat="48.10853" lon="7.18139">
        <ele>711.4</ele>
        <time>2021-06-23T09:18:44Z</time>
      </trkpt>
      <trkpt lat="48.10859" lon="7.18163">
        <ele>711.8</ele>
        <time>2021-06-23T09:18:49Z</time>
      </trkpt>
      <trkpt lat="48.10867" lon="7.1819">
        <ele>712.4</ele>
        <time>2021-06-23T09:18:55Z</time>
      </trkpt>
      <trkpt lat="48.10875" lon="7.18227">
        <ele>713.6</ele>
        <time>2021-06-23T09:19:03Z</time>
      </trkpt>
      <trkpt lat="48.10876" lon="7.18232">
        <ele>713.6</ele>
        <time>2021-06-23T09:19:04Z</time>
      </trkpt>
      <trkpt lat="48.10872" lon="7.18257">
        <ele>714.6</ele>
        <time>2021-06-23T09:19:09Z</time>
      </trkpt>
      <trkpt lat="48.1087" lon="7.18262">
        <ele>714.8</ele>
        <time>2021-06-23T09:19:10Z</time>
      </trkpt>
      <trkpt lat="48.10858" lon="7.18275">
        <ele>715.6</ele>
        <time>2021-06-23T09:19:14Z</time>
      </trkpt>
      <trkpt lat="48.10851" lon="7.18277">
        <ele>716</ele>
        <time>2021-06-23T09:19:16Z</time>
      </trkpt>
      <trkpt lat="48.10841" lon="7.18277">
        <ele>716.4</ele>
        <time>2021-06-23T09:19:19Z</time>
      </trkpt>
      <trkpt lat="48.10821" lon="7.18274">
        <ele>717</ele>
        <time>2021-06-23T09:19:25Z</time>
      </trkpt>
      <trkpt lat="48.10807" lon="7.18271">
        <ele>717.8</ele>
        <time>2021-06-23T09:19:29Z</time>
      </trkpt>
      <trkpt lat="48.108" lon="7.1827">
        <ele>718.2</ele>
        <time>2021-06-23T09:19:31Z</time>
      </trkpt>
      <trkpt lat="48.10776" lon="7.18265">
        <ele>719.2</ele>
        <time>2021-06-23T09:19:38Z</time>
      </trkpt>
      <trkpt lat="48.1075" lon="7.18259">
        <ele>720.2</ele>
        <time>2021-06-23T09:19:46Z</time>
      </trkpt>
      <trkpt lat="48.10742" lon="7.18258">
        <ele>720.6</ele>
        <time>2021-06-23T09:19:48Z</time>
      </trkpt>
      <trkpt lat="48.10726" lon="7.18254">
        <ele>721.4</ele>
        <time>2021-06-23T09:19:53Z</time>
      </trkpt>
      <trkpt lat="48.10719" lon="7.18253">
        <ele>721.4</ele>
        <time>2021-06-23T09:19:55Z</time>
      </trkpt>
      <trkpt lat="48.10702" lon="7.18249">
        <ele>722.4</ele>
        <time>2021-06-23T09:20:00Z</time>
      </trkpt>
      <trkpt lat="48.1069" lon="7.18247">
        <ele>723.2</ele>
        <time>2021-06-23T09:20:04Z</time>
      </trkpt>
      <trkpt lat="48.10676" lon="7.18245">
        <ele>723.8</ele>
        <time>2021-06-23T09:20:08Z</time>
      </trkpt>
      <trkpt lat="48.10667" lon="7.18247">
        <ele>724.2</ele>
        <time>2021-06-23T09:20:11Z</time>
      </trkpt>
      <trkpt lat="48.10655" lon="7.18253">
        <ele>724.8</ele>
        <time>2021-06-23T09:20:15Z</time>
      </trkpt>
      <trkpt lat="48.10646" lon="7.18261">
        <ele>725.4</ele>
        <time>2021-06-23T09:20:18Z</time>
      </trkpt>
      <trkpt lat="48.10639" lon="7.18271">
        <ele>725.8</ele>
        <time>2021-06-23T09:20:21Z</time>
      </trkpt>
      <trkpt lat="48.10629" lon="7.18291">
        <ele>726.8</ele>
        <time>2021-06-23T09:20:26Z</time>
      </trkpt>
      <trkpt lat="48.10628" lon="7.18296">
        <ele>727.2</ele>
        <time>2021-06-23T09:20:27Z</time>
      </trkpt>
      <trkpt lat="48.10623" lon="7.18324">
        <ele>728.2</ele>
        <time>2021-06-23T09:20:33Z</time>
      </trkpt>
      <trkpt lat="48.10623" lon="7.18329">
        <ele>728.2</ele>
        <time>2021-06-23T09:20:34Z</time>
      </trkpt>
      <trkpt lat="48.10624" lon="7.18353">
        <ele>729.4</ele>
        <time>2021-06-23T09:20:39Z</time>
      </trkpt>
      <trkpt lat="48.10625" lon="7.18357">
        <ele>729.6</ele>
        <time>2021-06-23T09:20:40Z</time>
      </trkpt>
      <trkpt lat="48.10627" lon="7.1838">
        <ele>730.6</ele>
        <time>2021-06-23T09:20:45Z</time>
      </trkpt>
      <trkpt lat="48.10627" lon="7.18391">
        <ele>730.8</ele>
        <time>2021-06-23T09:20:47Z</time>
      </trkpt>
      <trkpt lat="48.10625" lon="7.18405">
        <ele>731.6</ele>
        <time>2021-06-23T09:20:50Z</time>
      </trkpt>
      <trkpt lat="48.10621" lon="7.18419">
        <ele>732</ele>
        <time>2021-06-23T09:20:53Z</time>
      </trkpt>
      <trkpt lat="48.10611" lon="7.18437">
        <ele>732.6</ele>
        <time>2021-06-23T09:20:58Z</time>
      </trkpt>
      <trkpt lat="48.10609" lon="7.1844">
        <ele>732.8</ele>
        <time>2021-06-23T09:20:59Z</time>
      </trkpt>
      <trkpt lat="48.10598" lon="7.18448">
        <ele>733.8</ele>
        <time>2021-06-23T09:21:03Z</time>
      </trkpt>
      <trkpt lat="48.10589" lon="7.18451">
        <ele>734.2</ele>
        <time>2021-06-23T09:21:06Z</time>
      </trkpt>
      <trkpt lat="48.10574" lon="7.18454">
        <ele>734.8</ele>
        <time>2021-06-23T09:21:11Z</time>
      </trkpt>
      <trkpt lat="48.10563" lon="7.18454">
        <ele>735.6</ele>
        <time>2021-06-23T09:21:14Z</time>
      </trkpt>
      <trkpt lat="48.10554" lon="7.18454">
        <ele>736</ele>
        <time>2021-06-23T09:21:17Z</time>
      </trkpt>
      <trkpt lat="48.10535" lon="7.18452">
        <ele>737.2</ele>
        <time>2021-06-23T09:21:23Z</time>
      </trkpt>
      <trkpt lat="48.10513" lon="7.18452">
        <ele>738.4</ele>
        <time>2021-06-23T09:21:30Z</time>
      </trkpt>
      <trkpt lat="48.10507" lon="7.18451">
        <ele>738.8</ele>
        <time>2021-06-23T09:21:32Z</time>
      </trkpt>
      <trkpt lat="48.10495" lon="7.18447">
        <ele>739.6</ele>
        <time>2021-06-23T09:21:36Z</time>
      </trkpt>
      <trkpt lat="48.10486" lon="7.18443">
        <ele>740</ele>
        <time>2021-06-23T09:21:39Z</time>
      </trkpt>
      <trkpt lat="48.10483" lon="7.18442">
        <ele>740.2</ele>
        <time>2021-06-23T09:21:40Z</time>
      </trkpt>
      <trkpt lat="48.10477" lon="7.18438">
        <ele>740.6</ele>
        <time>2021-06-23T09:21:42Z</time>
      </trkpt>
      <trkpt lat="48.10464" lon="7.18426">
        <ele>741.6</ele>
        <time>2021-06-23T09:21:47Z</time>
      </trkpt>
      <trkpt lat="48.10459" lon="7.1842">
        <ele>742</ele>
        <time>2021-06-23T09:21:49Z</time>
      </trkpt>
      <trkpt lat="48.1045" lon="7.18406">
        <ele>743</ele>
        <time>2021-06-23T09:21:53Z</time>
      </trkpt>
      <trkpt lat="48.10443" lon="7.18391">
        <ele>744.2</ele>
        <time>2021-06-23T09:21:57Z</time>
      </trkpt>
      <trkpt lat="48.10441" lon="7.18388">
        <ele>744.4</ele>
        <time>2021-06-23T09:21:58Z</time>
      </trkpt>
      <trkpt lat="48.10431" lon="7.18369">
        <ele>745.2</ele>
        <time>2021-06-23T09:22:03Z</time>
      </trkpt>
      <trkpt lat="48.10419" lon="7.18354">
        <ele>746.2</ele>
        <time>2021-06-23T09:22:08Z</time>
      </trkpt>
      <trkpt lat="48.10414" lon="7.18348">
        <ele>746.6</ele>
        <time>2021-06-23T09:22:10Z</time>
      </trkpt>
      <trkpt lat="48.10403" lon="7.18339">
        <ele>747.6</ele>
        <time>2021-06-23T09:22:14Z</time>
      </trkpt>
      <trkpt lat="48.10401" lon="7.18337">
        <ele>747.8</ele>
        <time>2021-06-23T09:22:15Z</time>
      </trkpt>
      <trkpt lat="48.10398" lon="7.18335">
        <ele>748</ele>
        <time>2021-06-23T09:22:16Z</time>
      </trkpt>
      <trkpt lat="48.10383" lon="7.18329">
        <ele>748.6</ele>
        <time>2021-06-23T09:22:21Z</time>
      </trkpt>
      <trkpt lat="48.1038" lon="7.18329">
        <ele>748.8</ele>
        <time>2021-06-23T09:22:22Z</time>
      </trkpt>
      <trkpt lat="48.10362" lon="7.18327">
        <ele>749.4</ele>
        <time>2021-06-23T09:22:28Z</time>
      </trkpt>
      <trkpt lat="48.10356" lon="7.18327">
        <ele>750</ele>
        <time>2021-06-23T09:22:30Z</time>
      </trkpt>
      <trkpt lat="48.10337" lon="7.18335">
        <ele>750.8</ele>
        <time>2021-06-23T09:22:37Z</time>
      </trkpt>
      <trkpt lat="48.10334" lon="7.18336">
        <ele>751</ele>
        <time>2021-06-23T09:22:38Z</time>
      </trkpt>
      <trkpt lat="48.10319" lon="7.18347">
        <ele>752.2</ele>
        <time>2021-06-23T09:22:44Z</time>
      </trkpt>
      <trkpt lat="48.10316" lon="7.18349">
        <ele>752.4</ele>
        <time>2021-06-23T09:22:45Z</time>
      </trkpt>
      <trkpt lat="48.10301" lon="7.18362">
        <ele>753.4</ele>
        <time>2021-06-23T09:22:50Z</time>
      </trkpt>
      <trkpt lat="48.10294" lon="7.18371">
        <ele>753.6</ele>
        <time>2021-06-23T09:22:53Z</time>
      </trkpt>
      <trkpt lat="48.10287" lon="7.18385">
        <ele>754.6</ele>
        <time>2021-06-23T09:22:57Z</time>
      </trkpt>
      <trkpt lat="48.10285" lon="7.18395">
        <ele>755</ele>
        <time>2021-06-23T09:22:59Z</time>
      </trkpt>
      <trkpt lat="48.10285" lon="7.18422">
        <ele>755.6</ele>
        <time>2021-06-23T09:23:04Z</time>
      </trkpt>
      <trkpt lat="48.10287" lon="7.18427">
        <ele>755.6</ele>
        <time>2021-06-23T09:23:05Z</time>
      </trkpt>
      <trkpt lat="48.103" lon="7.18455">
        <ele>755.8</ele>
        <time>2021-06-23T09:23:11Z</time>
      </trkpt>
      <trkpt lat="48.10319" lon="7.18486">
        <ele>756.6</ele>
        <time>2021-06-23T09:23:18Z</time>
      </trkpt>
      <trkpt lat="48.10334" lon="7.18521">
        <ele>756.8</ele>
        <time>2021-06-23T09:23:24Z</time>
      </trkpt>
      <trkpt lat="48.10343" lon="7.18545">
        <ele>756.8</ele>
        <time>2021-06-23T09:23:28Z</time>
      </trkpt>
      <trkpt lat="48.10344" lon="7.18553">
        <ele>756.8</ele>
        <time>2021-06-23T09:23:29Z</time>
      </trkpt>
      <trkpt lat="48.10351" lon="7.18595">
        <ele>757.2</ele>
        <time>2021-06-23T09:23:36Z</time>
      </trkpt>
      <trkpt lat="48.10355" lon="7.18631">
        <ele>757.6</ele>
        <time>2021-06-23T09:23:42Z</time>
      </trkpt>
      <trkpt lat="48.10355" lon="7.18644">
        <ele>757.8</ele>
        <time>2021-06-23T09:23:44Z</time>
      </trkpt>
      <trkpt lat="48.10353" lon="7.18656">
        <ele>758</ele>
        <time>2021-06-23T09:23:46Z</time>
      </trkpt>
      <trkpt lat="48.10348" lon="7.18666">
        <ele>758.2</ele>
        <time>2021-06-23T09:23:48Z</time>
      </trkpt>
      <trkpt lat="48.10341" lon="7.18672">
        <ele>758.4</ele>
        <time>2021-06-23T09:23:50Z</time>
      </trkpt>
      <trkpt lat="48.10333" lon="7.18676">
        <ele>758.6</ele>
        <time>2021-06-23T09:23:52Z</time>
      </trkpt>
      <trkpt lat="48.10328" lon="7.18677">
        <ele>758.8</ele>
        <time>2021-06-23T09:23:53Z</time>
      </trkpt>
      <trkpt lat="48.10295" lon="7.18687">
        <ele>759.2</ele>
        <time>2021-06-23T09:24:00Z</time>
      </trkpt>
      <trkpt lat="48.10285" lon="7.18689">
        <ele>759.2</ele>
        <time>2021-06-23T09:24:02Z</time>
      </trkpt>
      <trkpt lat="48.10277" lon="7.18696">
        <ele>759.2</ele>
        <time>2021-06-23T09:24:04Z</time>
      </trkpt>
      <trkpt lat="48.1027" lon="7.18708">
        <ele>759</ele>
        <time>2021-06-23T09:24:06Z</time>
      </trkpt>
      <trkpt lat="48.10264" lon="7.18724">
        <ele>758.8</ele>
        <time>2021-06-23T09:24:08Z</time>
      </trkpt>
      <trkpt lat="48.10257" lon="7.1877">
        <ele>758.4</ele>
        <time>2021-06-23T09:24:13Z</time>
      </trkpt>
      <trkpt lat="48.10253" lon="7.18808">
        <ele>757.6</ele>
        <time>2021-06-23T09:24:17Z</time>
      </trkpt>
      <trkpt lat="48.1025" lon="7.18836">
        <ele>757.2</ele>
        <time>2021-06-23T09:24:20Z</time>
      </trkpt>
      <trkpt lat="48.10246" lon="7.18883">
        <ele>756.6</ele>
        <time>2021-06-23T09:24:25Z</time>
      </trkpt>
      <trkpt lat="48.10244" lon="7.18904">
        <ele>756.4</ele>
        <time>2021-06-23T09:24:27Z</time>
      </trkpt>
      <trkpt lat="48.10237" lon="7.1894">
        <ele>756.2</ele>
        <time>2021-06-23T09:24:31Z</time>
      </trkpt>
      <trkpt lat="48.10234" lon="7.18958">
        <ele>756.2</ele>
        <time>2021-06-23T09:24:33Z</time>
      </trkpt>
      <trkpt lat="48.10221" lon="7.19017">
        <ele>755.6</ele>
        <time>2021-06-23T09:24:40Z</time>
      </trkpt>
      <trkpt lat="48.10217" lon="7.19033">
        <ele>755.6</ele>
        <time>2021-06-23T09:24:42Z</time>
      </trkpt>
      <trkpt lat="48.10211" lon="7.19059">
        <ele>755.2</ele>
        <time>2021-06-23T09:24:45Z</time>
      </trkpt>
      <trkpt lat="48.10206" lon="7.19084">
        <ele>755</ele>
        <time>2021-06-23T09:24:48Z</time>
      </trkpt>
      <trkpt lat="48.10198" lon="7.19126">
        <ele>755</ele>
        <time>2021-06-23T09:24:53Z</time>
      </trkpt>
      <trkpt lat="48.10198" lon="7.19143">
        <ele>755.2</ele>
        <time>2021-06-23T09:24:55Z</time>
      </trkpt>
      <trkpt lat="48.10203" lon="7.19207">
        <ele>755</ele>
        <time>2021-06-23T09:25:02Z</time>
      </trkpt>
      <trkpt lat="48.10206" lon="7.19251">
        <ele>754.6</ele>
        <time>2021-06-23T09:25:07Z</time>
      </trkpt>
      <trkpt lat="48.10207" lon="7.19268">
        <ele>754.4</ele>
        <time>2021-06-23T09:25:09Z</time>
      </trkpt>
      <trkpt lat="48.10208" lon="7.19284">
        <ele>754</ele>
        <time>2021-06-23T09:25:11Z</time>
      </trkpt>
      <trkpt lat="48.10205" lon="7.19307">
        <ele>753.8</ele>
        <time>2021-06-23T09:25:14Z</time>
      </trkpt>
      <trkpt lat="48.10201" lon="7.19337">
        <ele>753.6</ele>
        <time>2021-06-23T09:25:18Z</time>
      </trkpt>
      <trkpt lat="48.10199" lon="7.19345">
        <ele>753.4</ele>
        <time>2021-06-23T09:25:19Z</time>
      </trkpt>
      <trkpt lat="48.10195" lon="7.19353">
        <ele>753.4</ele>
        <time>2021-06-23T09:25:20Z</time>
      </trkpt>
      <trkpt lat="48.10191" lon="7.19358">
        <ele>753.4</ele>
        <time>2021-06-23T09:25:21Z</time>
      </trkpt>
      <trkpt lat="48.10186" lon="7.19364">
        <ele>753.2</ele>
        <time>2021-06-23T09:25:22Z</time>
      </trkpt>
      <trkpt lat="48.10171" lon="7.1938">
        <ele>753</ele>
        <time>2021-06-23T09:25:25Z</time>
      </trkpt>
      <trkpt lat="48.10154" lon="7.19392">
        <ele>753</ele>
        <time>2021-06-23T09:25:28Z</time>
      </trkpt>
      <trkpt lat="48.10142" lon="7.19398">
        <ele>753</ele>
        <time>2021-06-23T09:25:30Z</time>
      </trkpt>
      <trkpt lat="48.10109" lon="7.19404">
        <ele>753.2</ele>
        <time>2021-06-23T09:25:36Z</time>
      </trkpt>
      <trkpt lat="48.10065" lon="7.19391">
        <ele>754.6</ele>
        <time>2021-06-23T09:25:44Z</time>
      </trkpt>
      <trkpt lat="48.10024" lon="7.19377">
        <ele>755.6</ele>
        <time>2021-06-23T09:25:52Z</time>
      </trkpt>
      <trkpt lat="48.10019" lon="7.19375">
        <ele>755.8</ele>
        <time>2021-06-23T09:25:53Z</time>
      </trkpt>
      <trkpt lat="48.09988" lon="7.1937">
        <ele>756.8</ele>
        <time>2021-06-23T09:25:59Z</time>
      </trkpt>
      <trkpt lat="48.09963" lon="7.19365">
        <ele>757.8</ele>
        <time>2021-06-23T09:26:04Z</time>
      </trkpt>
      <trkpt lat="48.09933" lon="7.1936">
        <ele>758.8</ele>
        <time>2021-06-23T09:26:10Z</time>
      </trkpt>
      <trkpt lat="48.09918" lon="7.19357">
        <ele>759.4</ele>
        <time>2021-06-23T09:26:13Z</time>
      </trkpt>
      <trkpt lat="48.09903" lon="7.19353">
        <ele>760</ele>
        <time>2021-06-23T09:26:16Z</time>
      </trkpt>
      <trkpt lat="48.09873" lon="7.19345">
        <ele>760.8</ele>
        <time>2021-06-23T09:26:22Z</time>
      </trkpt>
      <trkpt lat="48.09858" lon="7.1934">
        <ele>761</ele>
        <time>2021-06-23T09:26:25Z</time>
      </trkpt>
      <trkpt lat="48.09833" lon="7.19336">
        <ele>761.6</ele>
        <time>2021-06-23T09:26:30Z</time>
      </trkpt>
      <trkpt lat="48.09817" lon="7.19337">
        <ele>762</ele>
        <time>2021-06-23T09:26:33Z</time>
      </trkpt>
      <trkpt lat="48.09796" lon="7.1934">
        <ele>762.8</ele>
        <time>2021-06-23T09:26:37Z</time>
      </trkpt>
      <trkpt lat="48.09787" lon="7.19343">
        <ele>763.2</ele>
        <time>2021-06-23T09:26:39Z</time>
      </trkpt>
      <trkpt lat="48.09752" lon="7.19353">
        <ele>764.2</ele>
        <time>2021-06-23T09:26:46Z</time>
      </trkpt>
      <trkpt lat="48.09747" lon="7.19355">
        <ele>764.2</ele>
        <time>2021-06-23T09:26:47Z</time>
      </trkpt>
      <trkpt lat="48.09709" lon="7.19375">
        <ele>765.4</ele>
        <time>2021-06-23T09:26:55Z</time>
      </trkpt>
      <trkpt lat="48.09704" lon="7.19377">
        <ele>765.4</ele>
        <time>2021-06-23T09:26:56Z</time>
      </trkpt>
      <trkpt lat="48.09676" lon="7.19387">
        <ele>765.6</ele>
        <time>2021-06-23T09:27:01Z</time>
      </trkpt>
      <trkpt lat="48.09669" lon="7.19387">
        <ele>765.6</ele>
        <time>2021-06-23T09:27:02Z</time>
      </trkpt>
      <trkpt lat="48.09634" lon="7.19379">
        <ele>765</ele>
        <time>2021-06-23T09:27:07Z</time>
      </trkpt>
      <trkpt lat="48.09618" lon="7.19373">
        <ele>764.2</ele>
        <time>2021-06-23T09:27:09Z</time>
      </trkpt>
      <trkpt lat="48.09592" lon="7.19365">
        <ele>762.8</ele>
        <time>2021-06-23T09:27:12Z</time>
      </trkpt>
      <trkpt lat="48.09583" lon="7.19362">
        <ele>762.2</ele>
        <time>2021-06-23T09:27:13Z</time>
      </trkpt>
      <trkpt lat="48.09573" lon="7.19358">
        <ele>761.4</ele>
        <time>2021-06-23T09:27:14Z</time>
      </trkpt>
      <trkpt lat="48.09564" lon="7.19356">
        <ele>760.4</ele>
        <time>2021-06-23T09:27:15Z</time>
      </trkpt>
      <trkpt lat="48.09542" lon="7.19353">
        <ele>759</ele>
        <time>2021-06-23T09:27:17Z</time>
      </trkpt>
      <trkpt lat="48.09523" lon="7.19357">
        <ele>757.6</ele>
        <time>2021-06-23T09:27:19Z</time>
      </trkpt>
      <trkpt lat="48.09506" lon="7.19363">
        <ele>757</ele>
        <time>2021-06-23T09:27:21Z</time>
      </trkpt>
      <trkpt lat="48.09496" lon="7.19367">
        <ele>756.6</ele>
        <time>2021-06-23T09:27:22Z</time>
      </trkpt>
      <trkpt lat="48.09466" lon="7.19379">
        <ele>755.4</ele>
        <time>2021-06-23T09:27:25Z</time>
      </trkpt>
      <trkpt lat="48.09456" lon="7.19383">
        <ele>754.2</ele>
        <time>2021-06-23T09:27:26Z</time>
      </trkpt>
      <trkpt lat="48.09435" lon="7.19393">
        <ele>752.6</ele>
        <time>2021-06-23T09:27:28Z</time>
      </trkpt>
      <trkpt lat="48.09426" lon="7.194">
        <ele>751.8</ele>
        <time>2021-06-23T09:27:29Z</time>
      </trkpt>
      <trkpt lat="48.09417" lon="7.19411">
        <ele>751.2</ele>
        <time>2021-06-23T09:27:30Z</time>
      </trkpt>
      <trkpt lat="48.09409" lon="7.19425">
        <ele>750</ele>
        <time>2021-06-23T09:27:31Z</time>
      </trkpt>
      <trkpt lat="48.09405" lon="7.19437">
        <ele>749.2</ele>
        <time>2021-06-23T09:27:32Z</time>
      </trkpt>
      <trkpt lat="48.09402" lon="7.19452">
        <ele>747.8</ele>
        <time>2021-06-23T09:27:33Z</time>
      </trkpt>
      <trkpt lat="48.09401" lon="7.19468">
        <ele>747.4</ele>
        <time>2021-06-23T09:27:34Z</time>
      </trkpt>
      <trkpt lat="48.09404" lon="7.19497">
        <ele>746.4</ele>
        <time>2021-06-23T09:27:36Z</time>
      </trkpt>
      <trkpt lat="48.09408" lon="7.1951">
        <ele>746.2</ele>
        <time>2021-06-23T09:27:37Z</time>
      </trkpt>
      <trkpt lat="48.09415" lon="7.19535">
        <ele>745.4</ele>
        <time>2021-06-23T09:27:39Z</time>
      </trkpt>
      <trkpt lat="48.09428" lon="7.1957">
        <ele>744.8</ele>
        <time>2021-06-23T09:27:42Z</time>
      </trkpt>
      <trkpt lat="48.09443" lon="7.19616">
        <ele>744.8</ele>
        <time>2021-06-23T09:27:47Z</time>
      </trkpt>
      <trkpt lat="48.09446" lon="7.19625">
        <ele>744.8</ele>
        <time>2021-06-23T09:27:48Z</time>
      </trkpt>
      <trkpt lat="48.09458" lon="7.19661">
        <ele>745.2</ele>
        <time>2021-06-23T09:27:52Z</time>
      </trkpt>
      <trkpt lat="48.09464" lon="7.19679">
        <ele>745.4</ele>
        <time>2021-06-23T09:27:54Z</time>
      </trkpt>
      <trkpt lat="48.09469" lon="7.19696">
        <ele>745.4</ele>
        <time>2021-06-23T09:27:56Z</time>
      </trkpt>
      <trkpt lat="48.09475" lon="7.19713">
        <ele>745.6</ele>
        <time>2021-06-23T09:27:58Z</time>
      </trkpt>
      <trkpt lat="48.09491" lon="7.19755">
        <ele>746.2</ele>
        <time>2021-06-23T09:28:04Z</time>
      </trkpt>
      <trkpt lat="48.09494" lon="7.19761">
        <ele>746.4</ele>
        <time>2021-06-23T09:28:05Z</time>
      </trkpt>
      <trkpt lat="48.09504" lon="7.19779">
        <ele>746.6</ele>
        <time>2021-06-23T09:28:08Z</time>
      </trkpt>
      <trkpt lat="48.09507" lon="7.19784">
        <ele>746.6</ele>
        <time>2021-06-23T09:28:09Z</time>
      </trkpt>
      <trkpt lat="48.09512" lon="7.1979">
        <ele>746.6</ele>
        <time>2021-06-23T09:28:10Z</time>
      </trkpt>
      <trkpt lat="48.09529" lon="7.19806">
        <ele>746.8</ele>
        <time>2021-06-23T09:28:13Z</time>
      </trkpt>
      <trkpt lat="48.09535" lon="7.1981">
        <ele>746.8</ele>
        <time>2021-06-23T09:28:14Z</time>
      </trkpt>
      <trkpt lat="48.09541" lon="7.19811">
        <ele>746.8</ele>
        <time>2021-06-23T09:28:15Z</time>
      </trkpt>
      <trkpt lat="48.09562" lon="7.1982">
        <ele>747</ele>
        <time>2021-06-23T09:28:18Z</time>
      </trkpt>
      <trkpt lat="48.09568" lon="7.19826">
        <ele>747</ele>
        <time>2021-06-23T09:28:19Z</time>
      </trkpt>
      <trkpt lat="48.09592" lon="7.19853">
        <ele>747.2</ele>
        <time>2021-06-23T09:28:23Z</time>
      </trkpt>
      <trkpt lat="48.09596" lon="7.19858">
        <ele>747.2</ele>
        <time>2021-06-23T09:28:24Z</time>
      </trkpt>
      <trkpt lat="48.096" lon="7.19864">
        <ele>747.4</ele>
        <time>2021-06-23T09:28:25Z</time>
      </trkpt>
      <trkpt lat="48.0961" lon="7.19888">
        <ele>747.6</ele>
        <time>2021-06-23T09:28:28Z</time>
      </trkpt>
      <trkpt lat="48.09612" lon="7.19908">
        <ele>747.6</ele>
        <time>2021-06-23T09:28:30Z</time>
      </trkpt>
      <trkpt lat="48.09613" lon="7.1992">
        <ele>747.8</ele>
        <time>2021-06-23T09:28:32Z</time>
      </trkpt>
      <trkpt lat="48.09613" lon="7.19925">
        <ele>748</ele>
        <time>2021-06-23T09:28:33Z</time>
      </trkpt>
      <trkpt lat="48.09611" lon="7.1994">
        <ele>748.2</ele>
        <time>2021-06-23T09:28:35Z</time>
      </trkpt>
      <trkpt lat="48.0961" lon="7.19946">
        <ele>748.2</ele>
        <time>2021-06-23T09:28:36Z</time>
      </trkpt>
      <trkpt lat="48.09609" lon="7.19975">
        <ele>748.4</ele>
        <time>2021-06-23T09:28:39Z</time>
      </trkpt>
      <trkpt lat="48.09611" lon="7.19987">
        <ele>748.2</ele>
        <time>2021-06-23T09:28:40Z</time>
      </trkpt>
      <trkpt lat="48.09611" lon="7.19998">
        <ele>748.4</ele>
        <time>2021-06-23T09:28:41Z</time>
      </trkpt>
      <trkpt lat="48.09608" lon="7.20031">
        <ele>748.2</ele>
        <time>2021-06-23T09:28:44Z</time>
      </trkpt>
      <trkpt lat="48.09607" lon="7.2004">
        <ele>748.2</ele>
        <time>2021-06-23T09:28:45Z</time>
      </trkpt>
      <trkpt lat="48.09603" lon="7.20056">
        <ele>748.2</ele>
        <time>2021-06-23T09:28:47Z</time>
      </trkpt>
      <trkpt lat="48.096" lon="7.20066">
        <ele>748.2</ele>
        <time>2021-06-23T09:28:48Z</time>
      </trkpt>
      <trkpt lat="48.09591" lon="7.20085">
        <ele>748.2</ele>
        <time>2021-06-23T09:28:50Z</time>
      </trkpt>
      <trkpt lat="48.09581" lon="7.20105">
        <ele>748.2</ele>
        <time>2021-06-23T09:28:53Z</time>
      </trkpt>
      <trkpt lat="48.09573" lon="7.20114">
        <ele>748.2</ele>
        <time>2021-06-23T09:28:55Z</time>
      </trkpt>
      <trkpt lat="48.09567" lon="7.20119">
        <ele>748</ele>
        <time>2021-06-23T09:28:56Z</time>
      </trkpt>
      <trkpt lat="48.09562" lon="7.20123">
        <ele>747.8</ele>
        <time>2021-06-23T09:28:57Z</time>
      </trkpt>
      <trkpt lat="48.09551" lon="7.2013">
        <ele>747.6</ele>
        <time>2021-06-23T09:28:59Z</time>
      </trkpt>
      <trkpt lat="48.09545" lon="7.20134">
        <ele>747.4</ele>
        <time>2021-06-23T09:29:00Z</time>
      </trkpt>
      <trkpt lat="48.09539" lon="7.20138">
        <ele>747.4</ele>
        <time>2021-06-23T09:29:01Z</time>
      </trkpt>
      <trkpt lat="48.09531" lon="7.20145">
        <ele>747.2</ele>
        <time>2021-06-23T09:29:03Z</time>
      </trkpt>
      <trkpt lat="48.09526" lon="7.20148">
        <ele>746.8</ele>
        <time>2021-06-23T09:29:04Z</time>
      </trkpt>
      <trkpt lat="48.09512" lon="7.20157">
        <ele>746.4</ele>
        <time>2021-06-23T09:29:06Z</time>
      </trkpt>
      <trkpt lat="48.09504" lon="7.20164">
        <ele>746.2</ele>
        <time>2021-06-23T09:29:07Z</time>
      </trkpt>
      <trkpt lat="48.09497" lon="7.20172">
        <ele>745.8</ele>
        <time>2021-06-23T09:29:08Z</time>
      </trkpt>
      <trkpt lat="48.09488" lon="7.20195">
        <ele>745.2</ele>
        <time>2021-06-23T09:29:10Z</time>
      </trkpt>
      <trkpt lat="48.09486" lon="7.20208">
        <ele>744.6</ele>
        <time>2021-06-23T09:29:11Z</time>
      </trkpt>
      <trkpt lat="48.09485" lon="7.20222">
        <ele>744.4</ele>
        <time>2021-06-23T09:29:12Z</time>
      </trkpt>
      <trkpt lat="48.09485" lon="7.20238">
        <ele>744</ele>
        <time>2021-06-23T09:29:13Z</time>
      </trkpt>
      <trkpt lat="48.09485" lon="7.20251">
        <ele>744</ele>
        <time>2021-06-23T09:29:14Z</time>
      </trkpt>
      <trkpt lat="48.0949" lon="7.20277">
        <ele>743.6</ele>
        <time>2021-06-23T09:29:16Z</time>
      </trkpt>
      <trkpt lat="48.09492" lon="7.20318">
        <ele>743</ele>
        <time>2021-06-23T09:29:19Z</time>
      </trkpt>
      <trkpt lat="48.09495" lon="7.20328">
        <ele>742.4</ele>
        <time>2021-06-23T09:29:20Z</time>
      </trkpt>
      <trkpt lat="48.095" lon="7.2034">
        <ele>742</ele>
        <time>2021-06-23T09:29:21Z</time>
      </trkpt>
      <trkpt lat="48.09509" lon="7.20362">
        <ele>741.4</ele>
        <time>2021-06-23T09:29:23Z</time>
      </trkpt>
      <trkpt lat="48.09513" lon="7.20368">
        <ele>740.8</ele>
        <time>2021-06-23T09:29:24Z</time>
      </trkpt>
      <trkpt lat="48.09526" lon="7.20384">
        <ele>740.4</ele>
        <time>2021-06-23T09:29:26Z</time>
      </trkpt>
      <trkpt lat="48.0953" lon="7.2039">
        <ele>740</ele>
        <time>2021-06-23T09:29:27Z</time>
      </trkpt>
      <trkpt lat="48.09533" lon="7.20395">
        <ele>739.8</ele>
        <time>2021-06-23T09:29:28Z</time>
      </trkpt>
      <trkpt lat="48.09536" lon="7.20403">
        <ele>739.6</ele>
        <time>2021-06-23T09:29:31Z</time>
      </trkpt>
      <trkpt lat="48.09537" lon="7.20403">
        <ele>739.4</ele>
        <time>2021-06-23T09:29:34Z</time>
      </trkpt>
      <trkpt lat="48.0954" lon="7.20406">
        <ele>738</ele>
        <time>2021-06-23T09:31:14Z</time>
      </trkpt>
      <trkpt lat="48.09556" lon="7.20414">
        <ele>737.8</ele>
        <time>2021-06-23T09:31:18Z</time>
      </trkpt>
      <trkpt lat="48.09561" lon="7.20416">
        <ele>737.8</ele>
        <time>2021-06-23T09:31:19Z</time>
      </trkpt>
      <trkpt lat="48.09567" lon="7.20419">
        <ele>737.8</ele>
        <time>2021-06-23T09:31:20Z</time>
      </trkpt>
      <trkpt lat="48.09587" lon="7.20426">
        <ele>737.2</ele>
        <time>2021-06-23T09:31:23Z</time>
      </trkpt>
      <trkpt lat="48.09593" lon="7.20427">
        <ele>736.8</ele>
        <time>2021-06-23T09:31:24Z</time>
      </trkpt>
      <trkpt lat="48.0963" lon="7.20432">
        <ele>736.2</ele>
        <time>2021-06-23T09:31:29Z</time>
      </trkpt>
      <trkpt lat="48.09643" lon="7.20437">
        <ele>735.8</ele>
        <time>2021-06-23T09:31:31Z</time>
      </trkpt>
      <trkpt lat="48.09672" lon="7.20446">
        <ele>734.4</ele>
        <time>2021-06-23T09:31:35Z</time>
      </trkpt>
      <trkpt lat="48.09701" lon="7.20454">
        <ele>733.4</ele>
        <time>2021-06-23T09:31:39Z</time>
      </trkpt>
      <trkpt lat="48.09722" lon="7.20464">
        <ele>732.8</ele>
        <time>2021-06-23T09:31:42Z</time>
      </trkpt>
      <trkpt lat="48.09751" lon="7.20473">
        <ele>732.4</ele>
        <time>2021-06-23T09:31:46Z</time>
      </trkpt>
      <trkpt lat="48.09758" lon="7.20474">
        <ele>732.4</ele>
        <time>2021-06-23T09:31:47Z</time>
      </trkpt>
      <trkpt lat="48.09765" lon="7.20474">
        <ele>732</ele>
        <time>2021-06-23T09:31:48Z</time>
      </trkpt>
      <trkpt lat="48.09792" lon="7.20481">
        <ele>731.6</ele>
        <time>2021-06-23T09:31:52Z</time>
      </trkpt>
      <trkpt lat="48.09804" lon="7.20488">
        <ele>731.6</ele>
        <time>2021-06-23T09:31:54Z</time>
      </trkpt>
      <trkpt lat="48.09814" lon="7.20502">
        <ele>731.4</ele>
        <time>2021-06-23T09:31:56Z</time>
      </trkpt>
      <trkpt lat="48.09825" lon="7.20533">
        <ele>731</ele>
        <time>2021-06-23T09:31:59Z</time>
      </trkpt>
      <trkpt lat="48.09827" lon="7.20544">
        <ele>730.8</ele>
        <time>2021-06-23T09:32:00Z</time>
      </trkpt>
      <trkpt lat="48.09832" lon="7.2059">
        <ele>730.2</ele>
        <time>2021-06-23T09:32:04Z</time>
      </trkpt>
      <trkpt lat="48.09835" lon="7.20624">
        <ele>729.8</ele>
        <time>2021-06-23T09:32:07Z</time>
      </trkpt>
      <trkpt lat="48.09836" lon="7.20647">
        <ele>728.8</ele>
        <time>2021-06-23T09:32:09Z</time>
      </trkpt>
      <trkpt lat="48.09837" lon="7.20658">
        <ele>728.6</ele>
        <time>2021-06-23T09:32:10Z</time>
      </trkpt>
      <trkpt lat="48.09838" lon="7.20703">
        <ele>728</ele>
        <time>2021-06-23T09:32:14Z</time>
      </trkpt>
      <trkpt lat="48.09839" lon="7.20726">
        <ele>727.6</ele>
        <time>2021-06-23T09:32:16Z</time>
      </trkpt>
      <trkpt lat="48.0984" lon="7.20761">
        <ele>726.6</ele>
        <time>2021-06-23T09:32:19Z</time>
      </trkpt>
      <trkpt lat="48.09841" lon="7.20772">
        <ele>726.6</ele>
        <time>2021-06-23T09:32:20Z</time>
      </trkpt>
      <trkpt lat="48.09844" lon="7.20821">
        <ele>725.6</ele>
        <time>2021-06-23T09:32:24Z</time>
      </trkpt>
      <trkpt lat="48.0985" lon="7.20875">
        <ele>724.4</ele>
        <time>2021-06-23T09:32:29Z</time>
      </trkpt>
      <trkpt lat="48.09862" lon="7.20947">
        <ele>723.8</ele>
        <time>2021-06-23T09:32:36Z</time>
      </trkpt>
      <trkpt lat="48.09877" lon="7.20988">
        <ele>723.4</ele>
        <time>2021-06-23T09:32:40Z</time>
      </trkpt>
      <trkpt lat="48.09882" lon="7.20997">
        <ele>723.4</ele>
        <time>2021-06-23T09:32:41Z</time>
      </trkpt>
      <trkpt lat="48.09904" lon="7.21046">
        <ele>722.2</ele>
        <time>2021-06-23T09:32:46Z</time>
      </trkpt>
      <trkpt lat="48.09912" lon="7.21073">
        <ele>721</ele>
        <time>2021-06-23T09:32:48Z</time>
      </trkpt>
      <trkpt lat="48.0992" lon="7.21104">
        <ele>720.2</ele>
        <time>2021-06-23T09:32:50Z</time>
      </trkpt>
      <trkpt lat="48.09924" lon="7.21115">
        <ele>719.6</ele>
        <time>2021-06-23T09:32:51Z</time>
      </trkpt>
      <trkpt lat="48.0993" lon="7.21143">
        <ele>718</ele>
        <time>2021-06-23T09:32:53Z</time>
      </trkpt>
      <trkpt lat="48.09935" lon="7.21176">
        <ele>716.6</ele>
        <time>2021-06-23T09:32:55Z</time>
      </trkpt>
      <trkpt lat="48.09937" lon="7.21189">
        <ele>715.6</ele>
        <time>2021-06-23T09:32:56Z</time>
      </trkpt>
      <trkpt lat="48.09939" lon="7.21205">
        <ele>714.6</ele>
        <time>2021-06-23T09:32:57Z</time>
      </trkpt>
      <trkpt lat="48.09942" lon="7.21221">
        <ele>713.4</ele>
        <time>2021-06-23T09:32:58Z</time>
      </trkpt>
      <trkpt lat="48.09948" lon="7.21253">
        <ele>712.8</ele>
        <time>2021-06-23T09:33:00Z</time>
      </trkpt>
      <trkpt lat="48.09951" lon="7.21269">
        <ele>712.2</ele>
        <time>2021-06-23T09:33:01Z</time>
      </trkpt>
      <trkpt lat="48.09954" lon="7.21286">
        <ele>711.2</ele>
        <time>2021-06-23T09:33:02Z</time>
      </trkpt>
      <trkpt lat="48.0996" lon="7.21319">
        <ele>709.8</ele>
        <time>2021-06-23T09:33:04Z</time>
      </trkpt>
      <trkpt lat="48.09962" lon="7.21335">
        <ele>708.6</ele>
        <time>2021-06-23T09:33:05Z</time>
      </trkpt>
      <trkpt lat="48.09967" lon="7.21368">
        <ele>707</ele>
        <time>2021-06-23T09:33:07Z</time>
      </trkpt>
      <trkpt lat="48.09974" lon="7.214">
        <ele>705.2</ele>
        <time>2021-06-23T09:33:09Z</time>
      </trkpt>
      <trkpt lat="48.09983" lon="7.21432">
        <ele>703.2</ele>
        <time>2021-06-23T09:33:11Z</time>
      </trkpt>
      <trkpt lat="48.09988" lon="7.21447">
        <ele>702.6</ele>
        <time>2021-06-23T09:33:12Z</time>
      </trkpt>
      <trkpt lat="48.09996" lon="7.21459">
        <ele>701.6</ele>
        <time>2021-06-23T09:33:13Z</time>
      </trkpt>
      <trkpt lat="48.10003" lon="7.21473">
        <ele>700.4</ele>
        <time>2021-06-23T09:33:14Z</time>
      </trkpt>
      <trkpt lat="48.10024" lon="7.21528">
        <ele>698.4</ele>
        <time>2021-06-23T09:33:18Z</time>
      </trkpt>
      <trkpt lat="48.10026" lon="7.21543">
        <ele>698.2</ele>
        <time>2021-06-23T09:33:19Z</time>
      </trkpt>
      <trkpt lat="48.10025" lon="7.2156">
        <ele>697</ele>
        <time>2021-06-23T09:33:20Z</time>
      </trkpt>
      <trkpt lat="48.1002" lon="7.21571">
        <ele>696.6</ele>
        <time>2021-06-23T09:33:21Z</time>
      </trkpt>
      <trkpt lat="48.10015" lon="7.21584">
        <ele>695.4</ele>
        <time>2021-06-23T09:33:22Z</time>
      </trkpt>
      <trkpt lat="48.10008" lon="7.21593">
        <ele>694.6</ele>
        <time>2021-06-23T09:33:23Z</time>
      </trkpt>
      <trkpt lat="48.1" lon="7.21601">
        <ele>694</ele>
        <time>2021-06-23T09:33:24Z</time>
      </trkpt>
      <trkpt lat="48.09991" lon="7.21609">
        <ele>693</ele>
        <time>2021-06-23T09:33:25Z</time>
      </trkpt>
      <trkpt lat="48.09973" lon="7.21624">
        <ele>691.8</ele>
        <time>2021-06-23T09:33:27Z</time>
      </trkpt>
      <trkpt lat="48.09946" lon="7.2164">
        <ele>690.4</ele>
        <time>2021-06-23T09:33:30Z</time>
      </trkpt>
      <trkpt lat="48.09932" lon="7.21642">
        <ele>689.4</ele>
        <time>2021-06-23T09:33:32Z</time>
      </trkpt>
      <trkpt lat="48.09924" lon="7.2164">
        <ele>689.2</ele>
        <time>2021-06-23T09:33:33Z</time>
      </trkpt>
      <trkpt lat="48.09916" lon="7.21635">
        <ele>688.6</ele>
        <time>2021-06-23T09:33:34Z</time>
      </trkpt>
      <trkpt lat="48.099" lon="7.21621">
        <ele>688</ele>
        <time>2021-06-23T09:33:36Z</time>
      </trkpt>
      <trkpt lat="48.09884" lon="7.21606">
        <ele>687.6</ele>
        <time>2021-06-23T09:33:38Z</time>
      </trkpt>
      <trkpt lat="48.09868" lon="7.2159">
        <ele>686.8</ele>
        <time>2021-06-23T09:33:40Z</time>
      </trkpt>
      <trkpt lat="48.09852" lon="7.21577">
        <ele>686.2</ele>
        <time>2021-06-23T09:33:42Z</time>
      </trkpt>
      <trkpt lat="48.09843" lon="7.21573">
        <ele>685.6</ele>
        <time>2021-06-23T09:33:43Z</time>
      </trkpt>
      <trkpt lat="48.09835" lon="7.21571">
        <ele>685.2</ele>
        <time>2021-06-23T09:33:44Z</time>
      </trkpt>
      <trkpt lat="48.09827" lon="7.21572">
        <ele>684.8</ele>
        <time>2021-06-23T09:33:45Z</time>
      </trkpt>
      <trkpt lat="48.09819" lon="7.21576">
        <ele>684.6</ele>
        <time>2021-06-23T09:33:46Z</time>
      </trkpt>
      <trkpt lat="48.09808" lon="7.21594">
        <ele>684</ele>
        <time>2021-06-23T09:33:48Z</time>
      </trkpt>
      <trkpt lat="48.09804" lon="7.21606">
        <ele>683.4</ele>
        <time>2021-06-23T09:33:49Z</time>
      </trkpt>
      <trkpt lat="48.09794" lon="7.21629">
        <ele>682.8</ele>
        <time>2021-06-23T09:33:51Z</time>
      </trkpt>
      <trkpt lat="48.09783" lon="7.21663">
        <ele>682</ele>
        <time>2021-06-23T09:33:54Z</time>
      </trkpt>
      <trkpt lat="48.09771" lon="7.21701">
        <ele>680.8</ele>
        <time>2021-06-23T09:33:57Z</time>
      </trkpt>
      <trkpt lat="48.09767" lon="7.21714">
        <ele>680.4</ele>
        <time>2021-06-23T09:33:58Z</time>
      </trkpt>
      <trkpt lat="48.09764" lon="7.2174">
        <ele>679.6</ele>
        <time>2021-06-23T09:34:00Z</time>
      </trkpt>
      <trkpt lat="48.09761" lon="7.21765">
        <ele>678.8</ele>
        <time>2021-06-23T09:34:02Z</time>
      </trkpt>
      <trkpt lat="48.09761" lon="7.21778">
        <ele>678.4</ele>
        <time>2021-06-23T09:34:03Z</time>
      </trkpt>
      <trkpt lat="48.09764" lon="7.21816">
        <ele>677.6</ele>
        <time>2021-06-23T09:34:06Z</time>
      </trkpt>
      <trkpt lat="48.09768" lon="7.2184">
        <ele>677.2</ele>
        <time>2021-06-23T09:34:08Z</time>
      </trkpt>
      <trkpt lat="48.09777" lon="7.21873">
        <ele>676.4</ele>
        <time>2021-06-23T09:34:11Z</time>
      </trkpt>
      <trkpt lat="48.0978" lon="7.21884">
        <ele>676.2</ele>
        <time>2021-06-23T09:34:12Z</time>
      </trkpt>
      <trkpt lat="48.09792" lon="7.21926">
        <ele>675.6</ele>
        <time>2021-06-23T09:34:16Z</time>
      </trkpt>
      <trkpt lat="48.09798" lon="7.21948">
        <ele>675</ele>
        <time>2021-06-23T09:34:18Z</time>
      </trkpt>
      <trkpt lat="48.09808" lon="7.21992">
        <ele>674.4</ele>
        <time>2021-06-23T09:34:22Z</time>
      </trkpt>
      <trkpt lat="48.09809" lon="7.22003">
        <ele>674</ele>
        <time>2021-06-23T09:34:23Z</time>
      </trkpt>
      <trkpt lat="48.09812" lon="7.22027">
        <ele>673.8</ele>
        <time>2021-06-23T09:34:25Z</time>
      </trkpt>
      <trkpt lat="48.09813" lon="7.22078">
        <ele>672.8</ele>
        <time>2021-06-23T09:34:29Z</time>
      </trkpt>
      <trkpt lat="48.09814" lon="7.2209">
        <ele>672.4</ele>
        <time>2021-06-23T09:34:30Z</time>
      </trkpt>
      <trkpt lat="48.09816" lon="7.22127">
        <ele>671.4</ele>
        <time>2021-06-23T09:34:33Z</time>
      </trkpt>
      <trkpt lat="48.09819" lon="7.2215">
        <ele>670.8</ele>
        <time>2021-06-23T09:34:35Z</time>
      </trkpt>
      <trkpt lat="48.09822" lon="7.22174">
        <ele>670.4</ele>
        <time>2021-06-23T09:34:37Z</time>
      </trkpt>
      <trkpt lat="48.09828" lon="7.22208">
        <ele>669.2</ele>
        <time>2021-06-23T09:34:40Z</time>
      </trkpt>
      <trkpt lat="48.09833" lon="7.22231">
        <ele>668.6</ele>
        <time>2021-06-23T09:34:42Z</time>
      </trkpt>
      <trkpt lat="48.09835" lon="7.22243">
        <ele>668</ele>
        <time>2021-06-23T09:34:43Z</time>
      </trkpt>
      <trkpt lat="48.0984" lon="7.22292">
        <ele>667.2</ele>
        <time>2021-06-23T09:34:47Z</time>
      </trkpt>
      <trkpt lat="48.09839" lon="7.22304">
        <ele>667</ele>
        <time>2021-06-23T09:34:48Z</time>
      </trkpt>
      <trkpt lat="48.09834" lon="7.2234">
        <ele>666.8</ele>
        <time>2021-06-23T09:34:51Z</time>
      </trkpt>
      <trkpt lat="48.09827" lon="7.22365">
        <ele>666</ele>
        <time>2021-06-23T09:34:53Z</time>
      </trkpt>
      <trkpt lat="48.0982" lon="7.22389">
        <ele>665.4</ele>
        <time>2021-06-23T09:34:55Z</time>
      </trkpt>
      <trkpt lat="48.09817" lon="7.22399">
        <ele>665</ele>
        <time>2021-06-23T09:34:56Z</time>
      </trkpt>
      <trkpt lat="48.09808" lon="7.22436">
        <ele>663.6</ele>
        <time>2021-06-23T09:34:59Z</time>
      </trkpt>
      <trkpt lat="48.09805" lon="7.22459">
        <ele>663.2</ele>
        <time>2021-06-23T09:35:01Z</time>
      </trkpt>
      <trkpt lat="48.09803" lon="7.22484">
        <ele>662.6</ele>
        <time>2021-06-23T09:35:03Z</time>
      </trkpt>
      <trkpt lat="48.09802" lon="7.22521">
        <ele>661.8</ele>
        <time>2021-06-23T09:35:06Z</time>
      </trkpt>
      <trkpt lat="48.09802" lon="7.22548">
        <ele>661</ele>
        <time>2021-06-23T09:35:08Z</time>
      </trkpt>
      <trkpt lat="48.09801" lon="7.22582">
        <ele>660.2</ele>
        <time>2021-06-23T09:35:11Z</time>
      </trkpt>
      <trkpt lat="48.098" lon="7.22594">
        <ele>660</ele>
        <time>2021-06-23T09:35:12Z</time>
      </trkpt>
      <trkpt lat="48.09795" lon="7.22629">
        <ele>658.8</ele>
        <time>2021-06-23T09:35:15Z</time>
      </trkpt>
      <trkpt lat="48.09792" lon="7.2264">
        <ele>658.4</ele>
        <time>2021-06-23T09:35:16Z</time>
      </trkpt>
      <trkpt lat="48.09788" lon="7.22649">
        <ele>658</ele>
        <time>2021-06-23T09:35:17Z</time>
      </trkpt>
      <trkpt lat="48.09784" lon="7.22659">
        <ele>658</ele>
        <time>2021-06-23T09:35:18Z</time>
      </trkpt>
      <trkpt lat="48.09773" lon="7.22692">
        <ele>657.8</ele>
        <time>2021-06-23T09:35:21Z</time>
      </trkpt>
      <trkpt lat="48.0977" lon="7.22702">
        <ele>657.6</ele>
        <time>2021-06-23T09:35:22Z</time>
      </trkpt>
      <trkpt lat="48.09754" lon="7.22743">
        <ele>656.2</ele>
        <time>2021-06-23T09:35:26Z</time>
      </trkpt>
      <trkpt lat="48.09747" lon="7.22764">
        <ele>655.4</ele>
        <time>2021-06-23T09:35:28Z</time>
      </trkpt>
      <trkpt lat="48.09738" lon="7.22787">
        <ele>654.8</ele>
        <time>2021-06-23T09:35:30Z</time>
      </trkpt>
      <trkpt lat="48.0973" lon="7.22818">
        <ele>654.2</ele>
        <time>2021-06-23T09:35:33Z</time>
      </trkpt>
      <trkpt lat="48.09728" lon="7.22832">
        <ele>654</ele>
        <time>2021-06-23T09:35:34Z</time>
      </trkpt>
      <trkpt lat="48.09729" lon="7.22844">
        <ele>653.8</ele>
        <time>2021-06-23T09:35:35Z</time>
      </trkpt>
      <trkpt lat="48.09734" lon="7.22864">
        <ele>652.8</ele>
        <time>2021-06-23T09:35:37Z</time>
      </trkpt>
      <trkpt lat="48.09738" lon="7.22874">
        <ele>652.4</ele>
        <time>2021-06-23T09:35:38Z</time>
      </trkpt>
      <trkpt lat="48.09743" lon="7.22884">
        <ele>652</ele>
        <time>2021-06-23T09:35:39Z</time>
      </trkpt>
      <trkpt lat="48.09748" lon="7.22892">
        <ele>651.8</ele>
        <time>2021-06-23T09:35:40Z</time>
      </trkpt>
      <trkpt lat="48.09755" lon="7.22899">
        <ele>651.6</ele>
        <time>2021-06-23T09:35:41Z</time>
      </trkpt>
      <trkpt lat="48.09767" lon="7.22911">
        <ele>651.2</ele>
        <time>2021-06-23T09:35:43Z</time>
      </trkpt>
      <trkpt lat="48.09774" lon="7.22917">
        <ele>651</ele>
        <time>2021-06-23T09:35:44Z</time>
      </trkpt>
      <trkpt lat="48.09806" lon="7.22947">
        <ele>650</ele>
        <time>2021-06-23T09:35:49Z</time>
      </trkpt>
      <trkpt lat="48.09813" lon="7.22952">
        <ele>650</ele>
        <time>2021-06-23T09:35:50Z</time>
      </trkpt>
      <trkpt lat="48.09843" lon="7.22977">
        <ele>649.6</ele>
        <time>2021-06-23T09:35:55Z</time>
      </trkpt>
      <trkpt lat="48.09885" lon="7.23001">
        <ele>649.4</ele>
        <time>2021-06-23T09:36:02Z</time>
      </trkpt>
      <trkpt lat="48.0992" lon="7.23019">
        <ele>649</ele>
        <time>2021-06-23T09:36:08Z</time>
      </trkpt>
      <trkpt lat="48.09931" lon="7.23025">
        <ele>649</ele>
        <time>2021-06-23T09:36:10Z</time>
      </trkpt>
      <trkpt lat="48.09942" lon="7.23035">
        <ele>648.8</ele>
        <time>2021-06-23T09:36:12Z</time>
      </trkpt>
      <trkpt lat="48.09951" lon="7.23049">
        <ele>648.6</ele>
        <time>2021-06-23T09:36:14Z</time>
      </trkpt>
      <trkpt lat="48.0996" lon="7.23074">
        <ele>648</ele>
        <time>2021-06-23T09:36:17Z</time>
      </trkpt>
      <trkpt lat="48.09962" lon="7.23082">
        <ele>648</ele>
        <time>2021-06-23T09:36:18Z</time>
      </trkpt>
      <trkpt lat="48.09969" lon="7.2311">
        <ele>647</ele>
        <time>2021-06-23T09:36:22Z</time>
      </trkpt>
      <trkpt lat="48.09971" lon="7.23116">
        <ele>646.8</ele>
        <time>2021-06-23T09:36:23Z</time>
      </trkpt>
      <trkpt lat="48.0998" lon="7.23149">
        <ele>646</ele>
        <time>2021-06-23T09:36:28Z</time>
      </trkpt>
      <trkpt lat="48.09982" lon="7.23155">
        <ele>645.8</ele>
        <time>2021-06-23T09:36:29Z</time>
      </trkpt>
      <trkpt lat="48.09985" lon="7.23164">
        <ele>645.6</ele>
        <time>2021-06-23T09:36:31Z</time>
      </trkpt>
      <trkpt lat="48.09985" lon="7.23168">
        <ele>644.8</ele>
        <time>2021-06-23T09:36:35Z</time>
      </trkpt>
      <trkpt lat="48.09983" lon="7.23158">
        <ele>643</ele>
        <time>2021-06-23T09:38:03Z</time>
      </trkpt>
      <trkpt lat="48.09982" lon="7.23151">
        <ele>643</ele>
        <time>2021-06-23T09:38:05Z</time>
      </trkpt>
      <trkpt lat="48.09981" lon="7.23136">
        <ele>643.2</ele>
        <time>2021-06-23T09:38:09Z</time>
      </trkpt>
      <trkpt lat="48.09982" lon="7.23129">
        <ele>643.4</ele>
        <time>2021-06-23T09:38:11Z</time>
      </trkpt>
      <trkpt lat="48.09985" lon="7.23125">
        <ele>643.6</ele>
        <time>2021-06-23T09:38:13Z</time>
      </trkpt>
      <trkpt lat="48.09991" lon="7.23121">
        <ele>644.2</ele>
        <time>2021-06-23T09:38:16Z</time>
      </trkpt>
      <trkpt lat="48.10001" lon="7.23117">
        <ele>645</ele>
        <time>2021-06-23T09:38:19Z</time>
      </trkpt>
      <trkpt lat="48.10011" lon="7.23116">
        <ele>645.4</ele>
        <time>2021-06-23T09:38:22Z</time>
      </trkpt>
      <trkpt lat="48.10026" lon="7.23111">
        <ele>645.8</ele>
        <time>2021-06-23T09:38:26Z</time>
      </trkpt>
      <trkpt lat="48.10048" lon="7.23103">
        <ele>646.2</ele>
        <time>2021-06-23T09:38:31Z</time>
      </trkpt>
      <trkpt lat="48.10054" lon="7.23099">
        <ele>646.2</ele>
        <time>2021-06-23T09:38:32Z</time>
      </trkpt>
      <trkpt lat="48.10063" lon="7.23092">
        <ele>646.2</ele>
        <time>2021-06-23T09:38:34Z</time>
      </trkpt>
      <trkpt lat="48.10074" lon="7.23078">
        <ele>646</ele>
        <time>2021-06-23T09:38:37Z</time>
      </trkpt>
      <trkpt lat="48.10083" lon="7.23065">
        <ele>645.8</ele>
        <time>2021-06-23T09:38:39Z</time>
      </trkpt>
      <trkpt lat="48.10088" lon="7.2306">
        <ele>645.6</ele>
        <time>2021-06-23T09:38:40Z</time>
      </trkpt>
      <trkpt lat="48.10098" lon="7.23053">
        <ele>645</ele>
        <time>2021-06-23T09:38:42Z</time>
      </trkpt>
      <trkpt lat="48.10105" lon="7.2305">
        <ele>644.8</ele>
        <time>2021-06-23T09:38:43Z</time>
      </trkpt>
      <trkpt lat="48.10119" lon="7.23048">
        <ele>644</ele>
        <time>2021-06-23T09:38:45Z</time>
      </trkpt>
      <trkpt lat="48.10125" lon="7.23048">
        <ele>643.6</ele>
        <time>2021-06-23T09:38:46Z</time>
      </trkpt>
      <trkpt lat="48.10142" lon="7.23049">
        <ele>643</ele>
        <time>2021-06-23T09:38:48Z</time>
      </trkpt>
      <trkpt lat="48.10175" lon="7.23054">
        <ele>641.6</ele>
        <time>2021-06-23T09:38:52Z</time>
      </trkpt>
      <trkpt lat="48.10195" lon="7.2306">
        <ele>640.4</ele>
        <time>2021-06-23T09:38:54Z</time>
      </trkpt>
      <trkpt lat="48.10203" lon="7.23066">
        <ele>639.4</ele>
        <time>2021-06-23T09:38:55Z</time>
      </trkpt>
      <trkpt lat="48.10212" lon="7.23072">
        <ele>639.2</ele>
        <time>2021-06-23T09:38:56Z</time>
      </trkpt>
      <trkpt lat="48.10218" lon="7.23079">
        <ele>638.6</ele>
        <time>2021-06-23T09:38:57Z</time>
      </trkpt>
      <trkpt lat="48.10225" lon="7.23087">
        <ele>638.2</ele>
        <time>2021-06-23T09:38:58Z</time>
      </trkpt>
      <trkpt lat="48.10237" lon="7.23109">
        <ele>637.4</ele>
        <time>2021-06-23T09:39:00Z</time>
      </trkpt>
      <trkpt lat="48.10245" lon="7.23131">
        <ele>636.4</ele>
        <time>2021-06-23T09:39:02Z</time>
      </trkpt>
      <trkpt lat="48.10248" lon="7.23143">
        <ele>635.6</ele>
        <time>2021-06-23T09:39:03Z</time>
      </trkpt>
      <trkpt lat="48.10249" lon="7.23157">
        <ele>635.2</ele>
        <time>2021-06-23T09:39:04Z</time>
      </trkpt>
      <trkpt lat="48.10247" lon="7.2318">
        <ele>634.2</ele>
        <time>2021-06-23T09:39:06Z</time>
      </trkpt>
      <trkpt lat="48.10243" lon="7.23205">
        <ele>632.8</ele>
        <time>2021-06-23T09:39:08Z</time>
      </trkpt>
      <trkpt lat="48.10242" lon="7.23218">
        <ele>632.4</ele>
        <time>2021-06-23T09:39:09Z</time>
      </trkpt>
      <trkpt lat="48.1024" lon="7.23231">
        <ele>631.6</ele>
        <time>2021-06-23T09:39:10Z</time>
      </trkpt>
      <trkpt lat="48.10239" lon="7.23258">
        <ele>630.2</ele>
        <time>2021-06-23T09:39:12Z</time>
      </trkpt>
      <trkpt lat="48.10243" lon="7.23286">
        <ele>629</ele>
        <time>2021-06-23T09:39:14Z</time>
      </trkpt>
      <trkpt lat="48.10246" lon="7.23299">
        <ele>628</ele>
        <time>2021-06-23T09:39:15Z</time>
      </trkpt>
      <trkpt lat="48.10249" lon="7.23311">
        <ele>627.6</ele>
        <time>2021-06-23T09:39:16Z</time>
      </trkpt>
      <trkpt lat="48.10253" lon="7.23323">
        <ele>627</ele>
        <time>2021-06-23T09:39:17Z</time>
      </trkpt>
      <trkpt lat="48.10257" lon="7.23334">
        <ele>626.4</ele>
        <time>2021-06-23T09:39:18Z</time>
      </trkpt>
      <trkpt lat="48.10262" lon="7.23344">
        <ele>625.6</ele>
        <time>2021-06-23T09:39:19Z</time>
      </trkpt>
      <trkpt lat="48.10268" lon="7.23356">
        <ele>625.2</ele>
        <time>2021-06-23T09:39:20Z</time>
      </trkpt>
      <trkpt lat="48.10273" lon="7.23363">
        <ele>624.8</ele>
        <time>2021-06-23T09:39:21Z</time>
      </trkpt>
      <trkpt lat="48.1028" lon="7.23371">
        <ele>624.2</ele>
        <time>2021-06-23T09:39:22Z</time>
      </trkpt>
      <trkpt lat="48.10288" lon="7.2338">
        <ele>623.8</ele>
        <time>2021-06-23T09:39:23Z</time>
      </trkpt>
      <trkpt lat="48.10305" lon="7.23392">
        <ele>622.8</ele>
        <time>2021-06-23T09:39:25Z</time>
      </trkpt>
      <trkpt lat="48.10323" lon="7.23401">
        <ele>621.6</ele>
        <time>2021-06-23T09:39:27Z</time>
      </trkpt>
      <trkpt lat="48.10332" lon="7.23404">
        <ele>620.8</ele>
        <time>2021-06-23T09:39:28Z</time>
      </trkpt>
      <trkpt lat="48.10343" lon="7.23405">
        <ele>620.2</ele>
        <time>2021-06-23T09:39:29Z</time>
      </trkpt>
      <trkpt lat="48.10353" lon="7.23409">
        <ele>619</ele>
        <time>2021-06-23T09:39:30Z</time>
      </trkpt>
      <trkpt lat="48.10366" lon="7.23412">
        <ele>618.4</ele>
        <time>2021-06-23T09:39:31Z</time>
      </trkpt>
      <trkpt lat="48.10387" lon="7.23418">
        <ele>617.8</ele>
        <time>2021-06-23T09:39:33Z</time>
      </trkpt>
      <trkpt lat="48.10407" lon="7.23422">
        <ele>616.6</ele>
        <time>2021-06-23T09:39:35Z</time>
      </trkpt>
      <trkpt lat="48.10417" lon="7.23423">
        <ele>616.2</ele>
        <time>2021-06-23T09:39:36Z</time>
      </trkpt>
      <trkpt lat="48.10428" lon="7.23425">
        <ele>615.4</ele>
        <time>2021-06-23T09:39:37Z</time>
      </trkpt>
      <trkpt lat="48.10439" lon="7.23428">
        <ele>614.2</ele>
        <time>2021-06-23T09:39:38Z</time>
      </trkpt>
      <trkpt lat="48.10461" lon="7.23433">
        <ele>612.8</ele>
        <time>2021-06-23T09:39:40Z</time>
      </trkpt>
      <trkpt lat="48.10471" lon="7.23436">
        <ele>612.6</ele>
        <time>2021-06-23T09:39:41Z</time>
      </trkpt>
      <trkpt lat="48.1049" lon="7.23441">
        <ele>611.6</ele>
        <time>2021-06-23T09:39:43Z</time>
      </trkpt>
      <trkpt lat="48.10509" lon="7.23445">
        <ele>610</ele>
        <time>2021-06-23T09:39:45Z</time>
      </trkpt>
      <trkpt lat="48.10518" lon="7.23446">
        <ele>608.6</ele>
        <time>2021-06-23T09:39:46Z</time>
      </trkpt>
      <trkpt lat="48.10527" lon="7.23446">
        <ele>607.8</ele>
        <time>2021-06-23T09:39:47Z</time>
      </trkpt>
      <trkpt lat="48.10535" lon="7.23445">
        <ele>607.4</ele>
        <time>2021-06-23T09:39:48Z</time>
      </trkpt>
      <trkpt lat="48.10552" lon="7.2344">
        <ele>606.2</ele>
        <time>2021-06-23T09:39:50Z</time>
      </trkpt>
      <trkpt lat="48.1056" lon="7.23435">
        <ele>605.4</ele>
        <time>2021-06-23T09:39:51Z</time>
      </trkpt>
      <trkpt lat="48.10568" lon="7.23429">
        <ele>604.8</ele>
        <time>2021-06-23T09:39:52Z</time>
      </trkpt>
      <trkpt lat="48.10583" lon="7.23416">
        <ele>603.4</ele>
        <time>2021-06-23T09:39:54Z</time>
      </trkpt>
      <trkpt lat="48.10603" lon="7.234">
        <ele>602.2</ele>
        <time>2021-06-23T09:39:56Z</time>
      </trkpt>
      <trkpt lat="48.1062" lon="7.23388">
        <ele>600.4</ele>
        <time>2021-06-23T09:39:58Z</time>
      </trkpt>
      <trkpt lat="48.10626" lon="7.23385">
        <ele>599.6</ele>
        <time>2021-06-23T09:39:59Z</time>
      </trkpt>
      <trkpt lat="48.10635" lon="7.23382">
        <ele>598.6</ele>
        <time>2021-06-23T09:40:00Z</time>
      </trkpt>
      <trkpt lat="48.10653" lon="7.23378">
        <ele>597.2</ele>
        <time>2021-06-23T09:40:02Z</time>
      </trkpt>
      <trkpt lat="48.1067" lon="7.23381">
        <ele>596</ele>
        <time>2021-06-23T09:40:04Z</time>
      </trkpt>
      <trkpt lat="48.10679" lon="7.23384">
        <ele>594.6</ele>
        <time>2021-06-23T09:40:05Z</time>
      </trkpt>
      <trkpt lat="48.10697" lon="7.23391">
        <ele>593.2</ele>
        <time>2021-06-23T09:40:07Z</time>
      </trkpt>
      <trkpt lat="48.10705" lon="7.23398">
        <ele>592.6</ele>
        <time>2021-06-23T09:40:08Z</time>
      </trkpt>
      <trkpt lat="48.10714" lon="7.23406">
        <ele>591.8</ele>
        <time>2021-06-23T09:40:09Z</time>
      </trkpt>
      <trkpt lat="48.10738" lon="7.23435">
        <ele>590.8</ele>
        <time>2021-06-23T09:40:12Z</time>
      </trkpt>
      <trkpt lat="48.10753" lon="7.23456">
        <ele>588.8</ele>
        <time>2021-06-23T09:40:14Z</time>
      </trkpt>
      <trkpt lat="48.10768" lon="7.23477">
        <ele>586.6</ele>
        <time>2021-06-23T09:40:16Z</time>
      </trkpt>
      <trkpt lat="48.10782" lon="7.23497">
        <ele>584.8</ele>
        <time>2021-06-23T09:40:18Z</time>
      </trkpt>
      <trkpt lat="48.10794" lon="7.23516">
        <ele>583.4</ele>
        <time>2021-06-23T09:40:20Z</time>
      </trkpt>
      <trkpt lat="48.108" lon="7.23527">
        <ele>583</ele>
        <time>2021-06-23T09:40:21Z</time>
      </trkpt>
      <trkpt lat="48.10804" lon="7.23539">
        <ele>582.2</ele>
        <time>2021-06-23T09:40:22Z</time>
      </trkpt>
      <trkpt lat="48.10807" lon="7.23552">
        <ele>581.8</ele>
        <time>2021-06-23T09:40:23Z</time>
      </trkpt>
      <trkpt lat="48.1081" lon="7.23577">
        <ele>580.8</ele>
        <time>2021-06-23T09:40:25Z</time>
      </trkpt>
      <trkpt lat="48.10809" lon="7.2359">
        <ele>580.4</ele>
        <time>2021-06-23T09:40:26Z</time>
      </trkpt>
      <trkpt lat="48.10807" lon="7.23603">
        <ele>579.2</ele>
        <time>2021-06-23T09:40:27Z</time>
      </trkpt>
      <trkpt lat="48.10801" lon="7.23642">
        <ele>578.2</ele>
        <time>2021-06-23T09:40:30Z</time>
      </trkpt>
      <trkpt lat="48.10799" lon="7.23655">
        <ele>577.4</ele>
        <time>2021-06-23T09:40:31Z</time>
      </trkpt>
      <trkpt lat="48.10797" lon="7.23668">
        <ele>576.6</ele>
        <time>2021-06-23T09:40:32Z</time>
      </trkpt>
      <trkpt lat="48.10797" lon="7.23683">
        <ele>576</ele>
        <time>2021-06-23T09:40:33Z</time>
      </trkpt>
      <trkpt lat="48.10798" lon="7.23695">
        <ele>575</ele>
        <time>2021-06-23T09:40:34Z</time>
      </trkpt>
      <trkpt lat="48.10801" lon="7.2371">
        <ele>574.8</ele>
        <time>2021-06-23T09:40:35Z</time>
      </trkpt>
      <trkpt lat="48.10812" lon="7.23733">
        <ele>573.4</ele>
        <time>2021-06-23T09:40:37Z</time>
      </trkpt>
      <trkpt lat="48.10816" lon="7.23742">
        <ele>572.4</ele>
        <time>2021-06-23T09:40:38Z</time>
      </trkpt>
      <trkpt lat="48.10821" lon="7.23753">
        <ele>572.2</ele>
        <time>2021-06-23T09:40:39Z</time>
      </trkpt>
      <trkpt lat="48.10828" lon="7.23765">
        <ele>571.4</ele>
        <time>2021-06-23T09:40:40Z</time>
      </trkpt>
      <trkpt lat="48.10833" lon="7.23775">
        <ele>570.8</ele>
        <time>2021-06-23T09:40:41Z</time>
      </trkpt>
      <trkpt lat="48.10846" lon="7.23796">
        <ele>569.2</ele>
        <time>2021-06-23T09:40:43Z</time>
      </trkpt>
      <trkpt lat="48.10852" lon="7.23806">
        <ele>568.6</ele>
        <time>2021-06-23T09:40:44Z</time>
      </trkpt>
      <trkpt lat="48.10861" lon="7.23817">
        <ele>567.8</ele>
        <time>2021-06-23T09:40:45Z</time>
      </trkpt>
      <trkpt lat="48.10877" lon="7.23837">
        <ele>566.2</ele>
        <time>2021-06-23T09:40:47Z</time>
      </trkpt>
      <trkpt lat="48.10885" lon="7.23843">
        <ele>565.6</ele>
        <time>2021-06-23T09:40:48Z</time>
      </trkpt>
      <trkpt lat="48.10895" lon="7.2385">
        <ele>564.2</ele>
        <time>2021-06-23T09:40:49Z</time>
      </trkpt>
      <trkpt lat="48.10903" lon="7.23856">
        <ele>563.2</ele>
        <time>2021-06-23T09:40:50Z</time>
      </trkpt>
      <trkpt lat="48.10912" lon="7.23861">
        <ele>562.8</ele>
        <time>2021-06-23T09:40:51Z</time>
      </trkpt>
      <trkpt lat="48.10921" lon="7.23865">
        <ele>562.2</ele>
        <time>2021-06-23T09:40:52Z</time>
      </trkpt>
      <trkpt lat="48.10931" lon="7.23866">
        <ele>561.8</ele>
        <time>2021-06-23T09:40:53Z</time>
      </trkpt>
      <trkpt lat="48.10939" lon="7.23866">
        <ele>561.2</ele>
        <time>2021-06-23T09:40:54Z</time>
      </trkpt>
      <trkpt lat="48.10948" lon="7.23864">
        <ele>560.4</ele>
        <time>2021-06-23T09:40:55Z</time>
      </trkpt>
      <trkpt lat="48.10957" lon="7.23862">
        <ele>559.6</ele>
        <time>2021-06-23T09:40:56Z</time>
      </trkpt>
      <trkpt lat="48.10967" lon="7.23858">
        <ele>559.2</ele>
        <time>2021-06-23T09:40:57Z</time>
      </trkpt>
      <trkpt lat="48.10984" lon="7.23846">
        <ele>558</ele>
        <time>2021-06-23T09:40:59Z</time>
      </trkpt>
      <trkpt lat="48.10999" lon="7.23826">
        <ele>556.6</ele>
        <time>2021-06-23T09:41:01Z</time>
      </trkpt>
      <trkpt lat="48.11004" lon="7.23816">
        <ele>556.2</ele>
        <time>2021-06-23T09:41:02Z</time>
      </trkpt>
      <trkpt lat="48.11009" lon="7.23802">
        <ele>555</ele>
        <time>2021-06-23T09:41:03Z</time>
      </trkpt>
      <trkpt lat="48.11017" lon="7.23771">
        <ele>553.4</ele>
        <time>2021-06-23T09:41:05Z</time>
      </trkpt>
      <trkpt lat="48.11019" lon="7.23756">
        <ele>552.8</ele>
        <time>2021-06-23T09:41:06Z</time>
      </trkpt>
      <trkpt lat="48.11017" lon="7.23743">
        <ele>552</ele>
        <time>2021-06-23T09:41:07Z</time>
      </trkpt>
      <trkpt lat="48.11013" lon="7.23735">
        <ele>551</ele>
        <time>2021-06-23T09:41:08Z</time>
      </trkpt>
      <trkpt lat="48.11006" lon="7.23726">
        <ele>550.4</ele>
        <time>2021-06-23T09:41:09Z</time>
      </trkpt>
      <trkpt lat="48.10997" lon="7.23721">
        <ele>549.6</ele>
        <time>2021-06-23T09:41:10Z</time>
      </trkpt>
      <trkpt lat="48.10988" lon="7.23719">
        <ele>549</ele>
        <time>2021-06-23T09:41:11Z</time>
      </trkpt>
      <trkpt lat="48.10979" lon="7.23718">
        <ele>547.8</ele>
        <time>2021-06-23T09:41:12Z</time>
      </trkpt>
      <trkpt lat="48.10963" lon="7.23715">
        <ele>546.4</ele>
        <time>2021-06-23T09:41:14Z</time>
      </trkpt>
      <trkpt lat="48.10953" lon="7.23712">
        <ele>546</ele>
        <time>2021-06-23T09:41:15Z</time>
      </trkpt>
      <trkpt lat="48.10947" lon="7.23708">
        <ele>545.4</ele>
        <time>2021-06-23T09:41:16Z</time>
      </trkpt>
      <trkpt lat="48.1094" lon="7.23702">
        <ele>544.4</ele>
        <time>2021-06-23T09:41:17Z</time>
      </trkpt>
      <trkpt lat="48.10928" lon="7.23683">
        <ele>542.6</ele>
        <time>2021-06-23T09:41:19Z</time>
      </trkpt>
      <trkpt lat="48.1092" lon="7.23659">
        <ele>540.6</ele>
        <time>2021-06-23T09:41:21Z</time>
      </trkpt>
      <trkpt lat="48.10919" lon="7.23643">
        <ele>540.2</ele>
        <time>2021-06-23T09:41:22Z</time>
      </trkpt>
      <trkpt lat="48.10919" lon="7.23633">
        <ele>539.2</ele>
        <time>2021-06-23T09:41:23Z</time>
      </trkpt>
      <trkpt lat="48.10924" lon="7.23605">
        <ele>538.2</ele>
        <time>2021-06-23T09:41:25Z</time>
      </trkpt>
      <trkpt lat="48.10926" lon="7.23591">
        <ele>537.4</ele>
        <time>2021-06-23T09:41:26Z</time>
      </trkpt>
      <trkpt lat="48.10929" lon="7.23563">
        <ele>536.2</ele>
        <time>2021-06-23T09:41:28Z</time>
      </trkpt>
      <trkpt lat="48.10931" lon="7.23534">
        <ele>535.2</ele>
        <time>2021-06-23T09:41:30Z</time>
      </trkpt>
      <trkpt lat="48.10931" lon="7.23519">
        <ele>534.6</ele>
        <time>2021-06-23T09:41:31Z</time>
      </trkpt>
      <trkpt lat="48.1093" lon="7.23503">
        <ele>533.8</ele>
        <time>2021-06-23T09:41:32Z</time>
      </trkpt>
      <trkpt lat="48.10927" lon="7.23487">
        <ele>532.8</ele>
        <time>2021-06-23T09:41:33Z</time>
      </trkpt>
      <trkpt lat="48.10923" lon="7.23471">
        <ele>532.2</ele>
        <time>2021-06-23T09:41:34Z</time>
      </trkpt>
      <trkpt lat="48.1092" lon="7.23456">
        <ele>530.8</ele>
        <time>2021-06-23T09:41:35Z</time>
      </trkpt>
      <trkpt lat="48.10914" lon="7.23425">
        <ele>529.4</ele>
        <time>2021-06-23T09:41:37Z</time>
      </trkpt>
      <trkpt lat="48.10906" lon="7.23395">
        <ele>528.8</ele>
        <time>2021-06-23T09:41:39Z</time>
      </trkpt>
      <trkpt lat="48.10902" lon="7.2338">
        <ele>528.2</ele>
        <time>2021-06-23T09:41:40Z</time>
      </trkpt>
      <trkpt lat="48.10897" lon="7.23365">
        <ele>527.2</ele>
        <time>2021-06-23T09:41:41Z</time>
      </trkpt>
      <trkpt lat="48.10884" lon="7.23335">
        <ele>525.8</ele>
        <time>2021-06-23T09:41:43Z</time>
      </trkpt>
      <trkpt lat="48.10878" lon="7.23321">
        <ele>524.6</ele>
        <time>2021-06-23T09:41:44Z</time>
      </trkpt>
      <trkpt lat="48.10857" lon="7.23282">
        <ele>522.8</ele>
        <time>2021-06-23T09:41:47Z</time>
      </trkpt>
      <trkpt lat="48.10849" lon="7.23267">
        <ele>521.4</ele>
        <time>2021-06-23T09:41:48Z</time>
      </trkpt>
      <trkpt lat="48.10841" lon="7.23255">
        <ele>521</ele>
        <time>2021-06-23T09:41:49Z</time>
      </trkpt>
      <trkpt lat="48.10834" lon="7.23243">
        <ele>519.4</ele>
        <time>2021-06-23T09:41:50Z</time>
      </trkpt>
      <trkpt lat="48.10819" lon="7.23222">
        <ele>517.6</ele>
        <time>2021-06-23T09:41:52Z</time>
      </trkpt>
      <trkpt lat="48.1081" lon="7.23207">
        <ele>516.4</ele>
        <time>2021-06-23T09:41:53Z</time>
      </trkpt>
      <trkpt lat="48.10795" lon="7.23186">
        <ele>515.2</ele>
        <time>2021-06-23T09:41:55Z</time>
      </trkpt>
      <trkpt lat="48.10781" lon="7.23162">
        <ele>512.6</ele>
        <time>2021-06-23T09:41:57Z</time>
      </trkpt>
      <trkpt lat="48.1077" lon="7.23137">
        <ele>510.8</ele>
        <time>2021-06-23T09:41:59Z</time>
      </trkpt>
      <trkpt lat="48.10768" lon="7.23124">
        <ele>510.4</ele>
        <time>2021-06-23T09:42:00Z</time>
      </trkpt>
      <trkpt lat="48.10769" lon="7.23111">
        <ele>509.6</ele>
        <time>2021-06-23T09:42:01Z</time>
      </trkpt>
      <trkpt lat="48.10772" lon="7.231">
        <ele>509.2</ele>
        <time>2021-06-23T09:42:02Z</time>
      </trkpt>
      <trkpt lat="48.10777" lon="7.23091">
        <ele>508.8</ele>
        <time>2021-06-23T09:42:03Z</time>
      </trkpt>
      <trkpt lat="48.10783" lon="7.23085">
        <ele>508.2</ele>
        <time>2021-06-23T09:42:04Z</time>
      </trkpt>
      <trkpt lat="48.10791" lon="7.23081">
        <ele>508</ele>
        <time>2021-06-23T09:42:05Z</time>
      </trkpt>
      <trkpt lat="48.10797" lon="7.23084">
        <ele>507.4</ele>
        <time>2021-06-23T09:42:06Z</time>
      </trkpt>
      <trkpt lat="48.10806" lon="7.23092">
        <ele>507</ele>
        <time>2021-06-23T09:42:07Z</time>
      </trkpt>
      <trkpt lat="48.10811" lon="7.23101">
        <ele>506.4</ele>
        <time>2021-06-23T09:42:08Z</time>
      </trkpt>
      <trkpt lat="48.10815" lon="7.23112">
        <ele>505.8</ele>
        <time>2021-06-23T09:42:09Z</time>
      </trkpt>
      <trkpt lat="48.10817" lon="7.23122">
        <ele>504.8</ele>
        <time>2021-06-23T09:42:10Z</time>
      </trkpt>
      <trkpt lat="48.10818" lon="7.23133">
        <ele>503.6</ele>
        <time>2021-06-23T09:42:11Z</time>
      </trkpt>
      <trkpt lat="48.1082" lon="7.23145">
        <ele>503.4</ele>
        <time>2021-06-23T09:42:12Z</time>
      </trkpt>
      <trkpt lat="48.10829" lon="7.23179">
        <ele>502.4</ele>
        <time>2021-06-23T09:42:15Z</time>
      </trkpt>
      <trkpt lat="48.10833" lon="7.2319">
        <ele>502.2</ele>
        <time>2021-06-23T09:42:16Z</time>
      </trkpt>
      <trkpt lat="48.10839" lon="7.23198">
        <ele>502</ele>
        <time>2021-06-23T09:42:17Z</time>
      </trkpt>
      <trkpt lat="48.10844" lon="7.23204">
        <ele>501.6</ele>
        <time>2021-06-23T09:42:18Z</time>
      </trkpt>
      <trkpt lat="48.10851" lon="7.23208">
        <ele>500.6</ele>
        <time>2021-06-23T09:42:19Z</time>
      </trkpt>
      <trkpt lat="48.10867" lon="7.23217">
        <ele>499.2</ele>
        <time>2021-06-23T09:42:21Z</time>
      </trkpt>
      <trkpt lat="48.10876" lon="7.23222">
        <ele>497.6</ele>
        <time>2021-06-23T09:42:22Z</time>
      </trkpt>
      <trkpt lat="48.10898" lon="7.23237">
        <ele>496.6</ele>
        <time>2021-06-23T09:42:24Z</time>
      </trkpt>
      <trkpt lat="48.10918" lon="7.23252">
        <ele>494.2</ele>
        <time>2021-06-23T09:42:26Z</time>
      </trkpt>
      <trkpt lat="48.10928" lon="7.2326">
        <ele>493.8</ele>
        <time>2021-06-23T09:42:27Z</time>
      </trkpt>
      <trkpt lat="48.10936" lon="7.23268">
        <ele>492.6</ele>
        <time>2021-06-23T09:42:28Z</time>
      </trkpt>
      <trkpt lat="48.10945" lon="7.23278">
        <ele>491.6</ele>
        <time>2021-06-23T09:42:29Z</time>
      </trkpt>
      <trkpt lat="48.10954" lon="7.23288">
        <ele>491.4</ele>
        <time>2021-06-23T09:42:30Z</time>
      </trkpt>
      <trkpt lat="48.10962" lon="7.23297">
        <ele>491</ele>
        <time>2021-06-23T09:42:31Z</time>
      </trkpt>
      <trkpt lat="48.10969" lon="7.2331">
        <ele>490.2</ele>
        <time>2021-06-23T09:42:32Z</time>
      </trkpt>
      <trkpt lat="48.10977" lon="7.23324">
        <ele>489.2</ele>
        <time>2021-06-23T09:42:33Z</time>
      </trkpt>
      <trkpt lat="48.1099" lon="7.23349">
        <ele>487.4</ele>
        <time>2021-06-23T09:42:35Z</time>
      </trkpt>
      <trkpt lat="48.11" lon="7.23375">
        <ele>484.6</ele>
        <time>2021-06-23T09:42:37Z</time>
      </trkpt>
      <trkpt lat="48.11007" lon="7.23388">
        <ele>483.2</ele>
        <time>2021-06-23T09:42:38Z</time>
      </trkpt>
      <trkpt lat="48.11023" lon="7.23413">
        <ele>482</ele>
        <time>2021-06-23T09:42:40Z</time>
      </trkpt>
      <trkpt lat="48.11038" lon="7.23435">
        <ele>480.6</ele>
        <time>2021-06-23T09:42:42Z</time>
      </trkpt>
      <trkpt lat="48.11057" lon="7.23454">
        <ele>478.4</ele>
        <time>2021-06-23T09:42:44Z</time>
      </trkpt>
      <trkpt lat="48.11075" lon="7.23467">
        <ele>476.6</ele>
        <time>2021-06-23T09:42:46Z</time>
      </trkpt>
      <trkpt lat="48.11087" lon="7.23476">
        <ele>475</ele>
        <time>2021-06-23T09:42:47Z</time>
      </trkpt>
      <trkpt lat="48.11108" lon="7.23491">
        <ele>473.4</ele>
        <time>2021-06-23T09:42:49Z</time>
      </trkpt>
      <trkpt lat="48.11128" lon="7.23503">
        <ele>471.4</ele>
        <time>2021-06-23T09:42:51Z</time>
      </trkpt>
      <trkpt lat="48.11148" lon="7.23517">
        <ele>470</ele>
        <time>2021-06-23T09:42:53Z</time>
      </trkpt>
      <trkpt lat="48.11169" lon="7.23531">
        <ele>468.4</ele>
        <time>2021-06-23T09:42:55Z</time>
      </trkpt>
      <trkpt lat="48.1118" lon="7.23536">
        <ele>466.8</ele>
        <time>2021-06-23T09:42:56Z</time>
      </trkpt>
      <trkpt lat="48.1119" lon="7.23542">
        <ele>465.8</ele>
        <time>2021-06-23T09:42:57Z</time>
      </trkpt>
      <trkpt lat="48.11199" lon="7.23547">
        <ele>464</ele>
        <time>2021-06-23T09:42:58Z</time>
      </trkpt>
      <trkpt lat="48.1122" lon="7.23555">
        <ele>461.6</ele>
        <time>2021-06-23T09:43:00Z</time>
      </trkpt>
      <trkpt lat="48.11242" lon="7.23562">
        <ele>460.2</ele>
        <time>2021-06-23T09:43:02Z</time>
      </trkpt>
      <trkpt lat="48.11252" lon="7.23565">
        <ele>459.4</ele>
        <time>2021-06-23T09:43:03Z</time>
      </trkpt>
      <trkpt lat="48.11264" lon="7.23568">
        <ele>458</ele>
        <time>2021-06-23T09:43:04Z</time>
      </trkpt>
      <trkpt lat="48.11283" lon="7.23573">
        <ele>456.4</ele>
        <time>2021-06-23T09:43:06Z</time>
      </trkpt>
      <trkpt lat="48.11293" lon="7.23577">
        <ele>454.6</ele>
        <time>2021-06-23T09:43:07Z</time>
      </trkpt>
      <trkpt lat="48.11302" lon="7.23582">
        <ele>454.2</ele>
        <time>2021-06-23T09:43:08Z</time>
      </trkpt>
      <trkpt lat="48.1131" lon="7.23591">
        <ele>453</ele>
        <time>2021-06-23T09:43:09Z</time>
      </trkpt>
      <trkpt lat="48.11318" lon="7.236">
        <ele>452.2</ele>
        <time>2021-06-23T09:43:10Z</time>
      </trkpt>
      <trkpt lat="48.11325" lon="7.2361">
        <ele>451</ele>
        <time>2021-06-23T09:43:11Z</time>
      </trkpt>
      <trkpt lat="48.11332" lon="7.23618">
        <ele>450.4</ele>
        <time>2021-06-23T09:43:12Z</time>
      </trkpt>
      <trkpt lat="48.11339" lon="7.23626">
        <ele>449.6</ele>
        <time>2021-06-23T09:43:13Z</time>
      </trkpt>
      <trkpt lat="48.11347" lon="7.23632">
        <ele>448.8</ele>
        <time>2021-06-23T09:43:14Z</time>
      </trkpt>
      <trkpt lat="48.11356" lon="7.23642">
        <ele>448.4</ele>
        <time>2021-06-23T09:43:15Z</time>
      </trkpt>
      <trkpt lat="48.11375" lon="7.23657">
        <ele>446.6</ele>
        <time>2021-06-23T09:43:17Z</time>
      </trkpt>
      <trkpt lat="48.11384" lon="7.23665">
        <ele>445.6</ele>
        <time>2021-06-23T09:43:18Z</time>
      </trkpt>
      <trkpt lat="48.11394" lon="7.23674">
        <ele>445.2</ele>
        <time>2021-06-23T09:43:19Z</time>
      </trkpt>
      <trkpt lat="48.11403" lon="7.23682">
        <ele>444.2</ele>
        <time>2021-06-23T09:43:20Z</time>
      </trkpt>
      <trkpt lat="48.11423" lon="7.23701">
        <ele>442</ele>
        <time>2021-06-23T09:43:22Z</time>
      </trkpt>
      <trkpt lat="48.1144" lon="7.23716">
        <ele>440.6</ele>
        <time>2021-06-23T09:43:24Z</time>
      </trkpt>
      <trkpt lat="48.11452" lon="7.23728">
        <ele>439.8</ele>
        <time>2021-06-23T09:43:25Z</time>
      </trkpt>
      <trkpt lat="48.11462" lon="7.23739">
        <ele>438.6</ele>
        <time>2021-06-23T09:43:26Z</time>
      </trkpt>
      <trkpt lat="48.11472" lon="7.23749">
        <ele>437</ele>
        <time>2021-06-23T09:43:27Z</time>
      </trkpt>
      <trkpt lat="48.11491" lon="7.23767">
        <ele>435.2</ele>
        <time>2021-06-23T09:43:29Z</time>
      </trkpt>
      <trkpt lat="48.11508" lon="7.23783">
        <ele>432.6</ele>
        <time>2021-06-23T09:43:31Z</time>
      </trkpt>
      <trkpt lat="48.11516" lon="7.2379">
        <ele>431.8</ele>
        <time>2021-06-23T09:43:32Z</time>
      </trkpt>
      <trkpt lat="48.11525" lon="7.23797">
        <ele>431</ele>
        <time>2021-06-23T09:43:33Z</time>
      </trkpt>
      <trkpt lat="48.11534" lon="7.23802">
        <ele>429.2</ele>
        <time>2021-06-23T09:43:34Z</time>
      </trkpt>
      <trkpt lat="48.11549" lon="7.23799">
        <ele>427.6</ele>
        <time>2021-06-23T09:43:36Z</time>
      </trkpt>
      <trkpt lat="48.11555" lon="7.23783">
        <ele>426.6</ele>
        <time>2021-06-23T09:43:38Z</time>
      </trkpt>
      <trkpt lat="48.11554" lon="7.23775">
        <ele>426.2</ele>
        <time>2021-06-23T09:43:39Z</time>
      </trkpt>
      <trkpt lat="48.1155" lon="7.23767">
        <ele>425.6</ele>
        <time>2021-06-23T09:43:40Z</time>
      </trkpt>
      <trkpt lat="48.11543" lon="7.23761">
        <ele>425</ele>
        <time>2021-06-23T09:43:41Z</time>
      </trkpt>
      <trkpt lat="48.11526" lon="7.23751">
        <ele>424</ele>
        <time>2021-06-23T09:43:43Z</time>
      </trkpt>
      <trkpt lat="48.11517" lon="7.23745">
        <ele>423.8</ele>
        <time>2021-06-23T09:43:44Z</time>
      </trkpt>
      <trkpt lat="48.115" lon="7.23732">
        <ele>422.6</ele>
        <time>2021-06-23T09:43:46Z</time>
      </trkpt>
      <trkpt lat="48.11484" lon="7.23715">
        <ele>421.8</ele>
        <time>2021-06-23T09:43:48Z</time>
      </trkpt>
      <trkpt lat="48.11478" lon="7.23707">
        <ele>421.2</ele>
        <time>2021-06-23T09:43:49Z</time>
      </trkpt>
      <trkpt lat="48.11462" lon="7.23684">
        <ele>419.6</ele>
        <time>2021-06-23T09:43:51Z</time>
      </trkpt>
      <trkpt lat="48.11448" lon="7.23664">
        <ele>418.2</ele>
        <time>2021-06-23T09:43:53Z</time>
      </trkpt>
      <trkpt lat="48.1144" lon="7.23651">
        <ele>416.8</ele>
        <time>2021-06-23T09:43:54Z</time>
      </trkpt>
      <trkpt lat="48.11434" lon="7.23639">
        <ele>416.2</ele>
        <time>2021-06-23T09:43:55Z</time>
      </trkpt>
      <trkpt lat="48.1143" lon="7.23626">
        <ele>415.2</ele>
        <time>2021-06-23T09:43:56Z</time>
      </trkpt>
      <trkpt lat="48.11428" lon="7.23613">
        <ele>414.6</ele>
        <time>2021-06-23T09:43:57Z</time>
      </trkpt>
      <trkpt lat="48.11429" lon="7.23601">
        <ele>413.2</ele>
        <time>2021-06-23T09:43:58Z</time>
      </trkpt>
      <trkpt lat="48.11432" lon="7.23593">
        <ele>412.6</ele>
        <time>2021-06-23T09:43:59Z</time>
      </trkpt>
      <trkpt lat="48.11439" lon="7.2359">
        <ele>411.6</ele>
        <time>2021-06-23T09:44:00Z</time>
      </trkpt>
      <trkpt lat="48.11447" lon="7.23594">
        <ele>410.4</ele>
        <time>2021-06-23T09:44:01Z</time>
      </trkpt>
      <trkpt lat="48.11462" lon="7.2361">
        <ele>409</ele>
        <time>2021-06-23T09:44:03Z</time>
      </trkpt>
      <trkpt lat="48.11468" lon="7.2362">
        <ele>408.8</ele>
        <time>2021-06-23T09:44:04Z</time>
      </trkpt>
      <trkpt lat="48.11473" lon="7.2363">
        <ele>408</ele>
        <time>2021-06-23T09:44:05Z</time>
      </trkpt>
      <trkpt lat="48.11488" lon="7.23663">
        <ele>406.6</ele>
        <time>2021-06-23T09:44:08Z</time>
      </trkpt>
      <trkpt lat="48.11493" lon="7.23671">
        <ele>406</ele>
        <time>2021-06-23T09:44:09Z</time>
      </trkpt>
      <trkpt lat="48.11499" lon="7.23677">
        <ele>404.6</ele>
        <time>2021-06-23T09:44:10Z</time>
      </trkpt>
      <trkpt lat="48.11514" lon="7.23687">
        <ele>403.6</ele>
        <time>2021-06-23T09:44:12Z</time>
      </trkpt>
      <trkpt lat="48.11524" lon="7.2369">
        <ele>403.4</ele>
        <time>2021-06-23T09:44:13Z</time>
      </trkpt>
      <trkpt lat="48.11534" lon="7.23692">
        <ele>403</ele>
        <time>2021-06-23T09:44:14Z</time>
      </trkpt>
      <trkpt lat="48.11544" lon="7.23692">
        <ele>402.8</ele>
        <time>2021-06-23T09:44:15Z</time>
      </trkpt>
      <trkpt lat="48.11553" lon="7.23691">
        <ele>402.4</ele>
        <time>2021-06-23T09:44:16Z</time>
      </trkpt>
      <trkpt lat="48.11572" lon="7.23686">
        <ele>400</ele>
        <time>2021-06-23T09:44:18Z</time>
      </trkpt>
      <trkpt lat="48.11591" lon="7.23683">
        <ele>398.2</ele>
        <time>2021-06-23T09:44:20Z</time>
      </trkpt>
      <trkpt lat="48.116" lon="7.23686">
        <ele>397.2</ele>
        <time>2021-06-23T09:44:21Z</time>
      </trkpt>
      <trkpt lat="48.11609" lon="7.2369">
        <ele>396.4</ele>
        <time>2021-06-23T09:44:22Z</time>
      </trkpt>
      <trkpt lat="48.11618" lon="7.23696">
        <ele>395</ele>
        <time>2021-06-23T09:44:23Z</time>
      </trkpt>
      <trkpt lat="48.11627" lon="7.23705">
        <ele>394.4</ele>
        <time>2021-06-23T09:44:24Z</time>
      </trkpt>
      <trkpt lat="48.11635" lon="7.23715">
        <ele>393</ele>
        <time>2021-06-23T09:44:25Z</time>
      </trkpt>
      <trkpt lat="48.11652" lon="7.23734">
        <ele>391.6</ele>
        <time>2021-06-23T09:44:27Z</time>
      </trkpt>
      <trkpt lat="48.11661" lon="7.23744">
        <ele>390.4</ele>
        <time>2021-06-23T09:44:28Z</time>
      </trkpt>
      <trkpt lat="48.1167" lon="7.23754">
        <ele>388.6</ele>
        <time>2021-06-23T09:44:29Z</time>
      </trkpt>
      <trkpt lat="48.11688" lon="7.23772">
        <ele>387.4</ele>
        <time>2021-06-23T09:44:31Z</time>
      </trkpt>
      <trkpt lat="48.11696" lon="7.23781">
        <ele>386.2</ele>
        <time>2021-06-23T09:44:32Z</time>
      </trkpt>
      <trkpt lat="48.11715" lon="7.238">
        <ele>384.4</ele>
        <time>2021-06-23T09:44:34Z</time>
      </trkpt>
      <trkpt lat="48.11725" lon="7.2381">
        <ele>383</ele>
        <time>2021-06-23T09:44:35Z</time>
      </trkpt>
      <trkpt lat="48.11735" lon="7.23821">
        <ele>381.6</ele>
        <time>2021-06-23T09:44:36Z</time>
      </trkpt>
      <trkpt lat="48.11755" lon="7.23845">
        <ele>380</ele>
        <time>2021-06-23T09:44:38Z</time>
      </trkpt>
      <trkpt lat="48.11775" lon="7.23866">
        <ele>379</ele>
        <time>2021-06-23T09:44:40Z</time>
      </trkpt>
      <trkpt lat="48.11786" lon="7.23877">
        <ele>377.2</ele>
        <time>2021-06-23T09:44:41Z</time>
      </trkpt>
      <trkpt lat="48.11806" lon="7.23898">
        <ele>375</ele>
        <time>2021-06-23T09:44:43Z</time>
      </trkpt>
      <trkpt lat="48.11816" lon="7.23908">
        <ele>374</ele>
        <time>2021-06-23T09:44:44Z</time>
      </trkpt>
      <trkpt lat="48.11827" lon="7.23919">
        <ele>372.6</ele>
        <time>2021-06-23T09:44:45Z</time>
      </trkpt>
      <trkpt lat="48.11837" lon="7.2393">
        <ele>372.2</ele>
        <time>2021-06-23T09:44:46Z</time>
      </trkpt>
      <trkpt lat="48.11847" lon="7.2394">
        <ele>370.4</ele>
        <time>2021-06-23T09:44:47Z</time>
      </trkpt>
      <trkpt lat="48.11859" lon="7.2395">
        <ele>369.4</ele>
        <time>2021-06-23T09:44:48Z</time>
      </trkpt>
      <trkpt lat="48.11882" lon="7.23971">
        <ele>368.2</ele>
        <time>2021-06-23T09:44:50Z</time>
      </trkpt>
      <trkpt lat="48.11892" lon="7.2398">
        <ele>367.6</ele>
        <time>2021-06-23T09:44:51Z</time>
      </trkpt>
      <trkpt lat="48.11903" lon="7.2399">
        <ele>365.6</ele>
        <time>2021-06-23T09:44:52Z</time>
      </trkpt>
      <trkpt lat="48.11924" lon="7.2401">
        <ele>363</ele>
        <time>2021-06-23T09:44:54Z</time>
      </trkpt>
      <trkpt lat="48.11943" lon="7.2403">
        <ele>360.8</ele>
        <time>2021-06-23T09:44:56Z</time>
      </trkpt>
      <trkpt lat="48.11953" lon="7.2404">
        <ele>359.4</ele>
        <time>2021-06-23T09:44:57Z</time>
      </trkpt>
      <trkpt lat="48.11972" lon="7.2406">
        <ele>357</ele>
        <time>2021-06-23T09:44:59Z</time>
      </trkpt>
      <trkpt lat="48.11992" lon="7.24079">
        <ele>355</ele>
        <time>2021-06-23T09:45:01Z</time>
      </trkpt>
      <trkpt lat="48.12012" lon="7.24097">
        <ele>353.8</ele>
        <time>2021-06-23T09:45:03Z</time>
      </trkpt>
      <trkpt lat="48.12032" lon="7.24116">
        <ele>352.2</ele>
        <time>2021-06-23T09:45:05Z</time>
      </trkpt>
      <trkpt lat="48.12041" lon="7.24126">
        <ele>351.8</ele>
        <time>2021-06-23T09:45:06Z</time>
      </trkpt>
      <trkpt lat="48.12058" lon="7.24145">
        <ele>350.2</ele>
        <time>2021-06-23T09:45:08Z</time>
      </trkpt>
      <trkpt lat="48.12065" lon="7.24156">
        <ele>349.6</ele>
        <time>2021-06-23T09:45:09Z</time>
      </trkpt>
      <trkpt lat="48.12071" lon="7.24168">
        <ele>348.6</ele>
        <time>2021-06-23T09:45:10Z</time>
      </trkpt>
      <trkpt lat="48.12076" lon="7.2418">
        <ele>347.8</ele>
        <time>2021-06-23T09:45:11Z</time>
      </trkpt>
      <trkpt lat="48.12079" lon="7.24193">
        <ele>346.6</ele>
        <time>2021-06-23T09:45:12Z</time>
      </trkpt>
      <trkpt lat="48.12085" lon="7.24218">
        <ele>345.4</ele>
        <time>2021-06-23T09:45:14Z</time>
      </trkpt>
      <trkpt lat="48.12089" lon="7.24229">
        <ele>344.8</ele>
        <time>2021-06-23T09:45:15Z</time>
      </trkpt>
      <trkpt lat="48.12095" lon="7.24239">
        <ele>344.2</ele>
        <time>2021-06-23T09:45:16Z</time>
      </trkpt>
      <trkpt lat="48.12107" lon="7.24257">
        <ele>343.8</ele>
        <time>2021-06-23T09:45:18Z</time>
      </trkpt>
      <trkpt lat="48.12112" lon="7.24266">
        <ele>343.4</ele>
        <time>2021-06-23T09:45:19Z</time>
      </trkpt>
      <trkpt lat="48.12124" lon="7.24277">
        <ele>342.6</ele>
        <time>2021-06-23T09:45:21Z</time>
      </trkpt>
      <trkpt lat="48.12131" lon="7.24284">
        <ele>342.2</ele>
        <time>2021-06-23T09:45:22Z</time>
      </trkpt>
      <trkpt lat="48.12151" lon="7.243">
        <ele>341.2</ele>
        <time>2021-06-23T09:45:25Z</time>
      </trkpt>
      <trkpt lat="48.12163" lon="7.24311">
        <ele>341</ele>
        <time>2021-06-23T09:45:27Z</time>
      </trkpt>
      <trkpt lat="48.12181" lon="7.24329">
        <ele>340</ele>
        <time>2021-06-23T09:45:30Z</time>
      </trkpt>
      <trkpt lat="48.12202" lon="7.24352">
        <ele>339.2</ele>
        <time>2021-06-23T09:45:33Z</time>
      </trkpt>
      <trkpt lat="48.12207" lon="7.2436">
        <ele>338.8</ele>
        <time>2021-06-23T09:45:34Z</time>
      </trkpt>
      <trkpt lat="48.12236" lon="7.24403">
        <ele>337.4</ele>
        <time>2021-06-23T09:45:39Z</time>
      </trkpt>
      <trkpt lat="48.12242" lon="7.24411">
        <ele>337</ele>
        <time>2021-06-23T09:45:40Z</time>
      </trkpt>
      <trkpt lat="48.12249" lon="7.24431">
        <ele>336.2</ele>
        <time>2021-06-23T09:45:42Z</time>
      </trkpt>
      <trkpt lat="48.12251" lon="7.24441">
        <ele>335.2</ele>
        <time>2021-06-23T09:45:43Z</time>
      </trkpt>
      <trkpt lat="48.12254" lon="7.24451">
        <ele>334.8</ele>
        <time>2021-06-23T09:45:44Z</time>
      </trkpt>
      <trkpt lat="48.12263" lon="7.24471">
        <ele>334.2</ele>
        <time>2021-06-23T09:45:46Z</time>
      </trkpt>
      <trkpt lat="48.12272" lon="7.24492">
        <ele>333.6</ele>
        <time>2021-06-23T09:45:48Z</time>
      </trkpt>
      <trkpt lat="48.12277" lon="7.24502">
        <ele>333.4</ele>
        <time>2021-06-23T09:45:49Z</time>
      </trkpt>
      <trkpt lat="48.12282" lon="7.24512">
        <ele>332.8</ele>
        <time>2021-06-23T09:45:50Z</time>
      </trkpt>
      <trkpt lat="48.12286" lon="7.24524">
        <ele>332.6</ele>
        <time>2021-06-23T09:45:51Z</time>
      </trkpt>
      <trkpt lat="48.12296" lon="7.24545">
        <ele>331.4</ele>
        <time>2021-06-23T09:45:53Z</time>
      </trkpt>
      <trkpt lat="48.12302" lon="7.24556">
        <ele>331</ele>
        <time>2021-06-23T09:45:54Z</time>
      </trkpt>
      <trkpt lat="48.12313" lon="7.24577">
        <ele>330.2</ele>
        <time>2021-06-23T09:45:56Z</time>
      </trkpt>
      <trkpt lat="48.12331" lon="7.2461">
        <ele>328.8</ele>
        <time>2021-06-23T09:45:59Z</time>
      </trkpt>
      <trkpt lat="48.12337" lon="7.24623">
        <ele>328.4</ele>
        <time>2021-06-23T09:46:00Z</time>
      </trkpt>
      <trkpt lat="48.12344" lon="7.24636">
        <ele>327.6</ele>
        <time>2021-06-23T09:46:01Z</time>
      </trkpt>
      <trkpt lat="48.12365" lon="7.24678">
        <ele>326</ele>
        <time>2021-06-23T09:46:04Z</time>
      </trkpt>
      <trkpt lat="48.12374" lon="7.24708">
        <ele>324.4</ele>
        <time>2021-06-23T09:46:06Z</time>
      </trkpt>
      <trkpt lat="48.12384" lon="7.24737">
        <ele>323</ele>
        <time>2021-06-23T09:46:08Z</time>
      </trkpt>
      <trkpt lat="48.12387" lon="7.24751">
        <ele>322.4</ele>
        <time>2021-06-23T09:46:09Z</time>
      </trkpt>
      <trkpt lat="48.12391" lon="7.24765">
        <ele>321.6</ele>
        <time>2021-06-23T09:46:10Z</time>
      </trkpt>
      <trkpt lat="48.124" lon="7.24791">
        <ele>319.8</ele>
        <time>2021-06-23T09:46:12Z</time>
      </trkpt>
      <trkpt lat="48.12411" lon="7.24816">
        <ele>317.8</ele>
        <time>2021-06-23T09:46:14Z</time>
      </trkpt>
      <trkpt lat="48.12417" lon="7.24828">
        <ele>316.2</ele>
        <time>2021-06-23T09:46:15Z</time>
      </trkpt>
      <trkpt lat="48.1243" lon="7.2485">
        <ele>315.2</ele>
        <time>2021-06-23T09:46:17Z</time>
      </trkpt>
      <trkpt lat="48.12436" lon="7.2486">
        <ele>314.6</ele>
        <time>2021-06-23T09:46:18Z</time>
      </trkpt>
      <trkpt lat="48.12443" lon="7.24869">
        <ele>313.8</ele>
        <time>2021-06-23T09:46:19Z</time>
      </trkpt>
      <trkpt lat="48.12451" lon="7.24876">
        <ele>313.2</ele>
        <time>2021-06-23T09:46:20Z</time>
      </trkpt>
      <trkpt lat="48.12458" lon="7.24881">
        <ele>312.4</ele>
        <time>2021-06-23T09:46:21Z</time>
      </trkpt>
      <trkpt lat="48.12465" lon="7.24884">
        <ele>311.4</ele>
        <time>2021-06-23T09:46:22Z</time>
      </trkpt>
      <trkpt lat="48.12476" lon="7.24884">
        <ele>310.2</ele>
        <time>2021-06-23T09:46:24Z</time>
      </trkpt>
      <trkpt lat="48.12481" lon="7.24885">
        <ele>309.8</ele>
        <time>2021-06-23T09:46:25Z</time>
      </trkpt>
      <trkpt lat="48.12485" lon="7.24888">
        <ele>309.4</ele>
        <time>2021-06-23T09:46:27Z</time>
      </trkpt>
      <trkpt lat="48.12486" lon="7.24891">
        <ele>309.2</ele>
        <time>2021-06-23T09:46:28Z</time>
      </trkpt>
      <trkpt lat="48.12488" lon="7.24896">
        <ele>308.8</ele>
        <time>2021-06-23T09:46:31Z</time>
      </trkpt>
      <trkpt lat="48.12488" lon="7.24896">
        <ele>308.4</ele>
        <time>2021-06-23T09:46:33Z</time>
      </trkpt>
      <trkpt lat="48.12489" lon="7.24906">
        <ele>306.8</ele>
        <time>2021-06-23T09:47:47Z</time>
      </trkpt>
      <trkpt lat="48.1249" lon="7.24909">
        <ele>306.8</ele>
        <time>2021-06-23T09:47:48Z</time>
      </trkpt>
      <trkpt lat="48.12494" lon="7.24931">
        <ele>306.6</ele>
        <time>2021-06-23T09:47:53Z</time>
      </trkpt>
      <trkpt lat="48.12501" lon="7.2497">
        <ele>306.2</ele>
        <time>2021-06-23T09:47:59Z</time>
      </trkpt>
      <trkpt lat="48.12506" lon="7.24996">
        <ele>305.8</ele>
        <time>2021-06-23T09:48:02Z</time>
      </trkpt>
      <trkpt lat="48.12511" lon="7.25022">
        <ele>305</ele>
        <time>2021-06-23T09:48:05Z</time>
      </trkpt>
      <trkpt lat="48.12513" lon="7.25031">
        <ele>305</ele>
        <time>2021-06-23T09:48:06Z</time>
      </trkpt>
      <trkpt lat="48.12516" lon="7.2505">
        <ele>304.6</ele>
        <time>2021-06-23T09:48:08Z</time>
      </trkpt>
      <trkpt lat="48.12519" lon="7.25079">
        <ele>303.8</ele>
        <time>2021-06-23T09:48:11Z</time>
      </trkpt>
      <trkpt lat="48.1252" lon="7.2509">
        <ele>303.6</ele>
        <time>2021-06-23T09:48:12Z</time>
      </trkpt>
      <trkpt lat="48.12521" lon="7.25132">
        <ele>302.4</ele>
        <time>2021-06-23T09:48:16Z</time>
      </trkpt>
      <trkpt lat="48.1252" lon="7.25185">
        <ele>301.2</ele>
        <time>2021-06-23T09:48:21Z</time>
      </trkpt>
      <trkpt lat="48.1252" lon="7.25229">
        <ele>300.4</ele>
        <time>2021-06-23T09:48:25Z</time>
      </trkpt>
      <trkpt lat="48.12519" lon="7.25249">
        <ele>300</ele>
        <time>2021-06-23T09:48:27Z</time>
      </trkpt>
      <trkpt lat="48.12518" lon="7.25314">
        <ele>299</ele>
        <time>2021-06-23T09:48:33Z</time>
      </trkpt>
      <trkpt lat="48.12517" lon="7.25325">
        <ele>298.6</ele>
        <time>2021-06-23T09:48:34Z</time>
      </trkpt>
      <trkpt lat="48.12516" lon="7.25368">
        <ele>297.4</ele>
        <time>2021-06-23T09:48:38Z</time>
      </trkpt>
      <trkpt lat="48.12516" lon="7.25401">
        <ele>296.4</ele>
        <time>2021-06-23T09:48:41Z</time>
      </trkpt>
      <trkpt lat="48.12514" lon="7.25489">
        <ele>295.2</ele>
        <time>2021-06-23T09:48:49Z</time>
      </trkpt>
      <trkpt lat="48.12513" lon="7.25523">
        <ele>294.6</ele>
        <time>2021-06-23T09:48:52Z</time>
      </trkpt>
      <trkpt lat="48.12513" lon="7.25546">
        <ele>293.6</ele>
        <time>2021-06-23T09:48:54Z</time>
      </trkpt>
      <trkpt lat="48.12512" lon="7.2558">
        <ele>292.6</ele>
        <time>2021-06-23T09:48:57Z</time>
      </trkpt>
      <trkpt lat="48.12512" lon="7.25592">
        <ele>292.4</ele>
        <time>2021-06-23T09:48:58Z</time>
      </trkpt>
      <trkpt lat="48.12511" lon="7.25646">
        <ele>291.6</ele>
        <time>2021-06-23T09:49:03Z</time>
      </trkpt>
      <trkpt lat="48.1251" lon="7.25667">
        <ele>291.2</ele>
        <time>2021-06-23T09:49:05Z</time>
      </trkpt>
      <trkpt lat="48.12508" lon="7.25688">
        <ele>291</ele>
        <time>2021-06-23T09:49:07Z</time>
      </trkpt>
      <trkpt lat="48.12498" lon="7.25771">
        <ele>290.8</ele>
        <time>2021-06-23T09:49:15Z</time>
      </trkpt>
      <trkpt lat="48.12497" lon="7.25781">
        <ele>290.8</ele>
        <time>2021-06-23T09:49:16Z</time>
      </trkpt>
      <trkpt lat="48.12491" lon="7.25835">
        <ele>290.4</ele>
        <time>2021-06-23T09:49:21Z</time>
      </trkpt>
      <trkpt lat="48.1249" lon="7.25845">
        <ele>290.4</ele>
        <time>2021-06-23T09:49:22Z</time>
      </trkpt>
      <trkpt lat="48.12482" lon="7.25907">
        <ele>289.8</ele>
        <time>2021-06-23T09:49:28Z</time>
      </trkpt>
      <trkpt lat="48.12481" lon="7.2593">
        <ele>289.4</ele>
        <time>2021-06-23T09:49:30Z</time>
      </trkpt>
      <trkpt lat="48.12481" lon="7.26001">
        <ele>288</ele>
        <time>2021-06-23T09:49:36Z</time>
      </trkpt>
      <trkpt lat="48.12482" lon="7.26025">
        <ele>286.8</ele>
        <time>2021-06-23T09:49:38Z</time>
      </trkpt>
      <trkpt lat="48.12482" lon="7.26076">
        <ele>285.2</ele>
        <time>2021-06-23T09:49:42Z</time>
      </trkpt>
      <trkpt lat="48.12483" lon="7.26116">
        <ele>283.8</ele>
        <time>2021-06-23T09:49:45Z</time>
      </trkpt>
      <trkpt lat="48.12484" lon="7.26143">
        <ele>282.6</ele>
        <time>2021-06-23T09:49:47Z</time>
      </trkpt>
      <trkpt lat="48.12484" lon="7.26196">
        <ele>281.2</ele>
        <time>2021-06-23T09:49:51Z</time>
      </trkpt>
      <trkpt lat="48.12484" lon="7.26237">
        <ele>280.2</ele>
        <time>2021-06-23T09:49:54Z</time>
      </trkpt>
      <trkpt lat="48.12485" lon="7.26265">
        <ele>278.4</ele>
        <time>2021-06-23T09:49:56Z</time>
      </trkpt>
      <trkpt lat="48.12487" lon="7.26306">
        <ele>277</ele>
        <time>2021-06-23T09:49:59Z</time>
      </trkpt>
      <trkpt lat="48.12488" lon="7.26319">
        <ele>276</ele>
        <time>2021-06-23T09:50:00Z</time>
      </trkpt>
      <trkpt lat="48.12491" lon="7.26347">
        <ele>274.8</ele>
        <time>2021-06-23T09:50:02Z</time>
      </trkpt>
      <trkpt lat="48.12493" lon="7.26374">
        <ele>274</ele>
        <time>2021-06-23T09:50:04Z</time>
      </trkpt>
      <trkpt lat="48.12494" lon="7.26388">
        <ele>273.4</ele>
        <time>2021-06-23T09:50:05Z</time>
      </trkpt>
      <trkpt lat="48.12499" lon="7.26442">
        <ele>272.2</ele>
        <time>2021-06-23T09:50:09Z</time>
      </trkpt>
      <trkpt lat="48.12503" lon="7.2648">
        <ele>270.8</ele>
        <time>2021-06-23T09:50:12Z</time>
      </trkpt>
      <trkpt lat="48.12506" lon="7.26518">
        <ele>269.8</ele>
        <time>2021-06-23T09:50:15Z</time>
      </trkpt>
      <trkpt lat="48.12507" lon="7.2653">
        <ele>269.6</ele>
        <time>2021-06-23T09:50:16Z</time>
      </trkpt>
      <trkpt lat="48.12511" lon="7.26592">
        <ele>268</ele>
        <time>2021-06-23T09:50:21Z</time>
      </trkpt>
      <trkpt lat="48.12512" lon="7.26617">
        <ele>267.2</ele>
        <time>2021-06-23T09:50:23Z</time>
      </trkpt>
      <trkpt lat="48.1251" lon="7.26654">
        <ele>266.6</ele>
        <time>2021-06-23T09:50:26Z</time>
      </trkpt>
      <trkpt lat="48.12507" lon="7.26677">
        <ele>265.4</ele>
        <time>2021-06-23T09:50:28Z</time>
      </trkpt>
      <trkpt lat="48.12503" lon="7.26697">
        <ele>264.2</ele>
        <time>2021-06-23T09:50:30Z</time>
      </trkpt>
      <trkpt lat="48.12499" lon="7.2671">
        <ele>264.4</ele>
        <time>2021-06-23T09:50:31Z</time>
      </trkpt>
      <trkpt lat="48.12493" lon="7.26729">
        <ele>264</ele>
        <time>2021-06-23T09:50:33Z</time>
      </trkpt>
      <trkpt lat="48.12468" lon="7.26811">
        <ele>263.6</ele>
        <time>2021-06-23T09:50:41Z</time>
      </trkpt>
      <trkpt lat="48.12464" lon="7.2683">
        <ele>263.6</ele>
        <time>2021-06-23T09:50:43Z</time>
      </trkpt>
      <trkpt lat="48.12461" lon="7.26853">
        <ele>263.4</ele>
        <time>2021-06-23T09:50:45Z</time>
      </trkpt>
      <trkpt lat="48.1246" lon="7.26874">
        <ele>263.2</ele>
        <time>2021-06-23T09:50:47Z</time>
      </trkpt>
      <trkpt lat="48.12456" lon="7.26964">
        <ele>262.4</ele>
        <time>2021-06-23T09:50:56Z</time>
      </trkpt>
      <trkpt lat="48.12453" lon="7.27044">
        <ele>262.4</ele>
        <time>2021-06-23T09:51:05Z</time>
      </trkpt>
      <trkpt lat="48.12453" lon="7.27055">
        <ele>262.2</ele>
        <time>2021-06-23T09:51:06Z</time>
      </trkpt>
      <trkpt lat="48.12451" lon="7.2711">
        <ele>262</ele>
        <time>2021-06-23T09:51:12Z</time>
      </trkpt>
      <trkpt lat="48.12451" lon="7.27136">
        <ele>262</ele>
        <time>2021-06-23T09:51:15Z</time>
      </trkpt>
      <trkpt lat="48.12451" lon="7.27186">
        <ele>261.4</ele>
        <time>2021-06-23T09:51:20Z</time>
      </trkpt>
      <trkpt lat="48.12451" lon="7.27195">
        <ele>261.4</ele>
        <time>2021-06-23T09:51:21Z</time>
      </trkpt>
      <trkpt lat="48.12451" lon="7.27285">
        <ele>260.8</ele>
        <time>2021-06-23T09:51:30Z</time>
      </trkpt>
      <trkpt lat="48.12451" lon="7.27295">
        <ele>260.4</ele>
        <time>2021-06-23T09:51:31Z</time>
      </trkpt>
      <trkpt lat="48.12451" lon="7.27342">
        <ele>259.6</ele>
        <time>2021-06-23T09:51:36Z</time>
      </trkpt>
      <trkpt lat="48.12451" lon="7.27372">
        <ele>259.2</ele>
        <time>2021-06-23T09:51:39Z</time>
      </trkpt>
      <trkpt lat="48.12451" lon="7.27418">
        <ele>258.4</ele>
        <time>2021-06-23T09:51:44Z</time>
      </trkpt>
      <trkpt lat="48.12453" lon="7.27451">
        <ele>258</ele>
        <time>2021-06-23T09:51:48Z</time>
      </trkpt>
      <trkpt lat="48.12456" lon="7.27507">
        <ele>257.6</ele>
        <time>2021-06-23T09:51:55Z</time>
      </trkpt>
      <trkpt lat="48.12456" lon="7.27514">
        <ele>257.2</ele>
        <time>2021-06-23T09:51:56Z</time>
      </trkpt>
      <trkpt lat="48.12458" lon="7.27561">
        <ele>257.2</ele>
        <time>2021-06-23T09:52:01Z</time>
      </trkpt>
      <trkpt lat="48.12458" lon="7.27579">
        <ele>257</ele>
        <time>2021-06-23T09:52:03Z</time>
      </trkpt>
      <trkpt lat="48.12458" lon="7.27619">
        <ele>256.4</ele>
        <time>2021-06-23T09:52:07Z</time>
      </trkpt>
      <trkpt lat="48.12457" lon="7.2764">
        <ele>256.2</ele>
        <time>2021-06-23T09:52:09Z</time>
      </trkpt>
      <trkpt lat="48.12457" lon="7.27672">
        <ele>255.2</ele>
        <time>2021-06-23T09:52:12Z</time>
      </trkpt>
      <trkpt lat="48.12456" lon="7.27701">
        <ele>253.8</ele>
        <time>2021-06-23T09:52:15Z</time>
      </trkpt>
      <trkpt lat="48.12456" lon="7.27736">
        <ele>252.8</ele>
        <time>2021-06-23T09:52:18Z</time>
      </trkpt>
      <trkpt lat="48.12456" lon="7.27747">
        <ele>252.6</ele>
        <time>2021-06-23T09:52:19Z</time>
      </trkpt>
      <trkpt lat="48.12453" lon="7.27769">
        <ele>252.2</ele>
        <time>2021-06-23T09:52:21Z</time>
      </trkpt>
      <trkpt lat="48.12449" lon="7.27789">
        <ele>252</ele>
        <time>2021-06-23T09:52:23Z</time>
      </trkpt>
      <trkpt lat="48.12445" lon="7.27808">
        <ele>251.8</ele>
        <time>2021-06-23T09:52:25Z</time>
      </trkpt>
      <trkpt lat="48.1244" lon="7.27833">
        <ele>251</ele>
        <time>2021-06-23T09:52:28Z</time>
      </trkpt>
      <trkpt lat="48.12434" lon="7.27848">
        <ele>250.6</ele>
        <time>2021-06-23T09:52:30Z</time>
      </trkpt>
      <trkpt lat="48.12428" lon="7.27865">
        <ele>250.4</ele>
        <time>2021-06-23T09:52:32Z</time>
      </trkpt>
      <trkpt lat="48.12422" lon="7.27897">
        <ele>249.4</ele>
        <time>2021-06-23T09:52:35Z</time>
      </trkpt>
      <trkpt lat="48.12421" lon="7.27908">
        <ele>249.2</ele>
        <time>2021-06-23T09:52:36Z</time>
      </trkpt>
      <trkpt lat="48.12419" lon="7.27944">
        <ele>247.8</ele>
        <time>2021-06-23T09:52:39Z</time>
      </trkpt>
      <trkpt lat="48.12418" lon="7.27989">
        <ele>246.6</ele>
        <time>2021-06-23T09:52:43Z</time>
      </trkpt>
      <trkpt lat="48.12418" lon="7.27999">
        <ele>245.6</ele>
        <time>2021-06-23T09:52:44Z</time>
      </trkpt>
      <trkpt lat="48.12421" lon="7.28029">
        <ele>244.6</ele>
        <time>2021-06-23T09:52:47Z</time>
      </trkpt>
      <trkpt lat="48.12422" lon="7.28039">
        <ele>243.8</ele>
        <time>2021-06-23T09:52:48Z</time>
      </trkpt>
      <trkpt lat="48.12425" lon="7.28056">
        <ele>243.2</ele>
        <time>2021-06-23T09:52:50Z</time>
      </trkpt>
      <trkpt lat="48.12428" lon="7.28082">
        <ele>241.8</ele>
        <time>2021-06-23T09:52:53Z</time>
      </trkpt>
      <trkpt lat="48.12432" lon="7.28098">
        <ele>240.8</ele>
        <time>2021-06-23T09:52:55Z</time>
      </trkpt>
      <trkpt lat="48.12433" lon="7.28105">
        <ele>240.6</ele>
        <time>2021-06-23T09:52:56Z</time>
      </trkpt>
      <trkpt lat="48.12435" lon="7.28123">
        <ele>239.6</ele>
        <time>2021-06-23T09:52:59Z</time>
      </trkpt>
      <trkpt lat="48.12435" lon="7.28127">
        <ele>239</ele>
        <time>2021-06-23T09:53:00Z</time>
      </trkpt>
      <trkpt lat="48.12433" lon="7.28131">
        <ele>238.2</ele>
        <time>2021-06-23T09:53:02Z</time>
      </trkpt>
      <trkpt lat="48.12433" lon="7.28132">
        <ele>238</ele>
        <time>2021-06-23T09:53:03Z</time>
      </trkpt>
      <trkpt lat="48.12433" lon="7.28132">
        <ele>238</ele>
        <time>2021-06-23T09:53:04Z</time>
      </trkpt>
      <trkpt lat="48.12434" lon="7.28138">
        <ele>237.4</ele>
        <time>2021-06-23T09:53:13Z</time>
      </trkpt>
      <trkpt lat="48.12434" lon="7.28142">
        <ele>237.4</ele>
        <time>2021-06-23T09:53:14Z</time>
      </trkpt>
      <trkpt lat="48.12434" lon="7.28146">
        <ele>237.4</ele>
        <time>2021-06-23T09:53:15Z</time>
      </trkpt>
      <trkpt lat="48.12435" lon="7.28176">
        <ele>236.8</ele>
        <time>2021-06-23T09:53:20Z</time>
      </trkpt>
      <trkpt lat="48.12435" lon="7.28191">
        <ele>236.4</ele>
        <time>2021-06-23T09:53:22Z</time>
      </trkpt>
      <trkpt lat="48.12436" lon="7.28225">
        <ele>235.6</ele>
        <time>2021-06-23T09:53:26Z</time>
      </trkpt>
      <trkpt lat="48.12436" lon="7.28243">
        <ele>235.4</ele>
        <time>2021-06-23T09:53:28Z</time>
      </trkpt>
      <trkpt lat="48.12436" lon="7.2826">
        <ele>234.8</ele>
        <time>2021-06-23T09:53:30Z</time>
      </trkpt>
      <trkpt lat="48.12437" lon="7.28269">
        <ele>234.2</ele>
        <time>2021-06-23T09:53:31Z</time>
      </trkpt>
      <trkpt lat="48.12437" lon="7.28277">
        <ele>234.2</ele>
        <time>2021-06-23T09:53:32Z</time>
      </trkpt>
      <trkpt lat="48.12438" lon="7.2831">
        <ele>233.4</ele>
        <time>2021-06-23T09:53:36Z</time>
      </trkpt>
      <trkpt lat="48.12439" lon="7.28317">
        <ele>233.2</ele>
        <time>2021-06-23T09:53:37Z</time>
      </trkpt>
      <trkpt lat="48.12439" lon="7.28324">
        <ele>233.2</ele>
        <time>2021-06-23T09:53:38Z</time>
      </trkpt>
      <trkpt lat="48.12439" lon="7.28331">
        <ele>233.2</ele>
        <time>2021-06-23T09:53:39Z</time>
      </trkpt>
      <trkpt lat="48.1244" lon="7.28339">
        <ele>233</ele>
        <time>2021-06-23T09:53:40Z</time>
      </trkpt>
      <trkpt lat="48.12441" lon="7.28353">
        <ele>233</ele>
        <time>2021-06-23T09:53:42Z</time>
      </trkpt>
      <trkpt lat="48.12437" lon="7.28368">
        <ele>232.8</ele>
        <time>2021-06-23T09:53:44Z</time>
      </trkpt>
      <trkpt lat="48.12423" lon="7.28393">
        <ele>232.8</ele>
        <time>2021-06-23T09:53:48Z</time>
      </trkpt>
      <trkpt lat="48.12408" lon="7.28419">
        <ele>232.2</ele>
        <time>2021-06-23T09:53:52Z</time>
      </trkpt>
      <trkpt lat="48.1239" lon="7.2845">
        <ele>231.4</ele>
        <time>2021-06-23T09:53:57Z</time>
      </trkpt>
      <trkpt lat="48.12387" lon="7.28456">
        <ele>231.2</ele>
        <time>2021-06-23T09:53:58Z</time>
      </trkpt>
      <trkpt lat="48.12384" lon="7.2846">
        <ele>231</ele>
        <time>2021-06-23T09:53:59Z</time>
      </trkpt>
      <trkpt lat="48.12378" lon="7.28466">
        <ele>230.8</ele>
        <time>2021-06-23T09:54:01Z</time>
      </trkpt>
      <trkpt lat="48.1236" lon="7.28479">
        <ele>230</ele>
        <time>2021-06-23T09:54:07Z</time>
      </trkpt>
      <trkpt lat="48.12357" lon="7.28481">
        <ele>230.2</ele>
        <time>2021-06-23T09:54:08Z</time>
      </trkpt>
      <trkpt lat="48.12352" lon="7.28482">
        <ele>230.2</ele>
        <time>2021-06-23T09:54:09Z</time>
      </trkpt>
      <trkpt lat="48.12336" lon="7.28482">
        <ele>229.6</ele>
        <time>2021-06-23T09:54:12Z</time>
      </trkpt>
      <trkpt lat="48.12309" lon="7.28485">
        <ele>229.6</ele>
        <time>2021-06-23T09:54:17Z</time>
      </trkpt>
      <trkpt lat="48.12303" lon="7.28484">
        <ele>229.6</ele>
        <time>2021-06-23T09:54:18Z</time>
      </trkpt>
      <trkpt lat="48.12298" lon="7.28483">
        <ele>229.6</ele>
        <time>2021-06-23T09:54:19Z</time>
      </trkpt>
      <trkpt lat="48.12288" lon="7.28481">
        <ele>229.6</ele>
        <time>2021-06-23T09:54:21Z</time>
      </trkpt>
      <trkpt lat="48.12283" lon="7.28483">
        <ele>229.8</ele>
        <time>2021-06-23T09:54:22Z</time>
      </trkpt>
      <trkpt lat="48.12273" lon="7.28489">
        <ele>230</ele>
        <time>2021-06-23T09:54:24Z</time>
      </trkpt>
      <trkpt lat="48.12264" lon="7.28495">
        <ele>230</ele>
        <time>2021-06-23T09:54:26Z</time>
      </trkpt>
      <trkpt lat="48.12259" lon="7.28498">
        <ele>230</ele>
        <time>2021-06-23T09:54:27Z</time>
      </trkpt>
      <trkpt lat="48.12241" lon="7.2851">
        <ele>230.2</ele>
        <time>2021-06-23T09:54:31Z</time>
      </trkpt>
      <trkpt lat="48.12227" lon="7.28523">
        <ele>230.4</ele>
        <time>2021-06-23T09:54:34Z</time>
      </trkpt>
      <trkpt lat="48.12214" lon="7.28536">
        <ele>230.6</ele>
        <time>2021-06-23T09:54:37Z</time>
      </trkpt>
      <trkpt lat="48.122" lon="7.28549">
        <ele>230.6</ele>
        <time>2021-06-23T09:54:40Z</time>
      </trkpt>
      <trkpt lat="48.12182" lon="7.28566">
        <ele>230.4</ele>
        <time>2021-06-23T09:54:44Z</time>
      </trkpt>
      <trkpt lat="48.12172" lon="7.28572">
        <ele>230.8</ele>
        <time>2021-06-23T09:54:46Z</time>
      </trkpt>
      <trkpt lat="48.1212" lon="7.28588">
        <ele>231.4</ele>
        <time>2021-06-23T09:54:56Z</time>
      </trkpt>
      <trkpt lat="48.1211" lon="7.2859">
        <ele>231.6</ele>
        <time>2021-06-23T09:54:58Z</time>
      </trkpt>
      <trkpt lat="48.1209" lon="7.28587">
        <ele>231.6</ele>
        <time>2021-06-23T09:55:02Z</time>
      </trkpt>
      <trkpt lat="48.12085" lon="7.28586">
        <ele>231.6</ele>
        <time>2021-06-23T09:55:03Z</time>
      </trkpt>
      <trkpt lat="48.12062" lon="7.28575">
        <ele>232.4</ele>
        <time>2021-06-23T09:55:08Z</time>
      </trkpt>
      <trkpt lat="48.12058" lon="7.28573">
        <ele>232.6</ele>
        <time>2021-06-23T09:55:09Z</time>
      </trkpt>
      <trkpt lat="48.12042" lon="7.2856">
        <ele>233</ele>
        <time>2021-06-23T09:55:13Z</time>
      </trkpt>
      <trkpt lat="48.12034" lon="7.28553">
        <ele>233</ele>
        <time>2021-06-23T09:55:15Z</time>
      </trkpt>
      <trkpt lat="48.12015" lon="7.28541">
        <ele>233.2</ele>
        <time>2021-06-23T09:55:20Z</time>
      </trkpt>
      <trkpt lat="48.12003" lon="7.28536">
        <ele>234</ele>
        <time>2021-06-23T09:55:23Z</time>
      </trkpt>
      <trkpt lat="48.1199" lon="7.28529">
        <ele>235.4</ele>
        <time>2021-06-23T09:55:27Z</time>
      </trkpt>
      <trkpt lat="48.11976" lon="7.28527">
        <ele>236</ele>
        <time>2021-06-23T09:55:31Z</time>
      </trkpt>
      <trkpt lat="48.11958" lon="7.28521">
        <ele>236.6</ele>
        <time>2021-06-23T09:55:36Z</time>
      </trkpt>
      <trkpt lat="48.11954" lon="7.2852">
        <ele>236.6</ele>
        <time>2021-06-23T09:55:37Z</time>
      </trkpt>
      <trkpt lat="48.11922" lon="7.28516">
        <ele>237.4</ele>
        <time>2021-06-23T09:55:45Z</time>
      </trkpt>
      <trkpt lat="48.11919" lon="7.28516">
        <ele>237.6</ele>
        <time>2021-06-23T09:55:46Z</time>
      </trkpt>
      <trkpt lat="48.11902" lon="7.28514">
        <ele>238.6</ele>
        <time>2021-06-23T09:55:50Z</time>
      </trkpt>
      <trkpt lat="48.11898" lon="7.28514">
        <ele>238.8</ele>
        <time>2021-06-23T09:55:51Z</time>
      </trkpt>
      <trkpt lat="48.11894" lon="7.28513">
        <ele>239</ele>
        <time>2021-06-23T09:55:52Z</time>
      </trkpt>
      <trkpt lat="48.11878" lon="7.28515">
        <ele>239.8</ele>
        <time>2021-06-23T09:55:56Z</time>
      </trkpt>
      <trkpt lat="48.11858" lon="7.28517">
        <ele>240.6</ele>
        <time>2021-06-23T09:56:01Z</time>
      </trkpt>
      <trkpt lat="48.11854" lon="7.28518">
        <ele>241</ele>
        <time>2021-06-23T09:56:02Z</time>
      </trkpt>
      <trkpt lat="48.11841" lon="7.28524">
        <ele>241.6</ele>
        <time>2021-06-23T09:56:06Z</time>
      </trkpt>
      <trkpt lat="48.11836" lon="7.28526">
        <ele>242</ele>
        <time>2021-06-23T09:56:08Z</time>
      </trkpt>
      <trkpt lat="48.11834" lon="7.28528">
        <ele>242.6</ele>
        <time>2021-06-23T09:56:10Z</time>
      </trkpt>
      <trkpt lat="48.11834" lon="7.28528">
        <ele>243.2</ele>
        <time>2021-06-23T09:56:11Z</time>
      </trkpt>
      <trkpt lat="48.11834" lon="7.28528">
        <ele>243.6</ele>
        <time>2021-06-23T09:56:14Z</time>
      </trkpt>
      <trkpt lat="48.11828" lon="7.28526">
        <ele>243</ele>
        <time>2021-06-23T09:57:08Z</time>
      </trkpt>
      <trkpt lat="48.11823" lon="7.28524">
        <ele>242.8</ele>
        <time>2021-06-23T09:57:10Z</time>
      </trkpt>
      <trkpt lat="48.118" lon="7.28522">
        <ele>243</ele>
        <time>2021-06-23T09:57:18Z</time>
      </trkpt>
      <trkpt lat="48.11773" lon="7.28522">
        <ele>245</ele>
        <time>2021-06-23T09:57:26Z</time>
      </trkpt>
      <trkpt lat="48.1177" lon="7.28522">
        <ele>244.8</ele>
        <time>2021-06-23T09:57:27Z</time>
      </trkpt>
      <trkpt lat="48.11748" lon="7.28517">
        <ele>246.2</ele>
        <time>2021-06-23T09:57:33Z</time>
      </trkpt>
      <trkpt lat="48.11728" lon="7.28513">
        <ele>247.4</ele>
        <time>2021-06-23T09:57:39Z</time>
      </trkpt>
      <trkpt lat="48.11725" lon="7.28512">
        <ele>247.8</ele>
        <time>2021-06-23T09:57:40Z</time>
      </trkpt>
      <trkpt lat="48.11713" lon="7.28509">
        <ele>248.8</ele>
        <time>2021-06-23T09:57:44Z</time>
      </trkpt>
      <trkpt lat="48.11707" lon="7.28508">
        <ele>249.4</ele>
        <time>2021-06-23T09:57:46Z</time>
      </trkpt>
      <trkpt lat="48.11702" lon="7.28506">
        <ele>249.8</ele>
        <time>2021-06-23T09:57:48Z</time>
      </trkpt>
      <trkpt lat="48.1169" lon="7.28504">
        <ele>250.6</ele>
        <time>2021-06-23T09:57:52Z</time>
      </trkpt>
      <trkpt lat="48.11687" lon="7.28506">
        <ele>250.8</ele>
        <time>2021-06-23T09:57:53Z</time>
      </trkpt>
      <trkpt lat="48.11684" lon="7.28507">
        <ele>250.8</ele>
        <time>2021-06-23T09:57:54Z</time>
      </trkpt>
      <trkpt lat="48.11674" lon="7.28516">
        <ele>251.6</ele>
        <time>2021-06-23T09:57:58Z</time>
      </trkpt>
      <trkpt lat="48.11672" lon="7.28518">
        <ele>252</ele>
        <time>2021-06-23T09:57:59Z</time>
      </trkpt>
      <trkpt lat="48.1166" lon="7.28528">
        <ele>253.2</ele>
        <time>2021-06-23T09:58:04Z</time>
      </trkpt>
      <trkpt lat="48.11652" lon="7.28534">
        <ele>254.2</ele>
        <time>2021-06-23T09:58:07Z</time>
      </trkpt>
      <trkpt lat="48.11634" lon="7.28551">
        <ele>255.2</ele>
        <time>2021-06-23T09:58:14Z</time>
      </trkpt>
      <trkpt lat="48.11628" lon="7.28556">
        <ele>255.8</ele>
        <time>2021-06-23T09:58:16Z</time>
      </trkpt>
      <trkpt lat="48.11623" lon="7.28558">
        <ele>256.2</ele>
        <time>2021-06-23T09:58:18Z</time>
      </trkpt>
      <trkpt lat="48.11619" lon="7.28557">
        <ele>256.6</ele>
        <time>2021-06-23T09:58:19Z</time>
      </trkpt>
      <trkpt lat="48.11617" lon="7.28556">
        <ele>256.8</ele>
        <time>2021-06-23T09:58:20Z</time>
      </trkpt>
      <trkpt lat="48.11599" lon="7.28548">
        <ele>258</ele>
        <time>2021-06-23T09:58:26Z</time>
      </trkpt>
      <trkpt lat="48.11596" lon="7.28547">
        <ele>258</ele>
        <time>2021-06-23T09:58:27Z</time>
      </trkpt>
      <trkpt lat="48.11579" lon="7.28543">
        <ele>258.6</ele>
        <time>2021-06-23T09:58:32Z</time>
      </trkpt>
      <trkpt lat="48.11576" lon="7.28543">
        <ele>259</ele>
        <time>2021-06-23T09:58:33Z</time>
      </trkpt>
      <trkpt lat="48.11553" lon="7.28543">
        <ele>260.4</ele>
        <time>2021-06-23T09:58:39Z</time>
      </trkpt>
      <trkpt lat="48.11545" lon="7.28544">
        <ele>260.8</ele>
        <time>2021-06-23T09:58:41Z</time>
      </trkpt>
      <trkpt lat="48.11511" lon="7.28545">
        <ele>260.8</ele>
        <time>2021-06-23T09:58:48Z</time>
      </trkpt>
      <trkpt lat="48.11471" lon="7.28535">
        <ele>259.6</ele>
        <time>2021-06-23T09:58:55Z</time>
      </trkpt>
      <trkpt lat="48.11465" lon="7.28533">
        <ele>259.4</ele>
        <time>2021-06-23T09:58:56Z</time>
      </trkpt>
      <trkpt lat="48.11436" lon="7.28522">
        <ele>258.4</ele>
        <time>2021-06-23T09:59:01Z</time>
      </trkpt>
      <trkpt lat="48.1143" lon="7.28522">
        <ele>258.4</ele>
        <time>2021-06-23T09:59:02Z</time>
      </trkpt>
      <trkpt lat="48.11425" lon="7.28523">
        <ele>258.4</ele>
        <time>2021-06-23T09:59:03Z</time>
      </trkpt>
      <trkpt lat="48.11414" lon="7.28528">
        <ele>258.2</ele>
        <time>2021-06-23T09:59:05Z</time>
      </trkpt>
      <trkpt lat="48.11409" lon="7.28532">
        <ele>258.2</ele>
        <time>2021-06-23T09:59:06Z</time>
      </trkpt>
      <trkpt lat="48.11373" lon="7.28557">
        <ele>258.6</ele>
        <time>2021-06-23T09:59:14Z</time>
      </trkpt>
      <trkpt lat="48.11359" lon="7.28565">
        <ele>259</ele>
        <time>2021-06-23T09:59:17Z</time>
      </trkpt>
      <trkpt lat="48.11348" lon="7.28577">
        <ele>259.4</ele>
        <time>2021-06-23T09:59:20Z</time>
      </trkpt>
      <trkpt lat="48.11327" lon="7.28608">
        <ele>260</ele>
        <time>2021-06-23T09:59:25Z</time>
      </trkpt>
      <trkpt lat="48.11313" lon="7.28635">
        <ele>259.8</ele>
        <time>2021-06-23T09:59:28Z</time>
      </trkpt>
      <trkpt lat="48.11309" lon="7.28646">
        <ele>259.8</ele>
        <time>2021-06-23T09:59:29Z</time>
      </trkpt>
      <trkpt lat="48.11306" lon="7.28658">
        <ele>259.2</ele>
        <time>2021-06-23T09:59:30Z</time>
      </trkpt>
      <trkpt lat="48.11297" lon="7.28699">
        <ele>257.2</ele>
        <time>2021-06-23T09:59:33Z</time>
      </trkpt>
      <trkpt lat="48.11292" lon="7.28712">
        <ele>256.6</ele>
        <time>2021-06-23T09:59:34Z</time>
      </trkpt>
      <trkpt lat="48.11286" lon="7.28722">
        <ele>256</ele>
        <time>2021-06-23T09:59:35Z</time>
      </trkpt>
      <trkpt lat="48.1128" lon="7.2873">
        <ele>255.4</ele>
        <time>2021-06-23T09:59:36Z</time>
      </trkpt>
      <trkpt lat="48.11272" lon="7.28737">
        <ele>254.6</ele>
        <time>2021-06-23T09:59:37Z</time>
      </trkpt>
      <trkpt lat="48.11264" lon="7.28741">
        <ele>254.2</ele>
        <time>2021-06-23T09:59:38Z</time>
      </trkpt>
      <trkpt lat="48.11256" lon="7.28745">
        <ele>253</ele>
        <time>2021-06-23T09:59:39Z</time>
      </trkpt>
      <trkpt lat="48.11234" lon="7.28749">
        <ele>252</ele>
        <time>2021-06-23T09:59:42Z</time>
      </trkpt>
      <trkpt lat="48.11227" lon="7.28749">
        <ele>252</ele>
        <time>2021-06-23T09:59:43Z</time>
      </trkpt>
      <trkpt lat="48.11214" lon="7.28748">
        <ele>251.8</ele>
        <time>2021-06-23T09:59:45Z</time>
      </trkpt>
      <trkpt lat="48.11194" lon="7.28742">
        <ele>252</ele>
        <time>2021-06-23T09:59:48Z</time>
      </trkpt>
      <trkpt lat="48.11152" lon="7.28728">
        <ele>253</ele>
        <time>2021-06-23T09:59:55Z</time>
      </trkpt>
      <trkpt lat="48.11146" lon="7.28724">
        <ele>253.2</ele>
        <time>2021-06-23T09:59:56Z</time>
      </trkpt>
      <trkpt lat="48.11114" lon="7.28703">
        <ele>254.2</ele>
        <time>2021-06-23T10:00:02Z</time>
      </trkpt>
      <trkpt lat="48.11103" lon="7.28696">
        <ele>254.2</ele>
        <time>2021-06-23T10:00:04Z</time>
      </trkpt>
      <trkpt lat="48.11084" lon="7.28681">
        <ele>255.4</ele>
        <time>2021-06-23T10:00:08Z</time>
      </trkpt>
      <trkpt lat="48.11077" lon="7.28672">
        <ele>256.2</ele>
        <time>2021-06-23T10:00:10Z</time>
      </trkpt>
      <trkpt lat="48.11069" lon="7.28661">
        <ele>256.6</ele>
        <time>2021-06-23T10:00:12Z</time>
      </trkpt>
      <trkpt lat="48.11052" lon="7.28639">
        <ele>257.2</ele>
        <time>2021-06-23T10:00:17Z</time>
      </trkpt>
      <trkpt lat="48.11045" lon="7.28631">
        <ele>257.6</ele>
        <time>2021-06-23T10:00:19Z</time>
      </trkpt>
      <trkpt lat="48.11021" lon="7.28609">
        <ele>258.4</ele>
        <time>2021-06-23T10:00:25Z</time>
      </trkpt>
      <trkpt lat="48.10987" lon="7.28591">
        <ele>258.2</ele>
        <time>2021-06-23T10:00:31Z</time>
      </trkpt>
      <trkpt lat="48.10958" lon="7.28579">
        <ele>257</ele>
        <time>2021-06-23T10:00:36Z</time>
      </trkpt>
      <trkpt lat="48.10929" lon="7.2856">
        <ele>257</ele>
        <time>2021-06-23T10:00:42Z</time>
      </trkpt>
      <trkpt lat="48.10918" lon="7.28558">
        <ele>257</ele>
        <time>2021-06-23T10:00:45Z</time>
      </trkpt>
      <trkpt lat="48.10892" lon="7.2857">
        <ele>257.4</ele>
        <time>2021-06-23T10:00:51Z</time>
      </trkpt>
      <trkpt lat="48.10887" lon="7.28572">
        <ele>257.4</ele>
        <time>2021-06-23T10:00:52Z</time>
      </trkpt>
      <trkpt lat="48.10877" lon="7.28574">
        <ele>257.6</ele>
        <time>2021-06-23T10:00:54Z</time>
      </trkpt>
      <trkpt lat="48.10872" lon="7.28574">
        <ele>257.6</ele>
        <time>2021-06-23T10:00:55Z</time>
      </trkpt>
      <trkpt lat="48.1086" lon="7.28576">
        <ele>257.6</ele>
        <time>2021-06-23T10:00:57Z</time>
      </trkpt>
      <trkpt lat="48.1084" lon="7.28576">
        <ele>257.8</ele>
        <time>2021-06-23T10:01:01Z</time>
      </trkpt>
      <trkpt lat="48.10815" lon="7.28575">
        <ele>258.6</ele>
        <time>2021-06-23T10:01:07Z</time>
      </trkpt>
      <trkpt lat="48.10799" lon="7.28573">
        <ele>258.8</ele>
        <time>2021-06-23T10:01:12Z</time>
      </trkpt>
      <trkpt lat="48.10797" lon="7.2857">
        <ele>258.8</ele>
        <time>2021-06-23T10:01:13Z</time>
      </trkpt>
      <trkpt lat="48.10796" lon="7.28567">
        <ele>258.8</ele>
        <time>2021-06-23T10:01:14Z</time>
      </trkpt>
      <trkpt lat="48.10796" lon="7.28553">
        <ele>258.8</ele>
        <time>2021-06-23T10:01:17Z</time>
      </trkpt>
      <trkpt lat="48.10796" lon="7.28543">
        <ele>258.8</ele>
        <time>2021-06-23T10:01:19Z</time>
      </trkpt>
      <trkpt lat="48.10797" lon="7.28528">
        <ele>259.2</ele>
        <time>2021-06-23T10:01:22Z</time>
      </trkpt>
      <trkpt lat="48.10797" lon="7.28518">
        <ele>259.4</ele>
        <time>2021-06-23T10:01:24Z</time>
      </trkpt>
      <trkpt lat="48.10797" lon="7.28503">
        <ele>260.2</ele>
        <time>2021-06-23T10:01:27Z</time>
      </trkpt>
      <trkpt lat="48.10798" lon="7.28477">
        <ele>261.4</ele>
        <time>2021-06-23T10:01:32Z</time>
      </trkpt>
      <trkpt lat="48.10798" lon="7.28473">
        <ele>261.6</ele>
        <time>2021-06-23T10:01:33Z</time>
      </trkpt>
      <trkpt lat="48.10796" lon="7.28457">
        <ele>262.6</ele>
        <time>2021-06-23T10:01:37Z</time>
      </trkpt>
      <trkpt lat="48.10793" lon="7.28455">
        <ele>263</ele>
        <time>2021-06-23T10:01:38Z</time>
      </trkpt>
      <trkpt lat="48.10787" lon="7.28455">
        <ele>263.8</ele>
        <time>2021-06-23T10:01:41Z</time>
      </trkpt>
      <trkpt lat="48.10779" lon="7.28457">
        <ele>264.8</ele>
        <time>2021-06-23T10:01:44Z</time>
      </trkpt>
      <trkpt lat="48.10777" lon="7.28457">
        <ele>264.8</ele>
        <time>2021-06-23T10:01:45Z</time>
      </trkpt>
      <trkpt lat="48.10774" lon="7.28457">
        <ele>265.2</ele>
        <time>2021-06-23T10:01:46Z</time>
      </trkpt>
      <trkpt lat="48.1077" lon="7.28455">
        <ele>265.6</ele>
        <time>2021-06-23T10:01:48Z</time>
      </trkpt>
      <trkpt lat="48.10768" lon="7.28454">
        <ele>266.2</ele>
        <time>2021-06-23T10:01:49Z</time>
      </trkpt>
      <trkpt lat="48.1076" lon="7.28454">
        <ele>267.4</ele>
        <time>2021-06-23T10:01:53Z</time>
      </trkpt>
      <trkpt lat="48.10753" lon="7.28458">
        <ele>268.2</ele>
        <time>2021-06-23T10:01:56Z</time>
      </trkpt>
      <trkpt lat="48.10749" lon="7.28462">
        <ele>269</ele>
        <time>2021-06-23T10:01:58Z</time>
      </trkpt>
      <trkpt lat="48.10738" lon="7.28474">
        <ele>270</ele>
        <time>2021-06-23T10:02:03Z</time>
      </trkpt>
      <trkpt lat="48.10737" lon="7.28476">
        <ele>270.2</ele>
        <time>2021-06-23T10:02:04Z</time>
      </trkpt>
      <trkpt lat="48.1073" lon="7.28483">
        <ele>271.4</ele>
        <time>2021-06-23T10:02:07Z</time>
      </trkpt>
      <trkpt lat="48.10724" lon="7.2849">
        <ele>272</ele>
        <time>2021-06-23T10:02:10Z</time>
      </trkpt>
      <trkpt lat="48.10722" lon="7.28492">
        <ele>272.4</ele>
        <time>2021-06-23T10:02:11Z</time>
      </trkpt>
      <trkpt lat="48.10708" lon="7.2851">
        <ele>273.4</ele>
        <time>2021-06-23T10:02:18Z</time>
      </trkpt>
      <trkpt lat="48.10695" lon="7.28527">
        <ele>274.8</ele>
        <time>2021-06-23T10:02:23Z</time>
      </trkpt>
      <trkpt lat="48.10687" lon="7.28538">
        <ele>275</ele>
        <time>2021-06-23T10:02:26Z</time>
      </trkpt>
      <trkpt lat="48.10668" lon="7.28556">
        <ele>275.2</ele>
        <time>2021-06-23T10:02:32Z</time>
      </trkpt>
      <trkpt lat="48.10651" lon="7.28567">
        <ele>275.2</ele>
        <time>2021-06-23T10:02:36Z</time>
      </trkpt>
      <trkpt lat="48.10643" lon="7.28575">
        <ele>275</ele>
        <time>2021-06-23T10:02:38Z</time>
      </trkpt>
      <trkpt lat="48.10624" lon="7.28588">
        <ele>274.8</ele>
        <time>2021-06-23T10:02:41Z</time>
      </trkpt>
      <trkpt lat="48.10619" lon="7.28591">
        <ele>274.6</ele>
        <time>2021-06-23T10:02:42Z</time>
      </trkpt>
      <trkpt lat="48.10587" lon="7.286">
        <ele>273.2</ele>
        <time>2021-06-23T10:02:46Z</time>
      </trkpt>
      <trkpt lat="48.10581" lon="7.28602">
        <ele>272.8</ele>
        <time>2021-06-23T10:02:47Z</time>
      </trkpt>
      <trkpt lat="48.10566" lon="7.28608">
        <ele>272.2</ele>
        <time>2021-06-23T10:02:49Z</time>
      </trkpt>
      <trkpt lat="48.10539" lon="7.28619">
        <ele>271</ele>
        <time>2021-06-23T10:02:53Z</time>
      </trkpt>
      <trkpt lat="48.10521" lon="7.28627">
        <ele>270.6</ele>
        <time>2021-06-23T10:02:56Z</time>
      </trkpt>
      <trkpt lat="48.10474" lon="7.28653">
        <ele>270.2</ele>
        <time>2021-06-23T10:03:03Z</time>
      </trkpt>
      <trkpt lat="48.10467" lon="7.28657">
        <ele>270</ele>
        <time>2021-06-23T10:03:04Z</time>
      </trkpt>
      <trkpt lat="48.10435" lon="7.28677">
        <ele>269.2</ele>
        <time>2021-06-23T10:03:09Z</time>
      </trkpt>
      <trkpt lat="48.10428" lon="7.2868">
        <ele>269</ele>
        <time>2021-06-23T10:03:10Z</time>
      </trkpt>
      <trkpt lat="48.10391" lon="7.28698">
        <ele>269.2</ele>
        <time>2021-06-23T10:03:16Z</time>
      </trkpt>
      <trkpt lat="48.10385" lon="7.28701">
        <ele>269.2</ele>
        <time>2021-06-23T10:03:17Z</time>
      </trkpt>
      <trkpt lat="48.10365" lon="7.2871">
        <ele>269.8</ele>
        <time>2021-06-23T10:03:21Z</time>
      </trkpt>
      <trkpt lat="48.10356" lon="7.28715">
        <ele>270.4</ele>
        <time>2021-06-23T10:03:23Z</time>
      </trkpt>
      <trkpt lat="48.10352" lon="7.28717">
        <ele>270.6</ele>
        <time>2021-06-23T10:03:24Z</time>
      </trkpt>
      <trkpt lat="48.10344" lon="7.28721">
        <ele>271.4</ele>
        <time>2021-06-23T10:03:26Z</time>
      </trkpt>
      <trkpt lat="48.1034" lon="7.28723">
        <ele>271.8</ele>
        <time>2021-06-23T10:03:27Z</time>
      </trkpt>
      <trkpt lat="48.10333" lon="7.28727">
        <ele>273</ele>
        <time>2021-06-23T10:03:29Z</time>
      </trkpt>
      <trkpt lat="48.10328" lon="7.2873">
        <ele>273.2</ele>
        <time>2021-06-23T10:03:30Z</time>
      </trkpt>
      <trkpt lat="48.1032" lon="7.28735">
        <ele>273.8</ele>
        <time>2021-06-23T10:03:32Z</time>
      </trkpt>
      <trkpt lat="48.10316" lon="7.28737">
        <ele>274</ele>
        <time>2021-06-23T10:03:33Z</time>
      </trkpt>
      <trkpt lat="48.10312" lon="7.28738">
        <ele>274.4</ele>
        <time>2021-06-23T10:03:34Z</time>
      </trkpt>
      <trkpt lat="48.10306" lon="7.28744">
        <ele>275.4</ele>
        <time>2021-06-23T10:03:36Z</time>
      </trkpt>
      <trkpt lat="48.10302" lon="7.28747">
        <ele>275.6</ele>
        <time>2021-06-23T10:03:37Z</time>
      </trkpt>
      <trkpt lat="48.10296" lon="7.28762">
        <ele>276</ele>
        <time>2021-06-23T10:03:40Z</time>
      </trkpt>
      <trkpt lat="48.10295" lon="7.28769">
        <ele>276.2</ele>
        <time>2021-06-23T10:03:41Z</time>
      </trkpt>
      <trkpt lat="48.10293" lon="7.28788">
        <ele>276.2</ele>
        <time>2021-06-23T10:03:43Z</time>
      </trkpt>
      <trkpt lat="48.1029" lon="7.28798">
        <ele>276.2</ele>
        <time>2021-06-23T10:03:44Z</time>
      </trkpt>
      <trkpt lat="48.10285" lon="7.28805">
        <ele>276</ele>
        <time>2021-06-23T10:03:45Z</time>
      </trkpt>
      <trkpt lat="48.10279" lon="7.28809">
        <ele>275.8</ele>
        <time>2021-06-23T10:03:46Z</time>
      </trkpt>
      <trkpt lat="48.10271" lon="7.2881">
        <ele>275.2</ele>
        <time>2021-06-23T10:03:47Z</time>
      </trkpt>
      <trkpt lat="48.10249" lon="7.28811">
        <ele>274</ele>
        <time>2021-06-23T10:03:50Z</time>
      </trkpt>
      <trkpt lat="48.10234" lon="7.28811">
        <ele>272.8</ele>
        <time>2021-06-23T10:03:52Z</time>
      </trkpt>
      <trkpt lat="48.10205" lon="7.28808">
        <ele>271.8</ele>
        <time>2021-06-23T10:03:55Z</time>
      </trkpt>
      <trkpt lat="48.10196" lon="7.28806">
        <ele>271.6</ele>
        <time>2021-06-23T10:03:56Z</time>
      </trkpt>
      <trkpt lat="48.10167" lon="7.28798">
        <ele>270</ele>
        <time>2021-06-23T10:03:59Z</time>
      </trkpt>
      <trkpt lat="48.10148" lon="7.28792">
        <ele>268.4</ele>
        <time>2021-06-23T10:04:01Z</time>
      </trkpt>
      <trkpt lat="48.10129" lon="7.28786">
        <ele>267</ele>
        <time>2021-06-23T10:04:03Z</time>
      </trkpt>
      <trkpt lat="48.10111" lon="7.28781">
        <ele>265.6</ele>
        <time>2021-06-23T10:04:05Z</time>
      </trkpt>
      <trkpt lat="48.10103" lon="7.28779">
        <ele>264</ele>
        <time>2021-06-23T10:04:06Z</time>
      </trkpt>
      <trkpt lat="48.10093" lon="7.28777">
        <ele>263.2</ele>
        <time>2021-06-23T10:04:07Z</time>
      </trkpt>
      <trkpt lat="48.10086" lon="7.28776">
        <ele>261.8</ele>
        <time>2021-06-23T10:04:08Z</time>
      </trkpt>
      <trkpt lat="48.10074" lon="7.28774">
        <ele>259.4</ele>
        <time>2021-06-23T10:04:10Z</time>
      </trkpt>
      <trkpt lat="48.10069" lon="7.28772">
        <ele>258.2</ele>
        <time>2021-06-23T10:04:11Z</time>
      </trkpt>
      <trkpt lat="48.10064" lon="7.28766">
        <ele>257</ele>
        <time>2021-06-23T10:04:13Z</time>
      </trkpt>
      <trkpt lat="48.10062" lon="7.28766">
        <ele>256.4</ele>
        <time>2021-06-23T10:04:14Z</time>
      </trkpt>
      <trkpt lat="48.10052" lon="7.28775">
        <ele>255.6</ele>
        <time>2021-06-23T10:04:17Z</time>
      </trkpt>
      <trkpt lat="48.10047" lon="7.28775">
        <ele>255.2</ele>
        <time>2021-06-23T10:04:18Z</time>
      </trkpt>
      <trkpt lat="48.10022" lon="7.28772">
        <ele>255</ele>
        <time>2021-06-23T10:04:23Z</time>
      </trkpt>
      <trkpt lat="48.10016" lon="7.2877">
        <ele>254.8</ele>
        <time>2021-06-23T10:04:24Z</time>
      </trkpt>
      <trkpt lat="48.10009" lon="7.28768">
        <ele>254.4</ele>
        <time>2021-06-23T10:04:25Z</time>
      </trkpt>
      <trkpt lat="48.09993" lon="7.28761">
        <ele>254</ele>
        <time>2021-06-23T10:04:28Z</time>
      </trkpt>
      <trkpt lat="48.09964" lon="7.28751">
        <ele>253.4</ele>
        <time>2021-06-23T10:04:33Z</time>
      </trkpt>
      <trkpt lat="48.09945" lon="7.28748">
        <ele>253.4</ele>
        <time>2021-06-23T10:04:36Z</time>
      </trkpt>
      <trkpt lat="48.09934" lon="7.28754">
        <ele>253.4</ele>
        <time>2021-06-23T10:04:38Z</time>
      </trkpt>
      <trkpt lat="48.09929" lon="7.28758">
        <ele>253.4</ele>
        <time>2021-06-23T10:04:39Z</time>
      </trkpt>
      <trkpt lat="48.09904" lon="7.28783">
        <ele>253.4</ele>
        <time>2021-06-23T10:04:44Z</time>
      </trkpt>
      <trkpt lat="48.09898" lon="7.28787">
        <ele>253.4</ele>
        <time>2021-06-23T10:04:45Z</time>
      </trkpt>
      <trkpt lat="48.09888" lon="7.28795">
        <ele>253.6</ele>
        <time>2021-06-23T10:04:47Z</time>
      </trkpt>
      <trkpt lat="48.09865" lon="7.28804">
        <ele>254</ele>
        <time>2021-06-23T10:04:51Z</time>
      </trkpt>
      <trkpt lat="48.09837" lon="7.28808">
        <ele>254.2</ele>
        <time>2021-06-23T10:04:56Z</time>
      </trkpt>
      <trkpt lat="48.0983" lon="7.28807">
        <ele>254.2</ele>
        <time>2021-06-23T10:04:57Z</time>
      </trkpt>
      <trkpt lat="48.0979" lon="7.28801">
        <ele>254.6</ele>
        <time>2021-06-23T10:05:04Z</time>
      </trkpt>
      <trkpt lat="48.09784" lon="7.288">
        <ele>254.6</ele>
        <time>2021-06-23T10:05:05Z</time>
      </trkpt>
      <trkpt lat="48.09756" lon="7.288">
        <ele>255.2</ele>
        <time>2021-06-23T10:05:10Z</time>
      </trkpt>
      <trkpt lat="48.09752" lon="7.28801">
        <ele>255.4</ele>
        <time>2021-06-23T10:05:11Z</time>
      </trkpt>
      <trkpt lat="48.09747" lon="7.28803">
        <ele>255.6</ele>
        <time>2021-06-23T10:05:12Z</time>
      </trkpt>
      <trkpt lat="48.09736" lon="7.28809">
        <ele>256</ele>
        <time>2021-06-23T10:05:14Z</time>
      </trkpt>
      <trkpt lat="48.09731" lon="7.28811">
        <ele>256.2</ele>
        <time>2021-06-23T10:05:15Z</time>
      </trkpt>
      <trkpt lat="48.09726" lon="7.28814">
        <ele>256</ele>
        <time>2021-06-23T10:05:16Z</time>
      </trkpt>
      <trkpt lat="48.097" lon="7.28827">
        <ele>256.6</ele>
        <time>2021-06-23T10:05:22Z</time>
      </trkpt>
      <trkpt lat="48.0969" lon="7.28832">
        <ele>257.2</ele>
        <time>2021-06-23T10:05:24Z</time>
      </trkpt>
      <trkpt lat="48.09668" lon="7.28839">
        <ele>258</ele>
        <time>2021-06-23T10:05:29Z</time>
      </trkpt>
      <trkpt lat="48.09654" lon="7.28844">
        <ele>258.4</ele>
        <time>2021-06-23T10:05:32Z</time>
      </trkpt>
      <trkpt lat="48.09646" lon="7.28845">
        <ele>258.6</ele>
        <time>2021-06-23T10:05:34Z</time>
      </trkpt>
      <trkpt lat="48.09636" lon="7.28846">
        <ele>259</ele>
        <time>2021-06-23T10:05:36Z</time>
      </trkpt>
      <trkpt lat="48.09632" lon="7.28846">
        <ele>259.4</ele>
        <time>2021-06-23T10:05:37Z</time>
      </trkpt>
      <trkpt lat="48.09619" lon="7.28848">
        <ele>259.8</ele>
        <time>2021-06-23T10:05:40Z</time>
      </trkpt>
      <trkpt lat="48.09601" lon="7.28848">
        <ele>260.2</ele>
        <time>2021-06-23T10:05:44Z</time>
      </trkpt>
      <trkpt lat="48.09587" lon="7.28848">
        <ele>260.4</ele>
        <time>2021-06-23T10:05:47Z</time>
      </trkpt>
      <trkpt lat="48.09565" lon="7.28845">
        <ele>261</ele>
        <time>2021-06-23T10:05:52Z</time>
      </trkpt>
      <trkpt lat="48.09538" lon="7.28839">
        <ele>261.4</ele>
        <time>2021-06-23T10:05:58Z</time>
      </trkpt>
      <trkpt lat="48.09529" lon="7.28837">
        <ele>261.6</ele>
        <time>2021-06-23T10:06:00Z</time>
      </trkpt>
      <trkpt lat="48.09508" lon="7.28832">
        <ele>262.6</ele>
        <time>2021-06-23T10:06:05Z</time>
      </trkpt>
      <trkpt lat="48.09499" lon="7.28829">
        <ele>263.2</ele>
        <time>2021-06-23T10:06:07Z</time>
      </trkpt>
      <trkpt lat="48.09488" lon="7.28822">
        <ele>263.4</ele>
        <time>2021-06-23T10:06:11Z</time>
      </trkpt>
      <trkpt lat="48.09482" lon="7.28816">
        <ele>263.8</ele>
        <time>2021-06-23T10:06:13Z</time>
      </trkpt>
      <trkpt lat="48.09472" lon="7.28806">
        <ele>264</ele>
        <time>2021-06-23T10:06:16Z</time>
      </trkpt>
      <trkpt lat="48.09449" lon="7.28774">
        <ele>264</ele>
        <time>2021-06-23T10:06:23Z</time>
      </trkpt>
      <trkpt lat="48.09438" lon="7.28757">
        <ele>263.8</ele>
        <time>2021-06-23T10:06:26Z</time>
      </trkpt>
      <trkpt lat="48.09426" lon="7.28741">
        <ele>263.6</ele>
        <time>2021-06-23T10:06:29Z</time>
      </trkpt>
      <trkpt lat="48.09401" lon="7.28691">
        <ele>262.6</ele>
        <time>2021-06-23T10:06:35Z</time>
      </trkpt>
      <trkpt lat="48.09389" lon="7.28664">
        <ele>261.2</ele>
        <time>2021-06-23T10:06:38Z</time>
      </trkpt>
      <trkpt lat="48.09378" lon="7.28643">
        <ele>260</ele>
        <time>2021-06-23T10:06:40Z</time>
      </trkpt>
      <trkpt lat="48.09373" lon="7.28634">
        <ele>259.4</ele>
        <time>2021-06-23T10:06:41Z</time>
      </trkpt>
      <trkpt lat="48.09367" lon="7.28627">
        <ele>258.8</ele>
        <time>2021-06-23T10:06:42Z</time>
      </trkpt>
      <trkpt lat="48.0936" lon="7.28619">
        <ele>258.4</ele>
        <time>2021-06-23T10:06:43Z</time>
      </trkpt>
      <trkpt lat="48.09342" lon="7.28606">
        <ele>258</ele>
        <time>2021-06-23T10:06:45Z</time>
      </trkpt>
      <trkpt lat="48.09335" lon="7.28602">
        <ele>257.8</ele>
        <time>2021-06-23T10:06:46Z</time>
      </trkpt>
      <trkpt lat="48.09318" lon="7.28595">
        <ele>255.6</ele>
        <time>2021-06-23T10:06:48Z</time>
      </trkpt>
      <trkpt lat="48.0931" lon="7.28591">
        <ele>254.4</ele>
        <time>2021-06-23T10:06:49Z</time>
      </trkpt>
      <trkpt lat="48.09292" lon="7.28584">
        <ele>252.4</ele>
        <time>2021-06-23T10:06:51Z</time>
      </trkpt>
      <trkpt lat="48.09284" lon="7.28581">
        <ele>251.6</ele>
        <time>2021-06-23T10:06:52Z</time>
      </trkpt>
      <trkpt lat="48.09276" lon="7.28579">
        <ele>250.2</ele>
        <time>2021-06-23T10:06:53Z</time>
      </trkpt>
      <trkpt lat="48.0926" lon="7.28575">
        <ele>248.8</ele>
        <time>2021-06-23T10:06:55Z</time>
      </trkpt>
      <trkpt lat="48.09252" lon="7.28573">
        <ele>247.6</ele>
        <time>2021-06-23T10:06:56Z</time>
      </trkpt>
      <trkpt lat="48.09239" lon="7.28569">
        <ele>244.6</ele>
        <time>2021-06-23T10:06:58Z</time>
      </trkpt>
      <trkpt lat="48.09233" lon="7.28568">
        <ele>243.6</ele>
        <time>2021-06-23T10:06:59Z</time>
      </trkpt>
      <trkpt lat="48.09228" lon="7.28569">
        <ele>242.2</ele>
        <time>2021-06-23T10:07:00Z</time>
      </trkpt>
      <trkpt lat="48.09213" lon="7.28571">
        <ele>240.6</ele>
        <time>2021-06-23T10:07:02Z</time>
      </trkpt>
      <trkpt lat="48.09198" lon="7.28575">
        <ele>239.2</ele>
        <time>2021-06-23T10:07:04Z</time>
      </trkpt>
      <trkpt lat="48.09179" lon="7.2858">
        <ele>237.8</ele>
        <time>2021-06-23T10:07:06Z</time>
      </trkpt>
      <trkpt lat="48.0917" lon="7.28583">
        <ele>236.6</ele>
        <time>2021-06-23T10:07:07Z</time>
      </trkpt>
      <trkpt lat="48.09154" lon="7.28588">
        <ele>234.6</ele>
        <time>2021-06-23T10:07:09Z</time>
      </trkpt>
      <trkpt lat="48.09135" lon="7.28594">
        <ele>233.4</ele>
        <time>2021-06-23T10:07:11Z</time>
      </trkpt>
      <trkpt lat="48.09119" lon="7.28599">
        <ele>232.8</ele>
        <time>2021-06-23T10:07:13Z</time>
      </trkpt>
      <trkpt lat="48.09111" lon="7.28602">
        <ele>232.4</ele>
        <time>2021-06-23T10:07:14Z</time>
      </trkpt>
      <trkpt lat="48.09104" lon="7.28604">
        <ele>232.2</ele>
        <time>2021-06-23T10:07:15Z</time>
      </trkpt>
      <trkpt lat="48.09091" lon="7.28608">
        <ele>231.6</ele>
        <time>2021-06-23T10:07:17Z</time>
      </trkpt>
      <trkpt lat="48.09084" lon="7.28609">
        <ele>231.4</ele>
        <time>2021-06-23T10:07:18Z</time>
      </trkpt>
      <trkpt lat="48.09074" lon="7.28602">
        <ele>231</ele>
        <time>2021-06-23T10:07:20Z</time>
      </trkpt>
      <trkpt lat="48.09071" lon="7.28595">
        <ele>230.8</ele>
        <time>2021-06-23T10:07:21Z</time>
      </trkpt>
      <trkpt lat="48.09066" lon="7.28579">
        <ele>230.8</ele>
        <time>2021-06-23T10:07:23Z</time>
      </trkpt>
      <trkpt lat="48.09057" lon="7.2857">
        <ele>230.6</ele>
        <time>2021-06-23T10:07:25Z</time>
      </trkpt>
      <trkpt lat="48.09047" lon="7.28562">
        <ele>230.4</ele>
        <time>2021-06-23T10:07:27Z</time>
      </trkpt>
      <trkpt lat="48.09039" lon="7.2855">
        <ele>230.4</ele>
        <time>2021-06-23T10:07:29Z</time>
      </trkpt>
      <trkpt lat="48.09035" lon="7.28544">
        <ele>230.2</ele>
        <time>2021-06-23T10:07:30Z</time>
      </trkpt>
      <trkpt lat="48.09011" lon="7.28509">
        <ele>230.4</ele>
        <time>2021-06-23T10:07:36Z</time>
      </trkpt>
      <trkpt lat="48.08997" lon="7.28491">
        <ele>230.4</ele>
        <time>2021-06-23T10:07:39Z</time>
      </trkpt>
      <trkpt lat="48.0899" lon="7.28481">
        <ele>230.6</ele>
        <time>2021-06-23T10:07:41Z</time>
      </trkpt>
      <trkpt lat="48.08982" lon="7.28469">
        <ele>230.6</ele>
        <time>2021-06-23T10:07:43Z</time>
      </trkpt>
      <trkpt lat="48.08974" lon="7.28447">
        <ele>230.6</ele>
        <time>2021-06-23T10:07:46Z</time>
      </trkpt>
      <trkpt lat="48.08963" lon="7.28396">
        <ele>230.8</ele>
        <time>2021-06-23T10:07:53Z</time>
      </trkpt>
      <trkpt lat="48.0896" lon="7.28388">
        <ele>230.8</ele>
        <time>2021-06-23T10:07:54Z</time>
      </trkpt>
      <trkpt lat="48.08949" lon="7.28362">
        <ele>230.8</ele>
        <time>2021-06-23T10:07:58Z</time>
      </trkpt>
      <trkpt lat="48.08934" lon="7.28323">
        <ele>231.4</ele>
        <time>2021-06-23T10:08:04Z</time>
      </trkpt>
      <trkpt lat="48.08932" lon="7.28315">
        <ele>231.6</ele>
        <time>2021-06-23T10:08:05Z</time>
      </trkpt>
      <trkpt lat="48.08921" lon="7.2827">
        <ele>232</ele>
        <time>2021-06-23T10:08:11Z</time>
      </trkpt>
      <trkpt lat="48.08917" lon="7.28255">
        <ele>232</ele>
        <time>2021-06-23T10:08:13Z</time>
      </trkpt>
      <trkpt lat="48.08907" lon="7.28235">
        <ele>232.2</ele>
        <time>2021-06-23T10:08:16Z</time>
      </trkpt>
      <trkpt lat="48.08882" lon="7.28206">
        <ele>232.2</ele>
        <time>2021-06-23T10:08:22Z</time>
      </trkpt>
      <trkpt lat="48.08854" lon="7.28173">
        <ele>232.4</ele>
        <time>2021-06-23T10:08:29Z</time>
      </trkpt>
      <trkpt lat="48.0885" lon="7.28169">
        <ele>232.4</ele>
        <time>2021-06-23T10:08:30Z</time>
      </trkpt>
      <trkpt lat="48.08845" lon="7.28164">
        <ele>232.4</ele>
        <time>2021-06-23T10:08:31Z</time>
      </trkpt>
      <trkpt lat="48.08831" lon="7.28156">
        <ele>232.2</ele>
        <time>2021-06-23T10:08:34Z</time>
      </trkpt>
      <trkpt lat="48.08819" lon="7.2815">
        <ele>232.2</ele>
        <time>2021-06-23T10:08:36Z</time>
      </trkpt>
      <trkpt lat="48.088" lon="7.28137">
        <ele>232.2</ele>
        <time>2021-06-23T10:08:40Z</time>
      </trkpt>
      <trkpt lat="48.08795" lon="7.28133">
        <ele>232.2</ele>
        <time>2021-06-23T10:08:41Z</time>
      </trkpt>
      <trkpt lat="48.0876" lon="7.28101">
        <ele>232.4</ele>
        <time>2021-06-23T10:08:49Z</time>
      </trkpt>
      <trkpt lat="48.08725" lon="7.28065">
        <ele>232.8</ele>
        <time>2021-06-23T10:08:57Z</time>
      </trkpt>
      <trkpt lat="48.08721" lon="7.2806">
        <ele>232.8</ele>
        <time>2021-06-23T10:08:58Z</time>
      </trkpt>
      <trkpt lat="48.087" lon="7.28036">
        <ele>233.2</ele>
        <time>2021-06-23T10:09:03Z</time>
      </trkpt>
      <trkpt lat="48.08696" lon="7.2803">
        <ele>233.2</ele>
        <time>2021-06-23T10:09:04Z</time>
      </trkpt>
      <trkpt lat="48.0869" lon="7.28017">
        <ele>233.2</ele>
        <time>2021-06-23T10:09:06Z</time>
      </trkpt>
      <trkpt lat="48.08682" lon="7.2801">
        <ele>233.2</ele>
        <time>2021-06-23T10:09:08Z</time>
      </trkpt>
      <trkpt lat="48.08672" lon="7.28002">
        <ele>233.2</ele>
        <time>2021-06-23T10:09:10Z</time>
      </trkpt>
      <trkpt lat="48.08654" lon="7.27986">
        <ele>233.4</ele>
        <time>2021-06-23T10:09:14Z</time>
      </trkpt>
      <trkpt lat="48.08638" lon="7.27968">
        <ele>233.8</ele>
        <time>2021-06-23T10:09:19Z</time>
      </trkpt>
      <trkpt lat="48.08636" lon="7.27965">
        <ele>234</ele>
        <time>2021-06-23T10:09:20Z</time>
      </trkpt>
      <trkpt lat="48.08631" lon="7.27958">
        <ele>234.4</ele>
        <time>2021-06-23T10:09:24Z</time>
      </trkpt>
      <trkpt lat="48.08631" lon="7.27958">
        <ele>234.4</ele>
        <time>2021-06-23T10:09:26Z</time>
      </trkpt>
      <trkpt lat="48.08628" lon="7.27956">
        <ele>234</ele>
        <time>2021-06-23T10:09:53Z</time>
      </trkpt>
      <trkpt lat="48.08626" lon="7.27954">
        <ele>234</ele>
        <time>2021-06-23T10:09:54Z</time>
      </trkpt>
      <trkpt lat="48.08624" lon="7.27953">
        <ele>234</ele>
        <time>2021-06-23T10:09:55Z</time>
      </trkpt>
      <trkpt lat="48.08614" lon="7.27959">
        <ele>234</ele>
        <time>2021-06-23T10:09:58Z</time>
      </trkpt>
      <trkpt lat="48.08607" lon="7.27968">
        <ele>234</ele>
        <time>2021-06-23T10:10:00Z</time>
      </trkpt>
      <trkpt lat="48.08594" lon="7.2799">
        <ele>234.2</ele>
        <time>2021-06-23T10:10:04Z</time>
      </trkpt>
      <trkpt lat="48.08589" lon="7.27995">
        <ele>234.4</ele>
        <time>2021-06-23T10:10:06Z</time>
      </trkpt>
      <trkpt lat="48.08586" lon="7.27994">
        <ele>234.4</ele>
        <time>2021-06-23T10:10:07Z</time>
      </trkpt>
      <trkpt lat="48.08585" lon="7.27976">
        <ele>234.6</ele>
        <time>2021-06-23T10:10:11Z</time>
      </trkpt>
      <trkpt lat="48.08582" lon="7.27945">
        <ele>234.6</ele>
        <time>2021-06-23T10:10:16Z</time>
      </trkpt>
      <trkpt lat="48.0858" lon="7.27931">
        <ele>234.6</ele>
        <time>2021-06-23T10:10:18Z</time>
      </trkpt>
      <trkpt lat="48.08576" lon="7.27917">
        <ele>234.6</ele>
        <time>2021-06-23T10:10:20Z</time>
      </trkpt>
      <trkpt lat="48.08575" lon="7.27909">
        <ele>234.6</ele>
        <time>2021-06-23T10:10:21Z</time>
      </trkpt>
      <trkpt lat="48.08568" lon="7.27864">
        <ele>235</ele>
        <time>2021-06-23T10:10:27Z</time>
      </trkpt>
      <trkpt lat="48.08564" lon="7.27832">
        <ele>235.2</ele>
        <time>2021-06-23T10:10:31Z</time>
      </trkpt>
      <trkpt lat="48.08561" lon="7.27808">
        <ele>235</ele>
        <time>2021-06-23T10:10:34Z</time>
      </trkpt>
      <trkpt lat="48.08555" lon="7.27762">
        <ele>235</ele>
        <time>2021-06-23T10:10:40Z</time>
      </trkpt>
      <trkpt lat="48.08552" lon="7.27733">
        <ele>235</ele>
        <time>2021-06-23T10:10:44Z</time>
      </trkpt>
      <trkpt lat="48.0855" lon="7.27713">
        <ele>235.4</ele>
        <time>2021-06-23T10:10:47Z</time>
      </trkpt>
      <trkpt lat="48.08548" lon="7.27692">
        <ele>235.8</ele>
        <time>2021-06-23T10:10:50Z</time>
      </trkpt>
      <trkpt lat="48.08544" lon="7.27641">
        <ele>235.8</ele>
        <time>2021-06-23T10:10:56Z</time>
      </trkpt>
      <trkpt lat="48.08539" lon="7.27571">
        <ele>236</ele>
        <time>2021-06-23T10:11:05Z</time>
      </trkpt>
      <trkpt lat="48.08538" lon="7.27529">
        <ele>236.2</ele>
        <time>2021-06-23T10:11:11Z</time>
      </trkpt>
      <trkpt lat="48.08536" lon="7.27472">
        <ele>236.4</ele>
        <time>2021-06-23T10:11:19Z</time>
      </trkpt>
      <trkpt lat="48.08535" lon="7.2741">
        <ele>236.2</ele>
        <time>2021-06-23T10:11:27Z</time>
      </trkpt>
      <trkpt lat="48.08535" lon="7.27402">
        <ele>236.4</ele>
        <time>2021-06-23T10:11:28Z</time>
      </trkpt>
      <trkpt lat="48.08536" lon="7.2738">
        <ele>236.6</ele>
        <time>2021-06-23T10:11:31Z</time>
      </trkpt>
      <trkpt lat="48.08536" lon="7.27343">
        <ele>236.8</ele>
        <time>2021-06-23T10:11:36Z</time>
      </trkpt>
      <trkpt lat="48.08535" lon="7.273">
        <ele>236.8</ele>
        <time>2021-06-23T10:11:42Z</time>
      </trkpt>
      <trkpt lat="48.08535" lon="7.27286">
        <ele>237</ele>
        <time>2021-06-23T10:11:44Z</time>
      </trkpt>
      <trkpt lat="48.08532" lon="7.27262">
        <ele>237.4</ele>
        <time>2021-06-23T10:11:49Z</time>
      </trkpt>
      <trkpt lat="48.08525" lon="7.27245">
        <ele>237.6</ele>
        <time>2021-06-23T10:11:54Z</time>
      </trkpt>
      <trkpt lat="48.08514" lon="7.27234">
        <ele>237.8</ele>
        <time>2021-06-23T10:11:59Z</time>
      </trkpt>
      <trkpt lat="48.08498" lon="7.27227">
        <ele>237.6</ele>
        <time>2021-06-23T10:12:04Z</time>
      </trkpt>
      <trkpt lat="48.08481" lon="7.27219">
        <ele>237.4</ele>
        <time>2021-06-23T10:12:08Z</time>
      </trkpt>
      <trkpt lat="48.08475" lon="7.27214">
        <ele>237.4</ele>
        <time>2021-06-23T10:12:10Z</time>
      </trkpt>
      <trkpt lat="48.08473" lon="7.27201">
        <ele>237.4</ele>
        <time>2021-06-23T10:12:12Z</time>
      </trkpt>
      <trkpt lat="48.08474" lon="7.27194">
        <ele>237.6</ele>
        <time>2021-06-23T10:12:13Z</time>
      </trkpt>
      <trkpt lat="48.08475" lon="7.27187">
        <ele>237.6</ele>
        <time>2021-06-23T10:12:14Z</time>
      </trkpt>
      <trkpt lat="48.08481" lon="7.2716">
        <ele>238</ele>
        <time>2021-06-23T10:12:18Z</time>
      </trkpt>
      <trkpt lat="48.08483" lon="7.27152">
        <ele>238</ele>
        <time>2021-06-23T10:12:19Z</time>
      </trkpt>
      <trkpt lat="48.08493" lon="7.27119">
        <ele>238</ele>
        <time>2021-06-23T10:12:24Z</time>
      </trkpt>
      <trkpt lat="48.08496" lon="7.27106">
        <ele>237.8</ele>
        <time>2021-06-23T10:12:26Z</time>
      </trkpt>
      <trkpt lat="48.08501" lon="7.27081">
        <ele>237.8</ele>
        <time>2021-06-23T10:12:30Z</time>
      </trkpt>
      <trkpt lat="48.08499" lon="7.27075">
        <ele>237.8</ele>
        <time>2021-06-23T10:12:31Z</time>
      </trkpt>
      <trkpt lat="48.08497" lon="7.27071">
        <ele>237.8</ele>
        <time>2021-06-23T10:12:32Z</time>
      </trkpt>
      <trkpt lat="48.08491" lon="7.27067">
        <ele>238.2</ele>
        <time>2021-06-23T10:12:34Z</time>
      </trkpt>
      <trkpt lat="48.08482" lon="7.27058">
        <ele>238.6</ele>
        <time>2021-06-23T10:12:37Z</time>
      </trkpt>
      <trkpt lat="48.0848" lon="7.27053">
        <ele>238.8</ele>
        <time>2021-06-23T10:12:38Z</time>
      </trkpt>
      <trkpt lat="48.08478" lon="7.27049">
        <ele>238.8</ele>
        <time>2021-06-23T10:12:39Z</time>
      </trkpt>
      <trkpt lat="48.08471" lon="7.27046">
        <ele>239</ele>
        <time>2021-06-23T10:12:41Z</time>
      </trkpt>
      <trkpt lat="48.08442" lon="7.27046">
        <ele>239.2</ele>
        <time>2021-06-23T10:12:49Z</time>
      </trkpt>
      <trkpt lat="48.08435" lon="7.27047">
        <ele>239.6</ele>
        <time>2021-06-23T10:12:53Z</time>
      </trkpt>
      <trkpt lat="48.08435" lon="7.27047">
        <ele>239.4</ele>
        <time>2021-06-23T10:12:55Z</time>
      </trkpt>
    </trkseg>
  </trk>
</gpx>